<?xml version="1.0" encoding="utf-8"?>
<gpx xmlns:tc2="http://www.garmin.com/xmlschemas/TrainingCenterDatabase/v2" xmlns:xsi="http://www.w3.org/2001/XMLSchema-instance" xmlns:tp1="http://www.garmin.com/xmlschemas/TrackPointExtension/v1" xmlns="http://www.topografix.com/GPX/1/1" version="1.1" creator="TC2 to GPX11 XSLT stylesheet" xsi:schemaLocation="http://www.topografix.com/GPX/1/1 http://www.topografix.com/GPX/1/1/gpx.xsd http://www.garmin.com/xmlschemas/TrackPointExtension/v1 http://www.garmin.com/xmlschemas/TrackPointExtensionv1.xsd">
<trk>
<name>2011-07-31T13:07:14Z</name>
<trkseg>
<trkpt lat="51.9686617" lon="7.4239640">
<ele>104.9210205</ele>
<time>2011-07-31T13:07:14Z</time>
<extensions>
<tp1:TrackPointExtension>
<tp1:hr>86</tp1:hr>
</tp1:TrackPointExtension>
</extensions>
</trkpt>
<trkpt lat="51.9686441" lon="7.4239645">
<ele>104.9210205</ele>
<time>2011-07-31T13:07:17Z</time>
<extensions>
<tp1:TrackPointExtension>
<tp1:hr>85</tp1:hr>
</tp1:TrackPointExtension>
</extensions>
</trkpt>
<trkpt lat="51.9685781" lon="7.4238645">
<ele>101.5563965</ele>
<time>2011-07-31T13:07:21Z</time>
<extensions>
<tp1:TrackPointExtension>
<tp1:hr>86</tp1:hr>
</tp1:TrackPointExtension>
</extensions>
</trkpt>
<trkpt lat="51.9684815" lon="7.4236422">
<ele>101.0756836</ele>
<time>2011-07-31T13:07:25Z</time>
<extensions>
<tp1:TrackPointExtension>
<tp1:hr>92</tp1:hr>
</tp1:TrackPointExtension>
</extensions>
</trkpt>
<trkpt lat="51.9684229" lon="7.4234180">
<ele>98.6724854</ele>
<time>2011-07-31T13:07:28Z</time>
<extensions>
<tp1:TrackPointExtension>
<tp1:hr>98</tp1:hr>
</tp1:TrackPointExtension>
</extensions>
</trkpt>
<trkpt lat="51.9683996" lon="7.4233356">
<ele>95.3077393</ele>
<time>2011-07-31T13:07:29Z</time>
<extensions>
<tp1:TrackPointExtension>
<tp1:hr>104</tp1:hr>
</tp1:TrackPointExtension>
</extensions>
</trkpt>
<trkpt lat="51.9683740" lon="7.4232577">
<ele>92.4239502</ele>
<time>2011-07-31T13:07:30Z</time>
<extensions>
<tp1:TrackPointExtension>
<tp1:hr>105</tp1:hr>
</tp1:TrackPointExtension>
</extensions>
</trkpt>
<trkpt lat="51.9682199" lon="7.4229025">
<ele>83.2913818</ele>
<time>2011-07-31T13:07:35Z</time>
<extensions>
<tp1:TrackPointExtension>
<tp1:hr>108</tp1:hr>
</tp1:TrackPointExtension>
</extensions>
</trkpt>
<trkpt lat="51.9681711" lon="7.4227582">
<ele>81.3687744</ele>
<time>2011-07-31T13:07:37Z</time>
<extensions>
<tp1:TrackPointExtension>
<tp1:hr>113</tp1:hr>
</tp1:TrackPointExtension>
</extensions>
</trkpt>
<trkpt lat="51.9679785" lon="7.4222582">
<ele>76.0814209</ele>
<time>2011-07-31T13:07:44Z</time>
<extensions>
<tp1:TrackPointExtension>
<tp1:hr>116</tp1:hr>
</tp1:TrackPointExtension>
</extensions>
</trkpt>
<trkpt lat="51.9677603" lon="7.4217625">
<ele>73.6782227</ele>
<time>2011-07-31T13:07:51Z</time>
<extensions>
<tp1:TrackPointExtension>
<tp1:hr>122</tp1:hr>
</tp1:TrackPointExtension>
</extensions>
</trkpt>
<trkpt lat="51.9676540" lon="7.4215739">
<ele>73.1976318</ele>
<time>2011-07-31T13:07:54Z</time>
<extensions>
<tp1:TrackPointExtension>
<tp1:hr>124</tp1:hr>
</tp1:TrackPointExtension>
</extensions>
</trkpt>
<trkpt lat="51.9674807" lon="7.4210616">
<ele>70.3134766</ele>
<time>2011-07-31T13:08:01Z</time>
<extensions>
<tp1:TrackPointExtension>
<tp1:hr>130</tp1:hr>
</tp1:TrackPointExtension>
</extensions>
</trkpt>
<trkpt lat="51.9673412" lon="7.4207228">
<ele>70.7941895</ele>
<time>2011-07-31T13:08:06Z</time>
<extensions>
<tp1:TrackPointExtension>
<tp1:hr>132</tp1:hr>
</tp1:TrackPointExtension>
</extensions>
</trkpt>
<trkpt lat="51.9673372" lon="7.4204498">
<ele>70.3134766</ele>
<time>2011-07-31T13:08:10Z</time>
<extensions>
<tp1:TrackPointExtension>
<tp1:hr>131</tp1:hr>
</tp1:TrackPointExtension>
</extensions>
</trkpt>
<trkpt lat="51.9674051" lon="7.4203424">
<ele>71.2749023</ele>
<time>2011-07-31T13:08:12Z</time>
<extensions>
<tp1:TrackPointExtension>
<tp1:hr>130</tp1:hr>
</tp1:TrackPointExtension>
</extensions>
</trkpt>
<trkpt lat="51.9677532" lon="7.4199970">
<ele>73.1976318</ele>
<time>2011-07-31T13:08:19Z</time>
<extensions>
<tp1:TrackPointExtension>
<tp1:hr>131</tp1:hr>
</tp1:TrackPointExtension>
</extensions>
</trkpt>
<trkpt lat="51.9682907" lon="7.4194452">
<ele>74.6395264</ele>
<time>2011-07-31T13:08:29Z</time>
<extensions>
<tp1:TrackPointExtension>
<tp1:hr>134</tp1:hr>
</tp1:TrackPointExtension>
</extensions>
</trkpt>
<trkpt lat="51.9688900" lon="7.4188192">
<ele>75.6008301</ele>
<time>2011-07-31T13:08:40Z</time>
<extensions>
<tp1:TrackPointExtension>
<tp1:hr>131</tp1:hr>
</tp1:TrackPointExtension>
</extensions>
</trkpt>
<trkpt lat="51.9693952" lon="7.4183704">
<ele>77.5234375</ele>
<time>2011-07-31T13:08:49Z</time>
<extensions>
<tp1:TrackPointExtension>
<tp1:hr>126</tp1:hr>
</tp1:TrackPointExtension>
</extensions>
</trkpt>
<trkpt lat="51.9696914" lon="7.4182453">
<ele>78.0040283</ele>
<time>2011-07-31T13:08:54Z</time>
<extensions>
<tp1:TrackPointExtension>
<tp1:hr>125</tp1:hr>
</tp1:TrackPointExtension>
</extensions>
</trkpt>
<trkpt lat="51.9699351" lon="7.4181830">
<ele>78.4847412</ele>
<time>2011-07-31T13:08:58Z</time>
<extensions>
<tp1:TrackPointExtension>
<tp1:hr>124</tp1:hr>
</tp1:TrackPointExtension>
</extensions>
</trkpt>
<trkpt lat="51.9703006" lon="7.4180944">
<ele>80.8881836</ele>
<time>2011-07-31T13:09:04Z</time>
<extensions>
<tp1:TrackPointExtension>
<tp1:hr>123</tp1:hr>
</tp1:TrackPointExtension>
</extensions>
</trkpt>
<trkpt lat="51.9707424" lon="7.4179117">
<ele>79.4460449</ele>
<time>2011-07-31T13:09:11Z</time>
<extensions>
<tp1:TrackPointExtension>
<tp1:hr>123</tp1:hr>
</tp1:TrackPointExtension>
</extensions>
</trkpt>
<trkpt lat="51.9711042" lon="7.4176754">
<ele>80.4074707</ele>
<time>2011-07-31T13:09:17Z</time>
<extensions>
<tp1:TrackPointExtension>
<tp1:hr>124</tp1:hr>
</tp1:TrackPointExtension>
</extensions>
</trkpt>
<trkpt lat="51.9714314" lon="7.4173848">
<ele>82.3300781</ele>
<time>2011-07-31T13:09:23Z</time>
<extensions>
<tp1:TrackPointExtension>
<tp1:hr>126</tp1:hr>
</tp1:TrackPointExtension>
</extensions>
</trkpt>
<trkpt lat="51.9720836" lon="7.4167971">
<ele>86.6560059</ele>
<time>2011-07-31T13:09:35Z</time>
<extensions>
<tp1:TrackPointExtension>
<tp1:hr>130</tp1:hr>
</tp1:TrackPointExtension>
</extensions>
</trkpt>
<trkpt lat="51.9725038" lon="7.4164016">
<ele>87.6171875</ele>
<time>2011-07-31T13:09:43Z</time>
<extensions>
<tp1:TrackPointExtension>
<tp1:hr>131</tp1:hr>
</tp1:TrackPointExtension>
</extensions>
</trkpt>
<trkpt lat="51.9729906" lon="7.4159291">
<ele>88.5787354</ele>
<time>2011-07-31T13:09:52Z</time>
<extensions>
<tp1:TrackPointExtension>
<tp1:hr>134</tp1:hr>
</tp1:TrackPointExtension>
</extensions>
</trkpt>
<trkpt lat="51.9732904" lon="7.4154651">
<ele>88.5787354</ele>
<time>2011-07-31T13:09:59Z</time>
<extensions>
<tp1:TrackPointExtension>
<tp1:hr>136</tp1:hr>
</tp1:TrackPointExtension>
</extensions>
</trkpt>
<trkpt lat="51.9733294" lon="7.4153972">
<ele>88.5787354</ele>
<time>2011-07-31T13:10:00Z</time>
<extensions>
<tp1:TrackPointExtension>
<tp1:hr>136</tp1:hr>
</tp1:TrackPointExtension>
</extensions>
</trkpt>
<trkpt lat="51.9734871" lon="7.4153368">
<ele>88.5787354</ele>
<time>2011-07-31T13:10:03Z</time>
<extensions>
<tp1:TrackPointExtension>
<tp1:hr>136</tp1:hr>
</tp1:TrackPointExtension>
</extensions>
</trkpt>
<trkpt lat="51.9735922" lon="7.4155865">
<ele>88.0980225</ele>
<time>2011-07-31T13:10:06Z</time>
<extensions>
<tp1:TrackPointExtension>
<tp1:hr>137</tp1:hr>
</tp1:TrackPointExtension>
</extensions>
</trkpt>
<trkpt lat="51.9737515" lon="7.4164112">
<ele>85.2139893</ele>
<time>2011-07-31T13:10:14Z</time>
<extensions>
<tp1:TrackPointExtension>
<tp1:hr>137</tp1:hr>
</tp1:TrackPointExtension>
</extensions>
</trkpt>
<trkpt lat="51.9738776" lon="7.4170527">
<ele>83.7719727</ele>
<time>2011-07-31T13:10:20Z</time>
<extensions>
<tp1:TrackPointExtension>
<tp1:hr>132</tp1:hr>
</tp1:TrackPointExtension>
</extensions>
</trkpt>
<trkpt lat="51.9740434" lon="7.4177944">
<ele>81.8493652</ele>
<time>2011-07-31T13:10:27Z</time>
<extensions>
<tp1:TrackPointExtension>
<tp1:hr>130</tp1:hr>
</tp1:TrackPointExtension>
</extensions>
</trkpt>
<trkpt lat="51.9742241" lon="7.4186224">
<ele>80.8881836</ele>
<time>2011-07-31T13:10:35Z</time>
<extensions>
<tp1:TrackPointExtension>
<tp1:hr>127</tp1:hr>
</tp1:TrackPointExtension>
</extensions>
</trkpt>
<trkpt lat="51.9744209" lon="7.4195568">
<ele>78.4847412</ele>
<time>2011-07-31T13:10:44Z</time>
<extensions>
<tp1:TrackPointExtension>
<tp1:hr>122</tp1:hr>
</tp1:TrackPointExtension>
</extensions>
</trkpt>
<trkpt lat="51.9746461" lon="7.4206083">
<ele>77.5234375</ele>
<time>2011-07-31T13:10:54Z</time>
<extensions>
<tp1:TrackPointExtension>
<tp1:hr>119</tp1:hr>
</tp1:TrackPointExtension>
</extensions>
</trkpt>
<trkpt lat="51.9748489" lon="7.4215377">
<ele>77.5234375</ele>
<time>2011-07-31T13:11:03Z</time>
<extensions>
<tp1:TrackPointExtension>
<tp1:hr>117</tp1:hr>
</tp1:TrackPointExtension>
</extensions>
</trkpt>
<trkpt lat="51.9750533" lon="7.4224556">
<ele>78.9654541</ele>
<time>2011-07-31T13:11:12Z</time>
<extensions>
<tp1:TrackPointExtension>
<tp1:hr>115</tp1:hr>
</tp1:TrackPointExtension>
</extensions>
</trkpt>
<trkpt lat="51.9752525" lon="7.4231513">
<ele>78.0040283</ele>
<time>2011-07-31T13:11:19Z</time>
<extensions>
<tp1:TrackPointExtension>
<tp1:hr>115</tp1:hr>
</tp1:TrackPointExtension>
</extensions>
</trkpt>
<trkpt lat="51.9755295" lon="7.4237879">
<ele>77.0428467</ele>
<time>2011-07-31T13:11:26Z</time>
<extensions>
<tp1:TrackPointExtension>
<tp1:hr>120</tp1:hr>
</tp1:TrackPointExtension>
</extensions>
</trkpt>
<trkpt lat="51.9758578" lon="7.4246256">
<ele>76.5621338</ele>
<time>2011-07-31T13:11:35Z</time>
<extensions>
<tp1:TrackPointExtension>
<tp1:hr>123</tp1:hr>
</tp1:TrackPointExtension>
</extensions>
</trkpt>
<trkpt lat="51.9761703" lon="7.4253673">
<ele>75.1202393</ele>
<time>2011-07-31T13:11:43Z</time>
<extensions>
<tp1:TrackPointExtension>
<tp1:hr>122</tp1:hr>
</tp1:TrackPointExtension>
</extensions>
</trkpt>
<trkpt lat="51.9764790" lon="7.4261028">
<ele>74.6395264</ele>
<time>2011-07-31T13:11:51Z</time>
<extensions>
<tp1:TrackPointExtension>
<tp1:hr>122</tp1:hr>
</tp1:TrackPointExtension>
</extensions>
</trkpt>
<trkpt lat="51.9767788" lon="7.4268296">
<ele>74.1588135</ele>
<time>2011-07-31T13:11:59Z</time>
<extensions>
<tp1:TrackPointExtension>
<tp1:hr>121</tp1:hr>
</tp1:TrackPointExtension>
</extensions>
</trkpt>
<trkpt lat="51.9771617" lon="7.4277553">
<ele>72.7169189</ele>
<time>2011-07-31T13:12:09Z</time>
<extensions>
<tp1:TrackPointExtension>
<tp1:hr>121</tp1:hr>
</tp1:TrackPointExtension>
</extensions>
</trkpt>
<trkpt lat="51.9776472" lon="7.4289023">
<ele>71.2749023</ele>
<time>2011-07-31T13:12:21Z</time>
<extensions>
<tp1:TrackPointExtension>
<tp1:hr>118</tp1:hr>
</tp1:TrackPointExtension>
</extensions>
</trkpt>
<trkpt lat="51.9780950" lon="7.4299670">
<ele>70.7941895</ele>
<time>2011-07-31T13:12:32Z</time>
<extensions>
<tp1:TrackPointExtension>
<tp1:hr>117</tp1:hr>
</tp1:TrackPointExtension>
</extensions>
</trkpt>
<trkpt lat="51.9785711" lon="7.4311393">
<ele>70.3134766</ele>
<time>2011-07-31T13:12:44Z</time>
<extensions>
<tp1:TrackPointExtension>
<tp1:hr>119</tp1:hr>
</tp1:TrackPointExtension>
</extensions>
</trkpt>
<trkpt lat="51.9789736" lon="7.4320978">
<ele>69.3522949</ele>
<time>2011-07-31T13:12:54Z</time>
<extensions>
<tp1:TrackPointExtension>
<tp1:hr>123</tp1:hr>
</tp1:TrackPointExtension>
</extensions>
</trkpt>
<trkpt lat="51.9794478" lon="7.4332286">
<ele>69.3522949</ele>
<time>2011-07-31T13:13:06Z</time>
<extensions>
<tp1:TrackPointExtension>
<tp1:hr>127</tp1:hr>
</tp1:TrackPointExtension>
</extensions>
</trkpt>
<trkpt lat="51.9798547" lon="7.4341603">
<ele>69.3522949</ele>
<time>2011-07-31T13:13:16Z</time>
<extensions>
<tp1:TrackPointExtension>
<tp1:hr>126</tp1:hr>
</tp1:TrackPointExtension>
</extensions>
</trkpt>
<trkpt lat="51.9800957" lon="7.4347100">
<ele>69.8328857</ele>
<time>2011-07-31T13:13:22Z</time>
<extensions>
<tp1:TrackPointExtension>
<tp1:hr>123</tp1:hr>
</tp1:TrackPointExtension>
</extensions>
</trkpt>
<trkpt lat="51.9804511" lon="7.4355444">
<ele>68.8715820</ele>
<time>2011-07-31T13:13:31Z</time>
<extensions>
<tp1:TrackPointExtension>
<tp1:hr>123</tp1:hr>
</tp1:TrackPointExtension>
</extensions>
</trkpt>
<trkpt lat="51.9808526" lon="7.4364692">
<ele>66.9489746</ele>
<time>2011-07-31T13:13:41Z</time>
<extensions>
<tp1:TrackPointExtension>
<tp1:hr>127</tp1:hr>
</tp1:TrackPointExtension>
</extensions>
</trkpt>
<trkpt lat="51.9811647" lon="7.4372231">
<ele>66.9489746</ele>
<time>2011-07-31T13:13:49Z</time>
<extensions>
<tp1:TrackPointExtension>
<tp1:hr>129</tp1:hr>
</tp1:TrackPointExtension>
</extensions>
</trkpt>
<trkpt lat="51.9816357" lon="7.4383351">
<ele>65.5070801</ele>
<time>2011-07-31T13:14:01Z</time>
<extensions>
<tp1:TrackPointExtension>
<tp1:hr>135</tp1:hr>
</tp1:TrackPointExtension>
</extensions>
</trkpt>
<trkpt lat="51.9819523" lon="7.4390696">
<ele>65.0263672</ele>
<time>2011-07-31T13:14:09Z</time>
<extensions>
<tp1:TrackPointExtension>
<tp1:hr>135</tp1:hr>
</tp1:TrackPointExtension>
</extensions>
</trkpt>
<trkpt lat="51.9823812" lon="7.4400880">
<ele>64.5456543</ele>
<time>2011-07-31T13:14:20Z</time>
<extensions>
<tp1:TrackPointExtension>
<tp1:hr>136</tp1:hr>
</tp1:TrackPointExtension>
</extensions>
</trkpt>
<trkpt lat="51.9826920" lon="7.4408159">
<ele>64.5456543</ele>
<time>2011-07-31T13:14:28Z</time>
<extensions>
<tp1:TrackPointExtension>
<tp1:hr>136</tp1:hr>
</tp1:TrackPointExtension>
</extensions>
</trkpt>
<trkpt lat="51.9830008" lon="7.4415463">
<ele>61.1810303</ele>
<time>2011-07-31T13:14:36Z</time>
<extensions>
<tp1:TrackPointExtension>
<tp1:hr>138</tp1:hr>
</tp1:TrackPointExtension>
</extensions>
</trkpt>
<trkpt lat="51.9833032" lon="7.4422979">
<ele>61.1810303</ele>
<time>2011-07-31T13:14:44Z</time>
<extensions>
<tp1:TrackPointExtension>
<tp1:hr>139</tp1:hr>
</tp1:TrackPointExtension>
</extensions>
</trkpt>
<trkpt lat="51.9836886" lon="7.4432239">
<ele>63.1036377</ele>
<time>2011-07-31T13:14:54Z</time>
<extensions>
<tp1:TrackPointExtension>
<tp1:hr>139</tp1:hr>
</tp1:TrackPointExtension>
</extensions>
</trkpt>
<trkpt lat="51.9840811" lon="7.4441491">
<ele>66.9489746</ele>
<time>2011-07-31T13:15:04Z</time>
<extensions>
<tp1:TrackPointExtension>
<tp1:hr>137</tp1:hr>
</tp1:TrackPointExtension>
</extensions>
</trkpt>
<trkpt lat="51.9843863" lon="7.4448933">
<ele>66.9489746</ele>
<time>2011-07-31T13:15:12Z</time>
<extensions>
<tp1:TrackPointExtension>
<tp1:hr>136</tp1:hr>
</tp1:TrackPointExtension>
</extensions>
</trkpt>
<trkpt lat="51.9847742" lon="7.4458215">
<ele>63.5843506</ele>
<time>2011-07-31T13:15:22Z</time>
<extensions>
<tp1:TrackPointExtension>
<tp1:hr>135</tp1:hr>
</tp1:TrackPointExtension>
</extensions>
</trkpt>
<trkpt lat="51.9851236" lon="7.4466508">
<ele>64.0650635</ele>
<time>2011-07-31T13:15:31Z</time>
<extensions>
<tp1:TrackPointExtension>
<tp1:hr>135</tp1:hr>
</tp1:TrackPointExtension>
</extensions>
</trkpt>
<trkpt lat="51.9853555" lon="7.4472071">
<ele>68.3908691</ele>
<time>2011-07-31T13:15:37Z</time>
<extensions>
<tp1:TrackPointExtension>
<tp1:hr>134</tp1:hr>
</tp1:TrackPointExtension>
</extensions>
</trkpt>
<trkpt lat="51.9856054" lon="7.4477557">
<ele>71.7554932</ele>
<time>2011-07-31T13:15:43Z</time>
<extensions>
<tp1:TrackPointExtension>
<tp1:hr>134</tp1:hr>
</tp1:TrackPointExtension>
</extensions>
</trkpt>
<trkpt lat="51.9859155" lon="7.4484896">
<ele>70.3134766</ele>
<time>2011-07-31T13:15:51Z</time>
<extensions>
<tp1:TrackPointExtension>
<tp1:hr>135</tp1:hr>
</tp1:TrackPointExtension>
</extensions>
</trkpt>
<trkpt lat="51.9862736" lon="7.4493288">
<ele>70.3134766</ele>
<time>2011-07-31T13:16:00Z</time>
<extensions>
<tp1:TrackPointExtension>
<tp1:hr>134</tp1:hr>
</tp1:TrackPointExtension>
</extensions>
</trkpt>
<trkpt lat="51.9867164" lon="7.4503357">
<ele>69.8328857</ele>
<time>2011-07-31T13:16:11Z</time>
<extensions>
<tp1:TrackPointExtension>
<tp1:hr>134</tp1:hr>
</tp1:TrackPointExtension>
</extensions>
</trkpt>
<trkpt lat="51.9871370" lon="7.4512461">
<ele>62.6229248</ele>
<time>2011-07-31T13:16:21Z</time>
<extensions>
<tp1:TrackPointExtension>
<tp1:hr>133</tp1:hr>
</tp1:TrackPointExtension>
</extensions>
</trkpt>
<trkpt lat="51.9876093" lon="7.4520871">
<ele>59.2584229</ele>
<time>2011-07-31T13:16:31Z</time>
<extensions>
<tp1:TrackPointExtension>
<tp1:hr>132</tp1:hr>
</tp1:TrackPointExtension>
</extensions>
</trkpt>
<trkpt lat="51.9879850" lon="7.4525960">
<ele>61.6617432</ele>
<time>2011-07-31T13:16:38Z</time>
<extensions>
<tp1:TrackPointExtension>
<tp1:hr>130</tp1:hr>
</tp1:TrackPointExtension>
</extensions>
</trkpt>
<trkpt lat="51.9883780" lon="7.4530565">
<ele>60.7003174</ele>
<time>2011-07-31T13:16:45Z</time>
<extensions>
<tp1:TrackPointExtension>
<tp1:hr>130</tp1:hr>
</tp1:TrackPointExtension>
</extensions>
</trkpt>
<trkpt lat="51.9887982" lon="7.4534450">
<ele>63.1036377</ele>
<time>2011-07-31T13:16:52Z</time>
<extensions>
<tp1:TrackPointExtension>
<tp1:hr>130</tp1:hr>
</tp1:TrackPointExtension>
</extensions>
</trkpt>
<trkpt lat="51.9894132" lon="7.4539058">
<ele>63.1036377</ele>
<time>2011-07-31T13:17:02Z</time>
<extensions>
<tp1:TrackPointExtension>
<tp1:hr>133</tp1:hr>
</tp1:TrackPointExtension>
</extensions>
</trkpt>
<trkpt lat="51.9899958" lon="7.4542085">
<ele>62.6229248</ele>
<time>2011-07-31T13:17:11Z</time>
<extensions>
<tp1:TrackPointExtension>
<tp1:hr>137</tp1:hr>
</tp1:TrackPointExtension>
</extensions>
</trkpt>
<trkpt lat="51.9905387" lon="7.4543572">
<ele>62.6229248</ele>
<time>2011-07-31T13:17:19Z</time>
<extensions>
<tp1:TrackPointExtension>
<tp1:hr>140</tp1:hr>
</tp1:TrackPointExtension>
</extensions>
</trkpt>
<trkpt lat="51.9910183" lon="7.4543732">
<ele>63.1036377</ele>
<time>2011-07-31T13:17:26Z</time>
<extensions>
<tp1:TrackPointExtension>
<tp1:hr>140</tp1:hr>
</tp1:TrackPointExtension>
</extensions>
</trkpt>
<trkpt lat="51.9915463" lon="7.4542913">
<ele>64.5456543</ele>
<time>2011-07-31T13:17:34Z</time>
<extensions>
<tp1:TrackPointExtension>
<tp1:hr>139</tp1:hr>
</tp1:TrackPointExtension>
</extensions>
</trkpt>
<trkpt lat="51.9922057" lon="7.4540477">
<ele>66.4682617</ele>
<time>2011-07-31T13:17:44Z</time>
<extensions>
<tp1:TrackPointExtension>
<tp1:hr>140</tp1:hr>
</tp1:TrackPointExtension>
</extensions>
</trkpt>
<trkpt lat="51.9927869" lon="7.4538133">
<ele>67.9102783</ele>
<time>2011-07-31T13:17:53Z</time>
<extensions>
<tp1:TrackPointExtension>
<tp1:hr>143</tp1:hr>
</tp1:TrackPointExtension>
</extensions>
</trkpt>
<trkpt lat="51.9930963" lon="7.4538947">
<ele>67.9102783</ele>
<time>2011-07-31T13:17:58Z</time>
<extensions>
<tp1:TrackPointExtension>
<tp1:hr>141</tp1:hr>
</tp1:TrackPointExtension>
</extensions>
</trkpt>
<trkpt lat="51.9931377" lon="7.4542324">
<ele>67.4296875</ele>
<time>2011-07-31T13:18:01Z</time>
<extensions>
<tp1:TrackPointExtension>
<tp1:hr>140</tp1:hr>
</tp1:TrackPointExtension>
</extensions>
</trkpt>
<trkpt lat="51.9931129" lon="7.4543468">
<ele>66.4682617</ele>
<time>2011-07-31T13:18:02Z</time>
<extensions>
<tp1:TrackPointExtension>
<tp1:hr>140</tp1:hr>
</tp1:TrackPointExtension>
</extensions>
</trkpt>
<trkpt lat="51.9928704" lon="7.4553932">
<ele>66.4682617</ele>
<time>2011-07-31T13:18:12Z</time>
<extensions>
<tp1:TrackPointExtension>
<tp1:hr>139</tp1:hr>
</tp1:TrackPointExtension>
</extensions>
</trkpt>
<trkpt lat="51.9926451" lon="7.4563200">
<ele>66.4682617</ele>
<time>2011-07-31T13:18:21Z</time>
<extensions>
<tp1:TrackPointExtension>
<tp1:hr>139</tp1:hr>
</tp1:TrackPointExtension>
</extensions>
</trkpt>
<trkpt lat="51.9923872" lon="7.4572379">
<ele>65.0263672</ele>
<time>2011-07-31T13:18:30Z</time>
<extensions>
<tp1:TrackPointExtension>
<tp1:hr>139</tp1:hr>
</tp1:TrackPointExtension>
</extensions>
</trkpt>
<trkpt lat="51.9921261" lon="7.4581533">
<ele>65.5070801</ele>
<time>2011-07-31T13:18:39Z</time>
<extensions>
<tp1:TrackPointExtension>
<tp1:hr>138</tp1:hr>
</tp1:TrackPointExtension>
</extensions>
</trkpt>
<trkpt lat="51.9918692" lon="7.4591715">
<ele>65.0263672</ele>
<time>2011-07-31T13:18:49Z</time>
<extensions>
<tp1:TrackPointExtension>
<tp1:hr>139</tp1:hr>
</tp1:TrackPointExtension>
</extensions>
</trkpt>
<trkpt lat="51.9916513" lon="7.4602469">
<ele>63.5843506</ele>
<time>2011-07-31T13:18:59Z</time>
<extensions>
<tp1:TrackPointExtension>
<tp1:hr>139</tp1:hr>
</tp1:TrackPointExtension>
</extensions>
</trkpt>
<trkpt lat="51.9915216" lon="7.4612472">
<ele>61.1810303</ele>
<time>2011-07-31T13:19:08Z</time>
<extensions>
<tp1:TrackPointExtension>
<tp1:hr>135</tp1:hr>
</tp1:TrackPointExtension>
</extensions>
</trkpt>
<trkpt lat="51.9914485" lon="7.4623647">
<ele>58.7777100</ele>
<time>2011-07-31T13:19:18Z</time>
<extensions>
<tp1:TrackPointExtension>
<tp1:hr>134</tp1:hr>
</tp1:TrackPointExtension>
</extensions>
</trkpt>
<trkpt lat="51.9914488" lon="7.4633706">
<ele>58.2971191</ele>
<time>2011-07-31T13:19:27Z</time>
<extensions>
<tp1:TrackPointExtension>
<tp1:hr>137</tp1:hr>
</tp1:TrackPointExtension>
</extensions>
</trkpt>
<trkpt lat="51.9914883" lon="7.4639968">
<ele>58.2971191</ele>
<time>2011-07-31T13:19:33Z</time>
<extensions>
<tp1:TrackPointExtension>
<tp1:hr>137</tp1:hr>
</tp1:TrackPointExtension>
</extensions>
</trkpt>
<trkpt lat="51.9915628" lon="7.4647660">
<ele>56.8551025</ele>
<time>2011-07-31T13:19:40Z</time>
<extensions>
<tp1:TrackPointExtension>
<tp1:hr>135</tp1:hr>
</tp1:TrackPointExtension>
</extensions>
</trkpt>
<trkpt lat="51.9917354" lon="7.4663559">
<ele>54.9323730</ele>
<time>2011-07-31T13:19:54Z</time>
<extensions>
<tp1:TrackPointExtension>
<tp1:hr>134</tp1:hr>
</tp1:TrackPointExtension>
</extensions>
</trkpt>
<trkpt lat="51.9918347" lon="7.4674606">
<ele>53.9711914</ele>
<time>2011-07-31T13:20:04Z</time>
<extensions>
<tp1:TrackPointExtension>
<tp1:hr>136</tp1:hr>
</tp1:TrackPointExtension>
</extensions>
</trkpt>
<trkpt lat="51.9918549" lon="7.4676824">
<ele>54.9323730</ele>
<time>2011-07-31T13:20:06Z</time>
<extensions>
<tp1:TrackPointExtension>
<tp1:hr>135</tp1:hr>
</tp1:TrackPointExtension>
</extensions>
</trkpt>
<trkpt lat="51.9918665" lon="7.4680027">
<ele>55.8937988</ele>
<time>2011-07-31T13:20:09Z</time>
<extensions>
<tp1:TrackPointExtension>
<tp1:hr>134</tp1:hr>
</tp1:TrackPointExtension>
</extensions>
</trkpt>
<trkpt lat="51.9919187" lon="7.4689827">
<ele>54.4517822</ele>
<time>2011-07-31T13:20:17Z</time>
<extensions>
<tp1:TrackPointExtension>
<tp1:hr>134</tp1:hr>
</tp1:TrackPointExtension>
</extensions>
</trkpt>
<trkpt lat="51.9919110" lon="7.4700226">
<ele>54.4517822</ele>
<time>2011-07-31T13:20:26Z</time>
<extensions>
<tp1:TrackPointExtension>
<tp1:hr>135</tp1:hr>
</tp1:TrackPointExtension>
</extensions>
</trkpt>
<trkpt lat="51.9918953" lon="7.4710422">
<ele>52.5291748</ele>
<time>2011-07-31T13:20:35Z</time>
<extensions>
<tp1:TrackPointExtension>
<tp1:hr>135</tp1:hr>
</tp1:TrackPointExtension>
</extensions>
</trkpt>
<trkpt lat="51.9919307" lon="7.4720669">
<ele>52.0485840</ele>
<time>2011-07-31T13:20:44Z</time>
<extensions>
<tp1:TrackPointExtension>
<tp1:hr>135</tp1:hr>
</tp1:TrackPointExtension>
</extensions>
</trkpt>
<trkpt lat="51.9920001" lon="7.4728563">
<ele>51.0871582</ele>
<time>2011-07-31T13:20:51Z</time>
<extensions>
<tp1:TrackPointExtension>
<tp1:hr>136</tp1:hr>
</tp1:TrackPointExtension>
</extensions>
</trkpt>
<trkpt lat="51.9921478" lon="7.4739662">
<ele>53.0097656</ele>
<time>2011-07-31T13:21:01Z</time>
<extensions>
<tp1:TrackPointExtension>
<tp1:hr>138</tp1:hr>
</tp1:TrackPointExtension>
</extensions>
</trkpt>
<trkpt lat="51.9923641" lon="7.4750406">
<ele>54.4517822</ele>
<time>2011-07-31T13:21:11Z</time>
<extensions>
<tp1:TrackPointExtension>
<tp1:hr>138</tp1:hr>
</tp1:TrackPointExtension>
</extensions>
</trkpt>
<trkpt lat="51.9926896" lon="7.4762833">
<ele>54.4517822</ele>
<time>2011-07-31T13:21:23Z</time>
<extensions>
<tp1:TrackPointExtension>
<tp1:hr>137</tp1:hr>
</tp1:TrackPointExtension>
</extensions>
</trkpt>
<trkpt lat="51.9930320" lon="7.4775034">
<ele>54.4517822</ele>
<time>2011-07-31T13:21:35Z</time>
<extensions>
<tp1:TrackPointExtension>
<tp1:hr>139</tp1:hr>
</tp1:TrackPointExtension>
</extensions>
</trkpt>
<trkpt lat="51.9931532" lon="7.4780365">
<ele>54.4517822</ele>
<time>2011-07-31T13:21:40Z</time>
<extensions>
<tp1:TrackPointExtension>
<tp1:hr>139</tp1:hr>
</tp1:TrackPointExtension>
</extensions>
</trkpt>
<trkpt lat="51.9931304" lon="7.4784742">
<ele>53.9711914</ele>
<time>2011-07-31T13:21:44Z</time>
<extensions>
<tp1:TrackPointExtension>
<tp1:hr>139</tp1:hr>
</tp1:TrackPointExtension>
</extensions>
</trkpt>
<trkpt lat="51.9930911" lon="7.4785677">
<ele>53.9711914</ele>
<time>2011-07-31T13:21:45Z</time>
<extensions>
<tp1:TrackPointExtension>
<tp1:hr>138</tp1:hr>
</tp1:TrackPointExtension>
</extensions>
</trkpt>
<trkpt lat="51.9928636" lon="7.4791403">
<ele>54.4517822</ele>
<time>2011-07-31T13:21:51Z</time>
<extensions>
<tp1:TrackPointExtension>
<tp1:hr>138</tp1:hr>
</tp1:TrackPointExtension>
</extensions>
</trkpt>
<trkpt lat="51.9927083" lon="7.4798696">
<ele>55.4130859</ele>
<time>2011-07-31T13:21:58Z</time>
<extensions>
<tp1:TrackPointExtension>
<tp1:hr>138</tp1:hr>
</tp1:TrackPointExtension>
</extensions>
</trkpt>
<trkpt lat="51.9925306" lon="7.4809571">
<ele>57.3358154</ele>
<time>2011-07-31T13:22:08Z</time>
<extensions>
<tp1:TrackPointExtension>
<tp1:hr>135</tp1:hr>
</tp1:TrackPointExtension>
</extensions>
</trkpt>
<trkpt lat="51.9922991" lon="7.4823831">
<ele>60.2197266</ele>
<time>2011-07-31T13:22:21Z</time>
<extensions>
<tp1:TrackPointExtension>
<tp1:hr>135</tp1:hr>
</tp1:TrackPointExtension>
</extensions>
</trkpt>
<trkpt lat="51.9921430" lon="7.4833682">
<ele>61.1810303</ele>
<time>2011-07-31T13:22:30Z</time>
<extensions>
<tp1:TrackPointExtension>
<tp1:hr>136</tp1:hr>
</tp1:TrackPointExtension>
</extensions>
</trkpt>
<trkpt lat="51.9919227" lon="7.4847938">
<ele>62.1423340</ele>
<time>2011-07-31T13:22:43Z</time>
<extensions>
<tp1:TrackPointExtension>
<tp1:hr>136</tp1:hr>
</tp1:TrackPointExtension>
</extensions>
</trkpt>
<trkpt lat="51.9917317" lon="7.4860051">
<ele>56.3745117</ele>
<time>2011-07-31T13:22:54Z</time>
<extensions>
<tp1:TrackPointExtension>
<tp1:hr>136</tp1:hr>
</tp1:TrackPointExtension>
</extensions>
</trkpt>
<trkpt lat="51.9914853" lon="7.4875383">
<ele>57.8165283</ele>
<time>2011-07-31T13:23:08Z</time>
<extensions>
<tp1:TrackPointExtension>
<tp1:hr>135</tp1:hr>
</tp1:TrackPointExtension>
</extensions>
</trkpt>
<trkpt lat="51.9913840" lon="7.4881755">
<ele>57.3358154</ele>
<time>2011-07-31T13:23:14Z</time>
<extensions>
<tp1:TrackPointExtension>
<tp1:hr>135</tp1:hr>
</tp1:TrackPointExtension>
</extensions>
</trkpt>
<trkpt lat="51.9912338" lon="7.4891603">
<ele>58.7777100</ele>
<time>2011-07-31T13:23:23Z</time>
<extensions>
<tp1:TrackPointExtension>
<tp1:hr>138</tp1:hr>
</tp1:TrackPointExtension>
</extensions>
</trkpt>
<trkpt lat="51.9910449" lon="7.4903527">
<ele>52.0485840</ele>
<time>2011-07-31T13:23:34Z</time>
<extensions>
<tp1:TrackPointExtension>
<tp1:hr>140</tp1:hr>
</tp1:TrackPointExtension>
</extensions>
</trkpt>
<trkpt lat="51.9908587" lon="7.4915452">
<ele>50.6065674</ele>
<time>2011-07-31T13:23:45Z</time>
<extensions>
<tp1:TrackPointExtension>
<tp1:hr>140</tp1:hr>
</tp1:TrackPointExtension>
</extensions>
</trkpt>
<trkpt lat="51.9906419" lon="7.4928371">
<ele>46.2806396</ele>
<time>2011-07-31T13:23:57Z</time>
<extensions>
<tp1:TrackPointExtension>
<tp1:hr>140</tp1:hr>
</tp1:TrackPointExtension>
</extensions>
</trkpt>
<trkpt lat="51.9904916" lon="7.4936874">
<ele>40.9934082</ele>
<time>2011-07-31T13:24:05Z</time>
<extensions>
<tp1:TrackPointExtension>
<tp1:hr>143</tp1:hr>
</tp1:TrackPointExtension>
</extensions>
</trkpt>
<trkpt lat="51.9903171" lon="7.4947578">
<ele>37.1480713</ele>
<time>2011-07-31T13:24:15Z</time>
<extensions>
<tp1:TrackPointExtension>
<tp1:hr>144</tp1:hr>
</tp1:TrackPointExtension>
</extensions>
</trkpt>
<trkpt lat="51.9900830" lon="7.4956784">
<ele>41.9547119</ele>
<time>2011-07-31T13:24:24Z</time>
<extensions>
<tp1:TrackPointExtension>
<tp1:hr>145</tp1:hr>
</tp1:TrackPointExtension>
</extensions>
</trkpt>
<trkpt lat="51.9897737" lon="7.4967781">
<ele>46.2806396</ele>
<time>2011-07-31T13:24:35Z</time>
<extensions>
<tp1:TrackPointExtension>
<tp1:hr>145</tp1:hr>
</tp1:TrackPointExtension>
</extensions>
</trkpt>
<trkpt lat="51.9894884" lon="7.4977867">
<ele>51.0871582</ele>
<time>2011-07-31T13:24:45Z</time>
<extensions>
<tp1:TrackPointExtension>
<tp1:hr>144</tp1:hr>
</tp1:TrackPointExtension>
</extensions>
</trkpt>
<trkpt lat="51.9891687" lon="7.4989024">
<ele>53.9711914</ele>
<time>2011-07-31T13:24:56Z</time>
<extensions>
<tp1:TrackPointExtension>
<tp1:hr>142</tp1:hr>
</tp1:TrackPointExtension>
</extensions>
</trkpt>
<trkpt lat="51.9889087" lon="7.4998067">
<ele>52.5291748</ele>
<time>2011-07-31T13:25:05Z</time>
<extensions>
<tp1:TrackPointExtension>
<tp1:hr>141</tp1:hr>
</tp1:TrackPointExtension>
</extensions>
</trkpt>
<trkpt lat="51.9885528" lon="7.5010435">
<ele>56.3745117</ele>
<time>2011-07-31T13:25:17Z</time>
<extensions>
<tp1:TrackPointExtension>
<tp1:hr>143</tp1:hr>
</tp1:TrackPointExtension>
</extensions>
</trkpt>
<trkpt lat="51.9882216" lon="7.5020575">
<ele>52.5291748</ele>
<time>2011-07-31T13:25:27Z</time>
<extensions>
<tp1:TrackPointExtension>
<tp1:hr>144</tp1:hr>
</tp1:TrackPointExtension>
</extensions>
</trkpt>
<trkpt lat="51.9879840" lon="7.5025025">
<ele>53.9711914</ele>
<time>2011-07-31T13:25:32Z</time>
<extensions>
<tp1:TrackPointExtension>
<tp1:hr>144</tp1:hr>
</tp1:TrackPointExtension>
</extensions>
</trkpt>
<trkpt lat="51.9877409" lon="7.5028946">
<ele>58.7777100</ele>
<time>2011-07-31T13:25:37Z</time>
<extensions>
<tp1:TrackPointExtension>
<tp1:hr>144</tp1:hr>
</tp1:TrackPointExtension>
</extensions>
</trkpt>
<trkpt lat="51.9872633" lon="7.5035562">
<ele>59.2584229</ele>
<time>2011-07-31T13:25:46Z</time>
<extensions>
<tp1:TrackPointExtension>
<tp1:hr>143</tp1:hr>
</tp1:TrackPointExtension>
</extensions>
</trkpt>
<trkpt lat="51.9868903" lon="7.5040627">
<ele>55.8937988</ele>
<time>2011-07-31T13:25:53Z</time>
<extensions>
<tp1:TrackPointExtension>
<tp1:hr>142</tp1:hr>
</tp1:TrackPointExtension>
</extensions>
</trkpt>
<trkpt lat="51.9866308" lon="7.5044296">
<ele>54.9323730</ele>
<time>2011-07-31T13:25:58Z</time>
<extensions>
<tp1:TrackPointExtension>
<tp1:hr>142</tp1:hr>
</tp1:TrackPointExtension>
</extensions>
</trkpt>
<trkpt lat="51.9862559" lon="7.5049386">
<ele>53.0097656</ele>
<time>2011-07-31T13:26:05Z</time>
<extensions>
<tp1:TrackPointExtension>
<tp1:hr>141</tp1:hr>
</tp1:TrackPointExtension>
</extensions>
</trkpt>
<trkpt lat="51.9857765" lon="7.5055952">
<ele>52.5291748</ele>
<time>2011-07-31T13:26:14Z</time>
<extensions>
<tp1:TrackPointExtension>
<tp1:hr>138</tp1:hr>
</tp1:TrackPointExtension>
</extensions>
</trkpt>
<trkpt lat="51.9853021" lon="7.5062671">
<ele>53.0097656</ele>
<time>2011-07-31T13:26:23Z</time>
<extensions>
<tp1:TrackPointExtension>
<tp1:hr>137</tp1:hr>
</tp1:TrackPointExtension>
</extensions>
</trkpt>
<trkpt lat="51.9848226" lon="7.5069446">
<ele>52.0485840</ele>
<time>2011-07-31T13:26:32Z</time>
<extensions>
<tp1:TrackPointExtension>
<tp1:hr>135</tp1:hr>
</tp1:TrackPointExtension>
</extensions>
</trkpt>
<trkpt lat="51.9844703" lon="7.5075128">
<ele>54.4517822</ele>
<time>2011-07-31T13:26:39Z</time>
<extensions>
<tp1:TrackPointExtension>
<tp1:hr>134</tp1:hr>
</tp1:TrackPointExtension>
</extensions>
</trkpt>
<trkpt lat="51.9843684" lon="7.5076661">
<ele>54.9323730</ele>
<time>2011-07-31T13:26:41Z</time>
<extensions>
<tp1:TrackPointExtension>
<tp1:hr>134</tp1:hr>
</tp1:TrackPointExtension>
</extensions>
</trkpt>
<trkpt lat="51.9840273" lon="7.5081416">
<ele>55.8937988</ele>
<time>2011-07-31T13:26:48Z</time>
<extensions>
<tp1:TrackPointExtension>
<tp1:hr>134</tp1:hr>
</tp1:TrackPointExtension>
</extensions>
</trkpt>
<trkpt lat="51.9837240" lon="7.5086351">
<ele>64.0650635</ele>
<time>2011-07-31T13:26:54Z</time>
<extensions>
<tp1:TrackPointExtension>
<tp1:hr>135</tp1:hr>
</tp1:TrackPointExtension>
</extensions>
</trkpt>
<trkpt lat="51.9834601" lon="7.5090581">
<ele>64.0650635</ele>
<time>2011-07-31T13:26:59Z</time>
<extensions>
<tp1:TrackPointExtension>
<tp1:hr>136</tp1:hr>
</tp1:TrackPointExtension>
</extensions>
</trkpt>
<trkpt lat="51.9830746" lon="7.5095455">
<ele>66.4682617</ele>
<time>2011-07-31T13:27:06Z</time>
<extensions>
<tp1:TrackPointExtension>
<tp1:hr>138</tp1:hr>
</tp1:TrackPointExtension>
</extensions>
</trkpt>
<trkpt lat="51.9827985" lon="7.5098686">
<ele>63.1036377</ele>
<time>2011-07-31T13:27:11Z</time>
<extensions>
<tp1:TrackPointExtension>
<tp1:hr>138</tp1:hr>
</tp1:TrackPointExtension>
</extensions>
</trkpt>
<trkpt lat="51.9824791" lon="7.5103344">
<ele>58.7777100</ele>
<time>2011-07-31T13:27:17Z</time>
<extensions>
<tp1:TrackPointExtension>
<tp1:hr>140</tp1:hr>
</tp1:TrackPointExtension>
</extensions>
</trkpt>
<trkpt lat="51.9820979" lon="7.5108188">
<ele>55.4130859</ele>
<time>2011-07-31T13:27:24Z</time>
<extensions>
<tp1:TrackPointExtension>
<tp1:hr>140</tp1:hr>
</tp1:TrackPointExtension>
</extensions>
</trkpt>
<trkpt lat="51.9816672" lon="7.5114076">
<ele>53.4904785</ele>
<time>2011-07-31T13:27:32Z</time>
<extensions>
<tp1:TrackPointExtension>
<tp1:hr>142</tp1:hr>
</tp1:TrackPointExtension>
</extensions>
</trkpt>
<trkpt lat="51.9812556" lon="7.5118887">
<ele>52.0485840</ele>
<time>2011-07-31T13:27:39Z</time>
<extensions>
<tp1:TrackPointExtension>
<tp1:hr>143</tp1:hr>
</tp1:TrackPointExtension>
</extensions>
</trkpt>
<trkpt lat="51.9808096" lon="7.5123851">
<ele>51.0871582</ele>
<time>2011-07-31T13:27:46Z</time>
<extensions>
<tp1:TrackPointExtension>
<tp1:hr>141</tp1:hr>
</tp1:TrackPointExtension>
</extensions>
</trkpt>
<trkpt lat="51.9804614" lon="7.5128492">
<ele>51.5678711</ele>
<time>2011-07-31T13:27:52Z</time>
<extensions>
<tp1:TrackPointExtension>
<tp1:hr>135</tp1:hr>
</tp1:TrackPointExtension>
</extensions>
</trkpt>
<trkpt lat="51.9801038" lon="7.5134487">
<ele>50.1259766</ele>
<time>2011-07-31T13:27:59Z</time>
<extensions>
<tp1:TrackPointExtension>
<tp1:hr>134</tp1:hr>
</tp1:TrackPointExtension>
</extensions>
</trkpt>
<trkpt lat="51.9797708" lon="7.5140687">
<ele>51.5678711</ele>
<time>2011-07-31T13:28:06Z</time>
<extensions>
<tp1:TrackPointExtension>
<tp1:hr>134</tp1:hr>
</tp1:TrackPointExtension>
</extensions>
</trkpt>
<trkpt lat="51.9794418" lon="7.5146751">
<ele>51.0871582</ele>
<time>2011-07-31T13:28:13Z</time>
<extensions>
<tp1:TrackPointExtension>
<tp1:hr>134</tp1:hr>
</tp1:TrackPointExtension>
</extensions>
</trkpt>
<trkpt lat="51.9790249" lon="7.5154325">
<ele>49.6452637</ele>
<time>2011-07-31T13:28:22Z</time>
<extensions>
<tp1:TrackPointExtension>
<tp1:hr>139</tp1:hr>
</tp1:TrackPointExtension>
</extensions>
</trkpt>
<trkpt lat="51.9786496" lon="7.5161038">
<ele>49.1645508</ele>
<time>2011-07-31T13:28:30Z</time>
<extensions>
<tp1:TrackPointExtension>
<tp1:hr>141</tp1:hr>
</tp1:TrackPointExtension>
</extensions>
</trkpt>
<trkpt lat="51.9780597" lon="7.5171881">
<ele>47.2418213</ele>
<time>2011-07-31T13:28:43Z</time>
<extensions>
<tp1:TrackPointExtension>
<tp1:hr>145</tp1:hr>
</tp1:TrackPointExtension>
</extensions>
</trkpt>
<trkpt lat="51.9775566" lon="7.5181043">
<ele>48.2033691</ele>
<time>2011-07-31T13:28:54Z</time>
<extensions>
<tp1:TrackPointExtension>
<tp1:hr>146</tp1:hr>
</tp1:TrackPointExtension>
</extensions>
</trkpt>
<trkpt lat="51.9771017" lon="7.5189384">
<ele>47.2418213</ele>
<time>2011-07-31T13:29:04Z</time>
<extensions>
<tp1:TrackPointExtension>
<tp1:hr>146</tp1:hr>
</tp1:TrackPointExtension>
</extensions>
</trkpt>
<trkpt lat="51.9766388" lon="7.5197747">
<ele>48.2033691</ele>
<time>2011-07-31T13:29:14Z</time>
<extensions>
<tp1:TrackPointExtension>
<tp1:hr>145</tp1:hr>
</tp1:TrackPointExtension>
</extensions>
</trkpt>
<trkpt lat="51.9762252" lon="7.5203914">
<ele>47.7225342</ele>
<time>2011-07-31T13:29:22Z</time>
<extensions>
<tp1:TrackPointExtension>
<tp1:hr>144</tp1:hr>
</tp1:TrackPointExtension>
</extensions>
</trkpt>
<trkpt lat="51.9755834" lon="7.5212593">
<ele>46.7612305</ele>
<time>2011-07-31T13:29:34Z</time>
<extensions>
<tp1:TrackPointExtension>
<tp1:hr>144</tp1:hr>
</tp1:TrackPointExtension>
</extensions>
</trkpt>
<trkpt lat="51.9749369" lon="7.5221381">
<ele>45.3192139</ele>
<time>2011-07-31T13:29:46Z</time>
<extensions>
<tp1:TrackPointExtension>
<tp1:hr>143</tp1:hr>
</tp1:TrackPointExtension>
</extensions>
</trkpt>
<trkpt lat="51.9742855" lon="7.5229912">
<ele>42.9160156</ele>
<time>2011-07-31T13:29:58Z</time>
<extensions>
<tp1:TrackPointExtension>
<tp1:hr>142</tp1:hr>
</tp1:TrackPointExtension>
</extensions>
</trkpt>
<trkpt lat="51.9738345" lon="7.5235129">
<ele>43.8773193</ele>
<time>2011-07-31T13:30:06Z</time>
<extensions>
<tp1:TrackPointExtension>
<tp1:hr>141</tp1:hr>
</tp1:TrackPointExtension>
</extensions>
</trkpt>
<trkpt lat="51.9733741" lon="7.5240775">
<ele>47.2418213</ele>
<time>2011-07-31T13:30:14Z</time>
<extensions>
<tp1:TrackPointExtension>
<tp1:hr>140</tp1:hr>
</tp1:TrackPointExtension>
</extensions>
</trkpt>
<trkpt lat="51.9730109" lon="7.5244786">
<ele>49.1645508</ele>
<time>2011-07-31T13:30:20Z</time>
<extensions>
<tp1:TrackPointExtension>
<tp1:hr>139</tp1:hr>
</tp1:TrackPointExtension>
</extensions>
</trkpt>
<trkpt lat="51.9724726" lon="7.5250837">
<ele>48.6839600</ele>
<time>2011-07-31T13:30:29Z</time>
<extensions>
<tp1:TrackPointExtension>
<tp1:hr>139</tp1:hr>
</tp1:TrackPointExtension>
</extensions>
</trkpt>
<trkpt lat="51.9716947" lon="7.5259156">
<ele>50.1259766</ele>
<time>2011-07-31T13:30:42Z</time>
<extensions>
<tp1:TrackPointExtension>
<tp1:hr>142</tp1:hr>
</tp1:TrackPointExtension>
</extensions>
</trkpt>
<trkpt lat="51.9711715" lon="7.5262309">
<ele>52.0485840</ele>
<time>2011-07-31T13:30:50Z</time>
<extensions>
<tp1:TrackPointExtension>
<tp1:hr>143</tp1:hr>
</tp1:TrackPointExtension>
</extensions>
</trkpt>
<trkpt lat="51.9703784" lon="7.5266789">
<ele>54.4517822</ele>
<time>2011-07-31T13:31:02Z</time>
<extensions>
<tp1:TrackPointExtension>
<tp1:hr>143</tp1:hr>
</tp1:TrackPointExtension>
</extensions>
</trkpt>
<trkpt lat="51.9697110" lon="7.5270314">
<ele>53.9711914</ele>
<time>2011-07-31T13:31:12Z</time>
<extensions>
<tp1:TrackPointExtension>
<tp1:hr>143</tp1:hr>
</tp1:TrackPointExtension>
</extensions>
</trkpt>
<trkpt lat="51.9692947" lon="7.5270490">
<ele>50.1259766</ele>
<time>2011-07-31T13:31:18Z</time>
<extensions>
<tp1:TrackPointExtension>
<tp1:hr>143</tp1:hr>
</tp1:TrackPointExtension>
</extensions>
</trkpt>
<trkpt lat="51.9683355" lon="7.5268785">
<ele>50.6065674</ele>
<time>2011-07-31T13:31:32Z</time>
<extensions>
<tp1:TrackPointExtension>
<tp1:hr>146</tp1:hr>
</tp1:TrackPointExtension>
</extensions>
</trkpt>
<trkpt lat="51.9677954" lon="7.5266823">
<ele>53.4904785</ele>
<time>2011-07-31T13:31:40Z</time>
<extensions>
<tp1:TrackPointExtension>
<tp1:hr>149</tp1:hr>
</tp1:TrackPointExtension>
</extensions>
</trkpt>
<trkpt lat="51.9670818" lon="7.5263733">
<ele>56.3745117</ele>
<time>2011-07-31T13:31:51Z</time>
<extensions>
<tp1:TrackPointExtension>
<tp1:hr>153</tp1:hr>
</tp1:TrackPointExtension>
</extensions>
</trkpt>
<trkpt lat="51.9665803" lon="7.5261533">
<ele>59.2584229</ele>
<time>2011-07-31T13:31:59Z</time>
<extensions>
<tp1:TrackPointExtension>
<tp1:hr>155</tp1:hr>
</tp1:TrackPointExtension>
</extensions>
</trkpt>
<trkpt lat="51.9660722" lon="7.5259250">
<ele>61.1810303</ele>
<time>2011-07-31T13:32:07Z</time>
<extensions>
<tp1:TrackPointExtension>
<tp1:hr>156</tp1:hr>
</tp1:TrackPointExtension>
</extensions>
</trkpt>
<trkpt lat="51.9653180" lon="7.5255649">
<ele>63.1036377</ele>
<time>2011-07-31T13:32:19Z</time>
<extensions>
<tp1:TrackPointExtension>
<tp1:hr>158</tp1:hr>
</tp1:TrackPointExtension>
</extensions>
</trkpt>
<trkpt lat="51.9647005" lon="7.5252684">
<ele>65.0263672</ele>
<time>2011-07-31T13:32:29Z</time>
<extensions>
<tp1:TrackPointExtension>
<tp1:hr>157</tp1:hr>
</tp1:TrackPointExtension>
</extensions>
</trkpt>
<trkpt lat="51.9641659" lon="7.5249936">
<ele>65.0263672</ele>
<time>2011-07-31T13:32:38Z</time>
<extensions>
<tp1:TrackPointExtension>
<tp1:hr>155</tp1:hr>
</tp1:TrackPointExtension>
</extensions>
</trkpt>
<trkpt lat="51.9637779" lon="7.5248273">
<ele>66.4682617</ele>
<time>2011-07-31T13:32:45Z</time>
<extensions>
<tp1:TrackPointExtension>
<tp1:hr>151</tp1:hr>
</tp1:TrackPointExtension>
</extensions>
</trkpt>
<trkpt lat="51.9635992" lon="7.5247509">
<ele>65.9876709</ele>
<time>2011-07-31T13:32:49Z</time>
<extensions>
<tp1:TrackPointExtension>
<tp1:hr>146</tp1:hr>
</tp1:TrackPointExtension>
</extensions>
</trkpt>
<trkpt lat="51.9634226" lon="7.5248012">
<ele>66.4682617</ele>
<time>2011-07-31T13:32:53Z</time>
<extensions>
<tp1:TrackPointExtension>
<tp1:hr>145</tp1:hr>
</tp1:TrackPointExtension>
</extensions>
</trkpt>
<trkpt lat="51.9633755" lon="7.5248505">
<ele>66.4682617</ele>
<time>2011-07-31T13:32:54Z</time>
<extensions>
<tp1:TrackPointExtension>
<tp1:hr>145</tp1:hr>
</tp1:TrackPointExtension>
</extensions>
</trkpt>
<trkpt lat="51.9629782" lon="7.5253572">
<ele>66.4682617</ele>
<time>2011-07-31T13:33:02Z</time>
<extensions>
<tp1:TrackPointExtension>
<tp1:hr>148</tp1:hr>
</tp1:TrackPointExtension>
</extensions>
</trkpt>
<trkpt lat="51.9625234" lon="7.5259296">
<ele>66.9489746</ele>
<time>2011-07-31T13:33:11Z</time>
<extensions>
<tp1:TrackPointExtension>
<tp1:hr>149</tp1:hr>
</tp1:TrackPointExtension>
</extensions>
</trkpt>
<trkpt lat="51.9620270" lon="7.5265865">
<ele>66.9489746</ele>
<time>2011-07-31T13:33:21Z</time>
<extensions>
<tp1:TrackPointExtension>
<tp1:hr>151</tp1:hr>
</tp1:TrackPointExtension>
</extensions>
</trkpt>
<trkpt lat="51.9617328" lon="7.5269949">
<ele>67.4296875</ele>
<time>2011-07-31T13:33:27Z</time>
<extensions>
<tp1:TrackPointExtension>
<tp1:hr>150</tp1:hr>
</tp1:TrackPointExtension>
</extensions>
</trkpt>
<trkpt lat="51.9614705" lon="7.5273209">
<ele>67.9102783</ele>
<time>2011-07-31T13:33:32Z</time>
<extensions>
<tp1:TrackPointExtension>
<tp1:hr>149</tp1:hr>
</tp1:TrackPointExtension>
</extensions>
</trkpt>
<trkpt lat="51.9611004" lon="7.5277504">
<ele>70.7941895</ele>
<time>2011-07-31T13:33:39Z</time>
<extensions>
<tp1:TrackPointExtension>
<tp1:hr>143</tp1:hr>
</tp1:TrackPointExtension>
</extensions>
</trkpt>
<trkpt lat="51.9609121" lon="7.5277565">
<ele>70.7941895</ele>
<time>2011-07-31T13:33:42Z</time>
<extensions>
<tp1:TrackPointExtension>
<tp1:hr>139</tp1:hr>
</tp1:TrackPointExtension>
</extensions>
</trkpt>
<trkpt lat="51.9608444" lon="7.5275822">
<ele>71.2749023</ele>
<time>2011-07-31T13:33:44Z</time>
<extensions>
<tp1:TrackPointExtension>
<tp1:hr>137</tp1:hr>
</tp1:TrackPointExtension>
</extensions>
</trkpt>
<trkpt lat="51.9607154" lon="7.5270667">
<ele>71.7554932</ele>
<time>2011-07-31T13:33:49Z</time>
<extensions>
<tp1:TrackPointExtension>
<tp1:hr>136</tp1:hr>
</tp1:TrackPointExtension>
</extensions>
</trkpt>
<trkpt lat="51.9604700" lon="7.5260077">
<ele>71.2749023</ele>
<time>2011-07-31T13:33:59Z</time>
<extensions>
<tp1:TrackPointExtension>
<tp1:hr>135</tp1:hr>
</tp1:TrackPointExtension>
</extensions>
</trkpt>
<trkpt lat="51.9603253" lon="7.5253997">
<ele>71.2749023</ele>
<time>2011-07-31T13:34:05Z</time>
<extensions>
<tp1:TrackPointExtension>
<tp1:hr>135</tp1:hr>
</tp1:TrackPointExtension>
</extensions>
</trkpt>
<trkpt lat="51.9601778" lon="7.5246567">
<ele>71.7554932</ele>
<time>2011-07-31T13:34:12Z</time>
<extensions>
<tp1:TrackPointExtension>
<tp1:hr>137</tp1:hr>
</tp1:TrackPointExtension>
</extensions>
</trkpt>
<trkpt lat="51.9600664" lon="7.5238944">
<ele>71.2749023</ele>
<time>2011-07-31T13:34:19Z</time>
<extensions>
<tp1:TrackPointExtension>
<tp1:hr>140</tp1:hr>
</tp1:TrackPointExtension>
</extensions>
</trkpt>
<trkpt lat="51.9599541" lon="7.5231318">
<ele>73.1976318</ele>
<time>2011-07-31T13:34:26Z</time>
<extensions>
<tp1:TrackPointExtension>
<tp1:hr>141</tp1:hr>
</tp1:TrackPointExtension>
</extensions>
</trkpt>
<trkpt lat="51.9598006" lon="7.5222720">
<ele>73.1976318</ele>
<time>2011-07-31T13:34:34Z</time>
<extensions>
<tp1:TrackPointExtension>
<tp1:hr>144</tp1:hr>
</tp1:TrackPointExtension>
</extensions>
</trkpt>
<trkpt lat="51.9596987" lon="7.5215161">
<ele>71.7554932</ele>
<time>2011-07-31T13:34:41Z</time>
<extensions>
<tp1:TrackPointExtension>
<tp1:hr>145</tp1:hr>
</tp1:TrackPointExtension>
</extensions>
</trkpt>
<trkpt lat="51.9595270" lon="7.5205479">
<ele>69.3522949</ele>
<time>2011-07-31T13:34:50Z</time>
<extensions>
<tp1:TrackPointExtension>
<tp1:hr>142</tp1:hr>
</tp1:TrackPointExtension>
</extensions>
</trkpt>
<trkpt lat="51.9594359" lon="7.5200015">
<ele>68.3908691</ele>
<time>2011-07-31T13:34:55Z</time>
<extensions>
<tp1:TrackPointExtension>
<tp1:hr>141</tp1:hr>
</tp1:TrackPointExtension>
</extensions>
</trkpt>
<trkpt lat="51.9593443" lon="7.5191052">
<ele>68.3908691</ele>
<time>2011-07-31T13:35:03Z</time>
<extensions>
<tp1:TrackPointExtension>
<tp1:hr>137</tp1:hr>
</tp1:TrackPointExtension>
</extensions>
</trkpt>
<trkpt lat="51.9592960" lon="7.5184101">
<ele>68.3908691</ele>
<time>2011-07-31T13:35:09Z</time>
<extensions>
<tp1:TrackPointExtension>
<tp1:hr>135</tp1:hr>
</tp1:TrackPointExtension>
</extensions>
</trkpt>
<trkpt lat="51.9592064" lon="7.5171379">
<ele>66.9489746</ele>
<time>2011-07-31T13:35:20Z</time>
<extensions>
<tp1:TrackPointExtension>
<tp1:hr>135</tp1:hr>
</tp1:TrackPointExtension>
</extensions>
</trkpt>
<trkpt lat="51.9591063" lon="7.5157655">
<ele>65.9876709</ele>
<time>2011-07-31T13:35:32Z</time>
<extensions>
<tp1:TrackPointExtension>
<tp1:hr>136</tp1:hr>
</tp1:TrackPointExtension>
</extensions>
</trkpt>
<trkpt lat="51.9589993" lon="7.5142758">
<ele>64.5456543</ele>
<time>2011-07-31T13:35:45Z</time>
<extensions>
<tp1:TrackPointExtension>
<tp1:hr>138</tp1:hr>
</tp1:TrackPointExtension>
</extensions>
</trkpt>
<trkpt lat="51.9588869" lon="7.5128069">
<ele>64.0650635</ele>
<time>2011-07-31T13:35:58Z</time>
<extensions>
<tp1:TrackPointExtension>
<tp1:hr>139</tp1:hr>
</tp1:TrackPointExtension>
</extensions>
</trkpt>
<trkpt lat="51.9587939" lon="7.5115693">
<ele>63.5843506</ele>
<time>2011-07-31T13:36:09Z</time>
<extensions>
<tp1:TrackPointExtension>
<tp1:hr>140</tp1:hr>
</tp1:TrackPointExtension>
</extensions>
</trkpt>
<trkpt lat="51.9586967" lon="7.5104575">
<ele>60.7003174</ele>
<time>2011-07-31T13:36:19Z</time>
<extensions>
<tp1:TrackPointExtension>
<tp1:hr>142</tp1:hr>
</tp1:TrackPointExtension>
</extensions>
</trkpt>
<trkpt lat="51.9586247" lon="7.5096397">
<ele>58.7777100</ele>
<time>2011-07-31T13:36:27Z</time>
<extensions>
<tp1:TrackPointExtension>
<tp1:hr>140</tp1:hr>
</tp1:TrackPointExtension>
</extensions>
</trkpt>
<trkpt lat="51.9585925" lon="7.5092694">
<ele>58.2971191</ele>
<time>2011-07-31T13:36:31Z</time>
<extensions>
<tp1:TrackPointExtension>
<tp1:hr>138</tp1:hr>
</tp1:TrackPointExtension>
</extensions>
</trkpt>
<trkpt lat="51.9585626" lon="7.5088627">
<ele>60.7003174</ele>
<time>2011-07-31T13:36:36Z</time>
<extensions>
<tp1:TrackPointExtension>
<tp1:hr>132</tp1:hr>
</tp1:TrackPointExtension>
</extensions>
</trkpt>
<trkpt lat="51.9585473" lon="7.5087615">
<ele>62.6229248</ele>
<time>2011-07-31T13:36:38Z</time>
<extensions>
<tp1:TrackPointExtension>
<tp1:hr>130</tp1:hr>
</tp1:TrackPointExtension>
</extensions>
</trkpt>
<trkpt lat="51.9584730" lon="7.5086633">
<ele>61.6617432</ele>
<time>2011-07-31T13:36:42Z</time>
<extensions>
<tp1:TrackPointExtension>
<tp1:hr>128</tp1:hr>
</tp1:TrackPointExtension>
</extensions>
</trkpt>
<trkpt lat="51.9584300" lon="7.5086648">
<ele>61.6617432</ele>
<time>2011-07-31T13:36:43Z</time>
<extensions>
<tp1:TrackPointExtension>
<tp1:hr>128</tp1:hr>
</tp1:TrackPointExtension>
</extensions>
</trkpt>
<trkpt lat="51.9580984" lon="7.5087178">
<ele>61.6617432</ele>
<time>2011-07-31T13:36:49Z</time>
<extensions>
<tp1:TrackPointExtension>
<tp1:hr>131</tp1:hr>
</tp1:TrackPointExtension>
</extensions>
</trkpt>
<trkpt lat="51.9578579" lon="7.5087653">
<ele>62.1423340</ele>
<time>2011-07-31T13:36:53Z</time>
<extensions>
<tp1:TrackPointExtension>
<tp1:hr>136</tp1:hr>
</tp1:TrackPointExtension>
</extensions>
</trkpt>
<trkpt lat="51.9577396" lon="7.5087880">
<ele>62.6229248</ele>
<time>2011-07-31T13:36:55Z</time>
<extensions>
<tp1:TrackPointExtension>
<tp1:hr>140</tp1:hr>
</tp1:TrackPointExtension>
</extensions>
</trkpt>
<trkpt lat="51.9575602" lon="7.5087994">
<ele>63.5843506</ele>
<time>2011-07-31T13:36:58Z</time>
<extensions>
<tp1:TrackPointExtension>
<tp1:hr>142</tp1:hr>
</tp1:TrackPointExtension>
</extensions>
</trkpt>
<trkpt lat="51.9571473" lon="7.5088867">
<ele>62.1423340</ele>
<time>2011-07-31T13:37:05Z</time>
<extensions>
<tp1:TrackPointExtension>
<tp1:hr>143</tp1:hr>
</tp1:TrackPointExtension>
</extensions>
</trkpt>
<trkpt lat="51.9570878" lon="7.5088943">
<ele>62.1423340</ele>
<time>2011-07-31T13:37:06Z</time>
<extensions>
<tp1:TrackPointExtension>
<tp1:hr>143</tp1:hr>
</tp1:TrackPointExtension>
</extensions>
</trkpt>
<trkpt lat="51.9567231" lon="7.5089348">
<ele>57.8165283</ele>
<time>2011-07-31T13:37:12Z</time>
<extensions>
<tp1:TrackPointExtension>
<tp1:hr>142</tp1:hr>
</tp1:TrackPointExtension>
</extensions>
</trkpt>
<trkpt lat="51.9563933" lon="7.5090051">
<ele>58.7777100</ele>
<time>2011-07-31T13:37:17Z</time>
<extensions>
<tp1:TrackPointExtension>
<tp1:hr>142</tp1:hr>
</tp1:TrackPointExtension>
</extensions>
</trkpt>
<trkpt lat="51.9558947" lon="7.5091270">
<ele>56.8551025</ele>
<time>2011-07-31T13:37:24Z</time>
<extensions>
<tp1:TrackPointExtension>
<tp1:hr>142</tp1:hr>
</tp1:TrackPointExtension>
</extensions>
</trkpt>
<trkpt lat="51.9553637" lon="7.5091931">
<ele>53.9711914</ele>
<time>2011-07-31T13:37:32Z</time>
<extensions>
<tp1:TrackPointExtension>
<tp1:hr>143</tp1:hr>
</tp1:TrackPointExtension>
</extensions>
</trkpt>
<trkpt lat="51.9549795" lon="7.5092356">
<ele>51.5678711</ele>
<time>2011-07-31T13:37:38Z</time>
<extensions>
<tp1:TrackPointExtension>
<tp1:hr>144</tp1:hr>
</tp1:TrackPointExtension>
</extensions>
</trkpt>
<trkpt lat="51.9545298" lon="7.5093284">
<ele>50.6065674</ele>
<time>2011-07-31T13:37:45Z</time>
<extensions>
<tp1:TrackPointExtension>
<tp1:hr>144</tp1:hr>
</tp1:TrackPointExtension>
</extensions>
</trkpt>
<trkpt lat="51.9539956" lon="7.5094180">
<ele>54.4517822</ele>
<time>2011-07-31T13:37:53Z</time>
<extensions>
<tp1:TrackPointExtension>
<tp1:hr>144</tp1:hr>
</tp1:TrackPointExtension>
</extensions>
</trkpt>
<trkpt lat="51.9534685" lon="7.5095065">
<ele>56.3745117</ele>
<time>2011-07-31T13:38:01Z</time>
<extensions>
<tp1:TrackPointExtension>
<tp1:hr>142</tp1:hr>
</tp1:TrackPointExtension>
</extensions>
</trkpt>
<trkpt lat="51.9531147" lon="7.5095672">
<ele>57.3358154</ele>
<time>2011-07-31T13:38:07Z</time>
<extensions>
<tp1:TrackPointExtension>
<tp1:hr>137</tp1:hr>
</tp1:TrackPointExtension>
</extensions>
</trkpt>
<trkpt lat="51.9526788" lon="7.5096352">
<ele>55.8937988</ele>
<time>2011-07-31T13:38:14Z</time>
<extensions>
<tp1:TrackPointExtension>
<tp1:hr>134</tp1:hr>
</tp1:TrackPointExtension>
</extensions>
</trkpt>
<trkpt lat="51.9522131" lon="7.5097061">
<ele>53.9711914</ele>
<time>2011-07-31T13:38:21Z</time>
<extensions>
<tp1:TrackPointExtension>
<tp1:hr>137</tp1:hr>
</tp1:TrackPointExtension>
</extensions>
</trkpt>
<trkpt lat="51.9519553" lon="7.5097511">
<ele>54.4517822</ele>
<time>2011-07-31T13:38:25Z</time>
<extensions>
<tp1:TrackPointExtension>
<tp1:hr>137</tp1:hr>
</tp1:TrackPointExtension>
</extensions>
</trkpt>
<trkpt lat="51.9513525" lon="7.5098424">
<ele>49.6452637</ele>
<time>2011-07-31T13:38:34Z</time>
<extensions>
<tp1:TrackPointExtension>
<tp1:hr>136</tp1:hr>
</tp1:TrackPointExtension>
</extensions>
</trkpt>
<trkpt lat="51.9508777" lon="7.5099272">
<ele>48.6839600</ele>
<time>2011-07-31T13:38:41Z</time>
<extensions>
<tp1:TrackPointExtension>
<tp1:hr>138</tp1:hr>
</tp1:TrackPointExtension>
</extensions>
</trkpt>
<trkpt lat="51.9503910" lon="7.5100231">
<ele>49.1645508</ele>
<time>2011-07-31T13:38:48Z</time>
<extensions>
<tp1:TrackPointExtension>
<tp1:hr>139</tp1:hr>
</tp1:TrackPointExtension>
</extensions>
</trkpt>
<trkpt lat="51.9499802" lon="7.5100914">
<ele>53.9711914</ele>
<time>2011-07-31T13:38:54Z</time>
<extensions>
<tp1:TrackPointExtension>
<tp1:hr>140</tp1:hr>
</tp1:TrackPointExtension>
</extensions>
</trkpt>
<trkpt lat="51.9494928" lon="7.5101767">
<ele>57.8165283</ele>
<time>2011-07-31T13:39:01Z</time>
<extensions>
<tp1:TrackPointExtension>
<tp1:hr>140</tp1:hr>
</tp1:TrackPointExtension>
</extensions>
</trkpt>
<trkpt lat="51.9489409" lon="7.5102686">
<ele>56.3745117</ele>
<time>2011-07-31T13:39:09Z</time>
<extensions>
<tp1:TrackPointExtension>
<tp1:hr>140</tp1:hr>
</tp1:TrackPointExtension>
</extensions>
</trkpt>
<trkpt lat="51.9483866" lon="7.5103906">
<ele>56.8551025</ele>
<time>2011-07-31T13:39:17Z</time>
<extensions>
<tp1:TrackPointExtension>
<tp1:hr>141</tp1:hr>
</tp1:TrackPointExtension>
</extensions>
</trkpt>
<trkpt lat="51.9478874" lon="7.5105108">
<ele>55.8937988</ele>
<time>2011-07-31T13:39:24Z</time>
<extensions>
<tp1:TrackPointExtension>
<tp1:hr>142</tp1:hr>
</tp1:TrackPointExtension>
</extensions>
</trkpt>
<trkpt lat="51.9475497" lon="7.5106048">
<ele>56.8551025</ele>
<time>2011-07-31T13:39:29Z</time>
<extensions>
<tp1:TrackPointExtension>
<tp1:hr>142</tp1:hr>
</tp1:TrackPointExtension>
</extensions>
</trkpt>
<trkpt lat="51.9470793" lon="7.5107168">
<ele>58.7777100</ele>
<time>2011-07-31T13:39:36Z</time>
<extensions>
<tp1:TrackPointExtension>
<tp1:hr>143</tp1:hr>
</tp1:TrackPointExtension>
</extensions>
</trkpt>
<trkpt lat="51.9465374" lon="7.5108446">
<ele>62.1423340</ele>
<time>2011-07-31T13:39:44Z</time>
<extensions>
<tp1:TrackPointExtension>
<tp1:hr>144</tp1:hr>
</tp1:TrackPointExtension>
</extensions>
</trkpt>
<trkpt lat="51.9461931" lon="7.5109278">
<ele>64.0650635</ele>
<time>2011-07-31T13:39:49Z</time>
<extensions>
<tp1:TrackPointExtension>
<tp1:hr>146</tp1:hr>
</tp1:TrackPointExtension>
</extensions>
</trkpt>
<trkpt lat="51.9457133" lon="7.5110271">
<ele>64.5456543</ele>
<time>2011-07-31T13:39:56Z</time>
<extensions>
<tp1:TrackPointExtension>
<tp1:hr>145</tp1:hr>
</tp1:TrackPointExtension>
</extensions>
</trkpt>
<trkpt lat="51.9449457" lon="7.5111828">
<ele>65.0263672</ele>
<time>2011-07-31T13:40:07Z</time>
<extensions>
<tp1:TrackPointExtension>
<tp1:hr>142</tp1:hr>
</tp1:TrackPointExtension>
</extensions>
</trkpt>
<trkpt lat="51.9442620" lon="7.5113227">
<ele>64.5456543</ele>
<time>2011-07-31T13:40:17Z</time>
<extensions>
<tp1:TrackPointExtension>
<tp1:hr>140</tp1:hr>
</tp1:TrackPointExtension>
</extensions>
</trkpt>
<trkpt lat="51.9435152" lon="7.5114774">
<ele>63.5843506</ele>
<time>2011-07-31T13:40:28Z</time>
<extensions>
<tp1:TrackPointExtension>
<tp1:hr>138</tp1:hr>
</tp1:TrackPointExtension>
</extensions>
</trkpt>
<trkpt lat="51.9427667" lon="7.5116407">
<ele>63.5843506</ele>
<time>2011-07-31T13:40:39Z</time>
<extensions>
<tp1:TrackPointExtension>
<tp1:hr>137</tp1:hr>
</tp1:TrackPointExtension>
</extensions>
</trkpt>
<trkpt lat="51.9421656" lon="7.5117711">
<ele>61.1810303</ele>
<time>2011-07-31T13:40:48Z</time>
<extensions>
<tp1:TrackPointExtension>
<tp1:hr>139</tp1:hr>
</tp1:TrackPointExtension>
</extensions>
</trkpt>
<trkpt lat="51.9420979" lon="7.5117903">
<ele>61.1810303</ele>
<time>2011-07-31T13:40:49Z</time>
<extensions>
<tp1:TrackPointExtension>
<tp1:hr>139</tp1:hr>
</tp1:TrackPointExtension>
</extensions>
</trkpt>
<trkpt lat="51.9415558" lon="7.5118687">
<ele>63.1036377</ele>
<time>2011-07-31T13:40:57Z</time>
<extensions>
<tp1:TrackPointExtension>
<tp1:hr>140</tp1:hr>
</tp1:TrackPointExtension>
</extensions>
</trkpt>
<trkpt lat="51.9410891" lon="7.5119096">
<ele>62.6229248</ele>
<time>2011-07-31T13:41:04Z</time>
<extensions>
<tp1:TrackPointExtension>
<tp1:hr>140</tp1:hr>
</tp1:TrackPointExtension>
</extensions>
</trkpt>
<trkpt lat="51.9404800" lon="7.5119387">
<ele>62.6229248</ele>
<time>2011-07-31T13:41:13Z</time>
<extensions>
<tp1:TrackPointExtension>
<tp1:hr>139</tp1:hr>
</tp1:TrackPointExtension>
</extensions>
</trkpt>
<trkpt lat="51.9400062" lon="7.5119703">
<ele>62.6229248</ele>
<time>2011-07-31T13:41:20Z</time>
<extensions>
<tp1:TrackPointExtension>
<tp1:hr>139</tp1:hr>
</tp1:TrackPointExtension>
</extensions>
</trkpt>
<trkpt lat="51.9396702" lon="7.5119877">
<ele>62.1423340</ele>
<time>2011-07-31T13:41:25Z</time>
<extensions>
<tp1:TrackPointExtension>
<tp1:hr>140</tp1:hr>
</tp1:TrackPointExtension>
</extensions>
</trkpt>
<trkpt lat="51.9392018" lon="7.5120209">
<ele>63.5843506</ele>
<time>2011-07-31T13:41:32Z</time>
<extensions>
<tp1:TrackPointExtension>
<tp1:hr>140</tp1:hr>
</tp1:TrackPointExtension>
</extensions>
</trkpt>
<trkpt lat="51.9385860" lon="7.5120576">
<ele>64.0650635</ele>
<time>2011-07-31T13:41:41Z</time>
<extensions>
<tp1:TrackPointExtension>
<tp1:hr>139</tp1:hr>
</tp1:TrackPointExtension>
</extensions>
</trkpt>
<trkpt lat="51.9379701" lon="7.5120907">
<ele>62.6229248</ele>
<time>2011-07-31T13:41:50Z</time>
<extensions>
<tp1:TrackPointExtension>
<tp1:hr>140</tp1:hr>
</tp1:TrackPointExtension>
</extensions>
</trkpt>
<trkpt lat="51.9374250" lon="7.5121283">
<ele>63.5843506</ele>
<time>2011-07-31T13:41:58Z</time>
<extensions>
<tp1:TrackPointExtension>
<tp1:hr>139</tp1:hr>
</tp1:TrackPointExtension>
</extensions>
</trkpt>
<trkpt lat="51.9371517" lon="7.5121327">
<ele>62.1423340</ele>
<time>2011-07-31T13:42:02Z</time>
<extensions>
<tp1:TrackPointExtension>
<tp1:hr>139</tp1:hr>
</tp1:TrackPointExtension>
</extensions>
</trkpt>
<trkpt lat="51.9367412" lon="7.5121018">
<ele>62.6229248</ele>
<time>2011-07-31T13:42:08Z</time>
<extensions>
<tp1:TrackPointExtension>
<tp1:hr>140</tp1:hr>
</tp1:TrackPointExtension>
</extensions>
</trkpt>
<trkpt lat="51.9363493" lon="7.5119651">
<ele>61.6617432</ele>
<time>2011-07-31T13:42:14Z</time>
<extensions>
<tp1:TrackPointExtension>
<tp1:hr>140</tp1:hr>
</tp1:TrackPointExtension>
</extensions>
</trkpt>
<trkpt lat="51.9359731" lon="7.5118677">
<ele>56.8551025</ele>
<time>2011-07-31T13:42:20Z</time>
<extensions>
<tp1:TrackPointExtension>
<tp1:hr>140</tp1:hr>
</tp1:TrackPointExtension>
</extensions>
</trkpt>
<trkpt lat="51.9359132" lon="7.5118553">
<ele>56.3745117</ele>
<time>2011-07-31T13:42:21Z</time>
<extensions>
<tp1:TrackPointExtension>
<tp1:hr>139</tp1:hr>
</tp1:TrackPointExtension>
</extensions>
</trkpt>
<trkpt lat="51.9355220" lon="7.5118551">
<ele>54.9323730</ele>
<time>2011-07-31T13:42:27Z</time>
<extensions>
<tp1:TrackPointExtension>
<tp1:hr>139</tp1:hr>
</tp1:TrackPointExtension>
</extensions>
</trkpt>
<trkpt lat="51.9351775" lon="7.5118921">
<ele>58.2971191</ele>
<time>2011-07-31T13:42:32Z</time>
<extensions>
<tp1:TrackPointExtension>
<tp1:hr>138</tp1:hr>
</tp1:TrackPointExtension>
</extensions>
</trkpt>
<trkpt lat="51.9348377" lon="7.5119085">
<ele>60.7003174</ele>
<time>2011-07-31T13:42:37Z</time>
<extensions>
<tp1:TrackPointExtension>
<tp1:hr>137</tp1:hr>
</tp1:TrackPointExtension>
</extensions>
</trkpt>
<trkpt lat="51.9343948" lon="7.5119464">
<ele>63.1036377</ele>
<time>2011-07-31T13:42:43Z</time>
<extensions>
<tp1:TrackPointExtension>
<tp1:hr>137</tp1:hr>
</tp1:TrackPointExtension>
</extensions>
</trkpt>
<trkpt lat="51.9340637" lon="7.5119905">
<ele>63.5843506</ele>
<time>2011-07-31T13:42:48Z</time>
<extensions>
<tp1:TrackPointExtension>
<tp1:hr>136</tp1:hr>
</tp1:TrackPointExtension>
</extensions>
</trkpt>
<trkpt lat="51.9336551" lon="7.5120221">
<ele>65.9876709</ele>
<time>2011-07-31T13:42:54Z</time>
<extensions>
<tp1:TrackPointExtension>
<tp1:hr>136</tp1:hr>
</tp1:TrackPointExtension>
</extensions>
</trkpt>
<trkpt lat="51.9333491" lon="7.5120690">
<ele>68.8715820</ele>
<time>2011-07-31T13:42:59Z</time>
<extensions>
<tp1:TrackPointExtension>
<tp1:hr>136</tp1:hr>
</tp1:TrackPointExtension>
</extensions>
</trkpt>
<trkpt lat="51.9330537" lon="7.5121479">
<ele>69.3522949</ele>
<time>2011-07-31T13:43:04Z</time>
<extensions>
<tp1:TrackPointExtension>
<tp1:hr>135</tp1:hr>
</tp1:TrackPointExtension>
</extensions>
</trkpt>
<trkpt lat="51.9328114" lon="7.5121882">
<ele>75.6008301</ele>
<time>2011-07-31T13:43:08Z</time>
<extensions>
<tp1:TrackPointExtension>
<tp1:hr>135</tp1:hr>
</tp1:TrackPointExtension>
</extensions>
</trkpt>
<trkpt lat="51.9325351" lon="7.5120876">
<ele>83.2913818</ele>
<time>2011-07-31T13:43:12Z</time>
<extensions>
<tp1:TrackPointExtension>
<tp1:hr>135</tp1:hr>
</tp1:TrackPointExtension>
</extensions>
</trkpt>
<trkpt lat="51.9323594" lon="7.5117963">
<ele>80.8881836</ele>
<time>2011-07-31T13:43:15Z</time>
<extensions>
<tp1:TrackPointExtension>
<tp1:hr>136</tp1:hr>
</tp1:TrackPointExtension>
</extensions>
</trkpt>
<trkpt lat="51.9321076" lon="7.5108600">
<ele>70.3134766</ele>
<time>2011-07-31T13:43:23Z</time>
<extensions>
<tp1:TrackPointExtension>
<tp1:hr>139</tp1:hr>
</tp1:TrackPointExtension>
</extensions>
</trkpt>
<trkpt lat="51.9319509" lon="7.5102141">
<ele>65.9876709</ele>
<time>2011-07-31T13:43:29Z</time>
<extensions>
<tp1:TrackPointExtension>
<tp1:hr>139</tp1:hr>
</tp1:TrackPointExtension>
</extensions>
</trkpt>
<trkpt lat="51.9317395" lon="7.5096019">
<ele>56.8551025</ele>
<time>2011-07-31T13:43:35Z</time>
<extensions>
<tp1:TrackPointExtension>
<tp1:hr>139</tp1:hr>
</tp1:TrackPointExtension>
</extensions>
</trkpt>
<trkpt lat="51.9317015" lon="7.5095014">
<ele>55.4130859</ele>
<time>2011-07-31T13:43:36Z</time>
<extensions>
<tp1:TrackPointExtension>
<tp1:hr>139</tp1:hr>
</tp1:TrackPointExtension>
</extensions>
</trkpt>
<trkpt lat="51.9315604" lon="7.5090083">
<ele>48.2033691</ele>
<time>2011-07-31T13:43:41Z</time>
<extensions>
<tp1:TrackPointExtension>
<tp1:hr>139</tp1:hr>
</tp1:TrackPointExtension>
</extensions>
</trkpt>
<trkpt lat="51.9314386" lon="7.5086307">
<ele>43.3966064</ele>
<time>2011-07-31T13:43:45Z</time>
<extensions>
<tp1:TrackPointExtension>
<tp1:hr>140</tp1:hr>
</tp1:TrackPointExtension>
</extensions>
</trkpt>
<trkpt lat="51.9312825" lon="7.5079230">
<ele>33.7834473</ele>
<time>2011-07-31T13:43:52Z</time>
<extensions>
<tp1:TrackPointExtension>
<tp1:hr>140</tp1:hr>
</tp1:TrackPointExtension>
</extensions>
</trkpt>
<trkpt lat="51.9311381" lon="7.5072988">
<ele>38.5900879</ele>
<time>2011-07-31T13:43:58Z</time>
<extensions>
<tp1:TrackPointExtension>
<tp1:hr>141</tp1:hr>
</tp1:TrackPointExtension>
</extensions>
</trkpt>
<trkpt lat="51.9309687" lon="7.5064670">
<ele>47.2418213</ele>
<time>2011-07-31T13:44:06Z</time>
<extensions>
<tp1:TrackPointExtension>
<tp1:hr>142</tp1:hr>
</tp1:TrackPointExtension>
</extensions>
</trkpt>
<trkpt lat="51.9308138" lon="7.5057446">
<ele>52.0485840</ele>
<time>2011-07-31T13:44:13Z</time>
<extensions>
<tp1:TrackPointExtension>
<tp1:hr>143</tp1:hr>
</tp1:TrackPointExtension>
</extensions>
</trkpt>
<trkpt lat="51.9306340" lon="7.5049466">
<ele>57.3358154</ele>
<time>2011-07-31T13:44:21Z</time>
<extensions>
<tp1:TrackPointExtension>
<tp1:hr>143</tp1:hr>
</tp1:TrackPointExtension>
</extensions>
</trkpt>
<trkpt lat="51.9304895" lon="7.5042389">
<ele>58.7777100</ele>
<time>2011-07-31T13:44:28Z</time>
<extensions>
<tp1:TrackPointExtension>
<tp1:hr>142</tp1:hr>
</tp1:TrackPointExtension>
</extensions>
</trkpt>
<trkpt lat="51.9304201" lon="7.5036026">
<ele>60.7003174</ele>
<time>2011-07-31T13:44:34Z</time>
<extensions>
<tp1:TrackPointExtension>
<tp1:hr>142</tp1:hr>
</tp1:TrackPointExtension>
</extensions>
</trkpt>
<trkpt lat="51.9303884" lon="7.5026694">
<ele>62.6229248</ele>
<time>2011-07-31T13:44:43Z</time>
<extensions>
<tp1:TrackPointExtension>
<tp1:hr>142</tp1:hr>
</tp1:TrackPointExtension>
</extensions>
</trkpt>
<trkpt lat="51.9303945" lon="7.5017147">
<ele>63.1036377</ele>
<time>2011-07-31T13:44:52Z</time>
<extensions>
<tp1:TrackPointExtension>
<tp1:hr>145</tp1:hr>
</tp1:TrackPointExtension>
</extensions>
</trkpt>
<trkpt lat="51.9303936" lon="7.5004310">
<ele>64.0650635</ele>
<time>2011-07-31T13:45:04Z</time>
<extensions>
<tp1:TrackPointExtension>
<tp1:hr>146</tp1:hr>
</tp1:TrackPointExtension>
</extensions>
</trkpt>
<trkpt lat="51.9303915" lon="7.4993686">
<ele>64.0650635</ele>
<time>2011-07-31T13:45:14Z</time>
<extensions>
<tp1:TrackPointExtension>
<tp1:hr>146</tp1:hr>
</tp1:TrackPointExtension>
</extensions>
</trkpt>
<trkpt lat="51.9303916" lon="7.4982871">
<ele>64.0650635</ele>
<time>2011-07-31T13:45:24Z</time>
<extensions>
<tp1:TrackPointExtension>
<tp1:hr>147</tp1:hr>
</tp1:TrackPointExtension>
</extensions>
</trkpt>
<trkpt lat="51.9303930" lon="7.4968442">
<ele>64.0650635</ele>
<time>2011-07-31T13:45:37Z</time>
<extensions>
<tp1:TrackPointExtension>
<tp1:hr>147</tp1:hr>
</tp1:TrackPointExtension>
</extensions>
</trkpt>
<trkpt lat="51.9303906" lon="7.4958824">
<ele>65.0263672</ele>
<time>2011-07-31T13:45:46Z</time>
<extensions>
<tp1:TrackPointExtension>
<tp1:hr>147</tp1:hr>
</tp1:TrackPointExtension>
</extensions>
</trkpt>
<trkpt lat="51.9303927" lon="7.4946605">
<ele>63.1036377</ele>
<time>2011-07-31T13:45:57Z</time>
<extensions>
<tp1:TrackPointExtension>
<tp1:hr>145</tp1:hr>
</tp1:TrackPointExtension>
</extensions>
</trkpt>
<trkpt lat="51.9303985" lon="7.4936601">
<ele>62.1423340</ele>
<time>2011-07-31T13:46:06Z</time>
<extensions>
<tp1:TrackPointExtension>
<tp1:hr>140</tp1:hr>
</tp1:TrackPointExtension>
</extensions>
</trkpt>
<trkpt lat="51.9303987" lon="7.4926444">
<ele>61.6617432</ele>
<time>2011-07-31T13:46:15Z</time>
<extensions>
<tp1:TrackPointExtension>
<tp1:hr>136</tp1:hr>
</tp1:TrackPointExtension>
</extensions>
</trkpt>
<trkpt lat="51.9303971" lon="7.4915290">
<ele>61.1810303</ele>
<time>2011-07-31T13:46:25Z</time>
<extensions>
<tp1:TrackPointExtension>
<tp1:hr>132</tp1:hr>
</tp1:TrackPointExtension>
</extensions>
</trkpt>
<trkpt lat="51.9303850" lon="7.4902749">
<ele>58.2971191</ele>
<time>2011-07-31T13:46:36Z</time>
<extensions>
<tp1:TrackPointExtension>
<tp1:hr>133</tp1:hr>
</tp1:TrackPointExtension>
</extensions>
</trkpt>
<trkpt lat="51.9303518" lon="7.4895213">
<ele>59.2584229</ele>
<time>2011-07-31T13:46:43Z</time>
<extensions>
<tp1:TrackPointExtension>
<tp1:hr>134</tp1:hr>
</tp1:TrackPointExtension>
</extensions>
</trkpt>
<trkpt lat="51.9302409" lon="7.4888152">
<ele>60.7003174</ele>
<time>2011-07-31T13:46:50Z</time>
<extensions>
<tp1:TrackPointExtension>
<tp1:hr>136</tp1:hr>
</tp1:TrackPointExtension>
</extensions>
</trkpt>
<trkpt lat="51.9300607" lon="7.4881403">
<ele>62.1423340</ele>
<time>2011-07-31T13:46:57Z</time>
<extensions>
<tp1:TrackPointExtension>
<tp1:hr>140</tp1:hr>
</tp1:TrackPointExtension>
</extensions>
</trkpt>
<trkpt lat="51.9297323" lon="7.4873560">
<ele>58.7777100</ele>
<time>2011-07-31T13:47:06Z</time>
<extensions>
<tp1:TrackPointExtension>
<tp1:hr>142</tp1:hr>
</tp1:TrackPointExtension>
</extensions>
</trkpt>
<trkpt lat="51.9293980" lon="7.4868234">
<ele>53.4904785</ele>
<time>2011-07-31T13:47:13Z</time>
<extensions>
<tp1:TrackPointExtension>
<tp1:hr>144</tp1:hr>
</tp1:TrackPointExtension>
</extensions>
</trkpt>
<trkpt lat="51.9290491" lon="7.4863714">
<ele>53.0097656</ele>
<time>2011-07-31T13:47:20Z</time>
<extensions>
<tp1:TrackPointExtension>
<tp1:hr>146</tp1:hr>
</tp1:TrackPointExtension>
</extensions>
</trkpt>
<trkpt lat="51.9288076" lon="7.4860611">
<ele>53.0097656</ele>
<time>2011-07-31T13:47:25Z</time>
<extensions>
<tp1:TrackPointExtension>
<tp1:hr>148</tp1:hr>
</tp1:TrackPointExtension>
</extensions>
</trkpt>
<trkpt lat="51.9284175" lon="7.4855943">
<ele>53.4904785</ele>
<time>2011-07-31T13:47:33Z</time>
<extensions>
<tp1:TrackPointExtension>
<tp1:hr>151</tp1:hr>
</tp1:TrackPointExtension>
</extensions>
</trkpt>
<trkpt lat="51.9278751" lon="7.4850587">
<ele>53.0097656</ele>
<time>2011-07-31T13:47:43Z</time>
<extensions>
<tp1:TrackPointExtension>
<tp1:hr>152</tp1:hr>
</tp1:TrackPointExtension>
</extensions>
</trkpt>
<trkpt lat="51.9273913" lon="7.4847033">
<ele>53.4904785</ele>
<time>2011-07-31T13:47:51Z</time>
<extensions>
<tp1:TrackPointExtension>
<tp1:hr>152</tp1:hr>
</tp1:TrackPointExtension>
</extensions>
</trkpt>
<trkpt lat="51.9269328" lon="7.4845355">
<ele>54.9323730</ele>
<time>2011-07-31T13:47:58Z</time>
<extensions>
<tp1:TrackPointExtension>
<tp1:hr>151</tp1:hr>
</tp1:TrackPointExtension>
</extensions>
</trkpt>
<trkpt lat="51.9262963" lon="7.4844420">
<ele>57.8165283</ele>
<time>2011-07-31T13:48:07Z</time>
<extensions>
<tp1:TrackPointExtension>
<tp1:hr>147</tp1:hr>
</tp1:TrackPointExtension>
</extensions>
</trkpt>
<trkpt lat="51.9258601" lon="7.4844281">
<ele>58.7777100</ele>
<time>2011-07-31T13:48:13Z</time>
<extensions>
<tp1:TrackPointExtension>
<tp1:hr>143</tp1:hr>
</tp1:TrackPointExtension>
</extensions>
</trkpt>
<trkpt lat="51.9254819" lon="7.4844648">
<ele>58.7777100</ele>
<time>2011-07-31T13:48:18Z</time>
<extensions>
<tp1:TrackPointExtension>
<tp1:hr>138</tp1:hr>
</tp1:TrackPointExtension>
</extensions>
</trkpt>
<trkpt lat="51.9249594" lon="7.4846089">
<ele>59.2584229</ele>
<time>2011-07-31T13:48:25Z</time>
<extensions>
<tp1:TrackPointExtension>
<tp1:hr>138</tp1:hr>
</tp1:TrackPointExtension>
</extensions>
</trkpt>
<trkpt lat="51.9243340" lon="7.4848647">
<ele>58.7777100</ele>
<time>2011-07-31T13:48:34Z</time>
<extensions>
<tp1:TrackPointExtension>
<tp1:hr>135</tp1:hr>
</tp1:TrackPointExtension>
</extensions>
</trkpt>
<trkpt lat="51.9236697" lon="7.4851177">
<ele>58.7777100</ele>
<time>2011-07-31T13:48:44Z</time>
<extensions>
<tp1:TrackPointExtension>
<tp1:hr>138</tp1:hr>
</tp1:TrackPointExtension>
</extensions>
</trkpt>
<trkpt lat="51.9231224" lon="7.4852922">
<ele>58.7777100</ele>
<time>2011-07-31T13:48:52Z</time>
<extensions>
<tp1:TrackPointExtension>
<tp1:hr>141</tp1:hr>
</tp1:TrackPointExtension>
</extensions>
</trkpt>
<trkpt lat="51.9224959" lon="7.4853803">
<ele>57.3358154</ele>
<time>2011-07-31T13:49:01Z</time>
<extensions>
<tp1:TrackPointExtension>
<tp1:hr>143</tp1:hr>
</tp1:TrackPointExtension>
</extensions>
</trkpt>
<trkpt lat="51.9219331" lon="7.4853207">
<ele>55.4130859</ele>
<time>2011-07-31T13:49:09Z</time>
<extensions>
<tp1:TrackPointExtension>
<tp1:hr>139</tp1:hr>
</tp1:TrackPointExtension>
</extensions>
</trkpt>
<trkpt lat="51.9215279" lon="7.4851460">
<ele>53.9711914</ele>
<time>2011-07-31T13:49:15Z</time>
<extensions>
<tp1:TrackPointExtension>
<tp1:hr>140</tp1:hr>
</tp1:TrackPointExtension>
</extensions>
</trkpt>
<trkpt lat="51.9213325" lon="7.4850192">
<ele>53.4904785</ele>
<time>2011-07-31T13:49:18Z</time>
<extensions>
<tp1:TrackPointExtension>
<tp1:hr>140</tp1:hr>
</tp1:TrackPointExtension>
</extensions>
</trkpt>
<trkpt lat="51.9208132" lon="7.4844593">
<ele>54.9323730</ele>
<time>2011-07-31T13:49:27Z</time>
<extensions>
<tp1:TrackPointExtension>
<tp1:hr>140</tp1:hr>
</tp1:TrackPointExtension>
</extensions>
</trkpt>
<trkpt lat="51.9204826" lon="7.4838827">
<ele>54.9323730</ele>
<time>2011-07-31T13:49:34Z</time>
<extensions>
<tp1:TrackPointExtension>
<tp1:hr>141</tp1:hr>
</tp1:TrackPointExtension>
</extensions>
</trkpt>
<trkpt lat="51.9201262" lon="7.4830418">
<ele>54.4517822</ele>
<time>2011-07-31T13:49:43Z</time>
<extensions>
<tp1:TrackPointExtension>
<tp1:hr>141</tp1:hr>
</tp1:TrackPointExtension>
</extensions>
</trkpt>
<trkpt lat="51.9199050" lon="7.4825196">
<ele>53.9711914</ele>
<time>2011-07-31T13:49:49Z</time>
<extensions>
<tp1:TrackPointExtension>
<tp1:hr>137</tp1:hr>
</tp1:TrackPointExtension>
</extensions>
</trkpt>
<trkpt lat="51.9197878" lon="7.4821996">
<ele>54.4517822</ele>
<time>2011-07-31T13:49:53Z</time>
<extensions>
<tp1:TrackPointExtension>
<tp1:hr>132</tp1:hr>
</tp1:TrackPointExtension>
</extensions>
</trkpt>
<trkpt lat="51.9197160" lon="7.4819957">
<ele>54.9323730</ele>
<time>2011-07-31T13:49:56Z</time>
<extensions>
<tp1:TrackPointExtension>
<tp1:hr>130</tp1:hr>
</tp1:TrackPointExtension>
</extensions>
</trkpt>
<trkpt lat="51.9195480" lon="7.4815683">
<ele>55.4130859</ele>
<time>2011-07-31T13:50:02Z</time>
<extensions>
<tp1:TrackPointExtension>
<tp1:hr>129</tp1:hr>
</tp1:TrackPointExtension>
</extensions>
</trkpt>
<trkpt lat="51.9192208" lon="7.4810518">
<ele>53.4904785</ele>
<time>2011-07-31T13:50:09Z</time>
<extensions>
<tp1:TrackPointExtension>
<tp1:hr>135</tp1:hr>
</tp1:TrackPointExtension>
</extensions>
</trkpt>
<trkpt lat="51.9188008" lon="7.4806419">
<ele>53.4904785</ele>
<time>2011-07-31T13:50:16Z</time>
<extensions>
<tp1:TrackPointExtension>
<tp1:hr>138</tp1:hr>
</tp1:TrackPointExtension>
</extensions>
</trkpt>
<trkpt lat="51.9185939" lon="7.4804224">
<ele>54.9323730</ele>
<time>2011-07-31T13:50:20Z</time>
<extensions>
<tp1:TrackPointExtension>
<tp1:hr>139</tp1:hr>
</tp1:TrackPointExtension>
</extensions>
</trkpt>
<trkpt lat="51.9184936" lon="7.4802845">
<ele>55.4130859</ele>
<time>2011-07-31T13:50:22Z</time>
<extensions>
<tp1:TrackPointExtension>
<tp1:hr>140</tp1:hr>
</tp1:TrackPointExtension>
</extensions>
</trkpt>
<trkpt lat="51.9181648" lon="7.4797309">
<ele>55.8937988</ele>
<time>2011-07-31T13:50:29Z</time>
<extensions>
<tp1:TrackPointExtension>
<tp1:hr>140</tp1:hr>
</tp1:TrackPointExtension>
</extensions>
</trkpt>
<trkpt lat="51.9178998" lon="7.4789219">
<ele>52.5291748</ele>
<time>2011-07-31T13:50:37Z</time>
<extensions>
<tp1:TrackPointExtension>
<tp1:hr>138</tp1:hr>
</tp1:TrackPointExtension>
</extensions>
</trkpt>
<trkpt lat="51.9178458" lon="7.4787259">
<ele>53.4904785</ele>
<time>2011-07-31T13:50:39Z</time>
<extensions>
<tp1:TrackPointExtension>
<tp1:hr>138</tp1:hr>
</tp1:TrackPointExtension>
</extensions>
</trkpt>
<trkpt lat="51.9176579" lon="7.4785637">
<ele>56.8551025</ele>
<time>2011-07-31T13:50:43Z</time>
<extensions>
<tp1:TrackPointExtension>
<tp1:hr>136</tp1:hr>
</tp1:TrackPointExtension>
</extensions>
</trkpt>
<trkpt lat="51.9175125" lon="7.4782679">
<ele>57.8165283</ele>
<time>2011-07-31T13:50:47Z</time>
<extensions>
<tp1:TrackPointExtension>
<tp1:hr>132</tp1:hr>
</tp1:TrackPointExtension>
</extensions>
</trkpt>
<trkpt lat="51.9175404" lon="7.4780616">
<ele>57.3358154</ele>
<time>2011-07-31T13:50:49Z</time>
<extensions>
<tp1:TrackPointExtension>
<tp1:hr>133</tp1:hr>
</tp1:TrackPointExtension>
</extensions>
</trkpt>
<trkpt lat="51.9176615" lon="7.4770734">
<ele>48.6839600</ele>
<time>2011-07-31T13:50:58Z</time>
<extensions>
<tp1:TrackPointExtension>
<tp1:hr>137</tp1:hr>
</tp1:TrackPointExtension>
</extensions>
</trkpt>
<trkpt lat="51.9177841" lon="7.4764305">
<ele>48.2033691</ele>
<time>2011-07-31T13:51:04Z</time>
<extensions>
<tp1:TrackPointExtension>
<tp1:hr>139</tp1:hr>
</tp1:TrackPointExtension>
</extensions>
</trkpt>
<trkpt lat="51.9180416" lon="7.4755481">
<ele>46.7612305</ele>
<time>2011-07-31T13:51:13Z</time>
<extensions>
<tp1:TrackPointExtension>
<tp1:hr>139</tp1:hr>
</tp1:TrackPointExtension>
</extensions>
</trkpt>
<trkpt lat="51.9183039" lon="7.4750373">
<ele>47.2418213</ele>
<time>2011-07-31T13:51:19Z</time>
<extensions>
<tp1:TrackPointExtension>
<tp1:hr>140</tp1:hr>
</tp1:TrackPointExtension>
</extensions>
</trkpt>
<trkpt lat="51.9186296" lon="7.4746291">
<ele>52.5291748</ele>
<time>2011-07-31T13:51:25Z</time>
<extensions>
<tp1:TrackPointExtension>
<tp1:hr>142</tp1:hr>
</tp1:TrackPointExtension>
</extensions>
</trkpt>
<trkpt lat="51.9191105" lon="7.4742503">
<ele>57.8165283</ele>
<time>2011-07-31T13:51:33Z</time>
<extensions>
<tp1:TrackPointExtension>
<tp1:hr>145</tp1:hr>
</tp1:TrackPointExtension>
</extensions>
</trkpt>
<trkpt lat="51.9195974" lon="7.4739546">
<ele>57.8165283</ele>
<time>2011-07-31T13:51:41Z</time>
<extensions>
<tp1:TrackPointExtension>
<tp1:hr>145</tp1:hr>
</tp1:TrackPointExtension>
</extensions>
</trkpt>
<trkpt lat="51.9196543" lon="7.4739201">
<ele>57.8165283</ele>
<time>2011-07-31T13:51:42Z</time>
<extensions>
<tp1:TrackPointExtension>
<tp1:hr>144</tp1:hr>
</tp1:TrackPointExtension>
</extensions>
</trkpt>
<trkpt lat="51.9198201" lon="7.4737272">
<ele>56.8551025</ele>
<time>2011-07-31T13:51:46Z</time>
<extensions>
<tp1:TrackPointExtension>
<tp1:hr>142</tp1:hr>
</tp1:TrackPointExtension>
</extensions>
</trkpt>
<trkpt lat="51.9198004" lon="7.4735235">
<ele>56.8551025</ele>
<time>2011-07-31T13:51:48Z</time>
<extensions>
<tp1:TrackPointExtension>
<tp1:hr>142</tp1:hr>
</tp1:TrackPointExtension>
</extensions>
</trkpt>
<trkpt lat="51.9197713" lon="7.4734262">
<ele>56.8551025</ele>
<time>2011-07-31T13:51:49Z</time>
<extensions>
<tp1:TrackPointExtension>
<tp1:hr>142</tp1:hr>
</tp1:TrackPointExtension>
</extensions>
</trkpt>
<trkpt lat="51.9194881" lon="7.4727024">
<ele>53.9711914</ele>
<time>2011-07-31T13:51:57Z</time>
<extensions>
<tp1:TrackPointExtension>
<tp1:hr>144</tp1:hr>
</tp1:TrackPointExtension>
</extensions>
</trkpt>
<trkpt lat="51.9192679" lon="7.4721644">
<ele>52.0485840</ele>
<time>2011-07-31T13:52:03Z</time>
<extensions>
<tp1:TrackPointExtension>
<tp1:hr>145</tp1:hr>
</tp1:TrackPointExtension>
</extensions>
</trkpt>
<trkpt lat="51.9189320" lon="7.4714721">
<ele>51.5678711</ele>
<time>2011-07-31T13:52:11Z</time>
<extensions>
<tp1:TrackPointExtension>
<tp1:hr>144</tp1:hr>
</tp1:TrackPointExtension>
</extensions>
</trkpt>
<trkpt lat="51.9185996" lon="7.4707723">
<ele>51.0871582</ele>
<time>2011-07-31T13:52:19Z</time>
<extensions>
<tp1:TrackPointExtension>
<tp1:hr>143</tp1:hr>
</tp1:TrackPointExtension>
</extensions>
</trkpt>
<trkpt lat="51.9182669" lon="7.4700954">
<ele>50.6065674</ele>
<time>2011-07-31T13:52:27Z</time>
<extensions>
<tp1:TrackPointExtension>
<tp1:hr>144</tp1:hr>
</tp1:TrackPointExtension>
</extensions>
</trkpt>
<trkpt lat="51.9180599" lon="7.4695338">
<ele>50.6065674</ele>
<time>2011-07-31T13:52:33Z</time>
<extensions>
<tp1:TrackPointExtension>
<tp1:hr>145</tp1:hr>
</tp1:TrackPointExtension>
</extensions>
</trkpt>
<trkpt lat="51.9179091" lon="7.4690557">
<ele>53.4904785</ele>
<time>2011-07-31T13:52:38Z</time>
<extensions>
<tp1:TrackPointExtension>
<tp1:hr>145</tp1:hr>
</tp1:TrackPointExtension>
</extensions>
</trkpt>
<trkpt lat="51.9178781" lon="7.4689614">
<ele>53.9711914</ele>
<time>2011-07-31T13:52:39Z</time>
<extensions>
<tp1:TrackPointExtension>
<tp1:hr>145</tp1:hr>
</tp1:TrackPointExtension>
</extensions>
</trkpt>
<trkpt lat="51.9177447" lon="7.4684585">
<ele>56.3745117</ele>
<time>2011-07-31T13:52:44Z</time>
<extensions>
<tp1:TrackPointExtension>
<tp1:hr>146</tp1:hr>
</tp1:TrackPointExtension>
</extensions>
</trkpt>
<trkpt lat="51.9175738" lon="7.4678622">
<ele>58.2971191</ele>
<time>2011-07-31T13:52:50Z</time>
<extensions>
<tp1:TrackPointExtension>
<tp1:hr>146</tp1:hr>
</tp1:TrackPointExtension>
</extensions>
</trkpt>
<trkpt lat="51.9174341" lon="7.4674927">
<ele>57.3358154</ele>
<time>2011-07-31T13:52:54Z</time>
<extensions>
<tp1:TrackPointExtension>
<tp1:hr>147</tp1:hr>
</tp1:TrackPointExtension>
</extensions>
</trkpt>
<trkpt lat="51.9173979" lon="7.4670775">
<ele>57.3358154</ele>
<time>2011-07-31T13:52:58Z</time>
<extensions>
<tp1:TrackPointExtension>
<tp1:hr>148</tp1:hr>
</tp1:TrackPointExtension>
</extensions>
</trkpt>
<trkpt lat="51.9175267" lon="7.4662414">
<ele>58.7777100</ele>
<time>2011-07-31T13:53:06Z</time>
<extensions>
<tp1:TrackPointExtension>
<tp1:hr>149</tp1:hr>
</tp1:TrackPointExtension>
</extensions>
</trkpt>
<trkpt lat="51.9176298" lon="7.4655038">
<ele>59.7391357</ele>
<time>2011-07-31T13:53:13Z</time>
<extensions>
<tp1:TrackPointExtension>
<tp1:hr>148</tp1:hr>
</tp1:TrackPointExtension>
</extensions>
</trkpt>
<trkpt lat="51.9178026" lon="7.4651914">
<ele>60.7003174</ele>
<time>2011-07-31T13:53:17Z</time>
<extensions>
<tp1:TrackPointExtension>
<tp1:hr>148</tp1:hr>
</tp1:TrackPointExtension>
</extensions>
</trkpt>
<trkpt lat="51.9179226" lon="7.4651075">
<ele>59.7391357</ele>
<time>2011-07-31T13:53:19Z</time>
<extensions>
<tp1:TrackPointExtension>
<tp1:hr>147</tp1:hr>
</tp1:TrackPointExtension>
</extensions>
</trkpt>
<trkpt lat="51.9180796" lon="7.4648377">
<ele>59.2584229</ele>
<time>2011-07-31T13:53:23Z</time>
<extensions>
<tp1:TrackPointExtension>
<tp1:hr>144</tp1:hr>
</tp1:TrackPointExtension>
</extensions>
</trkpt>
<trkpt lat="51.9180594" lon="7.4645519">
<ele>58.7777100</ele>
<time>2011-07-31T13:53:26Z</time>
<extensions>
<tp1:TrackPointExtension>
<tp1:hr>142</tp1:hr>
</tp1:TrackPointExtension>
</extensions>
</trkpt>
<trkpt lat="51.9178231" lon="7.4636892">
<ele>55.8937988</ele>
<time>2011-07-31T13:53:35Z</time>
<extensions>
<tp1:TrackPointExtension>
<tp1:hr>143</tp1:hr>
</tp1:TrackPointExtension>
</extensions>
</trkpt>
<trkpt lat="51.9176413" lon="7.4630428">
<ele>54.4517822</ele>
<time>2011-07-31T13:53:42Z</time>
<extensions>
<tp1:TrackPointExtension>
<tp1:hr>144</tp1:hr>
</tp1:TrackPointExtension>
</extensions>
</trkpt>
<trkpt lat="51.9174899" lon="7.4624918">
<ele>53.4904785</ele>
<time>2011-07-31T13:53:48Z</time>
<extensions>
<tp1:TrackPointExtension>
<tp1:hr>145</tp1:hr>
</tp1:TrackPointExtension>
</extensions>
</trkpt>
<trkpt lat="51.9173358" lon="7.4619404">
<ele>53.4904785</ele>
<time>2011-07-31T13:53:54Z</time>
<extensions>
<tp1:TrackPointExtension>
<tp1:hr>146</tp1:hr>
</tp1:TrackPointExtension>
</extensions>
</trkpt>
<trkpt lat="51.9171368" lon="7.4611932">
<ele>52.5291748</ele>
<time>2011-07-31T13:54:02Z</time>
<extensions>
<tp1:TrackPointExtension>
<tp1:hr>147</tp1:hr>
</tp1:TrackPointExtension>
</extensions>
</trkpt>
<trkpt lat="51.9170048" lon="7.4607344">
<ele>53.9711914</ele>
<time>2011-07-31T13:54:07Z</time>
<extensions>
<tp1:TrackPointExtension>
<tp1:hr>147</tp1:hr>
</tp1:TrackPointExtension>
</extensions>
</trkpt>
<trkpt lat="51.9168160" lon="7.4600694">
<ele>54.9323730</ele>
<time>2011-07-31T13:54:14Z</time>
<extensions>
<tp1:TrackPointExtension>
<tp1:hr>148</tp1:hr>
</tp1:TrackPointExtension>
</extensions>
</trkpt>
<trkpt lat="51.9166415" lon="7.4593841">
<ele>55.8937988</ele>
<time>2011-07-31T13:54:21Z</time>
<extensions>
<tp1:TrackPointExtension>
<tp1:hr>151</tp1:hr>
</tp1:TrackPointExtension>
</extensions>
</trkpt>
<trkpt lat="51.9164816" lon="7.4587583">
<ele>60.7003174</ele>
<time>2011-07-31T13:54:28Z</time>
<extensions>
<tp1:TrackPointExtension>
<tp1:hr>153</tp1:hr>
</tp1:TrackPointExtension>
</extensions>
</trkpt>
<trkpt lat="51.9163055" lon="7.4581271">
<ele>62.6229248</ele>
<time>2011-07-31T13:54:35Z</time>
<extensions>
<tp1:TrackPointExtension>
<tp1:hr>154</tp1:hr>
</tp1:TrackPointExtension>
</extensions>
</trkpt>
<trkpt lat="51.9161591" lon="7.4575735">
<ele>64.0650635</ele>
<time>2011-07-31T13:54:41Z</time>
<extensions>
<tp1:TrackPointExtension>
<tp1:hr>155</tp1:hr>
</tp1:TrackPointExtension>
</extensions>
</trkpt>
<trkpt lat="51.9158874" lon="7.4566435">
<ele>63.1036377</ele>
<time>2011-07-31T13:54:51Z</time>
<extensions>
<tp1:TrackPointExtension>
<tp1:hr>154</tp1:hr>
</tp1:TrackPointExtension>
</extensions>
</trkpt>
<trkpt lat="51.9156801" lon="7.4559706">
<ele>62.6229248</ele>
<time>2011-07-31T13:54:58Z</time>
<extensions>
<tp1:TrackPointExtension>
<tp1:hr>152</tp1:hr>
</tp1:TrackPointExtension>
</extensions>
</trkpt>
<trkpt lat="51.9156214" lon="7.4554120">
<ele>60.2197266</ele>
<time>2011-07-31T13:55:03Z</time>
<extensions>
<tp1:TrackPointExtension>
<tp1:hr>148</tp1:hr>
</tp1:TrackPointExtension>
</extensions>
</trkpt>
<trkpt lat="51.9156600" lon="7.4546168">
<ele>59.7391357</ele>
<time>2011-07-31T13:55:10Z</time>
<extensions>
<tp1:TrackPointExtension>
<tp1:hr>146</tp1:hr>
</tp1:TrackPointExtension>
</extensions>
</trkpt>
<trkpt lat="51.9157324" lon="7.4543178">
<ele>60.2197266</ele>
<time>2011-07-31T13:55:13Z</time>
<extensions>
<tp1:TrackPointExtension>
<tp1:hr>145</tp1:hr>
</tp1:TrackPointExtension>
</extensions>
</trkpt>
<trkpt lat="51.9157737" lon="7.4537128">
<ele>61.1810303</ele>
<time>2011-07-31T13:55:19Z</time>
<extensions>
<tp1:TrackPointExtension>
<tp1:hr>145</tp1:hr>
</tp1:TrackPointExtension>
</extensions>
</trkpt>
<trkpt lat="51.9157246" lon="7.4530856">
<ele>61.1810303</ele>
<time>2011-07-31T13:55:25Z</time>
<extensions>
<tp1:TrackPointExtension>
<tp1:hr>146</tp1:hr>
</tp1:TrackPointExtension>
</extensions>
</trkpt>
<trkpt lat="51.9156598" lon="7.4525007">
<ele>63.1036377</ele>
<time>2011-07-31T13:55:31Z</time>
<extensions>
<tp1:TrackPointExtension>
<tp1:hr>145</tp1:hr>
</tp1:TrackPointExtension>
</extensions>
</trkpt>
<trkpt lat="51.9156309" lon="7.4518110">
<ele>63.5843506</ele>
<time>2011-07-31T13:55:38Z</time>
<extensions>
<tp1:TrackPointExtension>
<tp1:hr>146</tp1:hr>
</tp1:TrackPointExtension>
</extensions>
</trkpt>
<trkpt lat="51.9156261" lon="7.4509136">
<ele>65.9876709</ele>
<time>2011-07-31T13:55:47Z</time>
<extensions>
<tp1:TrackPointExtension>
<tp1:hr>148</tp1:hr>
</tp1:TrackPointExtension>
</extensions>
</trkpt>
<trkpt lat="51.9155966" lon="7.4499995">
<ele>67.4296875</ele>
<time>2011-07-31T13:55:56Z</time>
<extensions>
<tp1:TrackPointExtension>
<tp1:hr>151</tp1:hr>
</tp1:TrackPointExtension>
</extensions>
</trkpt>
<trkpt lat="51.9155342" lon="7.4492971">
<ele>67.9102783</ele>
<time>2011-07-31T13:56:03Z</time>
<extensions>
<tp1:TrackPointExtension>
<tp1:hr>153</tp1:hr>
</tp1:TrackPointExtension>
</extensions>
</trkpt>
<trkpt lat="51.9154569" lon="7.4484674">
<ele>69.3522949</ele>
<time>2011-07-31T13:56:11Z</time>
<extensions>
<tp1:TrackPointExtension>
<tp1:hr>156</tp1:hr>
</tp1:TrackPointExtension>
</extensions>
</trkpt>
<trkpt lat="51.9153831" lon="7.4476769">
<ele>70.7941895</ele>
<time>2011-07-31T13:56:19Z</time>
<extensions>
<tp1:TrackPointExtension>
<tp1:hr>157</tp1:hr>
</tp1:TrackPointExtension>
</extensions>
</trkpt>
<trkpt lat="51.9152921" lon="7.4467842">
<ele>72.2362061</ele>
<time>2011-07-31T13:56:28Z</time>
<extensions>
<tp1:TrackPointExtension>
<tp1:hr>157</tp1:hr>
</tp1:TrackPointExtension>
</extensions>
</trkpt>
<trkpt lat="51.9152144" lon="7.4460622">
<ele>73.1976318</ele>
<time>2011-07-31T13:56:35Z</time>
<extensions>
<tp1:TrackPointExtension>
<tp1:hr>155</tp1:hr>
</tp1:TrackPointExtension>
</extensions>
</trkpt>
<trkpt lat="51.9150640" lon="7.4448170">
<ele>72.7169189</ele>
<time>2011-07-31T13:56:47Z</time>
<extensions>
<tp1:TrackPointExtension>
<tp1:hr>153</tp1:hr>
</tp1:TrackPointExtension>
</extensions>
</trkpt>
<trkpt lat="51.9148858" lon="7.4439949">
<ele>68.3908691</ele>
<time>2011-07-31T13:56:55Z</time>
<extensions>
<tp1:TrackPointExtension>
<tp1:hr>149</tp1:hr>
</tp1:TrackPointExtension>
</extensions>
</trkpt>
<trkpt lat="51.9147305" lon="7.4433825">
<ele>65.5070801</ele>
<time>2011-07-31T13:57:01Z</time>
<extensions>
<tp1:TrackPointExtension>
<tp1:hr>143</tp1:hr>
</tp1:TrackPointExtension>
</extensions>
</trkpt>
<trkpt lat="51.9145738" lon="7.4428103">
<ele>63.1036377</ele>
<time>2011-07-31T13:57:07Z</time>
<extensions>
<tp1:TrackPointExtension>
<tp1:hr>140</tp1:hr>
</tp1:TrackPointExtension>
</extensions>
</trkpt>
<trkpt lat="51.9144478" lon="7.4423397">
<ele>60.2197266</ele>
<time>2011-07-31T13:57:12Z</time>
<extensions>
<tp1:TrackPointExtension>
<tp1:hr>139</tp1:hr>
</tp1:TrackPointExtension>
</extensions>
</trkpt>
<trkpt lat="51.9144219" lon="7.4422450">
<ele>59.2584229</ele>
<time>2011-07-31T13:57:13Z</time>
<extensions>
<tp1:TrackPointExtension>
<tp1:hr>139</tp1:hr>
</tp1:TrackPointExtension>
</extensions>
</trkpt>
<trkpt lat="51.9141997" lon="7.4413437">
<ele>56.3745117</ele>
<time>2011-07-31T13:57:22Z</time>
<extensions>
<tp1:TrackPointExtension>
<tp1:hr>139</tp1:hr>
</tp1:TrackPointExtension>
</extensions>
</trkpt>
<trkpt lat="51.9141303" lon="7.4410625">
<ele>57.8165283</ele>
<time>2011-07-31T13:57:25Z</time>
<extensions>
<tp1:TrackPointExtension>
<tp1:hr>140</tp1:hr>
</tp1:TrackPointExtension>
</extensions>
</trkpt>
<trkpt lat="51.9139366" lon="7.4401943">
<ele>57.8165283</ele>
<time>2011-07-31T13:57:34Z</time>
<extensions>
<tp1:TrackPointExtension>
<tp1:hr>139</tp1:hr>
</tp1:TrackPointExtension>
</extensions>
</trkpt>
<trkpt lat="51.9137516" lon="7.4394230">
<ele>56.8551025</ele>
<time>2011-07-31T13:57:42Z</time>
<extensions>
<tp1:TrackPointExtension>
<tp1:hr>139</tp1:hr>
</tp1:TrackPointExtension>
</extensions>
</trkpt>
<trkpt lat="51.9136862" lon="7.4387941">
<ele>58.2971191</ele>
<time>2011-07-31T13:57:48Z</time>
<extensions>
<tp1:TrackPointExtension>
<tp1:hr>137</tp1:hr>
</tp1:TrackPointExtension>
</extensions>
</trkpt>
<trkpt lat="51.9137252" lon="7.4380780">
<ele>61.1810303</ele>
<time>2011-07-31T13:57:55Z</time>
<extensions>
<tp1:TrackPointExtension>
<tp1:hr>131</tp1:hr>
</tp1:TrackPointExtension>
</extensions>
</trkpt>
<trkpt lat="51.9138060" lon="7.4373773">
<ele>63.1036377</ele>
<time>2011-07-31T13:58:03Z</time>
<extensions>
<tp1:TrackPointExtension>
<tp1:hr>128</tp1:hr>
</tp1:TrackPointExtension>
</extensions>
</trkpt>
<trkpt lat="51.9138350" lon="7.4372191">
<ele>63.5843506</ele>
<time>2011-07-31T13:58:05Z</time>
<extensions>
<tp1:TrackPointExtension>
<tp1:hr>126</tp1:hr>
</tp1:TrackPointExtension>
</extensions>
</trkpt>
<trkpt lat="51.9139634" lon="7.4369364">
<ele>64.5456543</ele>
<time>2011-07-31T13:58:09Z</time>
<extensions>
<tp1:TrackPointExtension>
<tp1:hr>125</tp1:hr>
</tp1:TrackPointExtension>
</extensions>
</trkpt>
<trkpt lat="51.9140109" lon="7.4368825">
<ele>64.5456543</ele>
<time>2011-07-31T13:58:10Z</time>
<extensions>
<tp1:TrackPointExtension>
<tp1:hr>127</tp1:hr>
</tp1:TrackPointExtension>
</extensions>
</trkpt>
<trkpt lat="51.9143032" lon="7.4365558">
<ele>65.0263672</ele>
<time>2011-07-31T13:58:16Z</time>
<extensions>
<tp1:TrackPointExtension>
<tp1:hr>131</tp1:hr>
</tp1:TrackPointExtension>
</extensions>
</trkpt>
<trkpt lat="51.9144012" lon="7.4364526">
<ele>64.5456543</ele>
<time>2011-07-31T13:58:18Z</time>
<extensions>
<tp1:TrackPointExtension>
<tp1:hr>136</tp1:hr>
</tp1:TrackPointExtension>
</extensions>
</trkpt>
<trkpt lat="51.9147968" lon="7.4360144">
<ele>60.7003174</ele>
<time>2011-07-31T13:58:26Z</time>
<extensions>
<tp1:TrackPointExtension>
<tp1:hr>139</tp1:hr>
</tp1:TrackPointExtension>
</extensions>
</trkpt>
<trkpt lat="51.9151896" lon="7.4355717">
<ele>57.8165283</ele>
<time>2011-07-31T13:58:34Z</time>
<extensions>
<tp1:TrackPointExtension>
<tp1:hr>144</tp1:hr>
</tp1:TrackPointExtension>
</extensions>
</trkpt>
<trkpt lat="51.9154341" lon="7.4352942">
<ele>58.2971191</ele>
<time>2011-07-31T13:58:39Z</time>
<extensions>
<tp1:TrackPointExtension>
<tp1:hr>149</tp1:hr>
</tp1:TrackPointExtension>
</extensions>
</trkpt>
<trkpt lat="51.9157789" lon="7.4349047">
<ele>58.2971191</ele>
<time>2011-07-31T13:58:46Z</time>
<extensions>
<tp1:TrackPointExtension>
<tp1:hr>151</tp1:hr>
</tp1:TrackPointExtension>
</extensions>
</trkpt>
<trkpt lat="51.9161650" lon="7.4344460">
<ele>63.1036377</ele>
<time>2011-07-31T13:58:54Z</time>
<extensions>
<tp1:TrackPointExtension>
<tp1:hr>153</tp1:hr>
</tp1:TrackPointExtension>
</extensions>
</trkpt>
<trkpt lat="51.9165068" lon="7.4340386">
<ele>68.8715820</ele>
<time>2011-07-31T13:59:01Z</time>
<extensions>
<tp1:TrackPointExtension>
<tp1:hr>153</tp1:hr>
</tp1:TrackPointExtension>
</extensions>
</trkpt>
<trkpt lat="51.9166566" lon="7.4338736">
<ele>71.2749023</ele>
<time>2011-07-31T13:59:04Z</time>
<extensions>
<tp1:TrackPointExtension>
<tp1:hr>153</tp1:hr>
</tp1:TrackPointExtension>
</extensions>
</trkpt>
<trkpt lat="51.9170486" lon="7.4333984">
<ele>70.3134766</ele>
<time>2011-07-31T13:59:12Z</time>
<extensions>
<tp1:TrackPointExtension>
<tp1:hr>153</tp1:hr>
</tp1:TrackPointExtension>
</extensions>
</trkpt>
<trkpt lat="51.9173773" lon="7.4331219">
<ele>72.2362061</ele>
<time>2011-07-31T13:59:18Z</time>
<extensions>
<tp1:TrackPointExtension>
<tp1:hr>153</tp1:hr>
</tp1:TrackPointExtension>
</extensions>
</trkpt>
<trkpt lat="51.9177149" lon="7.4328344">
<ele>75.1202393</ele>
<time>2011-07-31T13:59:24Z</time>
<extensions>
<tp1:TrackPointExtension>
<tp1:hr>152</tp1:hr>
</tp1:TrackPointExtension>
</extensions>
</trkpt>
<trkpt lat="51.9181433" lon="7.4323993">
<ele>76.0814209</ele>
<time>2011-07-31T13:59:32Z</time>
<extensions>
<tp1:TrackPointExtension>
<tp1:hr>151</tp1:hr>
</tp1:TrackPointExtension>
</extensions>
</trkpt>
<trkpt lat="51.9185057" lon="7.4319791">
<ele>71.2749023</ele>
<time>2011-07-31T13:59:39Z</time>
<extensions>
<tp1:TrackPointExtension>
<tp1:hr>151</tp1:hr>
</tp1:TrackPointExtension>
</extensions>
</trkpt>
<trkpt lat="51.9191183" lon="7.4313710">
<ele>63.1036377</ele>
<time>2011-07-31T13:59:51Z</time>
<extensions>
<tp1:TrackPointExtension>
<tp1:hr>150</tp1:hr>
</tp1:TrackPointExtension>
</extensions>
</trkpt>
<trkpt lat="51.9195731" lon="7.4309186">
<ele>61.1810303</ele>
<time>2011-07-31T14:00:00Z</time>
<extensions>
<tp1:TrackPointExtension>
<tp1:hr>149</tp1:hr>
</tp1:TrackPointExtension>
</extensions>
</trkpt>
<trkpt lat="51.9200802" lon="7.4305656">
<ele>63.1036377</ele>
<time>2011-07-31T14:00:09Z</time>
<extensions>
<tp1:TrackPointExtension>
<tp1:hr>150</tp1:hr>
</tp1:TrackPointExtension>
</extensions>
</trkpt>
<trkpt lat="51.9204800" lon="7.4302809">
<ele>69.8328857</ele>
<time>2011-07-31T14:00:16Z</time>
<extensions>
<tp1:TrackPointExtension>
<tp1:hr>150</tp1:hr>
</tp1:TrackPointExtension>
</extensions>
</trkpt>
<trkpt lat="51.9206032" lon="7.4301698">
<ele>70.3134766</ele>
<time>2011-07-31T14:00:18Z</time>
<extensions>
<tp1:TrackPointExtension>
<tp1:hr>150</tp1:hr>
</tp1:TrackPointExtension>
</extensions>
</trkpt>
<trkpt lat="51.9209367" lon="7.4296233">
<ele>73.1976318</ele>
<time>2011-07-31T14:00:25Z</time>
<extensions>
<tp1:TrackPointExtension>
<tp1:hr>151</tp1:hr>
</tp1:TrackPointExtension>
</extensions>
</trkpt>
<trkpt lat="51.9213488" lon="7.4291538">
<ele>70.3134766</ele>
<time>2011-07-31T14:00:33Z</time>
<extensions>
<tp1:TrackPointExtension>
<tp1:hr>152</tp1:hr>
</tp1:TrackPointExtension>
</extensions>
</trkpt>
<trkpt lat="51.9217304" lon="7.4286551">
<ele>70.3134766</ele>
<time>2011-07-31T14:00:41Z</time>
<extensions>
<tp1:TrackPointExtension>
<tp1:hr>154</tp1:hr>
</tp1:TrackPointExtension>
</extensions>
</trkpt>
<trkpt lat="51.9221106" lon="7.4281800">
<ele>72.7169189</ele>
<time>2011-07-31T14:00:49Z</time>
<extensions>
<tp1:TrackPointExtension>
<tp1:hr>155</tp1:hr>
</tp1:TrackPointExtension>
</extensions>
</trkpt>
<trkpt lat="51.9224987" lon="7.4277189">
<ele>69.8328857</ele>
<time>2011-07-31T14:00:57Z</time>
<extensions>
<tp1:TrackPointExtension>
<tp1:hr>157</tp1:hr>
</tp1:TrackPointExtension>
</extensions>
</trkpt>
<trkpt lat="51.9229271" lon="7.4271786">
<ele>72.7169189</ele>
<time>2011-07-31T14:01:06Z</time>
<extensions>
<tp1:TrackPointExtension>
<tp1:hr>159</tp1:hr>
</tp1:TrackPointExtension>
</extensions>
</trkpt>
<trkpt lat="51.9234409" lon="7.4265240">
<ele>74.6395264</ele>
<time>2011-07-31T14:01:17Z</time>
<extensions>
<tp1:TrackPointExtension>
<tp1:hr>159</tp1:hr>
</tp1:TrackPointExtension>
</extensions>
</trkpt>
<trkpt lat="51.9238202" lon="7.4260550">
<ele>75.1202393</ele>
<time>2011-07-31T14:01:25Z</time>
<extensions>
<tp1:TrackPointExtension>
<tp1:hr>159</tp1:hr>
</tp1:TrackPointExtension>
</extensions>
</trkpt>
<trkpt lat="51.9243593" lon="7.4253839">
<ele>76.5621338</ele>
<time>2011-07-31T14:01:36Z</time>
<extensions>
<tp1:TrackPointExtension>
<tp1:hr>159</tp1:hr>
</tp1:TrackPointExtension>
</extensions>
</trkpt>
<trkpt lat="51.9248173" lon="7.4247944">
<ele>78.4847412</ele>
<time>2011-07-31T14:01:46Z</time>
<extensions>
<tp1:TrackPointExtension>
<tp1:hr>157</tp1:hr>
</tp1:TrackPointExtension>
</extensions>
</trkpt>
<trkpt lat="51.9249784" lon="7.4245779">
<ele>79.9266357</ele>
<time>2011-07-31T14:01:50Z</time>
<extensions>
<tp1:TrackPointExtension>
<tp1:hr>154</tp1:hr>
</tp1:TrackPointExtension>
</extensions>
</trkpt>
<trkpt lat="51.9250404" lon="7.4242498">
<ele>81.8493652</ele>
<time>2011-07-31T14:01:54Z</time>
<extensions>
<tp1:TrackPointExtension>
<tp1:hr>152</tp1:hr>
</tp1:TrackPointExtension>
</extensions>
</trkpt>
<trkpt lat="51.9249723" lon="7.4240904">
<ele>81.3687744</ele>
<time>2011-07-31T14:01:56Z</time>
<extensions>
<tp1:TrackPointExtension>
<tp1:hr>152</tp1:hr>
</tp1:TrackPointExtension>
</extensions>
</trkpt>
<trkpt lat="51.9245980" lon="7.4233655">
<ele>77.0428467</ele>
<time>2011-07-31T14:02:05Z</time>
<extensions>
<tp1:TrackPointExtension>
<tp1:hr>152</tp1:hr>
</tp1:TrackPointExtension>
</extensions>
</trkpt>
<trkpt lat="51.9241879" lon="7.4227366">
<ele>73.1976318</ele>
<time>2011-07-31T14:02:13Z</time>
<extensions>
<tp1:TrackPointExtension>
<tp1:hr>149</tp1:hr>
</tp1:TrackPointExtension>
</extensions>
</trkpt>
<trkpt lat="51.9238031" lon="7.4220478">
<ele>70.3134766</ele>
<time>2011-07-31T14:02:21Z</time>
<extensions>
<tp1:TrackPointExtension>
<tp1:hr>145</tp1:hr>
</tp1:TrackPointExtension>
</extensions>
</trkpt>
<trkpt lat="51.9235234" lon="7.4212848">
<ele>69.3522949</ele>
<time>2011-07-31T14:02:29Z</time>
<extensions>
<tp1:TrackPointExtension>
<tp1:hr>142</tp1:hr>
</tp1:TrackPointExtension>
</extensions>
</trkpt>
<trkpt lat="51.9233681" lon="7.4204322">
<ele>68.8715820</ele>
<time>2011-07-31T14:02:37Z</time>
<extensions>
<tp1:TrackPointExtension>
<tp1:hr>139</tp1:hr>
</tp1:TrackPointExtension>
</extensions>
</trkpt>
<trkpt lat="51.9231912" lon="7.4193590">
<ele>67.9102783</ele>
<time>2011-07-31T14:02:47Z</time>
<extensions>
<tp1:TrackPointExtension>
<tp1:hr>139</tp1:hr>
</tp1:TrackPointExtension>
</extensions>
</trkpt>
<trkpt lat="51.9231607" lon="7.4183705">
<ele>66.9489746</ele>
<time>2011-07-31T14:02:56Z</time>
<extensions>
<tp1:TrackPointExtension>
<tp1:hr>139</tp1:hr>
</tp1:TrackPointExtension>
</extensions>
</trkpt>
<trkpt lat="51.9231524" lon="7.4174736">
<ele>67.4296875</ele>
<time>2011-07-31T14:03:04Z</time>
<extensions>
<tp1:TrackPointExtension>
<tp1:hr>141</tp1:hr>
</tp1:TrackPointExtension>
</extensions>
</trkpt>
<trkpt lat="51.9230514" lon="7.4169531">
<ele>67.4296875</ele>
<time>2011-07-31T14:03:09Z</time>
<extensions>
<tp1:TrackPointExtension>
<tp1:hr>142</tp1:hr>
</tp1:TrackPointExtension>
</extensions>
</trkpt>
<trkpt lat="51.9227350" lon="7.4162167">
<ele>67.4296875</ele>
<time>2011-07-31T14:03:17Z</time>
<extensions>
<tp1:TrackPointExtension>
<tp1:hr>141</tp1:hr>
</tp1:TrackPointExtension>
</extensions>
</trkpt>
<trkpt lat="51.9222351" lon="7.4152558">
<ele>68.3908691</ele>
<time>2011-07-31T14:03:28Z</time>
<extensions>
<tp1:TrackPointExtension>
<tp1:hr>139</tp1:hr>
</tp1:TrackPointExtension>
</extensions>
</trkpt>
<trkpt lat="51.9218740" lon="7.4145306">
<ele>68.3908691</ele>
<time>2011-07-31T14:03:36Z</time>
<extensions>
<tp1:TrackPointExtension>
<tp1:hr>136</tp1:hr>
</tp1:TrackPointExtension>
</extensions>
</trkpt>
<trkpt lat="51.9215652" lon="7.4137416">
<ele>68.3908691</ele>
<time>2011-07-31T14:03:44Z</time>
<extensions>
<tp1:TrackPointExtension>
<tp1:hr>135</tp1:hr>
</tp1:TrackPointExtension>
</extensions>
</trkpt>
<trkpt lat="51.9211519" lon="7.4125428">
<ele>68.3908691</ele>
<time>2011-07-31T14:03:56Z</time>
<extensions>
<tp1:TrackPointExtension>
<tp1:hr>135</tp1:hr>
</tp1:TrackPointExtension>
</extensions>
</trkpt>
<trkpt lat="51.9208338" lon="7.4116324">
<ele>67.9102783</ele>
<time>2011-07-31T14:04:05Z</time>
<extensions>
<tp1:TrackPointExtension>
<tp1:hr>130</tp1:hr>
</tp1:TrackPointExtension>
</extensions>
</trkpt>
<trkpt lat="51.9204619" lon="7.4105284">
<ele>66.9489746</ele>
<time>2011-07-31T14:04:16Z</time>
<extensions>
<tp1:TrackPointExtension>
<tp1:hr>128</tp1:hr>
</tp1:TrackPointExtension>
</extensions>
</trkpt>
<trkpt lat="51.9204360" lon="7.4104197">
<ele>66.4682617</ele>
<time>2011-07-31T14:04:17Z</time>
<extensions>
<tp1:TrackPointExtension>
<tp1:hr>128</tp1:hr>
</tp1:TrackPointExtension>
</extensions>
</trkpt>
<trkpt lat="51.9203029" lon="7.4094015">
<ele>65.5070801</ele>
<time>2011-07-31T14:04:26Z</time>
<extensions>
<tp1:TrackPointExtension>
<tp1:hr>124</tp1:hr>
</tp1:TrackPointExtension>
</extensions>
</trkpt>
<trkpt lat="51.9202317" lon="7.4088824">
<ele>64.5456543</ele>
<time>2011-07-31T14:04:31Z</time>
<extensions>
<tp1:TrackPointExtension>
<tp1:hr>121</tp1:hr>
</tp1:TrackPointExtension>
</extensions>
</trkpt>
<trkpt lat="51.9202614" lon="7.4086058">
<ele>64.5456543</ele>
<time>2011-07-31T14:04:35Z</time>
<extensions>
<tp1:TrackPointExtension>
<tp1:hr>119</tp1:hr>
</tp1:TrackPointExtension>
</extensions>
</trkpt>
<trkpt lat="51.9203848" lon="7.4085542">
<ele>65.5070801</ele>
<time>2011-07-31T14:04:38Z</time>
<extensions>
<tp1:TrackPointExtension>
<tp1:hr>119</tp1:hr>
</tp1:TrackPointExtension>
</extensions>
</trkpt>
<trkpt lat="51.9206074" lon="7.4085846">
<ele>65.9876709</ele>
<time>2011-07-31T14:04:42Z</time>
<extensions>
<tp1:TrackPointExtension>
<tp1:hr>122</tp1:hr>
</tp1:TrackPointExtension>
</extensions>
</trkpt>
<trkpt lat="51.9206692" lon="7.4085644">
<ele>65.9876709</ele>
<time>2011-07-31T14:04:43Z</time>
<extensions>
<tp1:TrackPointExtension>
<tp1:hr>124</tp1:hr>
</tp1:TrackPointExtension>
</extensions>
</trkpt>
<trkpt lat="51.9209742" lon="7.4084537">
<ele>65.9876709</ele>
<time>2011-07-31T14:04:48Z</time>
<extensions>
<tp1:TrackPointExtension>
<tp1:hr>131</tp1:hr>
</tp1:TrackPointExtension>
</extensions>
</trkpt>
<trkpt lat="51.9212202" lon="7.4083712">
<ele>64.0650635</ele>
<time>2011-07-31T14:04:52Z</time>
<extensions>
<tp1:TrackPointExtension>
<tp1:hr>136</tp1:hr>
</tp1:TrackPointExtension>
</extensions>
</trkpt>
<trkpt lat="51.9216450" lon="7.4081707">
<ele>63.5843506</ele>
<time>2011-07-31T14:04:59Z</time>
<extensions>
<tp1:TrackPointExtension>
<tp1:hr>137</tp1:hr>
</tp1:TrackPointExtension>
</extensions>
</trkpt>
<trkpt lat="51.9219868" lon="7.4079913">
<ele>65.9876709</ele>
<time>2011-07-31T14:05:05Z</time>
<extensions>
<tp1:TrackPointExtension>
<tp1:hr>137</tp1:hr>
</tp1:TrackPointExtension>
</extensions>
</trkpt>
<trkpt lat="51.9220810" lon="7.4077212">
<ele>66.9489746</ele>
<time>2011-07-31T14:05:09Z</time>
<extensions>
<tp1:TrackPointExtension>
<tp1:hr>135</tp1:hr>
</tp1:TrackPointExtension>
</extensions>
</trkpt>
<trkpt lat="51.9220671" lon="7.4076327">
<ele>66.4682617</ele>
<time>2011-07-31T14:05:10Z</time>
<extensions>
<tp1:TrackPointExtension>
<tp1:hr>135</tp1:hr>
</tp1:TrackPointExtension>
</extensions>
</trkpt>
<trkpt lat="51.9219889" lon="7.4070290">
<ele>65.0263672</ele>
<time>2011-07-31T14:05:16Z</time>
<extensions>
<tp1:TrackPointExtension>
<tp1:hr>136</tp1:hr>
</tp1:TrackPointExtension>
</extensions>
</trkpt>
<trkpt lat="51.9219205" lon="7.4064174">
<ele>65.0263672</ele>
<time>2011-07-31T14:05:22Z</time>
<extensions>
<tp1:TrackPointExtension>
<tp1:hr>137</tp1:hr>
</tp1:TrackPointExtension>
</extensions>
</trkpt>
<trkpt lat="51.9218356" lon="7.4056990">
<ele>64.0650635</ele>
<time>2011-07-31T14:05:29Z</time>
<extensions>
<tp1:TrackPointExtension>
<tp1:hr>139</tp1:hr>
</tp1:TrackPointExtension>
</extensions>
</trkpt>
<trkpt lat="51.9217569" lon="7.4049720">
<ele>64.5456543</ele>
<time>2011-07-31T14:05:36Z</time>
<extensions>
<tp1:TrackPointExtension>
<tp1:hr>140</tp1:hr>
</tp1:TrackPointExtension>
</extensions>
</trkpt>
<trkpt lat="51.9217026" lon="7.4043484">
<ele>65.9876709</ele>
<time>2011-07-31T14:05:42Z</time>
<extensions>
<tp1:TrackPointExtension>
<tp1:hr>143</tp1:hr>
</tp1:TrackPointExtension>
</extensions>
</trkpt>
<trkpt lat="51.9216813" lon="7.4041553">
<ele>66.4682617</ele>
<time>2011-07-31T14:05:44Z</time>
<extensions>
<tp1:TrackPointExtension>
<tp1:hr>144</tp1:hr>
</tp1:TrackPointExtension>
</extensions>
</trkpt>
<trkpt lat="51.9216946" lon="7.4037765">
<ele>65.9876709</ele>
<time>2011-07-31T14:05:48Z</time>
<extensions>
<tp1:TrackPointExtension>
<tp1:hr>146</tp1:hr>
</tp1:TrackPointExtension>
</extensions>
</trkpt>
<trkpt lat="51.9218211" lon="7.4031048">
<ele>65.9876709</ele>
<time>2011-07-31T14:05:55Z</time>
<extensions>
<tp1:TrackPointExtension>
<tp1:hr>151</tp1:hr>
</tp1:TrackPointExtension>
</extensions>
</trkpt>
<trkpt lat="51.9220442" lon="7.4024966">
<ele>64.5456543</ele>
<time>2011-07-31T14:06:02Z</time>
<extensions>
<tp1:TrackPointExtension>
<tp1:hr>154</tp1:hr>
</tp1:TrackPointExtension>
</extensions>
</trkpt>
<trkpt lat="51.9222785" lon="7.4018195">
<ele>65.5070801</ele>
<time>2011-07-31T14:06:10Z</time>
<extensions>
<tp1:TrackPointExtension>
<tp1:hr>155</tp1:hr>
</tp1:TrackPointExtension>
</extensions>
</trkpt>
<trkpt lat="51.9223641" lon="7.4012980">
<ele>64.5456543</ele>
<time>2011-07-31T14:06:15Z</time>
<extensions>
<tp1:TrackPointExtension>
<tp1:hr>155</tp1:hr>
</tp1:TrackPointExtension>
</extensions>
</trkpt>
<trkpt lat="51.9223786" lon="7.4011877">
<ele>64.5456543</ele>
<time>2011-07-31T14:06:16Z</time>
<extensions>
<tp1:TrackPointExtension>
<tp1:hr>155</tp1:hr>
</tp1:TrackPointExtension>
</extensions>
</trkpt>
<trkpt lat="51.9223502" lon="7.4004934">
<ele>62.6229248</ele>
<time>2011-07-31T14:06:23Z</time>
<extensions>
<tp1:TrackPointExtension>
<tp1:hr>154</tp1:hr>
</tp1:TrackPointExtension>
</extensions>
</trkpt>
<trkpt lat="51.9223065" lon="7.3997517">
<ele>63.1036377</ele>
<time>2011-07-31T14:06:30Z</time>
<extensions>
<tp1:TrackPointExtension>
<tp1:hr>153</tp1:hr>
</tp1:TrackPointExtension>
</extensions>
</trkpt>
<trkpt lat="51.9222549" lon="7.3990266">
<ele>62.6229248</ele>
<time>2011-07-31T14:06:37Z</time>
<extensions>
<tp1:TrackPointExtension>
<tp1:hr>153</tp1:hr>
</tp1:TrackPointExtension>
</extensions>
</trkpt>
<trkpt lat="51.9222185" lon="7.3982821">
<ele>62.6229248</ele>
<time>2011-07-31T14:06:44Z</time>
<extensions>
<tp1:TrackPointExtension>
<tp1:hr>154</tp1:hr>
</tp1:TrackPointExtension>
</extensions>
</trkpt>
<trkpt lat="51.9221567" lon="7.3976865">
<ele>62.6229248</ele>
<time>2011-07-31T14:06:50Z</time>
<extensions>
<tp1:TrackPointExtension>
<tp1:hr>153</tp1:hr>
</tp1:TrackPointExtension>
</extensions>
</trkpt>
<trkpt lat="51.9221346" lon="7.3973849">
<ele>62.6229248</ele>
<time>2011-07-31T14:06:53Z</time>
<extensions>
<tp1:TrackPointExtension>
<tp1:hr>152</tp1:hr>
</tp1:TrackPointExtension>
</extensions>
</trkpt>
<trkpt lat="51.9220538" lon="7.3966934">
<ele>62.6229248</ele>
<time>2011-07-31T14:07:00Z</time>
<extensions>
<tp1:TrackPointExtension>
<tp1:hr>152</tp1:hr>
</tp1:TrackPointExtension>
</extensions>
</trkpt>
<trkpt lat="51.9220102" lon="7.3963917">
<ele>63.1036377</ele>
<time>2011-07-31T14:07:03Z</time>
<extensions>
<tp1:TrackPointExtension>
<tp1:hr>153</tp1:hr>
</tp1:TrackPointExtension>
</extensions>
</trkpt>
<trkpt lat="51.9220247" lon="7.3957018">
<ele>64.0650635</ele>
<time>2011-07-31T14:07:10Z</time>
<extensions>
<tp1:TrackPointExtension>
<tp1:hr>154</tp1:hr>
</tp1:TrackPointExtension>
</extensions>
</trkpt>
<trkpt lat="51.9221167" lon="7.3948358">
<ele>61.1810303</ele>
<time>2011-07-31T14:07:19Z</time>
<extensions>
<tp1:TrackPointExtension>
<tp1:hr>156</tp1:hr>
</tp1:TrackPointExtension>
</extensions>
</trkpt>
<trkpt lat="51.9221670" lon="7.3942659">
<ele>62.1423340</ele>
<time>2011-07-31T14:07:25Z</time>
<extensions>
<tp1:TrackPointExtension>
<tp1:hr>156</tp1:hr>
</tp1:TrackPointExtension>
</extensions>
</trkpt>
<trkpt lat="51.9221754" lon="7.3938065">
<ele>62.6229248</ele>
<time>2011-07-31T14:07:30Z</time>
<extensions>
<tp1:TrackPointExtension>
<tp1:hr>153</tp1:hr>
</tp1:TrackPointExtension>
</extensions>
</trkpt>
<trkpt lat="51.9222742" lon="7.3933682">
<ele>64.0650635</ele>
<time>2011-07-31T14:07:35Z</time>
<extensions>
<tp1:TrackPointExtension>
<tp1:hr>152</tp1:hr>
</tp1:TrackPointExtension>
</extensions>
</trkpt>
<trkpt lat="51.9224781" lon="7.3928175">
<ele>63.5843506</ele>
<time>2011-07-31T14:07:42Z</time>
<extensions>
<tp1:TrackPointExtension>
<tp1:hr>150</tp1:hr>
</tp1:TrackPointExtension>
</extensions>
</trkpt>
<trkpt lat="51.9225370" lon="7.3925929">
<ele>64.5456543</ele>
<time>2011-07-31T14:07:45Z</time>
<extensions>
<tp1:TrackPointExtension>
<tp1:hr>149</tp1:hr>
</tp1:TrackPointExtension>
</extensions>
</trkpt>
<trkpt lat="51.9225931" lon="7.3922385">
<ele>65.0263672</ele>
<time>2011-07-31T14:07:49Z</time>
<extensions>
<tp1:TrackPointExtension>
<tp1:hr>148</tp1:hr>
</tp1:TrackPointExtension>
</extensions>
</trkpt>
<trkpt lat="51.9226738" lon="7.3910829">
<ele>66.4682617</ele>
<time>2011-07-31T14:08:01Z</time>
<extensions>
<tp1:TrackPointExtension>
<tp1:hr>149</tp1:hr>
</tp1:TrackPointExtension>
</extensions>
</trkpt>
<trkpt lat="51.9227252" lon="7.3905091">
<ele>66.4682617</ele>
<time>2011-07-31T14:08:07Z</time>
<extensions>
<tp1:TrackPointExtension>
<tp1:hr>150</tp1:hr>
</tp1:TrackPointExtension>
</extensions>
</trkpt>
<trkpt lat="51.9228240" lon="7.3897391">
<ele>65.5070801</ele>
<time>2011-07-31T14:08:15Z</time>
<extensions>
<tp1:TrackPointExtension>
<tp1:hr>153</tp1:hr>
</tp1:TrackPointExtension>
</extensions>
</trkpt>
<trkpt lat="51.9229238" lon="7.3892356">
<ele>66.4682617</ele>
<time>2011-07-31T14:08:20Z</time>
<extensions>
<tp1:TrackPointExtension>
<tp1:hr>155</tp1:hr>
</tp1:TrackPointExtension>
</extensions>
</trkpt>
<trkpt lat="51.9230508" lon="7.3885511">
<ele>65.9876709</ele>
<time>2011-07-31T14:08:27Z</time>
<extensions>
<tp1:TrackPointExtension>
<tp1:hr>155</tp1:hr>
</tp1:TrackPointExtension>
</extensions>
</trkpt>
<trkpt lat="51.9230670" lon="7.3884658">
<ele>65.9876709</ele>
<time>2011-07-31T14:08:28Z</time>
<extensions>
<tp1:TrackPointExtension>
<tp1:hr>154</tp1:hr>
</tp1:TrackPointExtension>
</extensions>
</trkpt>
<trkpt lat="51.9230561" lon="7.3880790">
<ele>66.9489746</ele>
<time>2011-07-31T14:08:33Z</time>
<extensions>
<tp1:TrackPointExtension>
<tp1:hr>151</tp1:hr>
</tp1:TrackPointExtension>
</extensions>
</trkpt>
<trkpt lat="51.9229795" lon="7.3879023">
<ele>67.9102783</ele>
<time>2011-07-31T14:08:36Z</time>
<extensions>
<tp1:TrackPointExtension>
<tp1:hr>150</tp1:hr>
</tp1:TrackPointExtension>
</extensions>
</trkpt>
<trkpt lat="51.9226842" lon="7.3875582">
<ele>65.9876709</ele>
<time>2011-07-31T14:08:43Z</time>
<extensions>
<tp1:TrackPointExtension>
<tp1:hr>151</tp1:hr>
</tp1:TrackPointExtension>
</extensions>
</trkpt>
<trkpt lat="51.9222792" lon="7.3869629">
<ele>69.8328857</ele>
<time>2011-07-31T14:08:53Z</time>
<extensions>
<tp1:TrackPointExtension>
<tp1:hr>155</tp1:hr>
</tp1:TrackPointExtension>
</extensions>
</trkpt>
<trkpt lat="51.9219119" lon="7.3863575">
<ele>72.7169189</ele>
<time>2011-07-31T14:09:02Z</time>
<extensions>
<tp1:TrackPointExtension>
<tp1:hr>159</tp1:hr>
</tp1:TrackPointExtension>
</extensions>
</trkpt>
<trkpt lat="51.9214674" lon="7.3855655">
<ele>72.7169189</ele>
<time>2011-07-31T14:09:13Z</time>
<extensions>
<tp1:TrackPointExtension>
<tp1:hr>158</tp1:hr>
</tp1:TrackPointExtension>
</extensions>
</trkpt>
<trkpt lat="51.9208106" lon="7.3844127">
<ele>75.6008301</ele>
<time>2011-07-31T14:09:28Z</time>
<extensions>
<tp1:TrackPointExtension>
<tp1:hr>155</tp1:hr>
</tp1:TrackPointExtension>
</extensions>
</trkpt>
<trkpt lat="51.9204237" lon="7.3838102">
<ele>75.1202393</ele>
<time>2011-07-31T14:09:36Z</time>
<extensions>
<tp1:TrackPointExtension>
<tp1:hr>152</tp1:hr>
</tp1:TrackPointExtension>
</extensions>
</trkpt>
<trkpt lat="51.9201428" lon="7.3832501">
<ele>75.1202393</ele>
<time>2011-07-31T14:09:43Z</time>
<extensions>
<tp1:TrackPointExtension>
<tp1:hr>150</tp1:hr>
</tp1:TrackPointExtension>
</extensions>
</trkpt>
<trkpt lat="51.9198238" lon="7.3823966">
<ele>74.1588135</ele>
<time>2011-07-31T14:09:53Z</time>
<extensions>
<tp1:TrackPointExtension>
<tp1:hr>148</tp1:hr>
</tp1:TrackPointExtension>
</extensions>
</trkpt>
<trkpt lat="51.9196782" lon="7.3820004">
<ele>73.1976318</ele>
<time>2011-07-31T14:09:58Z</time>
<extensions>
<tp1:TrackPointExtension>
<tp1:hr>146</tp1:hr>
</tp1:TrackPointExtension>
</extensions>
</trkpt>
<trkpt lat="51.9196839" lon="7.3816638">
<ele>73.1976318</ele>
<time>2011-07-31T14:10:02Z</time>
<extensions>
<tp1:TrackPointExtension>
<tp1:hr>143</tp1:hr>
</tp1:TrackPointExtension>
</extensions>
</trkpt>
<trkpt lat="51.9199227" lon="7.3809418">
<ele>73.6782227</ele>
<time>2011-07-31T14:10:10Z</time>
<extensions>
<tp1:TrackPointExtension>
<tp1:hr>143</tp1:hr>
</tp1:TrackPointExtension>
</extensions>
</trkpt>
<trkpt lat="51.9201866" lon="7.3800259">
<ele>75.1202393</ele>
<time>2011-07-31T14:10:20Z</time>
<extensions>
<tp1:TrackPointExtension>
<tp1:hr>146</tp1:hr>
</tp1:TrackPointExtension>
</extensions>
</trkpt>
<trkpt lat="51.9202138" lon="7.3799383">
<ele>75.1202393</ele>
<time>2011-07-31T14:10:21Z</time>
<extensions>
<tp1:TrackPointExtension>
<tp1:hr>147</tp1:hr>
</tp1:TrackPointExtension>
</extensions>
</trkpt>
<trkpt lat="51.9204273" lon="7.3795633">
<ele>76.0814209</ele>
<time>2011-07-31T14:10:26Z</time>
<extensions>
<tp1:TrackPointExtension>
<tp1:hr>149</tp1:hr>
</tp1:TrackPointExtension>
</extensions>
</trkpt>
<trkpt lat="51.9209108" lon="7.3787671">
<ele>77.5234375</ele>
<time>2011-07-31T14:10:37Z</time>
<extensions>
<tp1:TrackPointExtension>
<tp1:hr>152</tp1:hr>
</tp1:TrackPointExtension>
</extensions>
</trkpt>
<trkpt lat="51.9213368" lon="7.3780548">
<ele>79.4460449</ele>
<time>2011-07-31T14:10:47Z</time>
<extensions>
<tp1:TrackPointExtension>
<tp1:hr>152</tp1:hr>
</tp1:TrackPointExtension>
</extensions>
</trkpt>
<trkpt lat="51.9217994" lon="7.3772685">
<ele>81.3687744</ele>
<time>2011-07-31T14:10:58Z</time>
<extensions>
<tp1:TrackPointExtension>
<tp1:hr>150</tp1:hr>
</tp1:TrackPointExtension>
</extensions>
</trkpt>
<trkpt lat="51.9221372" lon="7.3766904">
<ele>84.2526855</ele>
<time>2011-07-31T14:11:06Z</time>
<extensions>
<tp1:TrackPointExtension>
<tp1:hr>149</tp1:hr>
</tp1:TrackPointExtension>
</extensions>
</trkpt>
<trkpt lat="51.9225116" lon="7.3761097">
<ele>86.1752930</ele>
<time>2011-07-31T14:11:14Z</time>
<extensions>
<tp1:TrackPointExtension>
<tp1:hr>147</tp1:hr>
</tp1:TrackPointExtension>
</extensions>
</trkpt>
<trkpt lat="51.9228189" lon="7.3757342">
<ele>86.1752930</ele>
<time>2011-07-31T14:11:20Z</time>
<extensions>
<tp1:TrackPointExtension>
<tp1:hr>146</tp1:hr>
</tp1:TrackPointExtension>
</extensions>
</trkpt>
<trkpt lat="51.9234757" lon="7.3750882">
<ele>83.2913818</ele>
<time>2011-07-31T14:11:32Z</time>
<extensions>
<tp1:TrackPointExtension>
<tp1:hr>145</tp1:hr>
</tp1:TrackPointExtension>
</extensions>
</trkpt>
<trkpt lat="51.9239071" lon="7.3746670">
<ele>82.8107910</ele>
<time>2011-07-31T14:11:40Z</time>
<extensions>
<tp1:TrackPointExtension>
<tp1:hr>144</tp1:hr>
</tp1:TrackPointExtension>
</extensions>
</trkpt>
<trkpt lat="51.9243718" lon="7.3741763">
<ele>80.8881836</ele>
<time>2011-07-31T14:11:49Z</time>
<extensions>
<tp1:TrackPointExtension>
<tp1:hr>142</tp1:hr>
</tp1:TrackPointExtension>
</extensions>
</trkpt>
<trkpt lat="51.9247086" lon="7.3738543">
<ele>83.2913818</ele>
<time>2011-07-31T14:11:55Z</time>
<extensions>
<tp1:TrackPointExtension>
<tp1:hr>142</tp1:hr>
</tp1:TrackPointExtension>
</extensions>
</trkpt>
<trkpt lat="51.9251508" lon="7.3734616">
<ele>83.2913818</ele>
<time>2011-07-31T14:12:03Z</time>
<extensions>
<tp1:TrackPointExtension>
<tp1:hr>141</tp1:hr>
</tp1:TrackPointExtension>
</extensions>
</trkpt>
<trkpt lat="51.9254644" lon="7.3732219">
<ele>87.6171875</ele>
<time>2011-07-31T14:12:09Z</time>
<extensions>
<tp1:TrackPointExtension>
<tp1:hr>141</tp1:hr>
</tp1:TrackPointExtension>
</extensions>
</trkpt>
<trkpt lat="51.9257912" lon="7.3730400">
<ele>94.8271484</ele>
<time>2011-07-31T14:12:15Z</time>
<extensions>
<tp1:TrackPointExtension>
<tp1:hr>143</tp1:hr>
</tp1:TrackPointExtension>
</extensions>
</trkpt>
<trkpt lat="51.9259795" lon="7.3729131">
<ele>97.2304688</ele>
<time>2011-07-31T14:12:18Z</time>
<extensions>
<tp1:TrackPointExtension>
<tp1:hr>144</tp1:hr>
</tp1:TrackPointExtension>
</extensions>
</trkpt>
<trkpt lat="51.9262263" lon="7.3728037">
<ele>100.1145020</ele>
<time>2011-07-31T14:12:22Z</time>
<extensions>
<tp1:TrackPointExtension>
<tp1:hr>145</tp1:hr>
</tp1:TrackPointExtension>
</extensions>
</trkpt>
<trkpt lat="51.9265271" lon="7.3726913">
<ele>102.5177002</ele>
<time>2011-07-31T14:12:28Z</time>
<extensions>
<tp1:TrackPointExtension>
<tp1:hr>146</tp1:hr>
</tp1:TrackPointExtension>
</extensions>
</trkpt>
<trkpt lat="51.9266773" lon="7.3726385">
<ele>102.5177002</ele>
<time>2011-07-31T14:12:31Z</time>
<extensions>
<tp1:TrackPointExtension>
<tp1:hr>144</tp1:hr>
</tp1:TrackPointExtension>
</extensions>
</trkpt>
<trkpt lat="51.9267537" lon="7.3726316">
<ele>101.5563965</ele>
<time>2011-07-31T14:12:33Z</time>
<extensions>
<tp1:TrackPointExtension>
<tp1:hr>142</tp1:hr>
</tp1:TrackPointExtension>
</extensions>
</trkpt>
<trkpt lat="51.9268578" lon="7.3725029">
<ele>98.6724854</ele>
<time>2011-07-31T14:12:37Z</time>
<extensions>
<tp1:TrackPointExtension>
<tp1:hr>139</tp1:hr>
</tp1:TrackPointExtension>
</extensions>
</trkpt>
<trkpt lat="51.9268698" lon="7.3724369">
<ele>98.6724854</ele>
<time>2011-07-31T14:12:38Z</time>
<extensions>
<tp1:TrackPointExtension>
<tp1:hr>139</tp1:hr>
</tp1:TrackPointExtension>
</extensions>
</trkpt>
<trkpt lat="51.9269720" lon="7.3719444">
<ele>97.2304688</ele>
<time>2011-07-31T14:12:44Z</time>
<extensions>
<tp1:TrackPointExtension>
<tp1:hr>141</tp1:hr>
</tp1:TrackPointExtension>
</extensions>
</trkpt>
<trkpt lat="51.9270794" lon="7.3713379">
<ele>97.2304688</ele>
<time>2011-07-31T14:12:51Z</time>
<extensions>
<tp1:TrackPointExtension>
<tp1:hr>147</tp1:hr>
</tp1:TrackPointExtension>
</extensions>
</trkpt>
<trkpt lat="51.9272016" lon="7.3707357">
<ele>96.2692871</ele>
<time>2011-07-31T14:12:58Z</time>
<extensions>
<tp1:TrackPointExtension>
<tp1:hr>149</tp1:hr>
</tp1:TrackPointExtension>
</extensions>
</trkpt>
<trkpt lat="51.9273007" lon="7.3703808">
<ele>97.7111816</ele>
<time>2011-07-31T14:13:02Z</time>
<extensions>
<tp1:TrackPointExtension>
<tp1:hr>149</tp1:hr>
</tp1:TrackPointExtension>
</extensions>
</trkpt>
<trkpt lat="51.9275347" lon="7.3699051">
<ele>98.1918945</ele>
<time>2011-07-31T14:13:08Z</time>
<extensions>
<tp1:TrackPointExtension>
<tp1:hr>149</tp1:hr>
</tp1:TrackPointExtension>
</extensions>
</trkpt>
<trkpt lat="51.9279216" lon="7.3692741">
<ele>98.6724854</ele>
<time>2011-07-31T14:13:17Z</time>
<extensions>
<tp1:TrackPointExtension>
<tp1:hr>151</tp1:hr>
</tp1:TrackPointExtension>
</extensions>
</trkpt>
<trkpt lat="51.9282607" lon="7.3687560">
<ele>103.9597168</ele>
<time>2011-07-31T14:13:25Z</time>
<extensions>
<tp1:TrackPointExtension>
<tp1:hr>153</tp1:hr>
</tp1:TrackPointExtension>
</extensions>
</trkpt>
<trkpt lat="51.9286157" lon="7.3681396">
<ele>101.5563965</ele>
<time>2011-07-31T14:13:34Z</time>
<extensions>
<tp1:TrackPointExtension>
<tp1:hr>152</tp1:hr>
</tp1:TrackPointExtension>
</extensions>
</trkpt>
<trkpt lat="51.9289791" lon="7.3674833">
<ele>99.6337891</ele>
<time>2011-07-31T14:13:43Z</time>
<extensions>
<tp1:TrackPointExtension>
<tp1:hr>151</tp1:hr>
</tp1:TrackPointExtension>
</extensions>
</trkpt>
<trkpt lat="51.9294283" lon="7.3666767">
<ele>99.1530762</ele>
<time>2011-07-31T14:13:54Z</time>
<extensions>
<tp1:TrackPointExtension>
<tp1:hr>152</tp1:hr>
</tp1:TrackPointExtension>
</extensions>
</trkpt>
<trkpt lat="51.9298379" lon="7.3659578">
<ele>99.1530762</ele>
<time>2011-07-31T14:14:04Z</time>
<extensions>
<tp1:TrackPointExtension>
<tp1:hr>153</tp1:hr>
</tp1:TrackPointExtension>
</extensions>
</trkpt>
<trkpt lat="51.9302461" lon="7.3652511">
<ele>99.6337891</ele>
<time>2011-07-31T14:14:14Z</time>
<extensions>
<tp1:TrackPointExtension>
<tp1:hr>153</tp1:hr>
</tp1:TrackPointExtension>
</extensions>
</trkpt>
<trkpt lat="51.9306217" lon="7.3646057">
<ele>100.1145020</ele>
<time>2011-07-31T14:14:23Z</time>
<extensions>
<tp1:TrackPointExtension>
<tp1:hr>153</tp1:hr>
</tp1:TrackPointExtension>
</extensions>
</trkpt>
<trkpt lat="51.9310395" lon="7.3640989">
<ele>100.1145020</ele>
<time>2011-07-31T14:14:32Z</time>
<extensions>
<tp1:TrackPointExtension>
<tp1:hr>154</tp1:hr>
</tp1:TrackPointExtension>
</extensions>
</trkpt>
<trkpt lat="51.9311863" lon="7.3639458">
<ele>100.5950928</ele>
<time>2011-07-31T14:14:35Z</time>
<extensions>
<tp1:TrackPointExtension>
<tp1:hr>155</tp1:hr>
</tp1:TrackPointExtension>
</extensions>
</trkpt>
<trkpt lat="51.9313827" lon="7.3637692">
<ele>100.5950928</ele>
<time>2011-07-31T14:14:39Z</time>
<extensions>
<tp1:TrackPointExtension>
<tp1:hr>154</tp1:hr>
</tp1:TrackPointExtension>
</extensions>
</trkpt>
<trkpt lat="51.9315644" lon="7.3636816">
<ele>102.5177002</ele>
<time>2011-07-31T14:14:43Z</time>
<extensions>
<tp1:TrackPointExtension>
<tp1:hr>151</tp1:hr>
</tp1:TrackPointExtension>
</extensions>
</trkpt>
<trkpt lat="51.9316409" lon="7.3636110">
<ele>103.4790039</ele>
<time>2011-07-31T14:14:47Z</time>
<extensions>
<tp1:TrackPointExtension>
<tp1:hr>146</tp1:hr>
</tp1:TrackPointExtension>
</extensions>
</trkpt>
<trkpt lat="51.9316565" lon="7.3634343">
<ele>103.9597168</ele>
<time>2011-07-31T14:14:51Z</time>
<extensions>
<tp1:TrackPointExtension>
<tp1:hr>144</tp1:hr>
</tp1:TrackPointExtension>
</extensions>
</trkpt>
<trkpt lat="51.9315702" lon="7.3629534">
<ele>102.9982910</ele>
<time>2011-07-31T14:14:57Z</time>
<extensions>
<tp1:TrackPointExtension>
<tp1:hr>144</tp1:hr>
</tp1:TrackPointExtension>
</extensions>
</trkpt>
<trkpt lat="51.9313870" lon="7.3620934">
<ele>100.1145020</ele>
<time>2011-07-31T14:15:06Z</time>
<extensions>
<tp1:TrackPointExtension>
<tp1:hr>149</tp1:hr>
</tp1:TrackPointExtension>
</extensions>
</trkpt>
<trkpt lat="51.9312535" lon="7.3616327">
<ele>98.6724854</ele>
<time>2011-07-31T14:15:11Z</time>
<extensions>
<tp1:TrackPointExtension>
<tp1:hr>149</tp1:hr>
</tp1:TrackPointExtension>
</extensions>
</trkpt>
<trkpt lat="51.9309117" lon="7.3611288">
<ele>96.7498779</ele>
<time>2011-07-31T14:15:18Z</time>
<extensions>
<tp1:TrackPointExtension>
<tp1:hr>148</tp1:hr>
</tp1:TrackPointExtension>
</extensions>
</trkpt>
<trkpt lat="51.9304927" lon="7.3605889">
<ele>95.3077393</ele>
<time>2011-07-31T14:15:26Z</time>
<extensions>
<tp1:TrackPointExtension>
<tp1:hr>145</tp1:hr>
</tp1:TrackPointExtension>
</extensions>
</trkpt>
<trkpt lat="51.9299959" lon="7.3599691">
<ele>93.8658447</ele>
<time>2011-07-31T14:15:35Z</time>
<extensions>
<tp1:TrackPointExtension>
<tp1:hr>142</tp1:hr>
</tp1:TrackPointExtension>
</extensions>
</trkpt>
<trkpt lat="51.9296412" lon="7.3598213">
<ele>92.4239502</ele>
<time>2011-07-31T14:15:40Z</time>
<extensions>
<tp1:TrackPointExtension>
<tp1:hr>136</tp1:hr>
</tp1:TrackPointExtension>
</extensions>
</trkpt>
<trkpt lat="51.9294793" lon="7.3595749">
<ele>91.9432373</ele>
<time>2011-07-31T14:15:43Z</time>
<extensions>
<tp1:TrackPointExtension>
<tp1:hr>135</tp1:hr>
</tp1:TrackPointExtension>
</extensions>
</trkpt>
<trkpt lat="51.9294385" lon="7.3594722">
<ele>91.4625244</ele>
<time>2011-07-31T14:15:44Z</time>
<extensions>
<tp1:TrackPointExtension>
<tp1:hr>135</tp1:hr>
</tp1:TrackPointExtension>
</extensions>
</trkpt>
<trkpt lat="51.9291778" lon="7.3587461">
<ele>89.5399170</ele>
<time>2011-07-31T14:15:51Z</time>
<extensions>
<tp1:TrackPointExtension>
<tp1:hr>131</tp1:hr>
</tp1:TrackPointExtension>
</extensions>
</trkpt>
<trkpt lat="51.9290567" lon="7.3584424">
<ele>89.0593262</ele>
<time>2011-07-31T14:15:54Z</time>
<extensions>
<tp1:TrackPointExtension>
<tp1:hr>124</tp1:hr>
</tp1:TrackPointExtension>
</extensions>
</trkpt>
<trkpt lat="51.9288039" lon="7.3578456">
<ele>88.5787354</ele>
<time>2011-07-31T14:16:00Z</time>
<extensions>
<tp1:TrackPointExtension>
<tp1:hr>119</tp1:hr>
</tp1:TrackPointExtension>
</extensions>
</trkpt>
<trkpt lat="51.9284748" lon="7.3570231">
<ele>89.0593262</ele>
<time>2011-07-31T14:16:08Z</time>
<extensions>
<tp1:TrackPointExtension>
<tp1:hr>119</tp1:hr>
</tp1:TrackPointExtension>
</extensions>
</trkpt>
<trkpt lat="51.9284414" lon="7.3569060">
<ele>89.5399170</ele>
<time>2011-07-31T14:16:09Z</time>
<extensions>
<tp1:TrackPointExtension>
<tp1:hr>120</tp1:hr>
</tp1:TrackPointExtension>
</extensions>
</trkpt>
<trkpt lat="51.9284303" lon="7.3564102">
<ele>90.5013428</ele>
<time>2011-07-31T14:16:13Z</time>
<extensions>
<tp1:TrackPointExtension>
<tp1:hr>117</tp1:hr>
</tp1:TrackPointExtension>
</extensions>
</trkpt>
<trkpt lat="51.9284486" lon="7.3563001">
<ele>90.5013428</ele>
<time>2011-07-31T14:16:14Z</time>
<extensions>
<tp1:TrackPointExtension>
<tp1:hr>117</tp1:hr>
</tp1:TrackPointExtension>
</extensions>
</trkpt>
<trkpt lat="51.9285035" lon="7.3561176">
<ele>91.9432373</ele>
<time>2011-07-31T14:16:16Z</time>
<extensions>
<tp1:TrackPointExtension>
<tp1:hr>117</tp1:hr>
</tp1:TrackPointExtension>
</extensions>
</trkpt>
<trkpt lat="51.9285440" lon="7.3554753">
<ele>90.9819336</ele>
<time>2011-07-31T14:16:21Z</time>
<extensions>
<tp1:TrackPointExtension>
<tp1:hr>120</tp1:hr>
</tp1:TrackPointExtension>
</extensions>
</trkpt>
<trkpt lat="51.9284822" lon="7.3552567">
<ele>90.5013428</ele>
<time>2011-07-31T14:16:23Z</time>
<extensions>
<tp1:TrackPointExtension>
<tp1:hr>122</tp1:hr>
</tp1:TrackPointExtension>
</extensions>
</trkpt>
<trkpt lat="51.9282637" lon="7.3546813">
<ele>90.5013428</ele>
<time>2011-07-31T14:16:29Z</time>
<extensions>
<tp1:TrackPointExtension>
<tp1:hr>128</tp1:hr>
</tp1:TrackPointExtension>
</extensions>
</trkpt>
<trkpt lat="51.9279988" lon="7.3539637">
<ele>91.9432373</ele>
<time>2011-07-31T14:16:37Z</time>
<extensions>
<tp1:TrackPointExtension>
<tp1:hr>131</tp1:hr>
</tp1:TrackPointExtension>
</extensions>
</trkpt>
<trkpt lat="51.9279216" lon="7.3536950">
<ele>92.4239502</ele>
<time>2011-07-31T14:16:40Z</time>
<extensions>
<tp1:TrackPointExtension>
<tp1:hr>136</tp1:hr>
</tp1:TrackPointExtension>
</extensions>
</trkpt>
<trkpt lat="51.9278374" lon="7.3532252">
<ele>92.4239502</ele>
<time>2011-07-31T14:16:46Z</time>
<extensions>
<tp1:TrackPointExtension>
<tp1:hr>138</tp1:hr>
</tp1:TrackPointExtension>
</extensions>
</trkpt>
<trkpt lat="51.9278338" lon="7.3531427">
<ele>92.9045410</ele>
<time>2011-07-31T14:16:48Z</time>
<extensions>
<tp1:TrackPointExtension>
<tp1:hr>137</tp1:hr>
</tp1:TrackPointExtension>
</extensions>
</trkpt>
<trkpt lat="51.9278186" lon="7.3529692">
<ele>97.2304688</ele>
<time>2011-07-31T14:16:55Z</time>
<extensions>
<tp1:TrackPointExtension>
<tp1:hr>135</tp1:hr>
</tp1:TrackPointExtension>
</extensions>
</trkpt>
<trkpt lat="51.9277221" lon="7.3530397">
<ele>98.1918945</ele>
<time>2011-07-31T14:16:58Z</time>
<extensions>
<tp1:TrackPointExtension>
<tp1:hr>135</tp1:hr>
</tp1:TrackPointExtension>
</extensions>
</trkpt>
<trkpt lat="51.9273984" lon="7.3533816">
<ele>94.8271484</ele>
<time>2011-07-31T14:17:05Z</time>
<extensions>
<tp1:TrackPointExtension>
<tp1:hr>138</tp1:hr>
</tp1:TrackPointExtension>
</extensions>
</trkpt>
<trkpt lat="51.9269592" lon="7.3537995">
<ele>94.8271484</ele>
<time>2011-07-31T14:17:13Z</time>
<extensions>
<tp1:TrackPointExtension>
<tp1:hr>141</tp1:hr>
</tp1:TrackPointExtension>
</extensions>
</trkpt>
<trkpt lat="51.9265474" lon="7.3541633">
<ele>95.3077393</ele>
<time>2011-07-31T14:17:20Z</time>
<extensions>
<tp1:TrackPointExtension>
<tp1:hr>141</tp1:hr>
</tp1:TrackPointExtension>
</extensions>
</trkpt>
<trkpt lat="51.9261760" lon="7.3544201">
<ele>99.1530762</ele>
<time>2011-07-31T14:17:26Z</time>
<extensions>
<tp1:TrackPointExtension>
<tp1:hr>139</tp1:hr>
</tp1:TrackPointExtension>
</extensions>
</trkpt>
<trkpt lat="51.9257990" lon="7.3545382">
<ele>102.9982910</ele>
<time>2011-07-31T14:17:32Z</time>
<extensions>
<tp1:TrackPointExtension>
<tp1:hr>135</tp1:hr>
</tp1:TrackPointExtension>
</extensions>
</trkpt>
<trkpt lat="51.9256198" lon="7.3545246">
<ele>102.9982910</ele>
<time>2011-07-31T14:17:35Z</time>
<extensions>
<tp1:TrackPointExtension>
<tp1:hr>130</tp1:hr>
</tp1:TrackPointExtension>
</extensions>
</trkpt>
<trkpt lat="51.9252261" lon="7.3544181">
<ele>99.1530762</ele>
<time>2011-07-31T14:17:41Z</time>
<extensions>
<tp1:TrackPointExtension>
<tp1:hr>130</tp1:hr>
</tp1:TrackPointExtension>
</extensions>
</trkpt>
<trkpt lat="51.9245346" lon="7.3541103">
<ele>94.3465576</ele>
<time>2011-07-31T14:17:51Z</time>
<extensions>
<tp1:TrackPointExtension>
<tp1:hr>133</tp1:hr>
</tp1:TrackPointExtension>
</extensions>
</trkpt>
<trkpt lat="51.9240111" lon="7.3538731">
<ele>91.4625244</ele>
<time>2011-07-31T14:17:59Z</time>
<extensions>
<tp1:TrackPointExtension>
<tp1:hr>134</tp1:hr>
</tp1:TrackPointExtension>
</extensions>
</trkpt>
<trkpt lat="51.9235211" lon="7.3536129">
<ele>87.1365967</ele>
<time>2011-07-31T14:18:07Z</time>
<extensions>
<tp1:TrackPointExtension>
<tp1:hr>139</tp1:hr>
</tp1:TrackPointExtension>
</extensions>
</trkpt>
<trkpt lat="51.9231068" lon="7.3534051">
<ele>84.2526855</ele>
<time>2011-07-31T14:18:14Z</time>
<extensions>
<tp1:TrackPointExtension>
<tp1:hr>141</tp1:hr>
</tp1:TrackPointExtension>
</extensions>
</trkpt>
<trkpt lat="51.9227028" lon="7.3532388">
<ele>83.2913818</ele>
<time>2011-07-31T14:18:21Z</time>
<extensions>
<tp1:TrackPointExtension>
<tp1:hr>137</tp1:hr>
</tp1:TrackPointExtension>
</extensions>
</trkpt>
<trkpt lat="51.9221445" lon="7.3529770">
<ele>81.8493652</ele>
<time>2011-07-31T14:18:30Z</time>
<extensions>
<tp1:TrackPointExtension>
<tp1:hr>138</tp1:hr>
</tp1:TrackPointExtension>
</extensions>
</trkpt>
<trkpt lat="51.9215105" lon="7.3526770">
<ele>80.8881836</ele>
<time>2011-07-31T14:18:40Z</time>
<extensions>
<tp1:TrackPointExtension>
<tp1:hr>138</tp1:hr>
</tp1:TrackPointExtension>
</extensions>
</trkpt>
<trkpt lat="51.9208518" lon="7.3523948">
<ele>80.4074707</ele>
<time>2011-07-31T14:18:50Z</time>
<extensions>
<tp1:TrackPointExtension>
<tp1:hr>136</tp1:hr>
</tp1:TrackPointExtension>
</extensions>
</trkpt>
<trkpt lat="51.9203666" lon="7.3523271">
<ele>83.7719727</ele>
<time>2011-07-31T14:18:57Z</time>
<extensions>
<tp1:TrackPointExtension>
<tp1:hr>136</tp1:hr>
</tp1:TrackPointExtension>
</extensions>
</trkpt>
<trkpt lat="51.9195284" lon="7.3522455">
<ele>83.2913818</ele>
<time>2011-07-31T14:19:09Z</time>
<extensions>
<tp1:TrackPointExtension>
<tp1:hr>135</tp1:hr>
</tp1:TrackPointExtension>
</extensions>
</trkpt>
<trkpt lat="51.9187002" lon="7.3521506">
<ele>80.8881836</ele>
<time>2011-07-31T14:19:21Z</time>
<extensions>
<tp1:TrackPointExtension>
<tp1:hr>133</tp1:hr>
</tp1:TrackPointExtension>
</extensions>
</trkpt>
<trkpt lat="51.9180722" lon="7.3520756">
<ele>78.9654541</ele>
<time>2011-07-31T14:19:30Z</time>
<extensions>
<tp1:TrackPointExtension>
<tp1:hr>134</tp1:hr>
</tp1:TrackPointExtension>
</extensions>
</trkpt>
<trkpt lat="51.9172865" lon="7.3519642">
<ele>74.6395264</ele>
<time>2011-07-31T14:19:41Z</time>
<extensions>
<tp1:TrackPointExtension>
<tp1:hr>131</tp1:hr>
</tp1:TrackPointExtension>
</extensions>
</trkpt>
<trkpt lat="51.9167778" lon="7.3518026">
<ele>75.6008301</ele>
<time>2011-07-31T14:19:48Z</time>
<extensions>
<tp1:TrackPointExtension>
<tp1:hr>128</tp1:hr>
</tp1:TrackPointExtension>
</extensions>
</trkpt>
<trkpt lat="51.9158066" lon="7.3512638">
<ele>77.0428467</ele>
<time>2011-07-31T14:20:02Z</time>
<extensions>
<tp1:TrackPointExtension>
<tp1:hr>126</tp1:hr>
</tp1:TrackPointExtension>
</extensions>
</trkpt>
<trkpt lat="51.9150715" lon="7.3507687">
<ele>77.5234375</ele>
<time>2011-07-31T14:20:13Z</time>
<extensions>
<tp1:TrackPointExtension>
<tp1:hr>124</tp1:hr>
</tp1:TrackPointExtension>
</extensions>
</trkpt>
<trkpt lat="51.9143098" lon="7.3503170">
<ele>77.5234375</ele>
<time>2011-07-31T14:20:24Z</time>
<extensions>
<tp1:TrackPointExtension>
<tp1:hr>125</tp1:hr>
</tp1:TrackPointExtension>
</extensions>
</trkpt>
<trkpt lat="51.9135252" lon="7.3499061">
<ele>78.4847412</ele>
<time>2011-07-31T14:20:35Z</time>
<extensions>
<tp1:TrackPointExtension>
<tp1:hr>126</tp1:hr>
</tp1:TrackPointExtension>
</extensions>
</trkpt>
<trkpt lat="51.9127394" lon="7.3495627">
<ele>77.0428467</ele>
<time>2011-07-31T14:20:46Z</time>
<extensions>
<tp1:TrackPointExtension>
<tp1:hr>129</tp1:hr>
</tp1:TrackPointExtension>
</extensions>
</trkpt>
<trkpt lat="51.9121613" lon="7.3493504">
<ele>77.0428467</ele>
<time>2011-07-31T14:20:54Z</time>
<extensions>
<tp1:TrackPointExtension>
<tp1:hr>130</tp1:hr>
</tp1:TrackPointExtension>
</extensions>
</trkpt>
<trkpt lat="51.9113423" lon="7.3490022">
<ele>75.6008301</ele>
<time>2011-07-31T14:21:06Z</time>
<extensions>
<tp1:TrackPointExtension>
<tp1:hr>133</tp1:hr>
</tp1:TrackPointExtension>
</extensions>
</trkpt>
<trkpt lat="51.9107915" lon="7.3488893">
<ele>74.1588135</ele>
<time>2011-07-31T14:21:14Z</time>
<extensions>
<tp1:TrackPointExtension>
<tp1:hr>135</tp1:hr>
</tp1:TrackPointExtension>
</extensions>
</trkpt>
<trkpt lat="51.9101017" lon="7.3489127">
<ele>72.7169189</ele>
<time>2011-07-31T14:21:24Z</time>
<extensions>
<tp1:TrackPointExtension>
<tp1:hr>137</tp1:hr>
</tp1:TrackPointExtension>
</extensions>
</trkpt>
<trkpt lat="51.9094101" lon="7.3489601">
<ele>71.2749023</ele>
<time>2011-07-31T14:21:34Z</time>
<extensions>
<tp1:TrackPointExtension>
<tp1:hr>142</tp1:hr>
</tp1:TrackPointExtension>
</extensions>
</trkpt>
<trkpt lat="51.9088526" lon="7.3488914">
<ele>70.7941895</ele>
<time>2011-07-31T14:21:42Z</time>
<extensions>
<tp1:TrackPointExtension>
<tp1:hr>145</tp1:hr>
</tp1:TrackPointExtension>
</extensions>
</trkpt>
<trkpt lat="51.9083991" lon="7.3486741">
<ele>74.1588135</ele>
<time>2011-07-31T14:21:49Z</time>
<extensions>
<tp1:TrackPointExtension>
<tp1:hr>144</tp1:hr>
</tp1:TrackPointExtension>
</extensions>
</trkpt>
<trkpt lat="51.9080279" lon="7.3483732">
<ele>77.0428467</ele>
<time>2011-07-31T14:21:55Z</time>
<extensions>
<tp1:TrackPointExtension>
<tp1:hr>142</tp1:hr>
</tp1:TrackPointExtension>
</extensions>
</trkpt>
<trkpt lat="51.9076948" lon="7.3479407">
<ele>80.4074707</ele>
<time>2011-07-31T14:22:01Z</time>
<extensions>
<tp1:TrackPointExtension>
<tp1:hr>141</tp1:hr>
</tp1:TrackPointExtension>
</extensions>
</trkpt>
<trkpt lat="51.9073847" lon="7.3472773">
<ele>79.4460449</ele>
<time>2011-07-31T14:22:08Z</time>
<extensions>
<tp1:TrackPointExtension>
<tp1:hr>139</tp1:hr>
</tp1:TrackPointExtension>
</extensions>
</trkpt>
<trkpt lat="51.9070672" lon="7.3464830">
<ele>80.4074707</ele>
<time>2011-07-31T14:22:16Z</time>
<extensions>
<tp1:TrackPointExtension>
<tp1:hr>137</tp1:hr>
</tp1:TrackPointExtension>
</extensions>
</trkpt>
<trkpt lat="51.9068135" lon="7.3457771">
<ele>79.9266357</ele>
<time>2011-07-31T14:22:23Z</time>
<extensions>
<tp1:TrackPointExtension>
<tp1:hr>135</tp1:hr>
</tp1:TrackPointExtension>
</extensions>
</trkpt>
<trkpt lat="51.9064616" lon="7.3447450">
<ele>77.5234375</ele>
<time>2011-07-31T14:22:33Z</time>
<extensions>
<tp1:TrackPointExtension>
<tp1:hr>131</tp1:hr>
</tp1:TrackPointExtension>
</extensions>
</trkpt>
<trkpt lat="51.9059991" lon="7.3434600">
<ele>75.6008301</ele>
<time>2011-07-31T14:22:45Z</time>
<extensions>
<tp1:TrackPointExtension>
<tp1:hr>131</tp1:hr>
</tp1:TrackPointExtension>
</extensions>
</trkpt>
<trkpt lat="51.9055830" lon="7.3423159">
<ele>72.7169189</ele>
<time>2011-07-31T14:22:56Z</time>
<extensions>
<tp1:TrackPointExtension>
<tp1:hr>133</tp1:hr>
</tp1:TrackPointExtension>
</extensions>
</trkpt>
<trkpt lat="51.9052341" lon="7.3415365">
<ele>73.6782227</ele>
<time>2011-07-31T14:23:04Z</time>
<extensions>
<tp1:TrackPointExtension>
<tp1:hr>134</tp1:hr>
</tp1:TrackPointExtension>
</extensions>
</trkpt>
<trkpt lat="51.9048056" lon="7.3407334">
<ele>75.1202393</ele>
<time>2011-07-31T14:23:13Z</time>
<extensions>
<tp1:TrackPointExtension>
<tp1:hr>137</tp1:hr>
</tp1:TrackPointExtension>
</extensions>
</trkpt>
<trkpt lat="51.9044901" lon="7.3401603">
<ele>77.0428467</ele>
<time>2011-07-31T14:23:20Z</time>
<extensions>
<tp1:TrackPointExtension>
<tp1:hr>139</tp1:hr>
</tp1:TrackPointExtension>
</extensions>
</trkpt>
<trkpt lat="51.9043017" lon="7.3397639">
<ele>75.6008301</ele>
<time>2011-07-31T14:23:25Z</time>
<extensions>
<tp1:TrackPointExtension>
<tp1:hr>141</tp1:hr>
</tp1:TrackPointExtension>
</extensions>
</trkpt>
<trkpt lat="51.9040838" lon="7.3393505">
<ele>75.6008301</ele>
<time>2011-07-31T14:23:30Z</time>
<extensions>
<tp1:TrackPointExtension>
<tp1:hr>144</tp1:hr>
</tp1:TrackPointExtension>
</extensions>
</trkpt>
<trkpt lat="51.9037556" lon="7.3387882">
<ele>77.5234375</ele>
<time>2011-07-31T14:23:37Z</time>
<extensions>
<tp1:TrackPointExtension>
<tp1:hr>148</tp1:hr>
</tp1:TrackPointExtension>
</extensions>
</trkpt>
<trkpt lat="51.9035414" lon="7.3383854">
<ele>77.0428467</ele>
<time>2011-07-31T14:23:42Z</time>
<extensions>
<tp1:TrackPointExtension>
<tp1:hr>149</tp1:hr>
</tp1:TrackPointExtension>
</extensions>
</trkpt>
<trkpt lat="51.9030298" lon="7.3376858">
<ele>82.8107910</ele>
<time>2011-07-31T14:23:51Z</time>
<extensions>
<tp1:TrackPointExtension>
<tp1:hr>150</tp1:hr>
</tp1:TrackPointExtension>
</extensions>
</trkpt>
<trkpt lat="51.9025087" lon="7.3368512">
<ele>87.6171875</ele>
<time>2011-07-31T14:24:02Z</time>
<extensions>
<tp1:TrackPointExtension>
<tp1:hr>150</tp1:hr>
</tp1:TrackPointExtension>
</extensions>
</trkpt>
<trkpt lat="51.9020731" lon="7.3359520">
<ele>88.0980225</ele>
<time>2011-07-31T14:24:13Z</time>
<extensions>
<tp1:TrackPointExtension>
<tp1:hr>149</tp1:hr>
</tp1:TrackPointExtension>
</extensions>
</trkpt>
<trkpt lat="51.9018223" lon="7.3353175">
<ele>87.1365967</ele>
<time>2011-07-31T14:24:20Z</time>
<extensions>
<tp1:TrackPointExtension>
<tp1:hr>149</tp1:hr>
</tp1:TrackPointExtension>
</extensions>
</trkpt>
<trkpt lat="51.9016890" lon="7.3349407">
<ele>86.1752930</ele>
<time>2011-07-31T14:24:24Z</time>
<extensions>
<tp1:TrackPointExtension>
<tp1:hr>148</tp1:hr>
</tp1:TrackPointExtension>
</extensions>
</trkpt>
<trkpt lat="51.9016360" lon="7.3347533">
<ele>84.2526855</ele>
<time>2011-07-31T14:24:26Z</time>
<extensions>
<tp1:TrackPointExtension>
<tp1:hr>147</tp1:hr>
</tp1:TrackPointExtension>
</extensions>
</trkpt>
<trkpt lat="51.9015861" lon="7.3345618">
<ele>84.2526855</ele>
<time>2011-07-31T14:24:28Z</time>
<extensions>
<tp1:TrackPointExtension>
<tp1:hr>146</tp1:hr>
</tp1:TrackPointExtension>
</extensions>
</trkpt>
<trkpt lat="51.9014310" lon="7.3342015">
<ele>84.2526855</ele>
<time>2011-07-31T14:24:32Z</time>
<extensions>
<tp1:TrackPointExtension>
<tp1:hr>144</tp1:hr>
</tp1:TrackPointExtension>
</extensions>
</trkpt>
<trkpt lat="51.9013017" lon="7.3339342">
<ele>84.7333984</ele>
<time>2011-07-31T14:24:35Z</time>
<extensions>
<tp1:TrackPointExtension>
<tp1:hr>143</tp1:hr>
</tp1:TrackPointExtension>
</extensions>
</trkpt>
<trkpt lat="51.9010882" lon="7.3333730">
<ele>86.6560059</ele>
<time>2011-07-31T14:24:41Z</time>
<extensions>
<tp1:TrackPointExtension>
<tp1:hr>142</tp1:hr>
</tp1:TrackPointExtension>
</extensions>
</trkpt>
<trkpt lat="51.9008340" lon="7.3327290">
<ele>88.5787354</ele>
<time>2011-07-31T14:24:48Z</time>
<extensions>
<tp1:TrackPointExtension>
<tp1:hr>143</tp1:hr>
</tp1:TrackPointExtension>
</extensions>
</trkpt>
<trkpt lat="51.9005629" lon="7.3320937">
<ele>89.5399170</ele>
<time>2011-07-31T14:24:55Z</time>
<extensions>
<tp1:TrackPointExtension>
<tp1:hr>143</tp1:hr>
</tp1:TrackPointExtension>
</extensions>
</trkpt>
<trkpt lat="51.9003350" lon="7.3314749">
<ele>88.0980225</ele>
<time>2011-07-31T14:25:02Z</time>
<extensions>
<tp1:TrackPointExtension>
<tp1:hr>144</tp1:hr>
</tp1:TrackPointExtension>
</extensions>
</trkpt>
<trkpt lat="51.9000803" lon="7.3307810">
<ele>88.0980225</ele>
<time>2011-07-31T14:25:10Z</time>
<extensions>
<tp1:TrackPointExtension>
<tp1:hr>146</tp1:hr>
</tp1:TrackPointExtension>
</extensions>
</trkpt>
<trkpt lat="51.8999757" lon="7.3305077">
<ele>87.1365967</ele>
<time>2011-07-31T14:25:13Z</time>
<extensions>
<tp1:TrackPointExtension>
<tp1:hr>148</tp1:hr>
</tp1:TrackPointExtension>
</extensions>
</trkpt>
<trkpt lat="51.8997941" lon="7.3300072">
<ele>85.6945801</ele>
<time>2011-07-31T14:25:19Z</time>
<extensions>
<tp1:TrackPointExtension>
<tp1:hr>149</tp1:hr>
</tp1:TrackPointExtension>
</extensions>
</trkpt>
<trkpt lat="51.8997436" lon="7.3298699">
<ele>85.2139893</ele>
<time>2011-07-31T14:25:21Z</time>
<extensions>
<tp1:TrackPointExtension>
<tp1:hr>148</tp1:hr>
</tp1:TrackPointExtension>
</extensions>
</trkpt>
<trkpt lat="51.8997861" lon="7.3295665">
<ele>84.7333984</ele>
<time>2011-07-31T14:25:25Z</time>
<extensions>
<tp1:TrackPointExtension>
<tp1:hr>146</tp1:hr>
</tp1:TrackPointExtension>
</extensions>
</trkpt>
<trkpt lat="51.8999363" lon="7.3294024">
<ele>85.2139893</ele>
<time>2011-07-31T14:25:28Z</time>
<extensions>
<tp1:TrackPointExtension>
<tp1:hr>146</tp1:hr>
</tp1:TrackPointExtension>
</extensions>
</trkpt>
<trkpt lat="51.9004332" lon="7.3290102">
<ele>84.7333984</ele>
<time>2011-07-31T14:25:37Z</time>
<extensions>
<tp1:TrackPointExtension>
<tp1:hr>151</tp1:hr>
</tp1:TrackPointExtension>
</extensions>
</trkpt>
<trkpt lat="51.9009562" lon="7.3285818">
<ele>85.6945801</ele>
<time>2011-07-31T14:25:47Z</time>
<extensions>
<tp1:TrackPointExtension>
<tp1:hr>151</tp1:hr>
</tp1:TrackPointExtension>
</extensions>
</trkpt>
<trkpt lat="51.9015530" lon="7.3280993">
<ele>86.6560059</ele>
<time>2011-07-31T14:25:58Z</time>
<extensions>
<tp1:TrackPointExtension>
<tp1:hr>150</tp1:hr>
</tp1:TrackPointExtension>
</extensions>
</trkpt>
<trkpt lat="51.9020485" lon="7.3277032">
<ele>86.6560059</ele>
<time>2011-07-31T14:26:07Z</time>
<extensions>
<tp1:TrackPointExtension>
<tp1:hr>150</tp1:hr>
</tp1:TrackPointExtension>
</extensions>
</trkpt>
<trkpt lat="51.9024683" lon="7.3273598">
<ele>87.6171875</ele>
<time>2011-07-31T14:26:15Z</time>
<extensions>
<tp1:TrackPointExtension>
<tp1:hr>150</tp1:hr>
</tp1:TrackPointExtension>
</extensions>
</trkpt>
<trkpt lat="51.9030138" lon="7.3269343">
<ele>87.6171875</ele>
<time>2011-07-31T14:26:25Z</time>
<extensions>
<tp1:TrackPointExtension>
<tp1:hr>148</tp1:hr>
</tp1:TrackPointExtension>
</extensions>
</trkpt>
<trkpt lat="51.9035571" lon="7.3265075">
<ele>87.6171875</ele>
<time>2011-07-31T14:26:35Z</time>
<extensions>
<tp1:TrackPointExtension>
<tp1:hr>146</tp1:hr>
</tp1:TrackPointExtension>
</extensions>
</trkpt>
<trkpt lat="51.9042280" lon="7.3260208">
<ele>87.6171875</ele>
<time>2011-07-31T14:26:47Z</time>
<extensions>
<tp1:TrackPointExtension>
<tp1:hr>145</tp1:hr>
</tp1:TrackPointExtension>
</extensions>
</trkpt>
<trkpt lat="51.9045239" lon="7.3258596">
<ele>88.0980225</ele>
<time>2011-07-31T14:26:52Z</time>
<extensions>
<tp1:TrackPointExtension>
<tp1:hr>145</tp1:hr>
</tp1:TrackPointExtension>
</extensions>
</trkpt>
<trkpt lat="51.9046586" lon="7.3255839">
<ele>87.6171875</ele>
<time>2011-07-31T14:26:56Z</time>
<extensions>
<tp1:TrackPointExtension>
<tp1:hr>143</tp1:hr>
</tp1:TrackPointExtension>
</extensions>
</trkpt>
<trkpt lat="51.9046599" lon="7.3254925">
<ele>87.6171875</ele>
<time>2011-07-31T14:26:57Z</time>
<extensions>
<tp1:TrackPointExtension>
<tp1:hr>142</tp1:hr>
</tp1:TrackPointExtension>
</extensions>
</trkpt>
<trkpt lat="51.9046511" lon="7.3247888">
<ele>86.6560059</ele>
<time>2011-07-31T14:27:05Z</time>
<extensions>
<tp1:TrackPointExtension>
<tp1:hr>143</tp1:hr>
</tp1:TrackPointExtension>
</extensions>
</trkpt>
<trkpt lat="51.9046506" lon="7.3241270">
<ele>87.1365967</ele>
<time>2011-07-31T14:27:13Z</time>
<extensions>
<tp1:TrackPointExtension>
<tp1:hr>143</tp1:hr>
</tp1:TrackPointExtension>
</extensions>
</trkpt>
<trkpt lat="51.9046346" lon="7.3235549">
<ele>87.6171875</ele>
<time>2011-07-31T14:27:20Z</time>
<extensions>
<tp1:TrackPointExtension>
<tp1:hr>148</tp1:hr>
</tp1:TrackPointExtension>
</extensions>
</trkpt>
<trkpt lat="51.9045994" lon="7.3229993">
<ele>88.0980225</ele>
<time>2011-07-31T14:27:27Z</time>
<extensions>
<tp1:TrackPointExtension>
<tp1:hr>153</tp1:hr>
</tp1:TrackPointExtension>
</extensions>
</trkpt>
<trkpt lat="51.9045642" lon="7.3223593">
<ele>88.0980225</ele>
<time>2011-07-31T14:27:35Z</time>
<extensions>
<tp1:TrackPointExtension>
<tp1:hr>158</tp1:hr>
</tp1:TrackPointExtension>
</extensions>
</trkpt>
<trkpt lat="51.9045272" lon="7.3215317">
<ele>88.0980225</ele>
<time>2011-07-31T14:27:45Z</time>
<extensions>
<tp1:TrackPointExtension>
<tp1:hr>162</tp1:hr>
</tp1:TrackPointExtension>
</extensions>
</trkpt>
<trkpt lat="51.9045020" lon="7.3209546">
<ele>89.0593262</ele>
<time>2011-07-31T14:27:52Z</time>
<extensions>
<tp1:TrackPointExtension>
<tp1:hr>162</tp1:hr>
</tp1:TrackPointExtension>
</extensions>
</trkpt>
<trkpt lat="51.9044480" lon="7.3204129">
<ele>90.5013428</ele>
<time>2011-07-31T14:27:59Z</time>
<extensions>
<tp1:TrackPointExtension>
<tp1:hr>163</tp1:hr>
</tp1:TrackPointExtension>
</extensions>
</trkpt>
<trkpt lat="51.9043633" lon="7.3196250">
<ele>89.0593262</ele>
<time>2011-07-31T14:28:09Z</time>
<extensions>
<tp1:TrackPointExtension>
<tp1:hr>163</tp1:hr>
</tp1:TrackPointExtension>
</extensions>
</trkpt>
<trkpt lat="51.9042652" lon="7.3189806">
<ele>86.1752930</ele>
<time>2011-07-31T14:28:17Z</time>
<extensions>
<tp1:TrackPointExtension>
<tp1:hr>164</tp1:hr>
</tp1:TrackPointExtension>
</extensions>
</trkpt>
<trkpt lat="51.9042341" lon="7.3188182">
<ele>85.2139893</ele>
<time>2011-07-31T14:28:19Z</time>
<extensions>
<tp1:TrackPointExtension>
<tp1:hr>164</tp1:hr>
</tp1:TrackPointExtension>
</extensions>
</trkpt>
<trkpt lat="51.9040162" lon="7.3180878">
<ele>86.1752930</ele>
<time>2011-07-31T14:28:28Z</time>
<extensions>
<tp1:TrackPointExtension>
<tp1:hr>164</tp1:hr>
</tp1:TrackPointExtension>
</extensions>
</trkpt>
<trkpt lat="51.9036551" lon="7.3173010">
<ele>90.9819336</ele>
<time>2011-07-31T14:28:38Z</time>
<extensions>
<tp1:TrackPointExtension>
<tp1:hr>163</tp1:hr>
</tp1:TrackPointExtension>
</extensions>
</trkpt>
<trkpt lat="51.9032402" lon="7.3163889">
<ele>86.1752930</ele>
<time>2011-07-31T14:28:50Z</time>
<extensions>
<tp1:TrackPointExtension>
<tp1:hr>159</tp1:hr>
</tp1:TrackPointExtension>
</extensions>
</trkpt>
<trkpt lat="51.9028868" lon="7.3156864">
<ele>87.6171875</ele>
<time>2011-07-31T14:28:59Z</time>
<extensions>
<tp1:TrackPointExtension>
<tp1:hr>154</tp1:hr>
</tp1:TrackPointExtension>
</extensions>
</trkpt>
<trkpt lat="51.9024958" lon="7.3148695">
<ele>87.6171875</ele>
<time>2011-07-31T14:29:09Z</time>
<extensions>
<tp1:TrackPointExtension>
<tp1:hr>150</tp1:hr>
</tp1:TrackPointExtension>
</extensions>
</trkpt>
<trkpt lat="51.9022808" lon="7.3143589">
<ele>87.1365967</ele>
<time>2011-07-31T14:29:15Z</time>
<extensions>
<tp1:TrackPointExtension>
<tp1:hr>145</tp1:hr>
</tp1:TrackPointExtension>
</extensions>
</trkpt>
<trkpt lat="51.9019703" lon="7.3135324">
<ele>90.5013428</ele>
<time>2011-07-31T14:29:24Z</time>
<extensions>
<tp1:TrackPointExtension>
<tp1:hr>140</tp1:hr>
</tp1:TrackPointExtension>
</extensions>
</trkpt>
<trkpt lat="51.9017550" lon="7.3126711">
<ele>90.9819336</ele>
<time>2011-07-31T14:29:33Z</time>
<extensions>
<tp1:TrackPointExtension>
<tp1:hr>138</tp1:hr>
</tp1:TrackPointExtension>
</extensions>
</trkpt>
<trkpt lat="51.9016258" lon="7.3118649">
<ele>90.0206299</ele>
<time>2011-07-31T14:29:41Z</time>
<extensions>
<tp1:TrackPointExtension>
<tp1:hr>138</tp1:hr>
</tp1:TrackPointExtension>
</extensions>
</trkpt>
<trkpt lat="51.9015606" lon="7.3111368">
<ele>89.5399170</ele>
<time>2011-07-31T14:29:48Z</time>
<extensions>
<tp1:TrackPointExtension>
<tp1:hr>139</tp1:hr>
</tp1:TrackPointExtension>
</extensions>
</trkpt>
<trkpt lat="51.9015664" lon="7.3102796">
<ele>87.1365967</ele>
<time>2011-07-31T14:29:56Z</time>
<extensions>
<tp1:TrackPointExtension>
<tp1:hr>143</tp1:hr>
</tp1:TrackPointExtension>
</extensions>
</trkpt>
<trkpt lat="51.9015938" lon="7.3096747">
<ele>87.6171875</ele>
<time>2011-07-31T14:30:02Z</time>
<extensions>
<tp1:TrackPointExtension>
<tp1:hr>142</tp1:hr>
</tp1:TrackPointExtension>
</extensions>
</trkpt>
<trkpt lat="51.9016301" lon="7.3090937">
<ele>88.5787354</ele>
<time>2011-07-31T14:30:08Z</time>
<extensions>
<tp1:TrackPointExtension>
<tp1:hr>142</tp1:hr>
</tp1:TrackPointExtension>
</extensions>
</trkpt>
<trkpt lat="51.9017027" lon="7.3082240">
<ele>90.5013428</ele>
<time>2011-07-31T14:30:17Z</time>
<extensions>
<tp1:TrackPointExtension>
<tp1:hr>142</tp1:hr>
</tp1:TrackPointExtension>
</extensions>
</trkpt>
<trkpt lat="51.9017669" lon="7.3072817">
<ele>93.3851318</ele>
<time>2011-07-31T14:30:27Z</time>
<extensions>
<tp1:TrackPointExtension>
<tp1:hr>144</tp1:hr>
</tp1:TrackPointExtension>
</extensions>
</trkpt>
<trkpt lat="51.9017922" lon="7.3063919">
<ele>95.7884521</ele>
<time>2011-07-31T14:30:36Z</time>
<extensions>
<tp1:TrackPointExtension>
<tp1:hr>145</tp1:hr>
</tp1:TrackPointExtension>
</extensions>
</trkpt>
<trkpt lat="51.9017698" lon="7.3054837">
<ele>97.7111816</ele>
<time>2011-07-31T14:30:45Z</time>
<extensions>
<tp1:TrackPointExtension>
<tp1:hr>147</tp1:hr>
</tp1:TrackPointExtension>
</extensions>
</trkpt>
<trkpt lat="51.9017382" lon="7.3047461">
<ele>94.8271484</ele>
<time>2011-07-31T14:30:52Z</time>
<extensions>
<tp1:TrackPointExtension>
<tp1:hr>148</tp1:hr>
</tp1:TrackPointExtension>
</extensions>
</trkpt>
<trkpt lat="51.9016975" lon="7.3040163">
<ele>90.5013428</ele>
<time>2011-07-31T14:30:59Z</time>
<extensions>
<tp1:TrackPointExtension>
<tp1:hr>148</tp1:hr>
</tp1:TrackPointExtension>
</extensions>
</trkpt>
<trkpt lat="51.9016156" lon="7.3028647">
<ele>85.6945801</ele>
<time>2011-07-31T14:31:10Z</time>
<extensions>
<tp1:TrackPointExtension>
<tp1:hr>144</tp1:hr>
</tp1:TrackPointExtension>
</extensions>
</trkpt>
<trkpt lat="51.9014919" lon="7.3017111">
<ele>87.6171875</ele>
<time>2011-07-31T14:31:21Z</time>
<extensions>
<tp1:TrackPointExtension>
<tp1:hr>140</tp1:hr>
</tp1:TrackPointExtension>
</extensions>
</trkpt>
<trkpt lat="51.9013783" lon="7.3005438">
<ele>88.5787354</ele>
<time>2011-07-31T14:31:32Z</time>
<extensions>
<tp1:TrackPointExtension>
<tp1:hr>139</tp1:hr>
</tp1:TrackPointExtension>
</extensions>
</trkpt>
<trkpt lat="51.9012759" lon="7.2994967">
<ele>88.5787354</ele>
<time>2011-07-31T14:31:42Z</time>
<extensions>
<tp1:TrackPointExtension>
<tp1:hr>138</tp1:hr>
</tp1:TrackPointExtension>
</extensions>
</trkpt>
<trkpt lat="51.9011505" lon="7.2984622">
<ele>88.0980225</ele>
<time>2011-07-31T14:31:52Z</time>
<extensions>
<tp1:TrackPointExtension>
<tp1:hr>138</tp1:hr>
</tp1:TrackPointExtension>
</extensions>
</trkpt>
<trkpt lat="51.9010043" lon="7.2976398">
<ele>86.1752930</ele>
<time>2011-07-31T14:32:00Z</time>
<extensions>
<tp1:TrackPointExtension>
<tp1:hr>138</tp1:hr>
</tp1:TrackPointExtension>
</extensions>
</trkpt>
<trkpt lat="51.9007740" lon="7.2966055">
<ele>84.2526855</ele>
<time>2011-07-31T14:32:10Z</time>
<extensions>
<tp1:TrackPointExtension>
<tp1:hr>135</tp1:hr>
</tp1:TrackPointExtension>
</extensions>
</trkpt>
<trkpt lat="51.9004795" lon="7.2953566">
<ele>82.3300781</ele>
<time>2011-07-31T14:32:22Z</time>
<extensions>
<tp1:TrackPointExtension>
<tp1:hr>134</tp1:hr>
</tp1:TrackPointExtension>
</extensions>
</trkpt>
<trkpt lat="51.9002601" lon="7.2944132">
<ele>81.3687744</ele>
<time>2011-07-31T14:32:31Z</time>
<extensions>
<tp1:TrackPointExtension>
<tp1:hr>133</tp1:hr>
</tp1:TrackPointExtension>
</extensions>
</trkpt>
<trkpt lat="51.8999758" lon="7.2932266">
<ele>78.0040283</ele>
<time>2011-07-31T14:32:42Z</time>
<extensions>
<tp1:TrackPointExtension>
<tp1:hr>129</tp1:hr>
</tp1:TrackPointExtension>
</extensions>
</trkpt>
<trkpt lat="51.8996802" lon="7.2920191">
<ele>75.6008301</ele>
<time>2011-07-31T14:32:53Z</time>
<extensions>
<tp1:TrackPointExtension>
<tp1:hr>127</tp1:hr>
</tp1:TrackPointExtension>
</extensions>
</trkpt>
<trkpt lat="51.8993421" lon="7.2910670">
<ele>73.6782227</ele>
<time>2011-07-31T14:33:02Z</time>
<extensions>
<tp1:TrackPointExtension>
<tp1:hr>125</tp1:hr>
</tp1:TrackPointExtension>
</extensions>
</trkpt>
<trkpt lat="51.8989350" lon="7.2901999">
<ele>72.7169189</ele>
<time>2011-07-31T14:33:11Z</time>
<extensions>
<tp1:TrackPointExtension>
<tp1:hr>124</tp1:hr>
</tp1:TrackPointExtension>
</extensions>
</trkpt>
<trkpt lat="51.8986691" lon="7.2895523">
<ele>74.1588135</ele>
<time>2011-07-31T14:33:18Z</time>
<extensions>
<tp1:TrackPointExtension>
<tp1:hr>128</tp1:hr>
</tp1:TrackPointExtension>
</extensions>
</trkpt>
<trkpt lat="51.8984957" lon="7.2887669">
<ele>75.1202393</ele>
<time>2011-07-31T14:33:26Z</time>
<extensions>
<tp1:TrackPointExtension>
<tp1:hr>133</tp1:hr>
</tp1:TrackPointExtension>
</extensions>
</trkpt>
<trkpt lat="51.8984150" lon="7.2879183">
<ele>75.6008301</ele>
<time>2011-07-31T14:33:34Z</time>
<extensions>
<tp1:TrackPointExtension>
<tp1:hr>136</tp1:hr>
</tp1:TrackPointExtension>
</extensions>
</trkpt>
<trkpt lat="51.8982946" lon="7.2867861">
<ele>77.0428467</ele>
<time>2011-07-31T14:33:45Z</time>
<extensions>
<tp1:TrackPointExtension>
<tp1:hr>138</tp1:hr>
</tp1:TrackPointExtension>
</extensions>
</trkpt>
<trkpt lat="51.8982005" lon="7.2859857">
<ele>77.5234375</ele>
<time>2011-07-31T14:33:53Z</time>
<extensions>
<tp1:TrackPointExtension>
<tp1:hr>138</tp1:hr>
</tp1:TrackPointExtension>
</extensions>
</trkpt>
<trkpt lat="51.8980833" lon="7.2849715">
<ele>77.0428467</ele>
<time>2011-07-31T14:34:03Z</time>
<extensions>
<tp1:TrackPointExtension>
<tp1:hr>140</tp1:hr>
</tp1:TrackPointExtension>
</extensions>
</trkpt>
<trkpt lat="51.8979656" lon="7.2839568">
<ele>77.5234375</ele>
<time>2011-07-31T14:34:13Z</time>
<extensions>
<tp1:TrackPointExtension>
<tp1:hr>139</tp1:hr>
</tp1:TrackPointExtension>
</extensions>
</trkpt>
<trkpt lat="51.8978450" lon="7.2829353">
<ele>77.5234375</ele>
<time>2011-07-31T14:34:23Z</time>
<extensions>
<tp1:TrackPointExtension>
<tp1:hr>138</tp1:hr>
</tp1:TrackPointExtension>
</extensions>
</trkpt>
<trkpt lat="51.8977007" lon="7.2818113">
<ele>78.0040283</ele>
<time>2011-07-31T14:34:34Z</time>
<extensions>
<tp1:TrackPointExtension>
<tp1:hr>138</tp1:hr>
</tp1:TrackPointExtension>
</extensions>
</trkpt>
<trkpt lat="51.8975540" lon="7.2809039">
<ele>78.0040283</ele>
<time>2011-07-31T14:34:43Z</time>
<extensions>
<tp1:TrackPointExtension>
<tp1:hr>140</tp1:hr>
</tp1:TrackPointExtension>
</extensions>
</trkpt>
<trkpt lat="51.8972727" lon="7.2797516">
<ele>78.0040283</ele>
<time>2011-07-31T14:34:55Z</time>
<extensions>
<tp1:TrackPointExtension>
<tp1:hr>144</tp1:hr>
</tp1:TrackPointExtension>
</extensions>
</trkpt>
<trkpt lat="51.8970090" lon="7.2787454">
<ele>77.0428467</ele>
<time>2011-07-31T14:35:06Z</time>
<extensions>
<tp1:TrackPointExtension>
<tp1:hr>145</tp1:hr>
</tp1:TrackPointExtension>
</extensions>
</trkpt>
<trkpt lat="51.8967909" lon="7.2781312">
<ele>77.5234375</ele>
<time>2011-07-31T14:35:13Z</time>
<extensions>
<tp1:TrackPointExtension>
<tp1:hr>146</tp1:hr>
</tp1:TrackPointExtension>
</extensions>
</trkpt>
<trkpt lat="51.8964615" lon="7.2774967">
<ele>78.0040283</ele>
<time>2011-07-31T14:35:21Z</time>
<extensions>
<tp1:TrackPointExtension>
<tp1:hr>146</tp1:hr>
</tp1:TrackPointExtension>
</extensions>
</trkpt>
<trkpt lat="51.8961014" lon="7.2769642">
<ele>76.0814209</ele>
<time>2011-07-31T14:35:29Z</time>
<extensions>
<tp1:TrackPointExtension>
<tp1:hr>144</tp1:hr>
</tp1:TrackPointExtension>
</extensions>
</trkpt>
<trkpt lat="51.8959631" lon="7.2767884">
<ele>75.1202393</ele>
<time>2011-07-31T14:35:32Z</time>
<extensions>
<tp1:TrackPointExtension>
<tp1:hr>143</tp1:hr>
</tp1:TrackPointExtension>
</extensions>
</trkpt>
<trkpt lat="51.8958704" lon="7.2766832">
<ele>74.6395264</ele>
<time>2011-07-31T14:35:34Z</time>
<extensions>
<tp1:TrackPointExtension>
<tp1:hr>140</tp1:hr>
</tp1:TrackPointExtension>
</extensions>
</trkpt>
<trkpt lat="51.8956962" lon="7.2764706">
<ele>74.1588135</ele>
<time>2011-07-31T14:35:38Z</time>
<extensions>
<tp1:TrackPointExtension>
<tp1:hr>135</tp1:hr>
</tp1:TrackPointExtension>
</extensions>
</trkpt>
<trkpt lat="51.8956430" lon="7.2761473">
<ele>74.1588135</ele>
<time>2011-07-31T14:35:42Z</time>
<extensions>
<tp1:TrackPointExtension>
<tp1:hr>132</tp1:hr>
</tp1:TrackPointExtension>
</extensions>
</trkpt>
<trkpt lat="51.8956640" lon="7.2759784">
<ele>74.6395264</ele>
<time>2011-07-31T14:35:44Z</time>
<extensions>
<tp1:TrackPointExtension>
<tp1:hr>132</tp1:hr>
</tp1:TrackPointExtension>
</extensions>
</trkpt>
<trkpt lat="51.8959122" lon="7.2754253">
<ele>77.5234375</ele>
<time>2011-07-31T14:35:51Z</time>
<extensions>
<tp1:TrackPointExtension>
<tp1:hr>135</tp1:hr>
</tp1:TrackPointExtension>
</extensions>
</trkpt>
<trkpt lat="51.8960788" lon="7.2750102">
<ele>76.5621338</ele>
<time>2011-07-31T14:35:56Z</time>
<extensions>
<tp1:TrackPointExtension>
<tp1:hr>140</tp1:hr>
</tp1:TrackPointExtension>
</extensions>
</trkpt>
<trkpt lat="51.8963024" lon="7.2744527">
<ele>76.5621338</ele>
<time>2011-07-31T14:36:02Z</time>
<extensions>
<tp1:TrackPointExtension>
<tp1:hr>141</tp1:hr>
</tp1:TrackPointExtension>
</extensions>
</trkpt>
<trkpt lat="51.8965226" lon="7.2739104">
<ele>76.0814209</ele>
<time>2011-07-31T14:36:08Z</time>
<extensions>
<tp1:TrackPointExtension>
<tp1:hr>141</tp1:hr>
</tp1:TrackPointExtension>
</extensions>
</trkpt>
<trkpt lat="51.8967262" lon="7.2734809">
<ele>75.1202393</ele>
<time>2011-07-31T14:36:13Z</time>
<extensions>
<tp1:TrackPointExtension>
<tp1:hr>139</tp1:hr>
</tp1:TrackPointExtension>
</extensions>
</trkpt>
<trkpt lat="51.8968542" lon="7.2732847">
<ele>76.5621338</ele>
<time>2011-07-31T14:36:16Z</time>
<extensions>
<tp1:TrackPointExtension>
<tp1:hr>139</tp1:hr>
</tp1:TrackPointExtension>
</extensions>
</trkpt>
<trkpt lat="51.8971006" lon="7.2730164">
<ele>78.9654541</ele>
<time>2011-07-31T14:36:21Z</time>
<extensions>
<tp1:TrackPointExtension>
<tp1:hr>137</tp1:hr>
</tp1:TrackPointExtension>
</extensions>
</trkpt>
<trkpt lat="51.8973566" lon="7.2728051">
<ele>81.8493652</ele>
<time>2011-07-31T14:36:26Z</time>
<extensions>
<tp1:TrackPointExtension>
<tp1:hr>136</tp1:hr>
</tp1:TrackPointExtension>
</extensions>
</trkpt>
<trkpt lat="51.8977235" lon="7.2726723">
<ele>84.2526855</ele>
<time>2011-07-31T14:36:32Z</time>
<extensions>
<tp1:TrackPointExtension>
<tp1:hr>136</tp1:hr>
</tp1:TrackPointExtension>
</extensions>
</trkpt>
<trkpt lat="51.8978534" lon="7.2726397">
<ele>83.2913818</ele>
<time>2011-07-31T14:36:34Z</time>
<extensions>
<tp1:TrackPointExtension>
<tp1:hr>137</tp1:hr>
</tp1:TrackPointExtension>
</extensions>
</trkpt>
<trkpt lat="51.8980959" lon="7.2724367">
<ele>82.8107910</ele>
<time>2011-07-31T14:36:39Z</time>
<extensions>
<tp1:TrackPointExtension>
<tp1:hr>138</tp1:hr>
</tp1:TrackPointExtension>
</extensions>
</trkpt>
<trkpt lat="51.8981461" lon="7.2723751">
<ele>83.2913818</ele>
<time>2011-07-31T14:36:40Z</time>
<extensions>
<tp1:TrackPointExtension>
<tp1:hr>138</tp1:hr>
</tp1:TrackPointExtension>
</extensions>
</trkpt>
<trkpt lat="51.8983601" lon="7.2720384">
<ele>84.2526855</ele>
<time>2011-07-31T14:36:45Z</time>
<extensions>
<tp1:TrackPointExtension>
<tp1:hr>138</tp1:hr>
</tp1:TrackPointExtension>
</extensions>
</trkpt>
<trkpt lat="51.8986613" lon="7.2715364">
<ele>81.8493652</ele>
<time>2011-07-31T14:36:52Z</time>
<extensions>
<tp1:TrackPointExtension>
<tp1:hr>139</tp1:hr>
</tp1:TrackPointExtension>
</extensions>
</trkpt>
<trkpt lat="51.8987758" lon="7.2713406">
<ele>81.8493652</ele>
<time>2011-07-31T14:36:55Z</time>
<extensions>
<tp1:TrackPointExtension>
<tp1:hr>139</tp1:hr>
</tp1:TrackPointExtension>
</extensions>
</trkpt>
<trkpt lat="51.8988920" lon="7.2711815">
<ele>84.2526855</ele>
<time>2011-07-31T14:36:58Z</time>
<extensions>
<tp1:TrackPointExtension>
<tp1:hr>139</tp1:hr>
</tp1:TrackPointExtension>
</extensions>
</trkpt>
<trkpt lat="51.8992192" lon="7.2710794">
<ele>85.2139893</ele>
<time>2011-07-31T14:37:03Z</time>
<extensions>
<tp1:TrackPointExtension>
<tp1:hr>139</tp1:hr>
</tp1:TrackPointExtension>
</extensions>
</trkpt>
<trkpt lat="51.8993825" lon="7.2710740">
<ele>83.2913818</ele>
<time>2011-07-31T14:37:06Z</time>
<extensions>
<tp1:TrackPointExtension>
<tp1:hr>139</tp1:hr>
</tp1:TrackPointExtension>
</extensions>
</trkpt>
<trkpt lat="51.8995912" lon="7.2711495">
<ele>81.3687744</ele>
<time>2011-07-31T14:37:09Z</time>
<extensions>
<tp1:TrackPointExtension>
<tp1:hr>140</tp1:hr>
</tp1:TrackPointExtension>
</extensions>
</trkpt>
<trkpt lat="51.8998010" lon="7.2713122">
<ele>76.0814209</ele>
<time>2011-07-31T14:37:13Z</time>
<extensions>
<tp1:TrackPointExtension>
<tp1:hr>141</tp1:hr>
</tp1:TrackPointExtension>
</extensions>
</trkpt>
<trkpt lat="51.9001114" lon="7.2714011">
<ele>71.2749023</ele>
<time>2011-07-31T14:37:18Z</time>
<extensions>
<tp1:TrackPointExtension>
<tp1:hr>143</tp1:hr>
</tp1:TrackPointExtension>
</extensions>
</trkpt>
<trkpt lat="51.9004974" lon="7.2713808">
<ele>69.3522949</ele>
<time>2011-07-31T14:37:24Z</time>
<extensions>
<tp1:TrackPointExtension>
<tp1:hr>144</tp1:hr>
</tp1:TrackPointExtension>
</extensions>
</trkpt>
<trkpt lat="51.9008670" lon="7.2713696">
<ele>70.3134766</ele>
<time>2011-07-31T14:37:30Z</time>
<extensions>
<tp1:TrackPointExtension>
<tp1:hr>145</tp1:hr>
</tp1:TrackPointExtension>
</extensions>
</trkpt>
<trkpt lat="51.9010025" lon="7.2713223">
<ele>71.2749023</ele>
<time>2011-07-31T14:37:32Z</time>
<extensions>
<tp1:TrackPointExtension>
<tp1:hr>145</tp1:hr>
</tp1:TrackPointExtension>
</extensions>
</trkpt>
<trkpt lat="51.9011088" lon="7.2713215">
<ele>72.7169189</ele>
<time>2011-07-31T14:37:34Z</time>
<extensions>
<tp1:TrackPointExtension>
<tp1:hr>145</tp1:hr>
</tp1:TrackPointExtension>
</extensions>
</trkpt>
<trkpt lat="51.9013536" lon="7.2712868">
<ele>74.6395264</ele>
<time>2011-07-31T14:37:38Z</time>
<extensions>
<tp1:TrackPointExtension>
<tp1:hr>144</tp1:hr>
</tp1:TrackPointExtension>
</extensions>
</trkpt>
<trkpt lat="51.9014371" lon="7.2712501">
<ele>77.0428467</ele>
<time>2011-07-31T14:37:40Z</time>
<extensions>
<tp1:TrackPointExtension>
<tp1:hr>143</tp1:hr>
</tp1:TrackPointExtension>
</extensions>
</trkpt>
<trkpt lat="51.9019213" lon="7.2711345">
<ele>73.6782227</ele>
<time>2011-07-31T14:37:46Z</time>
<extensions>
<tp1:TrackPointExtension>
<tp1:hr>139</tp1:hr>
</tp1:TrackPointExtension>
</extensions>
</trkpt>
<trkpt lat="51.9021506" lon="7.2710951">
<ele>80.4074707</ele>
<time>2011-07-31T14:37:50Z</time>
<extensions>
<tp1:TrackPointExtension>
<tp1:hr>132</tp1:hr>
</tp1:TrackPointExtension>
</extensions>
</trkpt>
<trkpt lat="51.9025104" lon="7.2708427">
<ele>81.3687744</ele>
<time>2011-07-31T14:37:56Z</time>
<extensions>
<tp1:TrackPointExtension>
<tp1:hr>132</tp1:hr>
</tp1:TrackPointExtension>
</extensions>
</trkpt>
<trkpt lat="51.9026791" lon="7.2707040">
<ele>81.8493652</ele>
<time>2011-07-31T14:37:59Z</time>
<extensions>
<tp1:TrackPointExtension>
<tp1:hr>130</tp1:hr>
</tp1:TrackPointExtension>
</extensions>
</trkpt>
<trkpt lat="51.9030344" lon="7.2701542">
<ele>80.8881836</ele>
<time>2011-07-31T14:38:07Z</time>
<extensions>
<tp1:TrackPointExtension>
<tp1:hr>130</tp1:hr>
</tp1:TrackPointExtension>
</extensions>
</trkpt>
<trkpt lat="51.9033107" lon="7.2696126">
<ele>79.9266357</ele>
<time>2011-07-31T14:38:14Z</time>
<extensions>
<tp1:TrackPointExtension>
<tp1:hr>133</tp1:hr>
</tp1:TrackPointExtension>
</extensions>
</trkpt>
<trkpt lat="51.9033940" lon="7.2694933">
<ele>78.9654541</ele>
<time>2011-07-31T14:38:16Z</time>
<extensions>
<tp1:TrackPointExtension>
<tp1:hr>134</tp1:hr>
</tp1:TrackPointExtension>
</extensions>
</trkpt>
<trkpt lat="51.9035914" lon="7.2693251">
<ele>78.9654541</ele>
<time>2011-07-31T14:38:20Z</time>
<extensions>
<tp1:TrackPointExtension>
<tp1:hr>136</tp1:hr>
</tp1:TrackPointExtension>
</extensions>
</trkpt>
<trkpt lat="51.9040296" lon="7.2691650">
<ele>81.3687744</ele>
<time>2011-07-31T14:38:28Z</time>
<extensions>
<tp1:TrackPointExtension>
<tp1:hr>140</tp1:hr>
</tp1:TrackPointExtension>
</extensions>
</trkpt>
<trkpt lat="51.9045207" lon="7.2690151">
<ele>81.3687744</ele>
<time>2011-07-31T14:38:37Z</time>
<extensions>
<tp1:TrackPointExtension>
<tp1:hr>145</tp1:hr>
</tp1:TrackPointExtension>
</extensions>
</trkpt>
<trkpt lat="51.9052086" lon="7.2687822">
<ele>82.8107910</ele>
<time>2011-07-31T14:38:50Z</time>
<extensions>
<tp1:TrackPointExtension>
<tp1:hr>150</tp1:hr>
</tp1:TrackPointExtension>
</extensions>
</trkpt>
<trkpt lat="51.9054562" lon="7.2686191">
<ele>83.7719727</ele>
<time>2011-07-31T14:38:55Z</time>
<extensions>
<tp1:TrackPointExtension>
<tp1:hr>151</tp1:hr>
</tp1:TrackPointExtension>
</extensions>
</trkpt>
<trkpt lat="51.9057110" lon="7.2682915">
<ele>85.6945801</ele>
<time>2011-07-31T14:39:01Z</time>
<extensions>
<tp1:TrackPointExtension>
<tp1:hr>153</tp1:hr>
</tp1:TrackPointExtension>
</extensions>
</trkpt>
<trkpt lat="51.9059142" lon="7.2679895">
<ele>86.6560059</ele>
<time>2011-07-31T14:39:06Z</time>
<extensions>
<tp1:TrackPointExtension>
<tp1:hr>154</tp1:hr>
</tp1:TrackPointExtension>
</extensions>
</trkpt>
<trkpt lat="51.9061093" lon="7.2678618">
<ele>87.6171875</ele>
<time>2011-07-31T14:39:10Z</time>
<extensions>
<tp1:TrackPointExtension>
<tp1:hr>154</tp1:hr>
</tp1:TrackPointExtension>
</extensions>
</trkpt>
<trkpt lat="51.9065736" lon="7.2677133">
<ele>88.5787354</ele>
<time>2011-07-31T14:39:19Z</time>
<extensions>
<tp1:TrackPointExtension>
<tp1:hr>155</tp1:hr>
</tp1:TrackPointExtension>
</extensions>
</trkpt>
<trkpt lat="51.9068859" lon="7.2676238">
<ele>88.0980225</ele>
<time>2011-07-31T14:39:25Z</time>
<extensions>
<tp1:TrackPointExtension>
<tp1:hr>155</tp1:hr>
</tp1:TrackPointExtension>
</extensions>
</trkpt>
<trkpt lat="51.9074226" lon="7.2674792">
<ele>89.0593262</ele>
<time>2011-07-31T14:39:35Z</time>
<extensions>
<tp1:TrackPointExtension>
<tp1:hr>155</tp1:hr>
</tp1:TrackPointExtension>
</extensions>
</trkpt>
<trkpt lat="51.9078442" lon="7.2673623">
<ele>88.0980225</ele>
<time>2011-07-31T14:39:43Z</time>
<extensions>
<tp1:TrackPointExtension>
<tp1:hr>155</tp1:hr>
</tp1:TrackPointExtension>
</extensions>
</trkpt>
<trkpt lat="51.9083996" lon="7.2671840">
<ele>87.6171875</ele>
<time>2011-07-31T14:39:54Z</time>
<extensions>
<tp1:TrackPointExtension>
<tp1:hr>154</tp1:hr>
</tp1:TrackPointExtension>
</extensions>
</trkpt>
<trkpt lat="51.9088383" lon="7.2670619">
<ele>89.0593262</ele>
<time>2011-07-31T14:40:03Z</time>
<extensions>
<tp1:TrackPointExtension>
<tp1:hr>153</tp1:hr>
</tp1:TrackPointExtension>
</extensions>
</trkpt>
<trkpt lat="51.9089362" lon="7.2670355">
<ele>89.5399170</ele>
<time>2011-07-31T14:40:05Z</time>
<extensions>
<tp1:TrackPointExtension>
<tp1:hr>153</tp1:hr>
</tp1:TrackPointExtension>
</extensions>
</trkpt>
<trkpt lat="51.9095334" lon="7.2668747">
<ele>93.8658447</ele>
<time>2011-07-31T14:40:17Z</time>
<extensions>
<tp1:TrackPointExtension>
<tp1:hr>152</tp1:hr>
</tp1:TrackPointExtension>
</extensions>
</trkpt>
<trkpt lat="51.9100381" lon="7.2667271">
<ele>94.8271484</ele>
<time>2011-07-31T14:40:27Z</time>
<extensions>
<tp1:TrackPointExtension>
<tp1:hr>150</tp1:hr>
</tp1:TrackPointExtension>
</extensions>
</trkpt>
<trkpt lat="51.9106146" lon="7.2665763">
<ele>97.7111816</ele>
<time>2011-07-31T14:40:39Z</time>
<extensions>
<tp1:TrackPointExtension>
<tp1:hr>149</tp1:hr>
</tp1:TrackPointExtension>
</extensions>
</trkpt>
<trkpt lat="51.9111625" lon="7.2664225">
<ele>99.6337891</ele>
<time>2011-07-31T14:40:51Z</time>
<extensions>
<tp1:TrackPointExtension>
<tp1:hr>150</tp1:hr>
</tp1:TrackPointExtension>
</extensions>
</trkpt>
<trkpt lat="51.9116265" lon="7.2662712">
<ele>102.0371094</ele>
<time>2011-07-31T14:41:01Z</time>
<extensions>
<tp1:TrackPointExtension>
<tp1:hr>153</tp1:hr>
</tp1:TrackPointExtension>
</extensions>
</trkpt>
<trkpt lat="51.9120737" lon="7.2661059">
<ele>104.4404297</ele>
<time>2011-07-31T14:41:11Z</time>
<extensions>
<tp1:TrackPointExtension>
<tp1:hr>155</tp1:hr>
</tp1:TrackPointExtension>
</extensions>
</trkpt>
<trkpt lat="51.9126064" lon="7.2658384">
<ele>106.3630371</ele>
<time>2011-07-31T14:41:23Z</time>
<extensions>
<tp1:TrackPointExtension>
<tp1:hr>160</tp1:hr>
</tp1:TrackPointExtension>
</extensions>
</trkpt>
<trkpt lat="51.9129275" lon="7.2656450">
<ele>108.7662354</ele>
<time>2011-07-31T14:41:31Z</time>
<extensions>
<tp1:TrackPointExtension>
<tp1:hr>161</tp1:hr>
</tp1:TrackPointExtension>
</extensions>
</trkpt>
<trkpt lat="51.9132937" lon="7.2653805">
<ele>111.6502686</ele>
<time>2011-07-31T14:41:41Z</time>
<extensions>
<tp1:TrackPointExtension>
<tp1:hr>162</tp1:hr>
</tp1:TrackPointExtension>
</extensions>
</trkpt>
<trkpt lat="51.9136079" lon="7.2651033">
<ele>114.5341797</ele>
<time>2011-07-31T14:41:50Z</time>
<extensions>
<tp1:TrackPointExtension>
<tp1:hr>165</tp1:hr>
</tp1:TrackPointExtension>
</extensions>
</trkpt>
<trkpt lat="51.9139681" lon="7.2647463">
<ele>117.4182129</ele>
<time>2011-07-31T14:42:01Z</time>
<extensions>
<tp1:TrackPointExtension>
<tp1:hr>165</tp1:hr>
</tp1:TrackPointExtension>
</extensions>
</trkpt>
<trkpt lat="51.9142749" lon="7.2643615">
<ele>118.8601074</ele>
<time>2011-07-31T14:42:11Z</time>
<extensions>
<tp1:TrackPointExtension>
<tp1:hr>166</tp1:hr>
</tp1:TrackPointExtension>
</extensions>
</trkpt>
<trkpt lat="51.9145606" lon="7.2639580">
<ele>120.3021240</ele>
<time>2011-07-31T14:42:21Z</time>
<extensions>
<tp1:TrackPointExtension>
<tp1:hr>166</tp1:hr>
</tp1:TrackPointExtension>
</extensions>
</trkpt>
<trkpt lat="51.9147903" lon="7.2635735">
<ele>122.2247314</ele>
<time>2011-07-31T14:42:30Z</time>
<extensions>
<tp1:TrackPointExtension>
<tp1:hr>166</tp1:hr>
</tp1:TrackPointExtension>
</extensions>
</trkpt>
<trkpt lat="51.9150310" lon="7.2631323">
<ele>124.1473389</ele>
<time>2011-07-31T14:42:40Z</time>
<extensions>
<tp1:TrackPointExtension>
<tp1:hr>166</tp1:hr>
</tp1:TrackPointExtension>
</extensions>
</trkpt>
<trkpt lat="51.9152677" lon="7.2626557">
<ele>127.5119629</ele>
<time>2011-07-31T14:42:51Z</time>
<extensions>
<tp1:TrackPointExtension>
<tp1:hr>165</tp1:hr>
</tp1:TrackPointExtension>
</extensions>
</trkpt>
<trkpt lat="51.9154180" lon="7.2623444">
<ele>129.9152832</ele>
<time>2011-07-31T14:42:58Z</time>
<extensions>
<tp1:TrackPointExtension>
<tp1:hr>165</tp1:hr>
</tp1:TrackPointExtension>
</extensions>
</trkpt>
<trkpt lat="51.9155914" lon="7.2619590">
<ele>132.3186035</ele>
<time>2011-07-31T14:43:06Z</time>
<extensions>
<tp1:TrackPointExtension>
<tp1:hr>165</tp1:hr>
</tp1:TrackPointExtension>
</extensions>
</trkpt>
<trkpt lat="51.9157693" lon="7.2615741">
<ele>133.7604980</ele>
<time>2011-07-31T14:43:14Z</time>
<extensions>
<tp1:TrackPointExtension>
<tp1:hr>165</tp1:hr>
</tp1:TrackPointExtension>
</extensions>
</trkpt>
<trkpt lat="51.9159644" lon="7.2612073">
<ele>135.2025146</ele>
<time>2011-07-31T14:43:22Z</time>
<extensions>
<tp1:TrackPointExtension>
<tp1:hr>166</tp1:hr>
</tp1:TrackPointExtension>
</extensions>
</trkpt>
<trkpt lat="51.9161820" lon="7.2607981">
<ele>136.1639404</ele>
<time>2011-07-31T14:43:31Z</time>
<extensions>
<tp1:TrackPointExtension>
<tp1:hr>166</tp1:hr>
</tp1:TrackPointExtension>
</extensions>
</trkpt>
<trkpt lat="51.9164028" lon="7.2604640">
<ele>139.0478516</ele>
<time>2011-07-31T14:43:39Z</time>
<extensions>
<tp1:TrackPointExtension>
<tp1:hr>165</tp1:hr>
</tp1:TrackPointExtension>
</extensions>
</trkpt>
<trkpt lat="51.9167222" lon="7.2600314">
<ele>142.8930664</ele>
<time>2011-07-31T14:43:50Z</time>
<extensions>
<tp1:TrackPointExtension>
<tp1:hr>166</tp1:hr>
</tp1:TrackPointExtension>
</extensions>
</trkpt>
<trkpt lat="51.9170295" lon="7.2596683">
<ele>145.2963867</ele>
<time>2011-07-31T14:44:00Z</time>
<extensions>
<tp1:TrackPointExtension>
<tp1:hr>166</tp1:hr>
</tp1:TrackPointExtension>
</extensions>
</trkpt>
<trkpt lat="51.9174320" lon="7.2592870">
<ele>148.1804199</ele>
<time>2011-07-31T14:44:12Z</time>
<extensions>
<tp1:TrackPointExtension>
<tp1:hr>167</tp1:hr>
</tp1:TrackPointExtension>
</extensions>
</trkpt>
<trkpt lat="51.9177424" lon="7.2590322">
<ele>150.5836182</ele>
<time>2011-07-31T14:44:21Z</time>
<extensions>
<tp1:TrackPointExtension>
<tp1:hr>167</tp1:hr>
</tp1:TrackPointExtension>
</extensions>
</trkpt>
<trkpt lat="51.9180012" lon="7.2588533">
<ele>151.0642090</ele>
<time>2011-07-31T14:44:28Z</time>
<extensions>
<tp1:TrackPointExtension>
<tp1:hr>167</tp1:hr>
</tp1:TrackPointExtension>
</extensions>
</trkpt>
<trkpt lat="51.9183308" lon="7.2586647">
<ele>152.0257568</ele>
<time>2011-07-31T14:44:37Z</time>
<extensions>
<tp1:TrackPointExtension>
<tp1:hr>168</tp1:hr>
</tp1:TrackPointExtension>
</extensions>
</trkpt>
<trkpt lat="51.9187236" lon="7.2584645">
<ele>153.9483643</ele>
<time>2011-07-31T14:44:48Z</time>
<extensions>
<tp1:TrackPointExtension>
<tp1:hr>168</tp1:hr>
</tp1:TrackPointExtension>
</extensions>
</trkpt>
<trkpt lat="51.9190137" lon="7.2583375">
<ele>156.8321533</ele>
<time>2011-07-31T14:44:56Z</time>
<extensions>
<tp1:TrackPointExtension>
<tp1:hr>168</tp1:hr>
</tp1:TrackPointExtension>
</extensions>
</trkpt>
<trkpt lat="51.9193440" lon="7.2582593">
<ele>155.3902588</ele>
<time>2011-07-31T14:45:04Z</time>
<extensions>
<tp1:TrackPointExtension>
<tp1:hr>167</tp1:hr>
</tp1:TrackPointExtension>
</extensions>
</trkpt>
<trkpt lat="51.9197968" lon="7.2581936">
<ele>153.4676514</ele>
<time>2011-07-31T14:45:14Z</time>
<extensions>
<tp1:TrackPointExtension>
<tp1:hr>166</tp1:hr>
</tp1:TrackPointExtension>
</extensions>
</trkpt>
<trkpt lat="51.9203034" lon="7.2582092">
<ele>153.4676514</ele>
<time>2011-07-31T14:45:25Z</time>
<extensions>
<tp1:TrackPointExtension>
<tp1:hr>164</tp1:hr>
</tp1:TrackPointExtension>
</extensions>
</trkpt>
<trkpt lat="51.9208262" lon="7.2582831">
<ele>152.9869385</ele>
<time>2011-07-31T14:45:36Z</time>
<extensions>
<tp1:TrackPointExtension>
<tp1:hr>161</tp1:hr>
</tp1:TrackPointExtension>
</extensions>
</trkpt>
<trkpt lat="51.9212250" lon="7.2583931">
<ele>150.5836182</ele>
<time>2011-07-31T14:45:44Z</time>
<extensions>
<tp1:TrackPointExtension>
<tp1:hr>157</tp1:hr>
</tp1:TrackPointExtension>
</extensions>
</trkpt>
<trkpt lat="51.9217811" lon="7.2586189">
<ele>148.6610107</ele>
<time>2011-07-31T14:45:54Z</time>
<extensions>
<tp1:TrackPointExtension>
<tp1:hr>154</tp1:hr>
</tp1:TrackPointExtension>
</extensions>
</trkpt>
<trkpt lat="51.9222065" lon="7.2588351">
<ele>148.1804199</ele>
<time>2011-07-31T14:46:01Z</time>
<extensions>
<tp1:TrackPointExtension>
<tp1:hr>149</tp1:hr>
</tp1:TrackPointExtension>
</extensions>
</trkpt>
<trkpt lat="51.9227330" lon="7.2591445">
<ele>146.7384033</ele>
<time>2011-07-31T14:46:09Z</time>
<extensions>
<tp1:TrackPointExtension>
<tp1:hr>145</tp1:hr>
</tp1:TrackPointExtension>
</extensions>
</trkpt>
<trkpt lat="51.9231702" lon="7.2594228">
<ele>146.2578125</ele>
<time>2011-07-31T14:46:15Z</time>
<extensions>
<tp1:TrackPointExtension>
<tp1:hr>137</tp1:hr>
</tp1:TrackPointExtension>
</extensions>
</trkpt>
<trkpt lat="51.9234768" lon="7.2596236">
<ele>145.2963867</ele>
<time>2011-07-31T14:46:19Z</time>
<extensions>
<tp1:TrackPointExtension>
<tp1:hr>132</tp1:hr>
</tp1:TrackPointExtension>
</extensions>
</trkpt>
<trkpt lat="51.9241232" lon="7.2600360">
<ele>143.3736572</ele>
<time>2011-07-31T14:46:27Z</time>
<extensions>
<tp1:TrackPointExtension>
<tp1:hr>127</tp1:hr>
</tp1:TrackPointExtension>
</extensions>
</trkpt>
<trkpt lat="51.9246478" lon="7.2603218">
<ele>140.9704590</ele>
<time>2011-07-31T14:46:33Z</time>
<extensions>
<tp1:TrackPointExtension>
<tp1:hr>121</tp1:hr>
</tp1:TrackPointExtension>
</extensions>
</trkpt>
<trkpt lat="51.9249208" lon="7.2604412">
<ele>139.5284424</ele>
<time>2011-07-31T14:46:36Z</time>
<extensions>
<tp1:TrackPointExtension>
<tp1:hr>116</tp1:hr>
</tp1:TrackPointExtension>
</extensions>
</trkpt>
<trkpt lat="51.9250161" lon="7.2604800">
<ele>139.5284424</ele>
<time>2011-07-31T14:46:37Z</time>
<extensions>
<tp1:TrackPointExtension>
<tp1:hr>116</tp1:hr>
</tp1:TrackPointExtension>
</extensions>
</trkpt>
<trkpt lat="51.9257207" lon="7.2606941">
<ele>138.0865479</ele>
<time>2011-07-31T14:46:44Z</time>
<extensions>
<tp1:TrackPointExtension>
<tp1:hr>118</tp1:hr>
</tp1:TrackPointExtension>
</extensions>
</trkpt>
<trkpt lat="51.9264551" lon="7.2607495">
<ele>136.1639404</ele>
<time>2011-07-31T14:46:51Z</time>
<extensions>
<tp1:TrackPointExtension>
<tp1:hr>115</tp1:hr>
</tp1:TrackPointExtension>
</extensions>
</trkpt>
<trkpt lat="51.9270847" lon="7.2606608">
<ele>135.6831055</ele>
<time>2011-07-31T14:46:57Z</time>
<extensions>
<tp1:TrackPointExtension>
<tp1:hr>111</tp1:hr>
</tp1:TrackPointExtension>
</extensions>
</trkpt>
<trkpt lat="51.9278010" lon="7.2604344">
<ele>134.2412109</ele>
<time>2011-07-31T14:47:04Z</time>
<extensions>
<tp1:TrackPointExtension>
<tp1:hr>108</tp1:hr>
</tp1:TrackPointExtension>
</extensions>
</trkpt>
<trkpt lat="51.9285834" lon="7.2600745">
<ele>131.3572998</ele>
<time>2011-07-31T14:47:12Z</time>
<extensions>
<tp1:TrackPointExtension>
<tp1:hr>108</tp1:hr>
</tp1:TrackPointExtension>
</extensions>
</trkpt>
<trkpt lat="51.9293529" lon="7.2596652">
<ele>127.0313721</ele>
<time>2011-07-31T14:47:20Z</time>
<extensions>
<tp1:TrackPointExtension>
<tp1:hr>108</tp1:hr>
</tp1:TrackPointExtension>
</extensions>
</trkpt>
<trkpt lat="51.9303961" lon="7.2591083">
<ele>119.3408203</ele>
<time>2011-07-31T14:47:31Z</time>
<extensions>
<tp1:TrackPointExtension>
<tp1:hr>111</tp1:hr>
</tp1:TrackPointExtension>
</extensions>
</trkpt>
<trkpt lat="51.9310128" lon="7.2589128">
<ele>119.3408203</ele>
<time>2011-07-31T14:47:37Z</time>
<extensions>
<tp1:TrackPointExtension>
<tp1:hr>110</tp1:hr>
</tp1:TrackPointExtension>
</extensions>
</trkpt>
<trkpt lat="51.9315276" lon="7.2588142">
<ele>121.2635498</ele>
<time>2011-07-31T14:47:42Z</time>
<extensions>
<tp1:TrackPointExtension>
<tp1:hr>109</tp1:hr>
</tp1:TrackPointExtension>
</extensions>
</trkpt>
<trkpt lat="51.9319041" lon="7.2588188">
<ele>122.7054443</ele>
<time>2011-07-31T14:47:46Z</time>
<extensions>
<tp1:TrackPointExtension>
<tp1:hr>110</tp1:hr>
</tp1:TrackPointExtension>
</extensions>
</trkpt>
<trkpt lat="51.9324709" lon="7.2589503">
<ele>126.5506592</ele>
<time>2011-07-31T14:47:52Z</time>
<extensions>
<tp1:TrackPointExtension>
<tp1:hr>108</tp1:hr>
</tp1:TrackPointExtension>
</extensions>
</trkpt>
<trkpt lat="51.9329677" lon="7.2591644">
<ele>123.1861572</ele>
<time>2011-07-31T14:47:58Z</time>
<extensions>
<tp1:TrackPointExtension>
<tp1:hr>112</tp1:hr>
</tp1:TrackPointExtension>
</extensions>
</trkpt>
<trkpt lat="51.9331863" lon="7.2593098">
<ele>117.4182129</ele>
<time>2011-07-31T14:48:01Z</time>
<extensions>
<tp1:TrackPointExtension>
<tp1:hr>117</tp1:hr>
</tp1:TrackPointExtension>
</extensions>
</trkpt>
<trkpt lat="51.9334800" lon="7.2595150">
<ele>115.9761963</ele>
<time>2011-07-31T14:48:05Z</time>
<extensions>
<tp1:TrackPointExtension>
<tp1:hr>123</tp1:hr>
</tp1:TrackPointExtension>
</extensions>
</trkpt>
<trkpt lat="51.9340183" lon="7.2598899">
<ele>118.3793945</ele>
<time>2011-07-31T14:48:12Z</time>
<extensions>
<tp1:TrackPointExtension>
<tp1:hr>126</tp1:hr>
</tp1:TrackPointExtension>
</extensions>
</trkpt>
<trkpt lat="51.9343466" lon="7.2601350">
<ele>119.3408203</ele>
<time>2011-07-31T14:48:17Z</time>
<extensions>
<tp1:TrackPointExtension>
<tp1:hr>132</tp1:hr>
</tp1:TrackPointExtension>
</extensions>
</trkpt>
<trkpt lat="51.9347120" lon="7.2604293">
<ele>112.1309814</ele>
<time>2011-07-31T14:48:24Z</time>
<extensions>
<tp1:TrackPointExtension>
<tp1:hr>134</tp1:hr>
</tp1:TrackPointExtension>
</extensions>
</trkpt>
<trkpt lat="51.9350787" lon="7.2606747">
<ele>111.6502686</ele>
<time>2011-07-31T14:48:31Z</time>
<extensions>
<tp1:TrackPointExtension>
<tp1:hr>137</tp1:hr>
</tp1:TrackPointExtension>
</extensions>
</trkpt>
<trkpt lat="51.9354282" lon="7.2608896">
<ele>113.0922852</ele>
<time>2011-07-31T14:48:38Z</time>
<extensions>
<tp1:TrackPointExtension>
<tp1:hr>139</tp1:hr>
</tp1:TrackPointExtension>
</extensions>
</trkpt>
<trkpt lat="51.9356215" lon="7.2609865">
<ele>114.5341797</ele>
<time>2011-07-31T14:48:43Z</time>
<extensions>
<tp1:TrackPointExtension>
<tp1:hr>141</tp1:hr>
</tp1:TrackPointExtension>
</extensions>
</trkpt>
<trkpt lat="51.9357825" lon="7.2610632">
<ele>113.5729980</ele>
<time>2011-07-31T14:48:47Z</time>
<extensions>
<tp1:TrackPointExtension>
<tp1:hr>147</tp1:hr>
</tp1:TrackPointExtension>
</extensions>
</trkpt>
<trkpt lat="51.9361902" lon="7.2612218">
<ele>115.0148926</ele>
<time>2011-07-31T14:48:55Z</time>
<extensions>
<tp1:TrackPointExtension>
<tp1:hr>152</tp1:hr>
</tp1:TrackPointExtension>
</extensions>
</trkpt>
<trkpt lat="51.9364358" lon="7.2613007">
<ele>115.9761963</ele>
<time>2011-07-31T14:49:00Z</time>
<extensions>
<tp1:TrackPointExtension>
<tp1:hr>153</tp1:hr>
</tp1:TrackPointExtension>
</extensions>
</trkpt>
<trkpt lat="51.9366816" lon="7.2613689">
<ele>120.3021240</ele>
<time>2011-07-31T14:49:06Z</time>
<extensions>
<tp1:TrackPointExtension>
<tp1:hr>155</tp1:hr>
</tp1:TrackPointExtension>
</extensions>
</trkpt>
<trkpt lat="51.9368575" lon="7.2613962">
<ele>125.5893555</ele>
<time>2011-07-31T14:49:11Z</time>
<extensions>
<tp1:TrackPointExtension>
<tp1:hr>156</tp1:hr>
</tp1:TrackPointExtension>
</extensions>
</trkpt>
<trkpt lat="51.9370404" lon="7.2614228">
<ele>130.3959961</ele>
<time>2011-07-31T14:49:16Z</time>
<extensions>
<tp1:TrackPointExtension>
<tp1:hr>157</tp1:hr>
</tp1:TrackPointExtension>
</extensions>
</trkpt>
<trkpt lat="51.9372906" lon="7.2614480">
<ele>134.7219238</ele>
<time>2011-07-31T14:49:22Z</time>
<extensions>
<tp1:TrackPointExtension>
<tp1:hr>160</tp1:hr>
</tp1:TrackPointExtension>
</extensions>
</trkpt>
<trkpt lat="51.9375355" lon="7.2614865">
<ele>137.1252441</ele>
<time>2011-07-31T14:49:28Z</time>
<extensions>
<tp1:TrackPointExtension>
<tp1:hr>162</tp1:hr>
</tp1:TrackPointExtension>
</extensions>
</trkpt>
<trkpt lat="51.9375804" lon="7.2614979">
<ele>137.1252441</ele>
<time>2011-07-31T14:49:29Z</time>
<extensions>
<tp1:TrackPointExtension>
<tp1:hr>163</tp1:hr>
</tp1:TrackPointExtension>
</extensions>
</trkpt>
<trkpt lat="51.9379193" lon="7.2615736">
<ele>138.0865479</ele>
<time>2011-07-31T14:49:37Z</time>
<extensions>
<tp1:TrackPointExtension>
<tp1:hr>164</tp1:hr>
</tp1:TrackPointExtension>
</extensions>
</trkpt>
<trkpt lat="51.9382736" lon="7.2615943">
<ele>140.0091553</ele>
<time>2011-07-31T14:49:46Z</time>
<extensions>
<tp1:TrackPointExtension>
<tp1:hr>165</tp1:hr>
</tp1:TrackPointExtension>
</extensions>
</trkpt>
<trkpt lat="51.9385420" lon="7.2616134">
<ele>141.9317627</ele>
<time>2011-07-31T14:49:53Z</time>
<extensions>
<tp1:TrackPointExtension>
<tp1:hr>165</tp1:hr>
</tp1:TrackPointExtension>
</extensions>
</trkpt>
<trkpt lat="51.9388764" lon="7.2616226">
<ele>140.4898682</ele>
<time>2011-07-31T14:50:01Z</time>
<extensions>
<tp1:TrackPointExtension>
<tp1:hr>163</tp1:hr>
</tp1:TrackPointExtension>
</extensions>
</trkpt>
<trkpt lat="51.9393578" lon="7.2616309">
<ele>140.4898682</ele>
<time>2011-07-31T14:50:12Z</time>
<extensions>
<tp1:TrackPointExtension>
<tp1:hr>163</tp1:hr>
</tp1:TrackPointExtension>
</extensions>
</trkpt>
<trkpt lat="51.9397707" lon="7.2616322">
<ele>138.5672607</ele>
<time>2011-07-31T14:50:21Z</time>
<extensions>
<tp1:TrackPointExtension>
<tp1:hr>163</tp1:hr>
</tp1:TrackPointExtension>
</extensions>
</trkpt>
<trkpt lat="51.9400800" lon="7.2616160">
<ele>137.1252441</ele>
<time>2011-07-31T14:50:28Z</time>
<extensions>
<tp1:TrackPointExtension>
<tp1:hr>162</tp1:hr>
</tp1:TrackPointExtension>
</extensions>
</trkpt>
<trkpt lat="51.9401716" lon="7.2616144">
<ele>138.0865479</ele>
<time>2011-07-31T14:50:30Z</time>
<extensions>
<tp1:TrackPointExtension>
<tp1:hr>162</tp1:hr>
</tp1:TrackPointExtension>
</extensions>
</trkpt>
<trkpt lat="51.9407019" lon="7.2616215">
<ele>142.4124756</ele>
<time>2011-07-31T14:50:41Z</time>
<extensions>
<tp1:TrackPointExtension>
<tp1:hr>159</tp1:hr>
</tp1:TrackPointExtension>
</extensions>
</trkpt>
<trkpt lat="51.9412475" lon="7.2616388">
<ele>142.4124756</ele>
<time>2011-07-31T14:50:51Z</time>
<extensions>
<tp1:TrackPointExtension>
<tp1:hr>155</tp1:hr>
</tp1:TrackPointExtension>
</extensions>
</trkpt>
<trkpt lat="51.9417004" lon="7.2616539">
<ele>138.5672607</ele>
<time>2011-07-31T14:50:59Z</time>
<extensions>
<tp1:TrackPointExtension>
<tp1:hr>151</tp1:hr>
</tp1:TrackPointExtension>
</extensions>
</trkpt>
<trkpt lat="51.9421079" lon="7.2617335">
<ele>136.6446533</ele>
<time>2011-07-31T14:51:06Z</time>
<extensions>
<tp1:TrackPointExtension>
<tp1:hr>148</tp1:hr>
</tp1:TrackPointExtension>
</extensions>
</trkpt>
<trkpt lat="51.9424141" lon="7.2617961">
<ele>134.7219238</ele>
<time>2011-07-31T14:51:11Z</time>
<extensions>
<tp1:TrackPointExtension>
<tp1:hr>146</tp1:hr>
</tp1:TrackPointExtension>
</extensions>
</trkpt>
<trkpt lat="51.9426975" lon="7.2618878">
<ele>134.2412109</ele>
<time>2011-07-31T14:51:15Z</time>
<extensions>
<tp1:TrackPointExtension>
<tp1:hr>141</tp1:hr>
</tp1:TrackPointExtension>
</extensions>
</trkpt>
<trkpt lat="51.9431324" lon="7.2619989">
<ele>130.3959961</ele>
<time>2011-07-31T14:51:21Z</time>
<extensions>
<tp1:TrackPointExtension>
<tp1:hr>139</tp1:hr>
</tp1:TrackPointExtension>
</extensions>
</trkpt>
<trkpt lat="51.9435500" lon="7.2621142">
<ele>125.1087646</ele>
<time>2011-07-31T14:51:26Z</time>
<extensions>
<tp1:TrackPointExtension>
<tp1:hr>134</tp1:hr>
</tp1:TrackPointExtension>
</extensions>
</trkpt>
<trkpt lat="51.9440890" lon="7.2622832">
<ele>119.8214111</ele>
<time>2011-07-31T14:51:32Z</time>
<extensions>
<tp1:TrackPointExtension>
<tp1:hr>135</tp1:hr>
</tp1:TrackPointExtension>
</extensions>
</trkpt>
<trkpt lat="51.9449814" lon="7.2625700">
<ele>115.9761963</ele>
<time>2011-07-31T14:51:41Z</time>
<extensions>
<tp1:TrackPointExtension>
<tp1:hr>133</tp1:hr>
</tp1:TrackPointExtension>
</extensions>
</trkpt>
<trkpt lat="51.9458190" lon="7.2628480">
<ele>112.6115723</ele>
<time>2011-07-31T14:51:49Z</time>
<extensions>
<tp1:TrackPointExtension>
<tp1:hr>128</tp1:hr>
</tp1:TrackPointExtension>
</extensions>
</trkpt>
<trkpt lat="51.9463394" lon="7.2630140">
<ele>109.2469482</ele>
<time>2011-07-31T14:51:54Z</time>
<extensions>
<tp1:TrackPointExtension>
<tp1:hr>123</tp1:hr>
</tp1:TrackPointExtension>
</extensions>
</trkpt>
<trkpt lat="51.9470534" lon="7.2632414">
<ele>105.8824463</ele>
<time>2011-07-31T14:52:01Z</time>
<extensions>
<tp1:TrackPointExtension>
<tp1:hr>118</tp1:hr>
</tp1:TrackPointExtension>
</extensions>
</trkpt>
<trkpt lat="51.9476693" lon="7.2634192">
<ele>103.4790039</ele>
<time>2011-07-31T14:52:08Z</time>
<extensions>
<tp1:TrackPointExtension>
<tp1:hr>121</tp1:hr>
</tp1:TrackPointExtension>
</extensions>
</trkpt>
<trkpt lat="51.9479900" lon="7.2635164">
<ele>103.4790039</ele>
<time>2011-07-31T14:52:12Z</time>
<extensions>
<tp1:TrackPointExtension>
<tp1:hr>129</tp1:hr>
</tp1:TrackPointExtension>
</extensions>
</trkpt>
<trkpt lat="51.9484039" lon="7.2636464">
<ele>104.4404297</ele>
<time>2011-07-31T14:52:18Z</time>
<extensions>
<tp1:TrackPointExtension>
<tp1:hr>131</tp1:hr>
</tp1:TrackPointExtension>
</extensions>
</trkpt>
<trkpt lat="51.9487643" lon="7.2637812">
<ele>108.7662354</ele>
<time>2011-07-31T14:52:24Z</time>
<extensions>
<tp1:TrackPointExtension>
<tp1:hr>138</tp1:hr>
</tp1:TrackPointExtension>
</extensions>
</trkpt>
<trkpt lat="51.9490693" lon="7.2638824">
<ele>110.2082520</ele>
<time>2011-07-31T14:52:30Z</time>
<extensions>
<tp1:TrackPointExtension>
<tp1:hr>142</tp1:hr>
</tp1:TrackPointExtension>
</extensions>
</trkpt>
<trkpt lat="51.9493730" lon="7.2639641">
<ele>112.6115723</ele>
<time>2011-07-31T14:52:36Z</time>
<extensions>
<tp1:TrackPointExtension>
<tp1:hr>144</tp1:hr>
</tp1:TrackPointExtension>
</extensions>
</trkpt>
<trkpt lat="51.9497244" lon="7.2640776">
<ele>115.0148926</ele>
<time>2011-07-31T14:52:43Z</time>
<extensions>
<tp1:TrackPointExtension>
<tp1:hr>149</tp1:hr>
</tp1:TrackPointExtension>
</extensions>
</trkpt>
<trkpt lat="51.9500651" lon="7.2641797">
<ele>117.4182129</ele>
<time>2011-07-31T14:52:50Z</time>
<extensions>
<tp1:TrackPointExtension>
<tp1:hr>154</tp1:hr>
</tp1:TrackPointExtension>
</extensions>
</trkpt>
<trkpt lat="51.9504921" lon="7.2643082">
<ele>120.3021240</ele>
<time>2011-07-31T14:52:59Z</time>
<extensions>
<tp1:TrackPointExtension>
<tp1:hr>159</tp1:hr>
</tp1:TrackPointExtension>
</extensions>
</trkpt>
<trkpt lat="51.9508559" lon="7.2644305">
<ele>121.2635498</ele>
<time>2011-07-31T14:53:07Z</time>
<extensions>
<tp1:TrackPointExtension>
<tp1:hr>162</tp1:hr>
</tp1:TrackPointExtension>
</extensions>
</trkpt>
<trkpt lat="51.9512049" lon="7.2645423">
<ele>120.7828369</ele>
<time>2011-07-31T14:53:15Z</time>
<extensions>
<tp1:TrackPointExtension>
<tp1:hr>162</tp1:hr>
</tp1:TrackPointExtension>
</extensions>
</trkpt>
<trkpt lat="51.9515789" lon="7.2646811">
<ele>119.8214111</ele>
<time>2011-07-31T14:53:23Z</time>
<extensions>
<tp1:TrackPointExtension>
<tp1:hr>162</tp1:hr>
</tp1:TrackPointExtension>
</extensions>
</trkpt>
<trkpt lat="51.9519776" lon="7.2648049">
<ele>120.3021240</ele>
<time>2011-07-31T14:53:31Z</time>
<extensions>
<tp1:TrackPointExtension>
<tp1:hr>161</tp1:hr>
</tp1:TrackPointExtension>
</extensions>
</trkpt>
<trkpt lat="51.9525037" lon="7.2650204">
<ele>121.2635498</ele>
<time>2011-07-31T14:53:41Z</time>
<extensions>
<tp1:TrackPointExtension>
<tp1:hr>160</tp1:hr>
</tp1:TrackPointExtension>
</extensions>
</trkpt>
<trkpt lat="51.9530616" lon="7.2653044">
<ele>127.5119629</ele>
<time>2011-07-31T14:53:50Z</time>
<extensions>
<tp1:TrackPointExtension>
<tp1:hr>157</tp1:hr>
</tp1:TrackPointExtension>
</extensions>
</trkpt>
<trkpt lat="51.9535523" lon="7.2655420">
<ele>127.9925537</ele>
<time>2011-07-31T14:53:57Z</time>
<extensions>
<tp1:TrackPointExtension>
<tp1:hr>153</tp1:hr>
</tp1:TrackPointExtension>
</extensions>
</trkpt>
<trkpt lat="51.9540340" lon="7.2657638">
<ele>125.5893555</ele>
<time>2011-07-31T14:54:03Z</time>
<extensions>
<tp1:TrackPointExtension>
<tp1:hr>148</tp1:hr>
</tp1:TrackPointExtension>
</extensions>
</trkpt>
<trkpt lat="51.9544735" lon="7.2659619">
<ele>123.1861572</ele>
<time>2011-07-31T14:54:08Z</time>
<extensions>
<tp1:TrackPointExtension>
<tp1:hr>143</tp1:hr>
</tp1:TrackPointExtension>
</extensions>
</trkpt>
<trkpt lat="51.9550314" lon="7.2662138">
<ele>119.8214111</ele>
<time>2011-07-31T14:54:14Z</time>
<extensions>
<tp1:TrackPointExtension>
<tp1:hr>138</tp1:hr>
</tp1:TrackPointExtension>
</extensions>
</trkpt>
<trkpt lat="51.9554153" lon="7.2663805">
<ele>116.9375000</ele>
<time>2011-07-31T14:54:18Z</time>
<extensions>
<tp1:TrackPointExtension>
<tp1:hr>131</tp1:hr>
</tp1:TrackPointExtension>
</extensions>
</trkpt>
<trkpt lat="51.9559140" lon="7.2665930">
<ele>112.6115723</ele>
<time>2011-07-31T14:54:23Z</time>
<extensions>
<tp1:TrackPointExtension>
<tp1:hr>126</tp1:hr>
</tp1:TrackPointExtension>
</extensions>
</trkpt>
<trkpt lat="51.9563137" lon="7.2667805">
<ele>112.1309814</ele>
<time>2011-07-31T14:54:27Z</time>
<extensions>
<tp1:TrackPointExtension>
<tp1:hr>119</tp1:hr>
</tp1:TrackPointExtension>
</extensions>
</trkpt>
<trkpt lat="51.9564113" lon="7.2668257">
<ele>112.1309814</ele>
<time>2011-07-31T14:54:28Z</time>
<extensions>
<tp1:TrackPointExtension>
<tp1:hr>119</tp1:hr>
</tp1:TrackPointExtension>
</extensions>
</trkpt>
<trkpt lat="51.9571675" lon="7.2672365">
<ele>109.7276611</ele>
<time>2011-07-31T14:54:36Z</time>
<extensions>
<tp1:TrackPointExtension>
<tp1:hr>119</tp1:hr>
</tp1:TrackPointExtension>
</extensions>
</trkpt>
<trkpt lat="51.9576872" lon="7.2677058">
<ele>109.7276611</ele>
<time>2011-07-31T14:54:42Z</time>
<extensions>
<tp1:TrackPointExtension>
<tp1:hr>124</tp1:hr>
</tp1:TrackPointExtension>
</extensions>
</trkpt>
<trkpt lat="51.9582312" lon="7.2683195">
<ele>109.2469482</ele>
<time>2011-07-31T14:54:49Z</time>
<extensions>
<tp1:TrackPointExtension>
<tp1:hr>119</tp1:hr>
</tp1:TrackPointExtension>
</extensions>
</trkpt>
<trkpt lat="51.9587651" lon="7.2689376">
<ele>108.7662354</ele>
<time>2011-07-31T14:54:56Z</time>
<extensions>
<tp1:TrackPointExtension>
<tp1:hr>125</tp1:hr>
</tp1:TrackPointExtension>
</extensions>
</trkpt>
<trkpt lat="51.9596903" lon="7.2700032">
<ele>106.8436279</ele>
<time>2011-07-31T14:55:08Z</time>
<extensions>
<tp1:TrackPointExtension>
<tp1:hr>125</tp1:hr>
</tp1:TrackPointExtension>
</extensions>
</trkpt>
<trkpt lat="51.9603088" lon="7.2707097">
<ele>105.4017334</ele>
<time>2011-07-31T14:55:16Z</time>
<extensions>
<tp1:TrackPointExtension>
<tp1:hr>130</tp1:hr>
</tp1:TrackPointExtension>
</extensions>
</trkpt>
<trkpt lat="51.9612728" lon="7.2717995">
<ele>104.4404297</ele>
<time>2011-07-31T14:55:29Z</time>
<extensions>
<tp1:TrackPointExtension>
<tp1:hr>132</tp1:hr>
</tp1:TrackPointExtension>
</extensions>
</trkpt>
<trkpt lat="51.9620462" lon="7.2726725">
<ele>103.9597168</ele>
<time>2011-07-31T14:55:40Z</time>
<extensions>
<tp1:TrackPointExtension>
<tp1:hr>134</tp1:hr>
</tp1:TrackPointExtension>
</extensions>
</trkpt>
<trkpt lat="51.9629455" lon="7.2736951">
<ele>103.9597168</ele>
<time>2011-07-31T14:55:53Z</time>
<extensions>
<tp1:TrackPointExtension>
<tp1:hr>138</tp1:hr>
</tp1:TrackPointExtension>
</extensions>
</trkpt>
<trkpt lat="51.9634292" lon="7.2742439">
<ele>103.4790039</ele>
<time>2011-07-31T14:56:00Z</time>
<extensions>
<tp1:TrackPointExtension>
<tp1:hr>143</tp1:hr>
</tp1:TrackPointExtension>
</extensions>
</trkpt>
<trkpt lat="51.9639689" lon="7.2748148">
<ele>101.5563965</ele>
<time>2011-07-31T14:56:08Z</time>
<extensions>
<tp1:TrackPointExtension>
<tp1:hr>148</tp1:hr>
</tp1:TrackPointExtension>
</extensions>
</trkpt>
<trkpt lat="51.9644088" lon="7.2752716">
<ele>100.5950928</ele>
<time>2011-07-31T14:56:15Z</time>
<extensions>
<tp1:TrackPointExtension>
<tp1:hr>149</tp1:hr>
</tp1:TrackPointExtension>
</extensions>
</trkpt>
<trkpt lat="51.9649275" lon="7.2757613">
<ele>99.1530762</ele>
<time>2011-07-31T14:56:23Z</time>
<extensions>
<tp1:TrackPointExtension>
<tp1:hr>149</tp1:hr>
</tp1:TrackPointExtension>
</extensions>
</trkpt>
<trkpt lat="51.9654359" lon="7.2762140">
<ele>97.2304688</ele>
<time>2011-07-31T14:56:31Z</time>
<extensions>
<tp1:TrackPointExtension>
<tp1:hr>147</tp1:hr>
</tp1:TrackPointExtension>
</extensions>
</trkpt>
<trkpt lat="51.9659414" lon="7.2766651">
<ele>97.2304688</ele>
<time>2011-07-31T14:56:39Z</time>
<extensions>
<tp1:TrackPointExtension>
<tp1:hr>146</tp1:hr>
</tp1:TrackPointExtension>
</extensions>
</trkpt>
<trkpt lat="51.9666374" lon="7.2772628">
<ele>95.3077393</ele>
<time>2011-07-31T14:56:50Z</time>
<extensions>
<tp1:TrackPointExtension>
<tp1:hr>147</tp1:hr>
</tp1:TrackPointExtension>
</extensions>
</trkpt>
<trkpt lat="51.9672054" lon="7.2777417">
<ele>90.5013428</ele>
<time>2011-07-31T14:56:59Z</time>
<extensions>
<tp1:TrackPointExtension>
<tp1:hr>145</tp1:hr>
</tp1:TrackPointExtension>
</extensions>
</trkpt>
<trkpt lat="51.9678151" lon="7.2783216">
<ele>90.9819336</ele>
<time>2011-07-31T14:57:09Z</time>
<extensions>
<tp1:TrackPointExtension>
<tp1:hr>143</tp1:hr>
</tp1:TrackPointExtension>
</extensions>
</trkpt>
<trkpt lat="51.9684909" lon="7.2789384">
<ele>93.3851318</ele>
<time>2011-07-31T14:57:20Z</time>
<extensions>
<tp1:TrackPointExtension>
<tp1:hr>144</tp1:hr>
</tp1:TrackPointExtension>
</extensions>
</trkpt>
<trkpt lat="51.9689006" lon="7.2793278">
<ele>95.7884521</ele>
<time>2011-07-31T14:57:27Z</time>
<extensions>
<tp1:TrackPointExtension>
<tp1:hr>145</tp1:hr>
</tp1:TrackPointExtension>
</extensions>
</trkpt>
<trkpt lat="51.9692643" lon="7.2796873">
<ele>98.1918945</ele>
<time>2011-07-31T14:57:33Z</time>
<extensions>
<tp1:TrackPointExtension>
<tp1:hr>145</tp1:hr>
</tp1:TrackPointExtension>
</extensions>
</trkpt>
<trkpt lat="51.9698498" lon="7.2802096">
<ele>97.2304688</ele>
<time>2011-07-31T14:57:42Z</time>
<extensions>
<tp1:TrackPointExtension>
<tp1:hr>145</tp1:hr>
</tp1:TrackPointExtension>
</extensions>
</trkpt>
<trkpt lat="51.9702712" lon="7.2805840">
<ele>97.2304688</ele>
<time>2011-07-31T14:57:49Z</time>
<extensions>
<tp1:TrackPointExtension>
<tp1:hr>145</tp1:hr>
</tp1:TrackPointExtension>
</extensions>
</trkpt>
<trkpt lat="51.9707983" lon="7.2810664">
<ele>97.7111816</ele>
<time>2011-07-31T14:57:58Z</time>
<extensions>
<tp1:TrackPointExtension>
<tp1:hr>146</tp1:hr>
</tp1:TrackPointExtension>
</extensions>
</trkpt>
<trkpt lat="51.9713199" lon="7.2816263">
<ele>99.1530762</ele>
<time>2011-07-31T14:58:07Z</time>
<extensions>
<tp1:TrackPointExtension>
<tp1:hr>148</tp1:hr>
</tp1:TrackPointExtension>
</extensions>
</trkpt>
<trkpt lat="51.9718827" lon="7.2823583">
<ele>99.6337891</ele>
<time>2011-07-31T14:58:17Z</time>
<extensions>
<tp1:TrackPointExtension>
<tp1:hr>151</tp1:hr>
</tp1:TrackPointExtension>
</extensions>
</trkpt>
<trkpt lat="51.9722758" lon="7.2829255">
<ele>99.1530762</ele>
<time>2011-07-31T14:58:25Z</time>
<extensions>
<tp1:TrackPointExtension>
<tp1:hr>152</tp1:hr>
</tp1:TrackPointExtension>
</extensions>
</trkpt>
<trkpt lat="51.9728263" lon="7.2837066">
<ele>100.5950928</ele>
<time>2011-07-31T14:58:37Z</time>
<extensions>
<tp1:TrackPointExtension>
<tp1:hr>153</tp1:hr>
</tp1:TrackPointExtension>
</extensions>
</trkpt>
<trkpt lat="51.9732875" lon="7.2844091">
<ele>101.0756836</ele>
<time>2011-07-31T14:58:47Z</time>
<extensions>
<tp1:TrackPointExtension>
<tp1:hr>151</tp1:hr>
</tp1:TrackPointExtension>
</extensions>
</trkpt>
<trkpt lat="51.9736744" lon="7.2849822">
<ele>102.0371094</ele>
<time>2011-07-31T14:58:55Z</time>
<extensions>
<tp1:TrackPointExtension>
<tp1:hr>147</tp1:hr>
</tp1:TrackPointExtension>
</extensions>
</trkpt>
<trkpt lat="51.9739397" lon="7.2852771">
<ele>106.3630371</ele>
<time>2011-07-31T14:59:00Z</time>
<extensions>
<tp1:TrackPointExtension>
<tp1:hr>146</tp1:hr>
</tp1:TrackPointExtension>
</extensions>
</trkpt>
<trkpt lat="51.9742282" lon="7.2854848">
<ele>102.5177002</ele>
<time>2011-07-31T14:59:05Z</time>
<extensions>
<tp1:TrackPointExtension>
<tp1:hr>145</tp1:hr>
</tp1:TrackPointExtension>
</extensions>
</trkpt>
<trkpt lat="51.9744184" lon="7.2854427">
<ele>101.5563965</ele>
<time>2011-07-31T14:59:09Z</time>
<extensions>
<tp1:TrackPointExtension>
<tp1:hr>145</tp1:hr>
</tp1:TrackPointExtension>
</extensions>
</trkpt>
<trkpt lat="51.9745119" lon="7.2855087">
<ele>102.5177002</ele>
<time>2011-07-31T14:59:10Z</time>
<extensions>
<tp1:TrackPointExtension>
<tp1:hr>144</tp1:hr>
</tp1:TrackPointExtension>
</extensions>
</trkpt>
<trkpt lat="51.9751193" lon="7.2855412">
<ele>102.9982910</ele>
<time>2011-07-31T14:59:18Z</time>
<extensions>
<tp1:TrackPointExtension>
<tp1:hr>140</tp1:hr>
</tp1:TrackPointExtension>
</extensions>
</trkpt>
<trkpt lat="51.9755581" lon="7.2853304">
<ele>104.9210205</ele>
<time>2011-07-31T14:59:24Z</time>
<extensions>
<tp1:TrackPointExtension>
<tp1:hr>137</tp1:hr>
</tp1:TrackPointExtension>
</extensions>
</trkpt>
<trkpt lat="51.9761360" lon="7.2849855">
<ele>105.4017334</ele>
<time>2011-07-31T14:59:32Z</time>
<extensions>
<tp1:TrackPointExtension>
<tp1:hr>134</tp1:hr>
</tp1:TrackPointExtension>
</extensions>
</trkpt>
<trkpt lat="51.9764353" lon="7.2848401">
<ele>103.9597168</ele>
<time>2011-07-31T14:59:36Z</time>
<extensions>
<tp1:TrackPointExtension>
<tp1:hr>133</tp1:hr>
</tp1:TrackPointExtension>
</extensions>
</trkpt>
<trkpt lat="51.9768329" lon="7.2848187">
<ele>104.9210205</ele>
<time>2011-07-31T14:59:41Z</time>
<extensions>
<tp1:TrackPointExtension>
<tp1:hr>127</tp1:hr>
</tp1:TrackPointExtension>
</extensions>
</trkpt>
<trkpt lat="51.9772372" lon="7.2849047">
<ele>104.4404297</ele>
<time>2011-07-31T14:59:46Z</time>
<extensions>
<tp1:TrackPointExtension>
<tp1:hr>125</tp1:hr>
</tp1:TrackPointExtension>
</extensions>
</trkpt>
<trkpt lat="51.9776145" lon="7.2851172">
<ele>102.9982910</ele>
<time>2011-07-31T14:59:51Z</time>
<extensions>
<tp1:TrackPointExtension>
<tp1:hr>130</tp1:hr>
</tp1:TrackPointExtension>
</extensions>
</trkpt>
<trkpt lat="51.9779268" lon="7.2854096">
<ele>101.0756836</ele>
<time>2011-07-31T14:59:56Z</time>
<extensions>
<tp1:TrackPointExtension>
<tp1:hr>128</tp1:hr>
</tp1:TrackPointExtension>
</extensions>
</trkpt>
<trkpt lat="51.9780401" lon="7.2854948">
<ele>100.1145020</ele>
<time>2011-07-31T14:59:58Z</time>
<extensions>
<tp1:TrackPointExtension>
<tp1:hr>126</tp1:hr>
</tp1:TrackPointExtension>
</extensions>
</trkpt>
<trkpt lat="51.9782427" lon="7.2857474">
<ele>103.4790039</ele>
<time>2011-07-31T15:00:04Z</time>
<extensions>
<tp1:TrackPointExtension>
<tp1:hr>123</tp1:hr>
</tp1:TrackPointExtension>
</extensions>
</trkpt>
<trkpt lat="51.9782908" lon="7.2858015">
<ele>103.9597168</ele>
<time>2011-07-31T15:00:06Z</time>
<extensions>
<tp1:TrackPointExtension>
<tp1:hr>123</tp1:hr>
</tp1:TrackPointExtension>
</extensions>
</trkpt>
<trkpt lat="51.9782944" lon="7.2858952">
<ele>100.5950928</ele>
<time>2011-07-31T15:00:12Z</time>
<extensions>
<tp1:TrackPointExtension>
<tp1:hr>120</tp1:hr>
</tp1:TrackPointExtension>
</extensions>
</trkpt>
<trkpt lat="51.9782949" lon="7.2859588">
<ele>98.6724854</ele>
<time>2011-07-31T15:00:18Z</time>
<extensions>
<tp1:TrackPointExtension>
<tp1:hr>119</tp1:hr>
</tp1:TrackPointExtension>
</extensions>
</trkpt>
<trkpt lat="51.9784099" lon="7.2861801">
<ele>99.1530762</ele>
<time>2011-07-31T15:00:23Z</time>
<extensions>
<tp1:TrackPointExtension>
<tp1:hr>122</tp1:hr>
</tp1:TrackPointExtension>
</extensions>
</trkpt>
<trkpt lat="51.9785395" lon="7.2864060">
<ele>100.1145020</ele>
<time>2011-07-31T15:00:27Z</time>
<extensions>
<tp1:TrackPointExtension>
<tp1:hr>127</tp1:hr>
</tp1:TrackPointExtension>
</extensions>
</trkpt>
<trkpt lat="51.9786337" lon="7.2865858">
<ele>101.0756836</ele>
<time>2011-07-31T15:00:30Z</time>
<extensions>
<tp1:TrackPointExtension>
<tp1:hr>133</tp1:hr>
</tp1:TrackPointExtension>
</extensions>
</trkpt>
<trkpt lat="51.9787365" lon="7.2867552">
<ele>102.9982910</ele>
<time>2011-07-31T15:00:33Z</time>
<extensions>
<tp1:TrackPointExtension>
<tp1:hr>135</tp1:hr>
</tp1:TrackPointExtension>
</extensions>
</trkpt>
<trkpt lat="51.9789002" lon="7.2870584">
<ele>104.4404297</ele>
<time>2011-07-31T15:00:38Z</time>
<extensions>
<tp1:TrackPointExtension>
<tp1:hr>140</tp1:hr>
</tp1:TrackPointExtension>
</extensions>
</trkpt>
<trkpt lat="51.9790333" lon="7.2873104">
<ele>106.8436279</ele>
<time>2011-07-31T15:00:42Z</time>
<extensions>
<tp1:TrackPointExtension>
<tp1:hr>145</tp1:hr>
</tp1:TrackPointExtension>
</extensions>
</trkpt>
<trkpt lat="51.9792410" lon="7.2877728">
<ele>107.8050537</ele>
<time>2011-07-31T15:00:49Z</time>
<extensions>
<tp1:TrackPointExtension>
<tp1:hr>150</tp1:hr>
</tp1:TrackPointExtension>
</extensions>
</trkpt>
<trkpt lat="51.9793322" lon="7.2879759">
<ele>108.7662354</ele>
<time>2011-07-31T15:00:52Z</time>
<extensions>
<tp1:TrackPointExtension>
<tp1:hr>151</tp1:hr>
</tp1:TrackPointExtension>
</extensions>
</trkpt>
<trkpt lat="51.9795642" lon="7.2885117">
<ele>108.2856445</ele>
<time>2011-07-31T15:01:00Z</time>
<extensions>
<tp1:TrackPointExtension>
<tp1:hr>154</tp1:hr>
</tp1:TrackPointExtension>
</extensions>
</trkpt>
<trkpt lat="51.9798212" lon="7.2891916">
<ele>110.6888428</ele>
<time>2011-07-31T15:01:09Z</time>
<extensions>
<tp1:TrackPointExtension>
<tp1:hr>155</tp1:hr>
</tp1:TrackPointExtension>
</extensions>
</trkpt>
<trkpt lat="51.9800526" lon="7.2898044">
<ele>113.5729980</ele>
<time>2011-07-31T15:01:16Z</time>
<extensions>
<tp1:TrackPointExtension>
<tp1:hr>157</tp1:hr>
</tp1:TrackPointExtension>
</extensions>
</trkpt>
<trkpt lat="51.9803201" lon="7.2906210">
<ele>114.5341797</ele>
<time>2011-07-31T15:01:24Z</time>
<extensions>
<tp1:TrackPointExtension>
<tp1:hr>155</tp1:hr>
</tp1:TrackPointExtension>
</extensions>
</trkpt>
<trkpt lat="51.9805923" lon="7.2912725">
<ele>112.6115723</ele>
<time>2011-07-31T15:01:32Z</time>
<extensions>
<tp1:TrackPointExtension>
<tp1:hr>151</tp1:hr>
</tp1:TrackPointExtension>
</extensions>
</trkpt>
<trkpt lat="51.9809054" lon="7.2918279">
<ele>111.6502686</ele>
<time>2011-07-31T15:01:40Z</time>
<extensions>
<tp1:TrackPointExtension>
<tp1:hr>147</tp1:hr>
</tp1:TrackPointExtension>
</extensions>
</trkpt>
<trkpt lat="51.9812390" lon="7.2923661">
<ele>112.6115723</ele>
<time>2011-07-31T15:01:49Z</time>
<extensions>
<tp1:TrackPointExtension>
<tp1:hr>144</tp1:hr>
</tp1:TrackPointExtension>
</extensions>
</trkpt>
<trkpt lat="51.9814996" lon="7.2929028">
<ele>113.0922852</ele>
<time>2011-07-31T15:01:57Z</time>
<extensions>
<tp1:TrackPointExtension>
<tp1:hr>146</tp1:hr>
</tp1:TrackPointExtension>
</extensions>
</trkpt>
<trkpt lat="51.9818265" lon="7.2934136">
<ele>109.2469482</ele>
<time>2011-07-31T15:02:06Z</time>
<extensions>
<tp1:TrackPointExtension>
<tp1:hr>149</tp1:hr>
</tp1:TrackPointExtension>
</extensions>
</trkpt>
<trkpt lat="51.9818597" lon="7.2934743">
<ele>108.7662354</ele>
<time>2011-07-31T15:02:07Z</time>
<extensions>
<tp1:TrackPointExtension>
<tp1:hr>149</tp1:hr>
</tp1:TrackPointExtension>
</extensions>
</trkpt>
<trkpt lat="51.9819155" lon="7.2936068">
<ele>108.7662354</ele>
<time>2011-07-31T15:02:09Z</time>
<extensions>
<tp1:TrackPointExtension>
<tp1:hr>149</tp1:hr>
</tp1:TrackPointExtension>
</extensions>
</trkpt>
<trkpt lat="51.9820518" lon="7.2937062">
<ele>111.1695557</ele>
<time>2011-07-31T15:02:13Z</time>
<extensions>
<tp1:TrackPointExtension>
<tp1:hr>148</tp1:hr>
</tp1:TrackPointExtension>
</extensions>
</trkpt>
<trkpt lat="51.9822292" lon="7.2935481">
<ele>110.2082520</ele>
<time>2011-07-31T15:02:17Z</time>
<extensions>
<tp1:TrackPointExtension>
<tp1:hr>148</tp1:hr>
</tp1:TrackPointExtension>
</extensions>
</trkpt>
<trkpt lat="51.9827802" lon="7.2931916">
<ele>112.1309814</ele>
<time>2011-07-31T15:02:28Z</time>
<extensions>
<tp1:TrackPointExtension>
<tp1:hr>150</tp1:hr>
</tp1:TrackPointExtension>
</extensions>
</trkpt>
<trkpt lat="51.9834004" lon="7.2928044">
<ele>114.0535889</ele>
<time>2011-07-31T15:02:40Z</time>
<extensions>
<tp1:TrackPointExtension>
<tp1:hr>149</tp1:hr>
</tp1:TrackPointExtension>
</extensions>
</trkpt>
<trkpt lat="51.9837715" lon="7.2926087">
<ele>115.4956055</ele>
<time>2011-07-31T15:02:47Z</time>
<extensions>
<tp1:TrackPointExtension>
<tp1:hr>146</tp1:hr>
</tp1:TrackPointExtension>
</extensions>
</trkpt>
<trkpt lat="51.9842972" lon="7.2922649">
<ele>115.9761963</ele>
<time>2011-07-31T15:02:57Z</time>
<extensions>
<tp1:TrackPointExtension>
<tp1:hr>144</tp1:hr>
</tp1:TrackPointExtension>
</extensions>
</trkpt>
<trkpt lat="51.9848246" lon="7.2919144">
<ele>113.5729980</ele>
<time>2011-07-31T15:03:07Z</time>
<extensions>
<tp1:TrackPointExtension>
<tp1:hr>142</tp1:hr>
</tp1:TrackPointExtension>
</extensions>
</trkpt>
<trkpt lat="51.9854736" lon="7.2915180">
<ele>114.5341797</ele>
<time>2011-07-31T15:03:19Z</time>
<extensions>
<tp1:TrackPointExtension>
<tp1:hr>140</tp1:hr>
</tp1:TrackPointExtension>
</extensions>
</trkpt>
<trkpt lat="51.9860724" lon="7.2911969">
<ele>116.4567871</ele>
<time>2011-07-31T15:03:30Z</time>
<extensions>
<tp1:TrackPointExtension>
<tp1:hr>143</tp1:hr>
</tp1:TrackPointExtension>
</extensions>
</trkpt>
<trkpt lat="51.9866691" lon="7.2910369">
<ele>117.4182129</ele>
<time>2011-07-31T15:03:41Z</time>
<extensions>
<tp1:TrackPointExtension>
<tp1:hr>144</tp1:hr>
</tp1:TrackPointExtension>
</extensions>
</trkpt>
<trkpt lat="51.9870417" lon="7.2909835">
<ele>115.9761963</ele>
<time>2011-07-31T15:03:48Z</time>
<extensions>
<tp1:TrackPointExtension>
<tp1:hr>146</tp1:hr>
</tp1:TrackPointExtension>
</extensions>
</trkpt>
<trkpt lat="51.9872016" lon="7.2909442">
<ele>115.9761963</ele>
<time>2011-07-31T15:03:51Z</time>
<extensions>
<tp1:TrackPointExtension>
<tp1:hr>148</tp1:hr>
</tp1:TrackPointExtension>
</extensions>
</trkpt>
<trkpt lat="51.9875125" lon="7.2908922">
<ele>116.9375000</ele>
<time>2011-07-31T15:03:57Z</time>
<extensions>
<tp1:TrackPointExtension>
<tp1:hr>148</tp1:hr>
</tp1:TrackPointExtension>
</extensions>
</trkpt>
<trkpt lat="51.9880596" lon="7.2908561">
<ele>120.7828369</ele>
<time>2011-07-31T15:04:07Z</time>
<extensions>
<tp1:TrackPointExtension>
<tp1:hr>151</tp1:hr>
</tp1:TrackPointExtension>
</extensions>
</trkpt>
<trkpt lat="51.9882730" lon="7.2908129">
<ele>120.3021240</ele>
<time>2011-07-31T15:04:11Z</time>
<extensions>
<tp1:TrackPointExtension>
<tp1:hr>153</tp1:hr>
</tp1:TrackPointExtension>
</extensions>
</trkpt>
<trkpt lat="51.9888812" lon="7.2907376">
<ele>123.6667480</ele>
<time>2011-07-31T15:04:22Z</time>
<extensions>
<tp1:TrackPointExtension>
<tp1:hr>154</tp1:hr>
</tp1:TrackPointExtension>
</extensions>
</trkpt>
<trkpt lat="51.9895566" lon="7.2906220">
<ele>124.6280518</ele>
<time>2011-07-31T15:04:34Z</time>
<extensions>
<tp1:TrackPointExtension>
<tp1:hr>154</tp1:hr>
</tp1:TrackPointExtension>
</extensions>
</trkpt>
<trkpt lat="51.9901927" lon="7.2905391">
<ele>120.7828369</ele>
<time>2011-07-31T15:04:45Z</time>
<extensions>
<tp1:TrackPointExtension>
<tp1:hr>150</tp1:hr>
</tp1:TrackPointExtension>
</extensions>
</trkpt>
<trkpt lat="51.9906707" lon="7.2904744">
<ele>114.0535889</ele>
<time>2011-07-31T15:04:53Z</time>
<extensions>
<tp1:TrackPointExtension>
<tp1:hr>149</tp1:hr>
</tp1:TrackPointExtension>
</extensions>
</trkpt>
<trkpt lat="51.9912499" lon="7.2903799">
<ele>110.2082520</ele>
<time>2011-07-31T15:05:03Z</time>
<extensions>
<tp1:TrackPointExtension>
<tp1:hr>152</tp1:hr>
</tp1:TrackPointExtension>
</extensions>
</trkpt>
<trkpt lat="51.9913025" lon="7.2903800">
<ele>111.1695557</ele>
<time>2011-07-31T15:05:04Z</time>
<extensions>
<tp1:TrackPointExtension>
<tp1:hr>152</tp1:hr>
</tp1:TrackPointExtension>
</extensions>
</trkpt>
<trkpt lat="51.9914636" lon="7.2903476">
<ele>115.0148926</ele>
<time>2011-07-31T15:05:07Z</time>
<extensions>
<tp1:TrackPointExtension>
<tp1:hr>152</tp1:hr>
</tp1:TrackPointExtension>
</extensions>
</trkpt>
<trkpt lat="51.9915687" lon="7.2903418">
<ele>117.4182129</ele>
<time>2011-07-31T15:05:09Z</time>
<extensions>
<tp1:TrackPointExtension>
<tp1:hr>152</tp1:hr>
</tp1:TrackPointExtension>
</extensions>
</trkpt>
<trkpt lat="51.9917171" lon="7.2903055">
<ele>121.2635498</ele>
<time>2011-07-31T15:05:12Z</time>
<extensions>
<tp1:TrackPointExtension>
<tp1:hr>152</tp1:hr>
</tp1:TrackPointExtension>
</extensions>
</trkpt>
<trkpt lat="51.9919210" lon="7.2903476">
<ele>126.0699463</ele>
<time>2011-07-31T15:05:16Z</time>
<extensions>
<tp1:TrackPointExtension>
<tp1:hr>153</tp1:hr>
</tp1:TrackPointExtension>
</extensions>
</trkpt>
<trkpt lat="51.9920950" lon="7.2904515">
<ele>130.8767090</ele>
<time>2011-07-31T15:05:20Z</time>
<extensions>
<tp1:TrackPointExtension>
<tp1:hr>154</tp1:hr>
</tp1:TrackPointExtension>
</extensions>
</trkpt>
<trkpt lat="51.9923261" lon="7.2905421">
<ele>137.1252441</ele>
<time>2011-07-31T15:05:25Z</time>
<extensions>
<tp1:TrackPointExtension>
<tp1:hr>155</tp1:hr>
</tp1:TrackPointExtension>
</extensions>
</trkpt>
<trkpt lat="51.9925010" lon="7.2906292">
<ele>140.9704590</ele>
<time>2011-07-31T15:05:29Z</time>
<extensions>
<tp1:TrackPointExtension>
<tp1:hr>154</tp1:hr>
</tp1:TrackPointExtension>
</extensions>
</trkpt>
<trkpt lat="51.9927326" lon="7.2908276">
<ele>150.5836182</ele>
<time>2011-07-31T15:05:34Z</time>
<extensions>
<tp1:TrackPointExtension>
<tp1:hr>154</tp1:hr>
</tp1:TrackPointExtension>
</extensions>
</trkpt>
<trkpt lat="51.9930268" lon="7.2909645">
<ele>160.6774902</ele>
<time>2011-07-31T15:05:40Z</time>
<extensions>
<tp1:TrackPointExtension>
<tp1:hr>154</tp1:hr>
</tp1:TrackPointExtension>
</extensions>
</trkpt>
<trkpt lat="51.9931240" lon="7.2909345">
<ele>159.7161865</ele>
<time>2011-07-31T15:05:42Z</time>
<extensions>
<tp1:TrackPointExtension>
<tp1:hr>154</tp1:hr>
</tp1:TrackPointExtension>
</extensions>
</trkpt>
<trkpt lat="51.9934701" lon="7.2905757">
<ele>165.4841309</ele>
<time>2011-07-31T15:05:49Z</time>
<extensions>
<tp1:TrackPointExtension>
<tp1:hr>155</tp1:hr>
</tp1:TrackPointExtension>
</extensions>
</trkpt>
<trkpt lat="51.9935703" lon="7.2903540">
<ele>164.0421143</ele>
<time>2011-07-31T15:05:52Z</time>
<extensions>
<tp1:TrackPointExtension>
<tp1:hr>155</tp1:hr>
</tp1:TrackPointExtension>
</extensions>
</trkpt>
<trkpt lat="51.9936552" lon="7.2900911">
<ele>159.2354736</ele>
<time>2011-07-31T15:05:55Z</time>
<extensions>
<tp1:TrackPointExtension>
<tp1:hr>156</tp1:hr>
</tp1:TrackPointExtension>
</extensions>
</trkpt>
<trkpt lat="51.9937575" lon="7.2897793">
<ele>151.0642090</ele>
<time>2011-07-31T15:06:00Z</time>
<extensions>
<tp1:TrackPointExtension>
<tp1:hr>157</tp1:hr>
</tp1:TrackPointExtension>
</extensions>
</trkpt>
<trkpt lat="51.9937909" lon="7.2895770">
<ele>146.2578125</ele>
<time>2011-07-31T15:06:03Z</time>
<extensions>
<tp1:TrackPointExtension>
<tp1:hr>159</tp1:hr>
</tp1:TrackPointExtension>
</extensions>
</trkpt>
<trkpt lat="51.9937777" lon="7.2890476">
<ele>139.5284424</ele>
<time>2011-07-31T15:06:09Z</time>
<extensions>
<tp1:TrackPointExtension>
<tp1:hr>163</tp1:hr>
</tp1:TrackPointExtension>
</extensions>
</trkpt>
<trkpt lat="51.9937716" lon="7.2889503">
<ele>138.5672607</ele>
<time>2011-07-31T15:06:10Z</time>
<extensions>
<tp1:TrackPointExtension>
<tp1:hr>163</tp1:hr>
</tp1:TrackPointExtension>
</extensions>
</trkpt>
<trkpt lat="51.9937298" lon="7.2883685">
<ele>136.6446533</ele>
<time>2011-07-31T15:06:17Z</time>
<extensions>
<tp1:TrackPointExtension>
<tp1:hr>167</tp1:hr>
</tp1:TrackPointExtension>
</extensions>
</trkpt>
<trkpt lat="51.9937105" lon="7.2878308">
<ele>137.1252441</ele>
<time>2011-07-31T15:06:24Z</time>
<extensions>
<tp1:TrackPointExtension>
<tp1:hr>168</tp1:hr>
</tp1:TrackPointExtension>
</extensions>
</trkpt>
<trkpt lat="51.9937576" lon="7.2874029">
<ele>137.6058350</ele>
<time>2011-07-31T15:06:30Z</time>
<extensions>
<tp1:TrackPointExtension>
<tp1:hr>169</tp1:hr>
</tp1:TrackPointExtension>
</extensions>
</trkpt>
<trkpt lat="51.9938732" lon="7.2870720">
<ele>140.4898682</ele>
<time>2011-07-31T15:06:36Z</time>
<extensions>
<tp1:TrackPointExtension>
<tp1:hr>169</tp1:hr>
</tp1:TrackPointExtension>
</extensions>
</trkpt>
<trkpt lat="51.9940407" lon="7.2867758">
<ele>139.5284424</ele>
<time>2011-07-31T15:06:42Z</time>
<extensions>
<tp1:TrackPointExtension>
<tp1:hr>169</tp1:hr>
</tp1:TrackPointExtension>
</extensions>
</trkpt>
<trkpt lat="51.9942467" lon="7.2864751">
<ele>140.4898682</ele>
<time>2011-07-31T15:06:49Z</time>
<extensions>
<tp1:TrackPointExtension>
<tp1:hr>169</tp1:hr>
</tp1:TrackPointExtension>
</extensions>
</trkpt>
<trkpt lat="51.9944456" lon="7.2862634">
<ele>140.0091553</ele>
<time>2011-07-31T15:06:55Z</time>
<extensions>
<tp1:TrackPointExtension>
<tp1:hr>168</tp1:hr>
</tp1:TrackPointExtension>
</extensions>
</trkpt>
<trkpt lat="51.9946444" lon="7.2860986">
<ele>141.9317627</ele>
<time>2011-07-31T15:07:01Z</time>
<extensions>
<tp1:TrackPointExtension>
<tp1:hr>167</tp1:hr>
</tp1:TrackPointExtension>
</extensions>
</trkpt>
<trkpt lat="51.9949404" lon="7.2859159">
<ele>143.8543701</ele>
<time>2011-07-31T15:07:09Z</time>
<extensions>
<tp1:TrackPointExtension>
<tp1:hr>166</tp1:hr>
</tp1:TrackPointExtension>
</extensions>
</trkpt>
<trkpt lat="51.9952119" lon="7.2857655">
<ele>148.6610107</ele>
<time>2011-07-31T15:07:16Z</time>
<extensions>
<tp1:TrackPointExtension>
<tp1:hr>166</tp1:hr>
</tp1:TrackPointExtension>
</extensions>
</trkpt>
<trkpt lat="51.9956091" lon="7.2856217">
<ele>150.5836182</ele>
<time>2011-07-31T15:07:25Z</time>
<extensions>
<tp1:TrackPointExtension>
<tp1:hr>167</tp1:hr>
</tp1:TrackPointExtension>
</extensions>
</trkpt>
<trkpt lat="51.9959769" lon="7.2855637">
<ele>153.4676514</ele>
<time>2011-07-31T15:07:33Z</time>
<extensions>
<tp1:TrackPointExtension>
<tp1:hr>167</tp1:hr>
</tp1:TrackPointExtension>
</extensions>
</trkpt>
<trkpt lat="51.9962997" lon="7.2854978">
<ele>152.5063477</ele>
<time>2011-07-31T15:07:40Z</time>
<extensions>
<tp1:TrackPointExtension>
<tp1:hr>167</tp1:hr>
</tp1:TrackPointExtension>
</extensions>
</trkpt>
<trkpt lat="51.9967473" lon="7.2854464">
<ele>152.5063477</ele>
<time>2011-07-31T15:07:49Z</time>
<extensions>
<tp1:TrackPointExtension>
<tp1:hr>166</tp1:hr>
</tp1:TrackPointExtension>
</extensions>
</trkpt>
<trkpt lat="51.9973196" lon="7.2853740">
<ele>153.9483643</ele>
<time>2011-07-31T15:07:59Z</time>
<extensions>
<tp1:TrackPointExtension>
<tp1:hr>163</tp1:hr>
</tp1:TrackPointExtension>
</extensions>
</trkpt>
<trkpt lat="51.9978068" lon="7.2852554">
<ele>153.9483643</ele>
<time>2011-07-31T15:08:07Z</time>
<extensions>
<tp1:TrackPointExtension>
<tp1:hr>160</tp1:hr>
</tp1:TrackPointExtension>
</extensions>
</trkpt>
<trkpt lat="51.9983189" lon="7.2850762">
<ele>153.4676514</ele>
<time>2011-07-31T15:08:15Z</time>
<extensions>
<tp1:TrackPointExtension>
<tp1:hr>155</tp1:hr>
</tp1:TrackPointExtension>
</extensions>
</trkpt>
<trkpt lat="51.9987830" lon="7.2849073">
<ele>152.0257568</ele>
<time>2011-07-31T15:08:22Z</time>
<extensions>
<tp1:TrackPointExtension>
<tp1:hr>150</tp1:hr>
</tp1:TrackPointExtension>
</extensions>
</trkpt>
<trkpt lat="51.9992546" lon="7.2847359">
<ele>151.5449219</ele>
<time>2011-07-31T15:08:29Z</time>
<extensions>
<tp1:TrackPointExtension>
<tp1:hr>145</tp1:hr>
</tp1:TrackPointExtension>
</extensions>
</trkpt>
<trkpt lat="51.9999842" lon="7.2844588">
<ele>151.0642090</ele>
<time>2011-07-31T15:08:40Z</time>
<extensions>
<tp1:TrackPointExtension>
<tp1:hr>142</tp1:hr>
</tp1:TrackPointExtension>
</extensions>
</trkpt>
<trkpt lat="52.0006393" lon="7.2841997">
<ele>151.5449219</ele>
<time>2011-07-31T15:08:50Z</time>
<extensions>
<tp1:TrackPointExtension>
<tp1:hr>143</tp1:hr>
</tp1:TrackPointExtension>
</extensions>
</trkpt>
<trkpt lat="52.0010839" lon="7.2839825">
<ele>153.4676514</ele>
<time>2011-07-31T15:08:57Z</time>
<extensions>
<tp1:TrackPointExtension>
<tp1:hr>145</tp1:hr>
</tp1:TrackPointExtension>
</extensions>
</trkpt>
<trkpt lat="52.0014777" lon="7.2836733">
<ele>156.8321533</ele>
<time>2011-07-31T15:09:04Z</time>
<extensions>
<tp1:TrackPointExtension>
<tp1:hr>146</tp1:hr>
</tp1:TrackPointExtension>
</extensions>
</trkpt>
<trkpt lat="52.0016318" lon="7.2835082">
<ele>158.7547607</ele>
<time>2011-07-31T15:09:07Z</time>
<extensions>
<tp1:TrackPointExtension>
<tp1:hr>146</tp1:hr>
</tp1:TrackPointExtension>
</extensions>
</trkpt>
<trkpt lat="52.0019831" lon="7.2830789">
<ele>163.0808105</ele>
<time>2011-07-31T15:09:14Z</time>
<extensions>
<tp1:TrackPointExtension>
<tp1:hr>146</tp1:hr>
</tp1:TrackPointExtension>
</extensions>
</trkpt>
<trkpt lat="52.0023313" lon="7.2826406">
<ele>165.9647217</ele>
<time>2011-07-31T15:09:21Z</time>
<extensions>
<tp1:TrackPointExtension>
<tp1:hr>147</tp1:hr>
</tp1:TrackPointExtension>
</extensions>
</trkpt>
<trkpt lat="52.0028313" lon="7.2821081">
<ele>162.6000977</ele>
<time>2011-07-31T15:09:30Z</time>
<extensions>
<tp1:TrackPointExtension>
<tp1:hr>149</tp1:hr>
</tp1:TrackPointExtension>
</extensions>
</trkpt>
<trkpt lat="52.0032703" lon="7.2816112">
<ele>159.2354736</ele>
<time>2011-07-31T15:09:38Z</time>
<extensions>
<tp1:TrackPointExtension>
<tp1:hr>150</tp1:hr>
</tp1:TrackPointExtension>
</extensions>
</trkpt>
<trkpt lat="52.0034538" lon="7.2813625">
<ele>160.1968994</ele>
<time>2011-07-31T15:09:42Z</time>
<extensions>
<tp1:TrackPointExtension>
<tp1:hr>152</tp1:hr>
</tp1:TrackPointExtension>
</extensions>
</trkpt>
<trkpt lat="52.0039750" lon="7.2808398">
<ele>159.2354736</ele>
<time>2011-07-31T15:09:51Z</time>
<extensions>
<tp1:TrackPointExtension>
<tp1:hr>154</tp1:hr>
</tp1:TrackPointExtension>
</extensions>
</trkpt>
<trkpt lat="52.0041584" lon="7.2806726">
<ele>158.7547607</ele>
<time>2011-07-31T15:09:54Z</time>
<extensions>
<tp1:TrackPointExtension>
<tp1:hr>153</tp1:hr>
</tp1:TrackPointExtension>
</extensions>
</trkpt>
<trkpt lat="52.0046459" lon="7.2802571">
<ele>155.3902588</ele>
<time>2011-07-31T15:10:02Z</time>
<extensions>
<tp1:TrackPointExtension>
<tp1:hr>151</tp1:hr>
</tp1:TrackPointExtension>
</extensions>
</trkpt>
<trkpt lat="52.0050867" lon="7.2798892">
<ele>151.0642090</ele>
<time>2011-07-31T15:10:09Z</time>
<extensions>
<tp1:TrackPointExtension>
<tp1:hr>147</tp1:hr>
</tp1:TrackPointExtension>
</extensions>
</trkpt>
<trkpt lat="52.0056607" lon="7.2794427">
<ele>149.1416016</ele>
<time>2011-07-31T15:10:17Z</time>
<extensions>
<tp1:TrackPointExtension>
<tp1:hr>144</tp1:hr>
</tp1:TrackPointExtension>
</extensions>
</trkpt>
<trkpt lat="52.0061768" lon="7.2790320">
<ele>149.1416016</ele>
<time>2011-07-31T15:10:24Z</time>
<extensions>
<tp1:TrackPointExtension>
<tp1:hr>142</tp1:hr>
</tp1:TrackPointExtension>
</extensions>
</trkpt>
<trkpt lat="52.0063102" lon="7.2789130">
<ele>150.1030273</ele>
<time>2011-07-31T15:10:26Z</time>
<extensions>
<tp1:TrackPointExtension>
<tp1:hr>142</tp1:hr>
</tp1:TrackPointExtension>
</extensions>
</trkpt>
<trkpt lat="52.0067085" lon="7.2786082">
<ele>150.5836182</ele>
<time>2011-07-31T15:10:31Z</time>
<extensions>
<tp1:TrackPointExtension>
<tp1:hr>141</tp1:hr>
</tp1:TrackPointExtension>
</extensions>
</trkpt>
<trkpt lat="52.0071763" lon="7.2782063">
<ele>149.1416016</ele>
<time>2011-07-31T15:10:37Z</time>
<extensions>
<tp1:TrackPointExtension>
<tp1:hr>139</tp1:hr>
</tp1:TrackPointExtension>
</extensions>
</trkpt>
<trkpt lat="52.0076550" lon="7.2778220">
<ele>147.6997070</ele>
<time>2011-07-31T15:10:43Z</time>
<extensions>
<tp1:TrackPointExtension>
<tp1:hr>138</tp1:hr>
</tp1:TrackPointExtension>
</extensions>
</trkpt>
<trkpt lat="52.0087111" lon="7.2769679">
<ele>142.8930664</ele>
<time>2011-07-31T15:10:56Z</time>
<extensions>
<tp1:TrackPointExtension>
<tp1:hr>136</tp1:hr>
</tp1:TrackPointExtension>
</extensions>
</trkpt>
<trkpt lat="52.0095138" lon="7.2764171">
<ele>140.9704590</ele>
<time>2011-07-31T15:11:05Z</time>
<extensions>
<tp1:TrackPointExtension>
<tp1:hr>133</tp1:hr>
</tp1:TrackPointExtension>
</extensions>
</trkpt>
<trkpt lat="52.0101139" lon="7.2762059">
<ele>140.0091553</ele>
<time>2011-07-31T15:11:11Z</time>
<extensions>
<tp1:TrackPointExtension>
<tp1:hr>129</tp1:hr>
</tp1:TrackPointExtension>
</extensions>
</trkpt>
<trkpt lat="52.0107434" lon="7.2761294">
<ele>138.5672607</ele>
<time>2011-07-31T15:11:17Z</time>
<extensions>
<tp1:TrackPointExtension>
<tp1:hr>125</tp1:hr>
</tp1:TrackPointExtension>
</extensions>
</trkpt>
<trkpt lat="52.0115727" lon="7.2761948">
<ele>135.6831055</ele>
<time>2011-07-31T15:11:25Z</time>
<extensions>
<tp1:TrackPointExtension>
<tp1:hr>121</tp1:hr>
</tp1:TrackPointExtension>
</extensions>
</trkpt>
<trkpt lat="52.0122806" lon="7.2764430">
<ele>133.7604980</ele>
<time>2011-07-31T15:11:32Z</time>
<extensions>
<tp1:TrackPointExtension>
<tp1:hr>122</tp1:hr>
</tp1:TrackPointExtension>
</extensions>
</trkpt>
<trkpt lat="52.0128726" lon="7.2767259">
<ele>129.4346924</ele>
<time>2011-07-31T15:11:38Z</time>
<extensions>
<tp1:TrackPointExtension>
<tp1:hr>126</tp1:hr>
</tp1:TrackPointExtension>
</extensions>
</trkpt>
<trkpt lat="52.0133244" lon="7.2768978">
<ele>131.3572998</ele>
<time>2011-07-31T15:11:43Z</time>
<extensions>
<tp1:TrackPointExtension>
<tp1:hr>127</tp1:hr>
</tp1:TrackPointExtension>
</extensions>
</trkpt>
<trkpt lat="52.0137161" lon="7.2770621">
<ele>137.1252441</ele>
<time>2011-07-31T15:11:47Z</time>
<extensions>
<tp1:TrackPointExtension>
<tp1:hr>128</tp1:hr>
</tp1:TrackPointExtension>
</extensions>
</trkpt>
<trkpt lat="52.0139803" lon="7.2771764">
<ele>138.5672607</ele>
<time>2011-07-31T15:11:49Z</time>
<extensions>
<tp1:TrackPointExtension>
<tp1:hr>128</tp1:hr>
</tp1:TrackPointExtension>
</extensions>
</trkpt>
<trkpt lat="52.0146906" lon="7.2771651">
<ele>135.6831055</ele>
<time>2011-07-31T15:11:54Z</time>
<extensions>
<tp1:TrackPointExtension>
<tp1:hr>124</tp1:hr>
</tp1:TrackPointExtension>
</extensions>
</trkpt>
<trkpt lat="52.0154290" lon="7.2769225">
<ele>126.5506592</ele>
<time>2011-07-31T15:12:00Z</time>
<extensions>
<tp1:TrackPointExtension>
<tp1:hr>123</tp1:hr>
</tp1:TrackPointExtension>
</extensions>
</trkpt>
<trkpt lat="52.0168149" lon="7.2764094">
<ele>114.5341797</ele>
<time>2011-07-31T15:12:12Z</time>
<extensions>
<tp1:TrackPointExtension>
<tp1:hr>121</tp1:hr>
</tp1:TrackPointExtension>
</extensions>
</trkpt>
<trkpt lat="52.0181357" lon="7.2759172">
<ele>107.3243408</ele>
<time>2011-07-31T15:12:24Z</time>
<extensions>
<tp1:TrackPointExtension>
<tp1:hr>121</tp1:hr>
</tp1:TrackPointExtension>
</extensions>
</trkpt>
<trkpt lat="52.0189530" lon="7.2756256">
<ele>104.4404297</ele>
<time>2011-07-31T15:12:32Z</time>
<extensions>
<tp1:TrackPointExtension>
<tp1:hr>116</tp1:hr>
</tp1:TrackPointExtension>
</extensions>
</trkpt>
<trkpt lat="52.0194976" lon="7.2754273">
<ele>104.4404297</ele>
<time>2011-07-31T15:12:38Z</time>
<extensions>
<tp1:TrackPointExtension>
<tp1:hr>117</tp1:hr>
</tp1:TrackPointExtension>
</extensions>
</trkpt>
<trkpt lat="52.0200012" lon="7.2752693">
<ele>102.0371094</ele>
<time>2011-07-31T15:12:44Z</time>
<extensions>
<tp1:TrackPointExtension>
<tp1:hr>118</tp1:hr>
</tp1:TrackPointExtension>
</extensions>
</trkpt>
<trkpt lat="52.0206852" lon="7.2749999">
<ele>100.5950928</ele>
<time>2011-07-31T15:12:52Z</time>
<extensions>
<tp1:TrackPointExtension>
<tp1:hr>120</tp1:hr>
</tp1:TrackPointExtension>
</extensions>
</trkpt>
<trkpt lat="52.0214526" lon="7.2746726">
<ele>100.5950928</ele>
<time>2011-07-31T15:13:01Z</time>
<extensions>
<tp1:TrackPointExtension>
<tp1:hr>121</tp1:hr>
</tp1:TrackPointExtension>
</extensions>
</trkpt>
<trkpt lat="52.0221215" lon="7.2744326">
<ele>99.6337891</ele>
<time>2011-07-31T15:13:09Z</time>
<extensions>
<tp1:TrackPointExtension>
<tp1:hr>122</tp1:hr>
</tp1:TrackPointExtension>
</extensions>
</trkpt>
<trkpt lat="52.0228030" lon="7.2741918">
<ele>99.1530762</ele>
<time>2011-07-31T15:13:17Z</time>
<extensions>
<tp1:TrackPointExtension>
<tp1:hr>124</tp1:hr>
</tp1:TrackPointExtension>
</extensions>
</trkpt>
<trkpt lat="52.0228827" lon="7.2741581">
<ele>98.6724854</ele>
<time>2011-07-31T15:13:18Z</time>
<extensions>
<tp1:TrackPointExtension>
<tp1:hr>125</tp1:hr>
</tp1:TrackPointExtension>
</extensions>
</trkpt>
<trkpt lat="52.0233785" lon="7.2739844">
<ele>100.1145020</ele>
<time>2011-07-31T15:13:24Z</time>
<extensions>
<tp1:TrackPointExtension>
<tp1:hr>124</tp1:hr>
</tp1:TrackPointExtension>
</extensions>
</trkpt>
<trkpt lat="52.0238003" lon="7.2737815">
<ele>103.4790039</ele>
<time>2011-07-31T15:13:30Z</time>
<extensions>
<tp1:TrackPointExtension>
<tp1:hr>119</tp1:hr>
</tp1:TrackPointExtension>
</extensions>
</trkpt>
<trkpt lat="52.0238665" lon="7.2737490">
<ele>102.9982910</ele>
<time>2011-07-31T15:13:31Z</time>
<extensions>
<tp1:TrackPointExtension>
<tp1:hr>119</tp1:hr>
</tp1:TrackPointExtension>
</extensions>
</trkpt>
<trkpt lat="52.0241037" lon="7.2736291">
<ele>107.8050537</ele>
<time>2011-07-31T15:13:36Z</time>
<extensions>
<tp1:TrackPointExtension>
<tp1:hr>114</tp1:hr>
</tp1:TrackPointExtension>
</extensions>
</trkpt>
<trkpt lat="52.0243168" lon="7.2736959">
<ele>108.7662354</ele>
<time>2011-07-31T15:13:41Z</time>
<extensions>
<tp1:TrackPointExtension>
<tp1:hr>115</tp1:hr>
</tp1:TrackPointExtension>
</extensions>
</trkpt>
<trkpt lat="52.0244141" lon="7.2737824">
<ele>108.7662354</ele>
<time>2011-07-31T15:13:45Z</time>
<extensions>
<tp1:TrackPointExtension>
<tp1:hr>116</tp1:hr>
</tp1:TrackPointExtension>
</extensions>
</trkpt>
<trkpt lat="52.0243983" lon="7.2739814">
<ele>106.8436279</ele>
<time>2011-07-31T15:13:47Z</time>
<extensions>
<tp1:TrackPointExtension>
<tp1:hr>118</tp1:hr>
</tp1:TrackPointExtension>
</extensions>
</trkpt>
<trkpt lat="52.0243260" lon="7.2741372">
<ele>102.5177002</ele>
<time>2011-07-31T15:13:49Z</time>
<extensions>
<tp1:TrackPointExtension>
<tp1:hr>120</tp1:hr>
</tp1:TrackPointExtension>
</extensions>
</trkpt>
<trkpt lat="52.0242132" lon="7.2742736">
<ele>100.1145020</ele>
<time>2011-07-31T15:13:51Z</time>
<extensions>
<tp1:TrackPointExtension>
<tp1:hr>122</tp1:hr>
</tp1:TrackPointExtension>
</extensions>
</trkpt>
<trkpt lat="52.0243347" lon="7.2746937">
<ele>98.6724854</ele>
<time>2011-07-31T15:13:55Z</time>
<extensions>
<tp1:TrackPointExtension>
<tp1:hr>128</tp1:hr>
</tp1:TrackPointExtension>
</extensions>
</trkpt>
<trkpt lat="52.0243763" lon="7.2747848">
<ele>97.7111816</ele>
<time>2011-07-31T15:13:56Z</time>
<extensions>
<tp1:TrackPointExtension>
<tp1:hr>129</tp1:hr>
</tp1:TrackPointExtension>
</extensions>
</trkpt>
<trkpt lat="52.0246193" lon="7.2754973">
<ele>94.3465576</ele>
<time>2011-07-31T15:14:03Z</time>
<extensions>
<tp1:TrackPointExtension>
<tp1:hr>132</tp1:hr>
</tp1:TrackPointExtension>
</extensions>
</trkpt>
<trkpt lat="52.0248734" lon="7.2761503">
<ele>93.3851318</ele>
<time>2011-07-31T15:14:10Z</time>
<extensions>
<tp1:TrackPointExtension>
<tp1:hr>134</tp1:hr>
</tp1:TrackPointExtension>
</extensions>
</trkpt>
<trkpt lat="52.0251451" lon="7.2767974">
<ele>91.9432373</ele>
<time>2011-07-31T15:14:18Z</time>
<extensions>
<tp1:TrackPointExtension>
<tp1:hr>137</tp1:hr>
</tp1:TrackPointExtension>
</extensions>
</trkpt>
<trkpt lat="52.0253890" lon="7.2775889">
<ele>91.4625244</ele>
<time>2011-07-31T15:14:26Z</time>
<extensions>
<tp1:TrackPointExtension>
<tp1:hr>141</tp1:hr>
</tp1:TrackPointExtension>
</extensions>
</trkpt>
<trkpt lat="52.0255625" lon="7.2782975">
<ele>93.8658447</ele>
<time>2011-07-31T15:14:33Z</time>
<extensions>
<tp1:TrackPointExtension>
<tp1:hr>146</tp1:hr>
</tp1:TrackPointExtension>
</extensions>
</trkpt>
<trkpt lat="52.0256983" lon="7.2789590">
<ele>97.7111816</ele>
<time>2011-07-31T15:14:39Z</time>
<extensions>
<tp1:TrackPointExtension>
<tp1:hr>151</tp1:hr>
</tp1:TrackPointExtension>
</extensions>
</trkpt>
<trkpt lat="52.0259028" lon="7.2799582">
<ele>104.4404297</ele>
<time>2011-07-31T15:14:48Z</time>
<extensions>
<tp1:TrackPointExtension>
<tp1:hr>155</tp1:hr>
</tp1:TrackPointExtension>
</extensions>
</trkpt>
<trkpt lat="52.0260882" lon="7.2807683">
<ele>105.4017334</ele>
<time>2011-07-31T15:14:56Z</time>
<extensions>
<tp1:TrackPointExtension>
<tp1:hr>154</tp1:hr>
</tp1:TrackPointExtension>
</extensions>
</trkpt>
<trkpt lat="52.0262200" lon="7.2814874">
<ele>105.4017334</ele>
<time>2011-07-31T15:15:03Z</time>
<extensions>
<tp1:TrackPointExtension>
<tp1:hr>154</tp1:hr>
</tp1:TrackPointExtension>
</extensions>
</trkpt>
<trkpt lat="52.0262960" lon="7.2821083">
<ele>98.6724854</ele>
<time>2011-07-31T15:15:09Z</time>
<extensions>
<tp1:TrackPointExtension>
<tp1:hr>153</tp1:hr>
</tp1:TrackPointExtension>
</extensions>
</trkpt>
<trkpt lat="52.0263440" lon="7.2826734">
<ele>88.5787354</ele>
<time>2011-07-31T15:15:15Z</time>
<extensions>
<tp1:TrackPointExtension>
<tp1:hr>155</tp1:hr>
</tp1:TrackPointExtension>
</extensions>
</trkpt>
<trkpt lat="52.0264287" lon="7.2832569">
<ele>88.5787354</ele>
<time>2011-07-31T15:15:21Z</time>
<extensions>
<tp1:TrackPointExtension>
<tp1:hr>154</tp1:hr>
</tp1:TrackPointExtension>
</extensions>
</trkpt>
<trkpt lat="52.0266232" lon="7.2837530">
<ele>89.5399170</ele>
<time>2011-07-31T15:15:27Z</time>
<extensions>
<tp1:TrackPointExtension>
<tp1:hr>154</tp1:hr>
</tp1:TrackPointExtension>
</extensions>
</trkpt>
<trkpt lat="52.0268962" lon="7.2844254">
<ele>87.1365967</ele>
<time>2011-07-31T15:15:35Z</time>
<extensions>
<tp1:TrackPointExtension>
<tp1:hr>152</tp1:hr>
</tp1:TrackPointExtension>
</extensions>
</trkpt>
<trkpt lat="52.0272103" lon="7.2852176">
<ele>82.8107910</ele>
<time>2011-07-31T15:15:44Z</time>
<extensions>
<tp1:TrackPointExtension>
<tp1:hr>150</tp1:hr>
</tp1:TrackPointExtension>
</extensions>
</trkpt>
<trkpt lat="52.0274518" lon="7.2857083">
<ele>84.2526855</ele>
<time>2011-07-31T15:15:50Z</time>
<extensions>
<tp1:TrackPointExtension>
<tp1:hr>146</tp1:hr>
</tp1:TrackPointExtension>
</extensions>
</trkpt>
<trkpt lat="52.0275496" lon="7.2858479">
<ele>85.2139893</ele>
<time>2011-07-31T15:15:52Z</time>
<extensions>
<tp1:TrackPointExtension>
<tp1:hr>145</tp1:hr>
</tp1:TrackPointExtension>
</extensions>
</trkpt>
<trkpt lat="52.0276566" lon="7.2862117">
<ele>90.9819336</ele>
<time>2011-07-31T15:15:56Z</time>
<extensions>
<tp1:TrackPointExtension>
<tp1:hr>144</tp1:hr>
</tp1:TrackPointExtension>
</extensions>
</trkpt>
<trkpt lat="52.0276411" lon="7.2863161">
<ele>91.9432373</ele>
<time>2011-07-31T15:15:57Z</time>
<extensions>
<tp1:TrackPointExtension>
<tp1:hr>144</tp1:hr>
</tp1:TrackPointExtension>
</extensions>
</trkpt>
<trkpt lat="52.0274808" lon="7.2872587">
<ele>99.6337891</ele>
<time>2011-07-31T15:16:07Z</time>
<extensions>
<tp1:TrackPointExtension>
<tp1:hr>145</tp1:hr>
</tp1:TrackPointExtension>
</extensions>
</trkpt>
<trkpt lat="52.0273957" lon="7.2881007">
<ele>103.9597168</ele>
<time>2011-07-31T15:16:16Z</time>
<extensions>
<tp1:TrackPointExtension>
<tp1:hr>147</tp1:hr>
</tp1:TrackPointExtension>
</extensions>
</trkpt>
<trkpt lat="52.0273657" lon="7.2888868">
<ele>102.5177002</ele>
<time>2011-07-31T15:16:24Z</time>
<extensions>
<tp1:TrackPointExtension>
<tp1:hr>147</tp1:hr>
</tp1:TrackPointExtension>
</extensions>
</trkpt>
<trkpt lat="52.0273842" lon="7.2899145">
<ele>98.1918945</ele>
<time>2011-07-31T15:16:34Z</time>
<extensions>
<tp1:TrackPointExtension>
<tp1:hr>147</tp1:hr>
</tp1:TrackPointExtension>
</extensions>
</trkpt>
<trkpt lat="52.0274505" lon="7.2909894">
<ele>98.6724854</ele>
<time>2011-07-31T15:16:44Z</time>
<extensions>
<tp1:TrackPointExtension>
<tp1:hr>147</tp1:hr>
</tp1:TrackPointExtension>
</extensions>
</trkpt>
<trkpt lat="52.0275403" lon="7.2920310">
<ele>101.5563965</ele>
<time>2011-07-31T15:16:53Z</time>
<extensions>
<tp1:TrackPointExtension>
<tp1:hr>145</tp1:hr>
</tp1:TrackPointExtension>
</extensions>
</trkpt>
<trkpt lat="52.0275962" lon="7.2927387">
<ele>102.0371094</ele>
<time>2011-07-31T15:16:59Z</time>
<extensions>
<tp1:TrackPointExtension>
<tp1:hr>140</tp1:hr>
</tp1:TrackPointExtension>
</extensions>
</trkpt>
<trkpt lat="52.0276672" lon="7.2937093">
<ele>102.9982910</ele>
<time>2011-07-31T15:17:07Z</time>
<extensions>
<tp1:TrackPointExtension>
<tp1:hr>136</tp1:hr>
</tp1:TrackPointExtension>
</extensions>
</trkpt>
<trkpt lat="52.0277397" lon="7.2946449">
<ele>104.9210205</ele>
<time>2011-07-31T15:17:15Z</time>
<extensions>
<tp1:TrackPointExtension>
<tp1:hr>133</tp1:hr>
</tp1:TrackPointExtension>
</extensions>
</trkpt>
<trkpt lat="52.0277569" lon="7.2955477">
<ele>104.9210205</ele>
<time>2011-07-31T15:17:23Z</time>
<extensions>
<tp1:TrackPointExtension>
<tp1:hr>134</tp1:hr>
</tp1:TrackPointExtension>
</extensions>
</trkpt>
<trkpt lat="52.0277343" lon="7.2963251">
<ele>99.1530762</ele>
<time>2011-07-31T15:17:30Z</time>
<extensions>
<tp1:TrackPointExtension>
<tp1:hr>134</tp1:hr>
</tp1:TrackPointExtension>
</extensions>
</trkpt>
<trkpt lat="52.0277677" lon="7.2972619">
<ele>94.8271484</ele>
<time>2011-07-31T15:17:39Z</time>
<extensions>
<tp1:TrackPointExtension>
<tp1:hr>138</tp1:hr>
</tp1:TrackPointExtension>
</extensions>
</trkpt>
<trkpt lat="52.0278615" lon="7.2980465">
<ele>92.4239502</ele>
<time>2011-07-31T15:17:47Z</time>
<extensions>
<tp1:TrackPointExtension>
<tp1:hr>142</tp1:hr>
</tp1:TrackPointExtension>
</extensions>
</trkpt>
<trkpt lat="52.0279345" lon="7.2985888">
<ele>95.7884521</ele>
<time>2011-07-31T15:17:53Z</time>
<extensions>
<tp1:TrackPointExtension>
<tp1:hr>144</tp1:hr>
</tp1:TrackPointExtension>
</extensions>
</trkpt>
<trkpt lat="52.0279966" lon="7.2990380">
<ele>98.1918945</ele>
<time>2011-07-31T15:17:58Z</time>
<extensions>
<tp1:TrackPointExtension>
<tp1:hr>146</tp1:hr>
</tp1:TrackPointExtension>
</extensions>
</trkpt>
<trkpt lat="52.0280706" lon="7.2996566">
<ele>101.0756836</ele>
<time>2011-07-31T15:18:05Z</time>
<extensions>
<tp1:TrackPointExtension>
<tp1:hr>151</tp1:hr>
</tp1:TrackPointExtension>
</extensions>
</trkpt>
<trkpt lat="52.0281633" lon="7.3003957">
<ele>101.5563965</ele>
<time>2011-07-31T15:18:13Z</time>
<extensions>
<tp1:TrackPointExtension>
<tp1:hr>153</tp1:hr>
</tp1:TrackPointExtension>
</extensions>
</trkpt>
<trkpt lat="52.0283163" lon="7.3011629">
<ele>102.9982910</ele>
<time>2011-07-31T15:18:21Z</time>
<extensions>
<tp1:TrackPointExtension>
<tp1:hr>156</tp1:hr>
</tp1:TrackPointExtension>
</extensions>
</trkpt>
<trkpt lat="52.0285586" lon="7.3017167">
<ele>105.4017334</ele>
<time>2011-07-31T15:18:27Z</time>
<extensions>
<tp1:TrackPointExtension>
<tp1:hr>156</tp1:hr>
</tp1:TrackPointExtension>
</extensions>
</trkpt>
<trkpt lat="52.0288332" lon="7.3023699">
<ele>105.4017334</ele>
<time>2011-07-31T15:18:33Z</time>
<extensions>
<tp1:TrackPointExtension>
<tp1:hr>154</tp1:hr>
</tp1:TrackPointExtension>
</extensions>
</trkpt>
<trkpt lat="52.0289639" lon="7.3029274">
<ele>105.4017334</ele>
<time>2011-07-31T15:18:37Z</time>
<extensions>
<tp1:TrackPointExtension>
<tp1:hr>151</tp1:hr>
</tp1:TrackPointExtension>
</extensions>
</trkpt>
<trkpt lat="52.0290555" lon="7.3035047">
<ele>105.4017334</ele>
<time>2011-07-31T15:18:41Z</time>
<extensions>
<tp1:TrackPointExtension>
<tp1:hr>146</tp1:hr>
</tp1:TrackPointExtension>
</extensions>
</trkpt>
<trkpt lat="52.0291627" lon="7.3041949">
<ele>105.8824463</ele>
<time>2011-07-31T15:18:46Z</time>
<extensions>
<tp1:TrackPointExtension>
<tp1:hr>141</tp1:hr>
</tp1:TrackPointExtension>
</extensions>
</trkpt>
<trkpt lat="52.0292979" lon="7.3050941">
<ele>106.3630371</ele>
<time>2011-07-31T15:18:53Z</time>
<extensions>
<tp1:TrackPointExtension>
<tp1:hr>137</tp1:hr>
</tp1:TrackPointExtension>
</extensions>
</trkpt>
<trkpt lat="52.0294755" lon="7.3062410">
<ele>106.3630371</ele>
<time>2011-07-31T15:19:03Z</time>
<extensions>
<tp1:TrackPointExtension>
<tp1:hr>135</tp1:hr>
</tp1:TrackPointExtension>
</extensions>
</trkpt>
<trkpt lat="52.0296335" lon="7.3074329">
<ele>105.4017334</ele>
<time>2011-07-31T15:19:14Z</time>
<extensions>
<tp1:TrackPointExtension>
<tp1:hr>135</tp1:hr>
</tp1:TrackPointExtension>
</extensions>
</trkpt>
<trkpt lat="52.0298403" lon="7.3087763">
<ele>102.0371094</ele>
<time>2011-07-31T15:19:27Z</time>
<extensions>
<tp1:TrackPointExtension>
<tp1:hr>137</tp1:hr>
</tp1:TrackPointExtension>
</extensions>
</trkpt>
<trkpt lat="52.0300304" lon="7.3094308">
<ele>97.2304688</ele>
<time>2011-07-31T15:19:34Z</time>
<extensions>
<tp1:TrackPointExtension>
<tp1:hr>137</tp1:hr>
</tp1:TrackPointExtension>
</extensions>
</trkpt>
<trkpt lat="52.0302655" lon="7.3097820">
<ele>96.2692871</ele>
<time>2011-07-31T15:19:39Z</time>
<extensions>
<tp1:TrackPointExtension>
<tp1:hr>137</tp1:hr>
</tp1:TrackPointExtension>
</extensions>
</trkpt>
<trkpt lat="52.0305481" lon="7.3100065">
<ele>96.2692871</ele>
<time>2011-07-31T15:19:44Z</time>
<extensions>
<tp1:TrackPointExtension>
<tp1:hr>138</tp1:hr>
</tp1:TrackPointExtension>
</extensions>
</trkpt>
<trkpt lat="52.0309897" lon="7.3101867">
<ele>97.7111816</ele>
<time>2011-07-31T15:19:51Z</time>
<extensions>
<tp1:TrackPointExtension>
<tp1:hr>139</tp1:hr>
</tp1:TrackPointExtension>
</extensions>
</trkpt>
<trkpt lat="52.0316750" lon="7.3103531">
<ele>97.7111816</ele>
<time>2011-07-31T15:20:01Z</time>
<extensions>
<tp1:TrackPointExtension>
<tp1:hr>139</tp1:hr>
</tp1:TrackPointExtension>
</extensions>
</trkpt>
<trkpt lat="52.0320590" lon="7.3105152">
<ele>95.3077393</ele>
<time>2011-07-31T15:20:07Z</time>
<extensions>
<tp1:TrackPointExtension>
<tp1:hr>139</tp1:hr>
</tp1:TrackPointExtension>
</extensions>
</trkpt>
<trkpt lat="52.0323111" lon="7.3107916">
<ele>96.7498779</ele>
<time>2011-07-31T15:20:12Z</time>
<extensions>
<tp1:TrackPointExtension>
<tp1:hr>140</tp1:hr>
</tp1:TrackPointExtension>
</extensions>
</trkpt>
<trkpt lat="52.0323477" lon="7.3108539">
<ele>97.2304688</ele>
<time>2011-07-31T15:20:13Z</time>
<extensions>
<tp1:TrackPointExtension>
<tp1:hr>140</tp1:hr>
</tp1:TrackPointExtension>
</extensions>
</trkpt>
<trkpt lat="52.0325031" lon="7.3112916">
<ele>100.1145020</ele>
<time>2011-07-31T15:20:19Z</time>
<extensions>
<tp1:TrackPointExtension>
<tp1:hr>141</tp1:hr>
</tp1:TrackPointExtension>
</extensions>
</trkpt>
<trkpt lat="52.0325624" lon="7.3115076">
<ele>98.1918945</ele>
<time>2011-07-31T15:20:22Z</time>
<extensions>
<tp1:TrackPointExtension>
<tp1:hr>144</tp1:hr>
</tp1:TrackPointExtension>
</extensions>
</trkpt>
<trkpt lat="52.0326557" lon="7.3119551">
<ele>100.1145020</ele>
<time>2011-07-31T15:20:28Z</time>
<extensions>
<tp1:TrackPointExtension>
<tp1:hr>148</tp1:hr>
</tp1:TrackPointExtension>
</extensions>
</trkpt>
<trkpt lat="52.0327450" lon="7.3123997">
<ele>103.9597168</ele>
<time>2011-07-31T15:20:34Z</time>
<extensions>
<tp1:TrackPointExtension>
<tp1:hr>152</tp1:hr>
</tp1:TrackPointExtension>
</extensions>
</trkpt>
<trkpt lat="52.0328554" lon="7.3129083">
<ele>107.8050537</ele>
<time>2011-07-31T15:20:41Z</time>
<extensions>
<tp1:TrackPointExtension>
<tp1:hr>156</tp1:hr>
</tp1:TrackPointExtension>
</extensions>
</trkpt>
<trkpt lat="52.0328714" lon="7.3129829">
<ele>108.2856445</ele>
<time>2011-07-31T15:20:42Z</time>
<extensions>
<tp1:TrackPointExtension>
<tp1:hr>156</tp1:hr>
</tp1:TrackPointExtension>
</extensions>
</trkpt>
<trkpt lat="52.0329519" lon="7.3134108">
<ele>110.2082520</ele>
<time>2011-07-31T15:20:48Z</time>
<extensions>
<tp1:TrackPointExtension>
<tp1:hr>159</tp1:hr>
</tp1:TrackPointExtension>
</extensions>
</trkpt>
<trkpt lat="52.0330014" lon="7.3136648">
<ele>109.7276611</ele>
<time>2011-07-31T15:20:52Z</time>
<extensions>
<tp1:TrackPointExtension>
<tp1:hr>161</tp1:hr>
</tp1:TrackPointExtension>
</extensions>
</trkpt>
<trkpt lat="52.0330466" lon="7.3138378">
<ele>108.7662354</ele>
<time>2011-07-31T15:20:55Z</time>
<extensions>
<tp1:TrackPointExtension>
<tp1:hr>161</tp1:hr>
</tp1:TrackPointExtension>
</extensions>
</trkpt>
<trkpt lat="52.0331214" lon="7.3142379">
<ele>108.2856445</ele>
<time>2011-07-31T15:21:02Z</time>
<extensions>
<tp1:TrackPointExtension>
<tp1:hr>162</tp1:hr>
</tp1:TrackPointExtension>
</extensions>
</trkpt>
<trkpt lat="52.0331896" lon="7.3146332">
<ele>107.3243408</ele>
<time>2011-07-31T15:21:09Z</time>
<extensions>
<tp1:TrackPointExtension>
<tp1:hr>163</tp1:hr>
</tp1:TrackPointExtension>
</extensions>
</trkpt>
<trkpt lat="52.0332575" lon="7.3149838">
<ele>105.8824463</ele>
<time>2011-07-31T15:21:15Z</time>
<extensions>
<tp1:TrackPointExtension>
<tp1:hr>163</tp1:hr>
</tp1:TrackPointExtension>
</extensions>
</trkpt>
<trkpt lat="52.0333156" lon="7.3155730">
<ele>108.2856445</ele>
<time>2011-07-31T15:21:24Z</time>
<extensions>
<tp1:TrackPointExtension>
<tp1:hr>164</tp1:hr>
</tp1:TrackPointExtension>
</extensions>
</trkpt>
<trkpt lat="52.0333602" lon="7.3160926">
<ele>107.3243408</ele>
<time>2011-07-31T15:21:32Z</time>
<extensions>
<tp1:TrackPointExtension>
<tp1:hr>164</tp1:hr>
</tp1:TrackPointExtension>
</extensions>
</trkpt>
<trkpt lat="52.0334071" lon="7.3166431">
<ele>110.6888428</ele>
<time>2011-07-31T15:21:40Z</time>
<extensions>
<tp1:TrackPointExtension>
<tp1:hr>163</tp1:hr>
</tp1:TrackPointExtension>
</extensions>
</trkpt>
<trkpt lat="52.0334785" lon="7.3173508">
<ele>114.0535889</ele>
<time>2011-07-31T15:21:50Z</time>
<extensions>
<tp1:TrackPointExtension>
<tp1:hr>161</tp1:hr>
</tp1:TrackPointExtension>
</extensions>
</trkpt>
<trkpt lat="52.0335160" lon="7.3176050">
<ele>115.9761963</ele>
<time>2011-07-31T15:21:54Z</time>
<extensions>
<tp1:TrackPointExtension>
<tp1:hr>159</tp1:hr>
</tp1:TrackPointExtension>
</extensions>
</trkpt>
<trkpt lat="52.0336149" lon="7.3178797">
<ele>116.4567871</ele>
<time>2011-07-31T15:21:59Z</time>
<extensions>
<tp1:TrackPointExtension>
<tp1:hr>156</tp1:hr>
</tp1:TrackPointExtension>
</extensions>
</trkpt>
<trkpt lat="52.0337212" lon="7.3180276">
<ele>116.4567871</ele>
<time>2011-07-31T15:22:02Z</time>
<extensions>
<tp1:TrackPointExtension>
<tp1:hr>154</tp1:hr>
</tp1:TrackPointExtension>
</extensions>
</trkpt>
<trkpt lat="52.0340707" lon="7.3182118">
<ele>117.8988037</ele>
<time>2011-07-31T15:22:09Z</time>
<extensions>
<tp1:TrackPointExtension>
<tp1:hr>151</tp1:hr>
</tp1:TrackPointExtension>
</extensions>
</trkpt>
<trkpt lat="52.0346137" lon="7.3184422">
<ele>119.8214111</ele>
<time>2011-07-31T15:22:19Z</time>
<extensions>
<tp1:TrackPointExtension>
<tp1:hr>148</tp1:hr>
</tp1:TrackPointExtension>
</extensions>
</trkpt>
<trkpt lat="52.0351988" lon="7.3187803">
<ele>122.7054443</ele>
<time>2011-07-31T15:22:30Z</time>
<extensions>
<tp1:TrackPointExtension>
<tp1:hr>147</tp1:hr>
</tp1:TrackPointExtension>
</extensions>
</trkpt>
<trkpt lat="52.0356828" lon="7.3192377">
<ele>121.2635498</ele>
<time>2011-07-31T15:22:40Z</time>
<extensions>
<tp1:TrackPointExtension>
<tp1:hr>147</tp1:hr>
</tp1:TrackPointExtension>
</extensions>
</trkpt>
<trkpt lat="52.0362321" lon="7.3197751">
<ele>121.2635498</ele>
<time>2011-07-31T15:22:51Z</time>
<extensions>
<tp1:TrackPointExtension>
<tp1:hr>148</tp1:hr>
</tp1:TrackPointExtension>
</extensions>
</trkpt>
<trkpt lat="52.0369380" lon="7.3204692">
<ele>121.2635498</ele>
<time>2011-07-31T15:23:05Z</time>
<extensions>
<tp1:TrackPointExtension>
<tp1:hr>149</tp1:hr>
</tp1:TrackPointExtension>
</extensions>
</trkpt>
<trkpt lat="52.0375639" lon="7.3210873">
<ele>121.2635498</ele>
<time>2011-07-31T15:23:17Z</time>
<extensions>
<tp1:TrackPointExtension>
<tp1:hr>149</tp1:hr>
</tp1:TrackPointExtension>
</extensions>
</trkpt>
<trkpt lat="52.0379289" lon="7.3215466">
<ele>120.7828369</ele>
<time>2011-07-31T15:23:24Z</time>
<extensions>
<tp1:TrackPointExtension>
<tp1:hr>148</tp1:hr>
</tp1:TrackPointExtension>
</extensions>
</trkpt>
<trkpt lat="52.0381994" lon="7.3221236">
<ele>119.3408203</ele>
<time>2011-07-31T15:23:30Z</time>
<extensions>
<tp1:TrackPointExtension>
<tp1:hr>143</tp1:hr>
</tp1:TrackPointExtension>
</extensions>
</trkpt>
<trkpt lat="52.0384760" lon="7.3227526">
<ele>118.3793945</ele>
<time>2011-07-31T15:23:36Z</time>
<extensions>
<tp1:TrackPointExtension>
<tp1:hr>138</tp1:hr>
</tp1:TrackPointExtension>
</extensions>
</trkpt>
<trkpt lat="52.0387146" lon="7.3232950">
<ele>117.4182129</ele>
<time>2011-07-31T15:23:41Z</time>
<extensions>
<tp1:TrackPointExtension>
<tp1:hr>132</tp1:hr>
</tp1:TrackPointExtension>
</extensions>
</trkpt>
<trkpt lat="52.0390423" lon="7.3240433">
<ele>117.4182129</ele>
<time>2011-07-31T15:23:48Z</time>
<extensions>
<tp1:TrackPointExtension>
<tp1:hr>127</tp1:hr>
</tp1:TrackPointExtension>
</extensions>
</trkpt>
<trkpt lat="52.0393552" lon="7.3246008">
<ele>116.9375000</ele>
<time>2011-07-31T15:23:54Z</time>
<extensions>
<tp1:TrackPointExtension>
<tp1:hr>128</tp1:hr>
</tp1:TrackPointExtension>
</extensions>
</trkpt>
<trkpt lat="52.0397846" lon="7.3251106">
<ele>116.9375000</ele>
<time>2011-07-31T15:24:01Z</time>
<extensions>
<tp1:TrackPointExtension>
<tp1:hr>129</tp1:hr>
</tp1:TrackPointExtension>
</extensions>
</trkpt>
<trkpt lat="52.0401984" lon="7.3256276">
<ele>115.4956055</ele>
<time>2011-07-31T15:24:08Z</time>
<extensions>
<tp1:TrackPointExtension>
<tp1:hr>131</tp1:hr>
</tp1:TrackPointExtension>
</extensions>
</trkpt>
<trkpt lat="52.0404453" lon="7.3259262">
<ele>116.4567871</ele>
<time>2011-07-31T15:24:12Z</time>
<extensions>
<tp1:TrackPointExtension>
<tp1:hr>132</tp1:hr>
</tp1:TrackPointExtension>
</extensions>
</trkpt>
<trkpt lat="52.0408542" lon="7.3263614">
<ele>120.3021240</ele>
<time>2011-07-31T15:24:18Z</time>
<extensions>
<tp1:TrackPointExtension>
<tp1:hr>132</tp1:hr>
</tp1:TrackPointExtension>
</extensions>
</trkpt>
<trkpt lat="52.0411114" lon="7.3266535">
<ele>121.2635498</ele>
<time>2011-07-31T15:24:22Z</time>
<extensions>
<tp1:TrackPointExtension>
<tp1:hr>131</tp1:hr>
</tp1:TrackPointExtension>
</extensions>
</trkpt>
<trkpt lat="52.0414556" lon="7.3270941">
<ele>119.3408203</ele>
<time>2011-07-31T15:24:27Z</time>
<extensions>
<tp1:TrackPointExtension>
<tp1:hr>131</tp1:hr>
</tp1:TrackPointExtension>
</extensions>
</trkpt>
<trkpt lat="52.0415210" lon="7.3271793">
<ele>119.3408203</ele>
<time>2011-07-31T15:24:28Z</time>
<extensions>
<tp1:TrackPointExtension>
<tp1:hr>131</tp1:hr>
</tp1:TrackPointExtension>
</extensions>
</trkpt>
<trkpt lat="52.0419706" lon="7.3276214">
<ele>123.6667480</ele>
<time>2011-07-31T15:24:34Z</time>
<extensions>
<tp1:TrackPointExtension>
<tp1:hr>129</tp1:hr>
</tp1:TrackPointExtension>
</extensions>
</trkpt>
<trkpt lat="52.0423253" lon="7.3280073">
<ele>126.5506592</ele>
<time>2011-07-31T15:24:38Z</time>
<extensions>
<tp1:TrackPointExtension>
<tp1:hr>126</tp1:hr>
</tp1:TrackPointExtension>
</extensions>
</trkpt>
<trkpt lat="52.0424895" lon="7.3282532">
<ele>125.1087646</ele>
<time>2011-07-31T15:24:41Z</time>
<extensions>
<tp1:TrackPointExtension>
<tp1:hr>127</tp1:hr>
</tp1:TrackPointExtension>
</extensions>
</trkpt>
<trkpt lat="52.0427568" lon="7.3285579">
<ele>122.7054443</ele>
<time>2011-07-31T15:24:45Z</time>
<extensions>
<tp1:TrackPointExtension>
<tp1:hr>127</tp1:hr>
</tp1:TrackPointExtension>
</extensions>
</trkpt>
<trkpt lat="52.0431904" lon="7.3290170">
<ele>122.2247314</ele>
<time>2011-07-31T15:24:51Z</time>
<extensions>
<tp1:TrackPointExtension>
<tp1:hr>120</tp1:hr>
</tp1:TrackPointExtension>
</extensions>
</trkpt>
<trkpt lat="52.0432495" lon="7.3291127">
<ele>121.2635498</ele>
<time>2011-07-31T15:24:52Z</time>
<extensions>
<tp1:TrackPointExtension>
<tp1:hr>120</tp1:hr>
</tp1:TrackPointExtension>
</extensions>
</trkpt>
<trkpt lat="52.0434295" lon="7.3296815">
<ele>111.1695557</ele>
<time>2011-07-31T15:24:57Z</time>
<extensions>
<tp1:TrackPointExtension>
<tp1:hr>118</tp1:hr>
</tp1:TrackPointExtension>
</extensions>
</trkpt>
<trkpt lat="52.0435950" lon="7.3303192">
<ele>107.8050537</ele>
<time>2011-07-31T15:25:02Z</time>
<extensions>
<tp1:TrackPointExtension>
<tp1:hr>119</tp1:hr>
</tp1:TrackPointExtension>
</extensions>
</trkpt>
<trkpt lat="52.0436774" lon="7.3305723">
<ele>107.8050537</ele>
<time>2011-07-31T15:25:04Z</time>
<extensions>
<tp1:TrackPointExtension>
<tp1:hr>121</tp1:hr>
</tp1:TrackPointExtension>
</extensions>
</trkpt>
<trkpt lat="52.0438792" lon="7.3313883">
<ele>102.5177002</ele>
<time>2011-07-31T15:25:10Z</time>
<extensions>
<tp1:TrackPointExtension>
<tp1:hr>124</tp1:hr>
</tp1:TrackPointExtension>
</extensions>
</trkpt>
<trkpt lat="52.0439611" lon="7.3316463">
<ele>102.5177002</ele>
<time>2011-07-31T15:25:12Z</time>
<extensions>
<tp1:TrackPointExtension>
<tp1:hr>124</tp1:hr>
</tp1:TrackPointExtension>
</extensions>
</trkpt>
<trkpt lat="52.0441482" lon="7.3324682">
<ele>102.5177002</ele>
<time>2011-07-31T15:25:18Z</time>
<extensions>
<tp1:TrackPointExtension>
<tp1:hr>124</tp1:hr>
</tp1:TrackPointExtension>
</extensions>
</trkpt>
<trkpt lat="52.0442912" lon="7.3331562">
<ele>103.4790039</ele>
<time>2011-07-31T15:25:23Z</time>
<extensions>
<tp1:TrackPointExtension>
<tp1:hr>123</tp1:hr>
</tp1:TrackPointExtension>
</extensions>
</trkpt>
<trkpt lat="52.0444638" lon="7.3339661">
<ele>102.0371094</ele>
<time>2011-07-31T15:25:29Z</time>
<extensions>
<tp1:TrackPointExtension>
<tp1:hr>125</tp1:hr>
</tp1:TrackPointExtension>
</extensions>
</trkpt>
<trkpt lat="52.0446822" lon="7.3345223">
<ele>98.6724854</ele>
<time>2011-07-31T15:25:34Z</time>
<extensions>
<tp1:TrackPointExtension>
<tp1:hr>127</tp1:hr>
</tp1:TrackPointExtension>
</extensions>
</trkpt>
<trkpt lat="52.0451552" lon="7.3354049">
<ele>96.7498779</ele>
<time>2011-07-31T15:25:43Z</time>
<extensions>
<tp1:TrackPointExtension>
<tp1:hr>129</tp1:hr>
</tp1:TrackPointExtension>
</extensions>
</trkpt>
<trkpt lat="52.0455963" lon="7.3361665">
<ele>99.1530762</ele>
<time>2011-07-31T15:25:51Z</time>
<extensions>
<tp1:TrackPointExtension>
<tp1:hr>130</tp1:hr>
</tp1:TrackPointExtension>
</extensions>
</trkpt>
<trkpt lat="52.0459230" lon="7.3367268">
<ele>101.0756836</ele>
<time>2011-07-31T15:25:57Z</time>
<extensions>
<tp1:TrackPointExtension>
<tp1:hr>130</tp1:hr>
</tp1:TrackPointExtension>
</extensions>
</trkpt>
<trkpt lat="52.0461691" lon="7.3372046">
<ele>101.5563965</ele>
<time>2011-07-31T15:26:02Z</time>
<extensions>
<tp1:TrackPointExtension>
<tp1:hr>131</tp1:hr>
</tp1:TrackPointExtension>
</extensions>
</trkpt>
<trkpt lat="52.0464274" lon="7.3376397">
<ele>103.9597168</ele>
<time>2011-07-31T15:26:07Z</time>
<extensions>
<tp1:TrackPointExtension>
<tp1:hr>132</tp1:hr>
</tp1:TrackPointExtension>
</extensions>
</trkpt>
<trkpt lat="52.0467692" lon="7.3382331">
<ele>104.4404297</ele>
<time>2011-07-31T15:26:13Z</time>
<extensions>
<tp1:TrackPointExtension>
<tp1:hr>133</tp1:hr>
</tp1:TrackPointExtension>
</extensions>
</trkpt>
<trkpt lat="52.0471029" lon="7.3387910">
<ele>102.5177002</ele>
<time>2011-07-31T15:26:19Z</time>
<extensions>
<tp1:TrackPointExtension>
<tp1:hr>135</tp1:hr>
</tp1:TrackPointExtension>
</extensions>
</trkpt>
<trkpt lat="52.0476598" lon="7.3397086">
<ele>99.1530762</ele>
<time>2011-07-31T15:26:29Z</time>
<extensions>
<tp1:TrackPointExtension>
<tp1:hr>139</tp1:hr>
</tp1:TrackPointExtension>
</extensions>
</trkpt>
<trkpt lat="52.0482418" lon="7.3404592">
<ele>95.7884521</ele>
<time>2011-07-31T15:26:38Z</time>
<extensions>
<tp1:TrackPointExtension>
<tp1:hr>142</tp1:hr>
</tp1:TrackPointExtension>
</extensions>
</trkpt>
<trkpt lat="52.0488714" lon="7.3412035">
<ele>94.3465576</ele>
<time>2011-07-31T15:26:47Z</time>
<extensions>
<tp1:TrackPointExtension>
<tp1:hr>141</tp1:hr>
</tp1:TrackPointExtension>
</extensions>
</trkpt>
<trkpt lat="52.0495113" lon="7.3419646">
<ele>92.9045410</ele>
<time>2011-07-31T15:26:56Z</time>
<extensions>
<tp1:TrackPointExtension>
<tp1:hr>136</tp1:hr>
</tp1:TrackPointExtension>
</extensions>
</trkpt>
<trkpt lat="52.0498720" lon="7.3423891">
<ele>91.4625244</ele>
<time>2011-07-31T15:27:01Z</time>
<extensions>
<tp1:TrackPointExtension>
<tp1:hr>131</tp1:hr>
</tp1:TrackPointExtension>
</extensions>
</trkpt>
<trkpt lat="52.0501659" lon="7.3427344">
<ele>90.0206299</ele>
<time>2011-07-31T15:27:05Z</time>
<extensions>
<tp1:TrackPointExtension>
<tp1:hr>126</tp1:hr>
</tp1:TrackPointExtension>
</extensions>
</trkpt>
<trkpt lat="52.0507382" lon="7.3434129">
<ele>89.0593262</ele>
<time>2011-07-31T15:27:13Z</time>
<extensions>
<tp1:TrackPointExtension>
<tp1:hr>122</tp1:hr>
</tp1:TrackPointExtension>
</extensions>
</trkpt>
<trkpt lat="52.0511375" lon="7.3438882">
<ele>89.0593262</ele>
<time>2011-07-31T15:27:19Z</time>
<extensions>
<tp1:TrackPointExtension>
<tp1:hr>127</tp1:hr>
</tp1:TrackPointExtension>
</extensions>
</trkpt>
<trkpt lat="52.0516496" lon="7.3445080">
<ele>89.0593262</ele>
<time>2011-07-31T15:27:27Z</time>
<extensions>
<tp1:TrackPointExtension>
<tp1:hr>132</tp1:hr>
</tp1:TrackPointExtension>
</extensions>
</trkpt>
<trkpt lat="52.0521337" lon="7.3451211">
<ele>89.0593262</ele>
<time>2011-07-31T15:27:35Z</time>
<extensions>
<tp1:TrackPointExtension>
<tp1:hr>136</tp1:hr>
</tp1:TrackPointExtension>
</extensions>
</trkpt>
<trkpt lat="52.0521933" lon="7.3451941">
<ele>89.0593262</ele>
<time>2011-07-31T15:27:36Z</time>
<extensions>
<tp1:TrackPointExtension>
<tp1:hr>136</tp1:hr>
</tp1:TrackPointExtension>
</extensions>
</trkpt>
<trkpt lat="52.0523522" lon="7.3455481">
<ele>88.5787354</ele>
<time>2011-07-31T15:27:40Z</time>
<extensions>
<tp1:TrackPointExtension>
<tp1:hr>136</tp1:hr>
</tp1:TrackPointExtension>
</extensions>
</trkpt>
<trkpt lat="52.0525401" lon="7.3465562">
<ele>94.3465576</ele>
<time>2011-07-31T15:27:48Z</time>
<extensions>
<tp1:TrackPointExtension>
<tp1:hr>134</tp1:hr>
</tp1:TrackPointExtension>
</extensions>
</trkpt>
<trkpt lat="52.0527061" lon="7.3474258">
<ele>100.5950928</ele>
<time>2011-07-31T15:27:55Z</time>
<extensions>
<tp1:TrackPointExtension>
<tp1:hr>131</tp1:hr>
</tp1:TrackPointExtension>
</extensions>
</trkpt>
<trkpt lat="52.0528290" lon="7.3480416">
<ele>104.4404297</ele>
<time>2011-07-31T15:28:00Z</time>
<extensions>
<tp1:TrackPointExtension>
<tp1:hr>128</tp1:hr>
</tp1:TrackPointExtension>
</extensions>
</trkpt>
<trkpt lat="52.0530258" lon="7.3486314">
<ele>102.0371094</ele>
<time>2011-07-31T15:28:05Z</time>
<extensions>
<tp1:TrackPointExtension>
<tp1:hr>129</tp1:hr>
</tp1:TrackPointExtension>
</extensions>
</trkpt>
<trkpt lat="52.0530833" lon="7.3487241">
<ele>101.0756836</ele>
<time>2011-07-31T15:28:06Z</time>
<extensions>
<tp1:TrackPointExtension>
<tp1:hr>129</tp1:hr>
</tp1:TrackPointExtension>
</extensions>
</trkpt>
<trkpt lat="52.0536624" lon="7.3495187">
<ele>91.9432373</ele>
<time>2011-07-31T15:28:15Z</time>
<extensions>
<tp1:TrackPointExtension>
<tp1:hr>129</tp1:hr>
</tp1:TrackPointExtension>
</extensions>
</trkpt>
<trkpt lat="52.0540454" lon="7.3500502">
<ele>86.1752930</ele>
<time>2011-07-31T15:28:21Z</time>
<extensions>
<tp1:TrackPointExtension>
<tp1:hr>124</tp1:hr>
</tp1:TrackPointExtension>
</extensions>
</trkpt>
<trkpt lat="52.0544634" lon="7.3506184">
<ele>78.4847412</ele>
<time>2011-07-31T15:28:28Z</time>
<extensions>
<tp1:TrackPointExtension>
<tp1:hr>120</tp1:hr>
</tp1:TrackPointExtension>
</extensions>
</trkpt>
<trkpt lat="52.0548149" lon="7.3510701">
<ele>74.1588135</ele>
<time>2011-07-31T15:28:33Z</time>
<extensions>
<tp1:TrackPointExtension>
<tp1:hr>118</tp1:hr>
</tp1:TrackPointExtension>
</extensions>
</trkpt>
<trkpt lat="52.0550008" lon="7.3515560">
<ele>73.6782227</ele>
<time>2011-07-31T15:28:37Z</time>
<extensions>
<tp1:TrackPointExtension>
<tp1:hr>115</tp1:hr>
</tp1:TrackPointExtension>
</extensions>
</trkpt>
<trkpt lat="52.0550320" lon="7.3518809">
<ele>71.7554932</ele>
<time>2011-07-31T15:28:39Z</time>
<extensions>
<tp1:TrackPointExtension>
<tp1:hr>114</tp1:hr>
</tp1:TrackPointExtension>
</extensions>
</trkpt>
<trkpt lat="52.0550081" lon="7.3529459">
<ele>68.8715820</ele>
<time>2011-07-31T15:28:46Z</time>
<extensions>
<tp1:TrackPointExtension>
<tp1:hr>116</tp1:hr>
</tp1:TrackPointExtension>
</extensions>
</trkpt>
<trkpt lat="52.0549932" lon="7.3534697">
<ele>67.9102783</ele>
<time>2011-07-31T15:28:50Z</time>
<extensions>
<tp1:TrackPointExtension>
<tp1:hr>121</tp1:hr>
</tp1:TrackPointExtension>
</extensions>
</trkpt>
<trkpt lat="52.0548920" lon="7.3540233">
<ele>64.5456543</ele>
<time>2011-07-31T15:28:55Z</time>
<extensions>
<tp1:TrackPointExtension>
<tp1:hr>117</tp1:hr>
</tp1:TrackPointExtension>
</extensions>
</trkpt>
<trkpt lat="52.0549285" lon="7.3548390">
<ele>67.4296875</ele>
<time>2011-07-31T15:29:01Z</time>
<extensions>
<tp1:TrackPointExtension>
<tp1:hr>121</tp1:hr>
</tp1:TrackPointExtension>
</extensions>
</trkpt>
<trkpt lat="52.0548806" lon="7.3553384">
<ele>62.6229248</ele>
<time>2011-07-31T15:29:05Z</time>
<extensions>
<tp1:TrackPointExtension>
<tp1:hr>126</tp1:hr>
</tp1:TrackPointExtension>
</extensions>
</trkpt>
<trkpt lat="52.0549172" lon="7.3561010">
<ele>65.5070801</ele>
<time>2011-07-31T15:29:12Z</time>
<extensions>
<tp1:TrackPointExtension>
<tp1:hr>125</tp1:hr>
</tp1:TrackPointExtension>
</extensions>
</trkpt>
<trkpt lat="52.0549175" lon="7.3563336">
<ele>66.4682617</ele>
<time>2011-07-31T15:29:14Z</time>
<extensions>
<tp1:TrackPointExtension>
<tp1:hr>124</tp1:hr>
</tp1:TrackPointExtension>
</extensions>
</trkpt>
<trkpt lat="52.0548829" lon="7.3567041">
<ele>67.9102783</ele>
<time>2011-07-31T15:29:18Z</time>
<extensions>
<tp1:TrackPointExtension>
<tp1:hr>123</tp1:hr>
</tp1:TrackPointExtension>
</extensions>
</trkpt>
<trkpt lat="52.0547955" lon="7.3568874">
<ele>66.4682617</ele>
<time>2011-07-31T15:29:20Z</time>
<extensions>
<tp1:TrackPointExtension>
<tp1:hr>123</tp1:hr>
</tp1:TrackPointExtension>
</extensions>
</trkpt>
<trkpt lat="52.0544203" lon="7.3571309">
<ele>66.9489746</ele>
<time>2011-07-31T15:29:26Z</time>
<extensions>
<tp1:TrackPointExtension>
<tp1:hr>128</tp1:hr>
</tp1:TrackPointExtension>
</extensions>
</trkpt>
<trkpt lat="52.0543262" lon="7.3573723">
<ele>68.3908691</ele>
<time>2011-07-31T15:29:29Z</time>
<extensions>
<tp1:TrackPointExtension>
<tp1:hr>129</tp1:hr>
</tp1:TrackPointExtension>
</extensions>
</trkpt>
<trkpt lat="52.0543219" lon="7.3578178">
<ele>73.6782227</ele>
<time>2011-07-31T15:29:33Z</time>
<extensions>
<tp1:TrackPointExtension>
<tp1:hr>131</tp1:hr>
</tp1:TrackPointExtension>
</extensions>
</trkpt>
<trkpt lat="52.0543785" lon="7.3584446">
<ele>76.0814209</ele>
<time>2011-07-31T15:29:38Z</time>
<extensions>
<tp1:TrackPointExtension>
<tp1:hr>134</tp1:hr>
</tp1:TrackPointExtension>
</extensions>
</trkpt>
<trkpt lat="52.0545106" lon="7.3588568">
<ele>79.9266357</ele>
<time>2011-07-31T15:29:42Z</time>
<extensions>
<tp1:TrackPointExtension>
<tp1:hr>135</tp1:hr>
</tp1:TrackPointExtension>
</extensions>
</trkpt>
<trkpt lat="52.0546259" lon="7.3593795">
<ele>83.2913818</ele>
<time>2011-07-31T15:29:47Z</time>
<extensions>
<tp1:TrackPointExtension>
<tp1:hr>135</tp1:hr>
</tp1:TrackPointExtension>
</extensions>
</trkpt>
<trkpt lat="52.0546939" lon="7.3597224">
<ele>90.0206299</ele>
<time>2011-07-31T15:29:50Z</time>
<extensions>
<tp1:TrackPointExtension>
<tp1:hr>135</tp1:hr>
</tp1:TrackPointExtension>
</extensions>
</trkpt>
<trkpt lat="52.0548255" lon="7.3599725">
<ele>93.3851318</ele>
<time>2011-07-31T15:29:54Z</time>
<extensions>
<tp1:TrackPointExtension>
<tp1:hr>136</tp1:hr>
</tp1:TrackPointExtension>
</extensions>
</trkpt>
<trkpt lat="52.0549109" lon="7.3605252">
<ele>89.0593262</ele>
<time>2011-07-31T15:29:59Z</time>
<extensions>
<tp1:TrackPointExtension>
<tp1:hr>138</tp1:hr>
</tp1:TrackPointExtension>
</extensions>
</trkpt>
<trkpt lat="52.0548560" lon="7.3610921">
<ele>83.2913818</ele>
<time>2011-07-31T15:30:03Z</time>
<extensions>
<tp1:TrackPointExtension>
<tp1:hr>141</tp1:hr>
</tp1:TrackPointExtension>
</extensions>
</trkpt>
<trkpt lat="52.0548041" lon="7.3611982">
<ele>81.8493652</ele>
<time>2011-07-31T15:30:04Z</time>
<extensions>
<tp1:TrackPointExtension>
<tp1:hr>140</tp1:hr>
</tp1:TrackPointExtension>
</extensions>
</trkpt>
<trkpt lat="52.0544048" lon="7.3621381">
<ele>76.5621338</ele>
<time>2011-07-31T15:30:13Z</time>
<extensions>
<tp1:TrackPointExtension>
<tp1:hr>140</tp1:hr>
</tp1:TrackPointExtension>
</extensions>
</trkpt>
<trkpt lat="52.0541799" lon="7.3628341">
<ele>76.5621338</ele>
<time>2011-07-31T15:30:20Z</time>
<extensions>
<tp1:TrackPointExtension>
<tp1:hr>138</tp1:hr>
</tp1:TrackPointExtension>
</extensions>
</trkpt>
<trkpt lat="52.0539086" lon="7.3639930">
<ele>76.0814209</ele>
<time>2011-07-31T15:30:30Z</time>
<extensions>
<tp1:TrackPointExtension>
<tp1:hr>136</tp1:hr>
</tp1:TrackPointExtension>
</extensions>
</trkpt>
<trkpt lat="52.0536724" lon="7.3650269">
<ele>76.0814209</ele>
<time>2011-07-31T15:30:39Z</time>
<extensions>
<tp1:TrackPointExtension>
<tp1:hr>136</tp1:hr>
</tp1:TrackPointExtension>
</extensions>
</trkpt>
<trkpt lat="52.0533843" lon="7.3661753">
<ele>76.0814209</ele>
<time>2011-07-31T15:30:49Z</time>
<extensions>
<tp1:TrackPointExtension>
<tp1:hr>138</tp1:hr>
</tp1:TrackPointExtension>
</extensions>
</trkpt>
<trkpt lat="52.0533133" lon="7.3665230">
<ele>75.6008301</ele>
<time>2011-07-31T15:30:52Z</time>
<extensions>
<tp1:TrackPointExtension>
<tp1:hr>136</tp1:hr>
</tp1:TrackPointExtension>
</extensions>
</trkpt>
<trkpt lat="52.0532816" lon="7.3669664">
<ele>75.1202393</ele>
<time>2011-07-31T15:30:56Z</time>
<extensions>
<tp1:TrackPointExtension>
<tp1:hr>135</tp1:hr>
</tp1:TrackPointExtension>
</extensions>
</trkpt>
<trkpt lat="52.0532831" lon="7.3673465">
<ele>73.1976318</ele>
<time>2011-07-31T15:31:00Z</time>
<extensions>
<tp1:TrackPointExtension>
<tp1:hr>132</tp1:hr>
</tp1:TrackPointExtension>
</extensions>
</trkpt>
<trkpt lat="52.0533895" lon="7.3681350">
<ele>68.3908691</ele>
<time>2011-07-31T15:31:07Z</time>
<extensions>
<tp1:TrackPointExtension>
<tp1:hr>129</tp1:hr>
</tp1:TrackPointExtension>
</extensions>
</trkpt>
<trkpt lat="52.0535365" lon="7.3688881">
<ele>70.7941895</ele>
<time>2011-07-31T15:31:14Z</time>
<extensions>
<tp1:TrackPointExtension>
<tp1:hr>129</tp1:hr>
</tp1:TrackPointExtension>
</extensions>
</trkpt>
<trkpt lat="52.0535719" lon="7.3691019">
<ele>72.2362061</ele>
<time>2011-07-31T15:31:16Z</time>
<extensions>
<tp1:TrackPointExtension>
<tp1:hr>128</tp1:hr>
</tp1:TrackPointExtension>
</extensions>
</trkpt>
<trkpt lat="52.0535517" lon="7.3696375">
<ele>72.7169189</ele>
<time>2011-07-31T15:31:21Z</time>
<extensions>
<tp1:TrackPointExtension>
<tp1:hr>126</tp1:hr>
</tp1:TrackPointExtension>
</extensions>
</trkpt>
<trkpt lat="52.0535437" lon="7.3697437">
<ele>72.2362061</ele>
<time>2011-07-31T15:31:22Z</time>
<extensions>
<tp1:TrackPointExtension>
<tp1:hr>124</tp1:hr>
</tp1:TrackPointExtension>
</extensions>
</trkpt>
<trkpt lat="52.0534589" lon="7.3700131">
<ele>72.7169189</ele>
<time>2011-07-31T15:31:25Z</time>
<extensions>
<tp1:TrackPointExtension>
<tp1:hr>121</tp1:hr>
</tp1:TrackPointExtension>
</extensions>
</trkpt>
<trkpt lat="52.0533313" lon="7.3700696">
<ele>72.7169189</ele>
<time>2011-07-31T15:31:27Z</time>
<extensions>
<tp1:TrackPointExtension>
<tp1:hr>122</tp1:hr>
</tp1:TrackPointExtension>
</extensions>
</trkpt>
<trkpt lat="52.0531946" lon="7.3701078">
<ele>72.7169189</ele>
<time>2011-07-31T15:31:29Z</time>
<extensions>
<tp1:TrackPointExtension>
<tp1:hr>123</tp1:hr>
</tp1:TrackPointExtension>
</extensions>
</trkpt>
<trkpt lat="52.0529600" lon="7.3703513">
<ele>72.7169189</ele>
<time>2011-07-31T15:31:33Z</time>
<extensions>
<tp1:TrackPointExtension>
<tp1:hr>127</tp1:hr>
</tp1:TrackPointExtension>
</extensions>
</trkpt>
<trkpt lat="52.0528508" lon="7.3705059">
<ele>73.1976318</ele>
<time>2011-07-31T15:31:35Z</time>
<extensions>
<tp1:TrackPointExtension>
<tp1:hr>132</tp1:hr>
</tp1:TrackPointExtension>
</extensions>
</trkpt>
<trkpt lat="52.0525659" lon="7.3708917">
<ele>73.1976318</ele>
<time>2011-07-31T15:31:40Z</time>
<extensions>
<tp1:TrackPointExtension>
<tp1:hr>135</tp1:hr>
</tp1:TrackPointExtension>
</extensions>
</trkpt>
<trkpt lat="52.0522207" lon="7.3711229">
<ele>72.2362061</ele>
<time>2011-07-31T15:31:45Z</time>
<extensions>
<tp1:TrackPointExtension>
<tp1:hr>136</tp1:hr>
</tp1:TrackPointExtension>
</extensions>
</trkpt>
<trkpt lat="52.0521478" lon="7.3711471">
<ele>72.2362061</ele>
<time>2011-07-31T15:31:46Z</time>
<extensions>
<tp1:TrackPointExtension>
<tp1:hr>137</tp1:hr>
</tp1:TrackPointExtension>
</extensions>
</trkpt>
<trkpt lat="52.0514299" lon="7.3712648">
<ele>70.7941895</ele>
<time>2011-07-31T15:31:56Z</time>
<extensions>
<tp1:TrackPointExtension>
<tp1:hr>138</tp1:hr>
</tp1:TrackPointExtension>
</extensions>
</trkpt>
<trkpt lat="52.0506539" lon="7.3714039">
<ele>70.7941895</ele>
<time>2011-07-31T15:32:07Z</time>
<extensions>
<tp1:TrackPointExtension>
<tp1:hr>141</tp1:hr>
</tp1:TrackPointExtension>
</extensions>
</trkpt>
<trkpt lat="52.0500431" lon="7.3716528">
<ele>71.7554932</ele>
<time>2011-07-31T15:32:16Z</time>
<extensions>
<tp1:TrackPointExtension>
<tp1:hr>144</tp1:hr>
</tp1:TrackPointExtension>
</extensions>
</trkpt>
<trkpt lat="52.0494566" lon="7.3719558">
<ele>72.7169189</ele>
<time>2011-07-31T15:32:25Z</time>
<extensions>
<tp1:TrackPointExtension>
<tp1:hr>147</tp1:hr>
</tp1:TrackPointExtension>
</extensions>
</trkpt>
<trkpt lat="52.0487878" lon="7.3723035">
<ele>73.6782227</ele>
<time>2011-07-31T15:32:36Z</time>
<extensions>
<tp1:TrackPointExtension>
<tp1:hr>148</tp1:hr>
</tp1:TrackPointExtension>
</extensions>
</trkpt>
<trkpt lat="52.0481584" lon="7.3725675">
<ele>74.6395264</ele>
<time>2011-07-31T15:32:46Z</time>
<extensions>
<tp1:TrackPointExtension>
<tp1:hr>150</tp1:hr>
</tp1:TrackPointExtension>
</extensions>
</trkpt>
<trkpt lat="52.0473194" lon="7.3727782">
<ele>76.0814209</ele>
<time>2011-07-31T15:32:59Z</time>
<extensions>
<tp1:TrackPointExtension>
<tp1:hr>153</tp1:hr>
</tp1:TrackPointExtension>
</extensions>
</trkpt>
<trkpt lat="52.0468325" lon="7.3730374">
<ele>76.0814209</ele>
<time>2011-07-31T15:33:07Z</time>
<extensions>
<tp1:TrackPointExtension>
<tp1:hr>154</tp1:hr>
</tp1:TrackPointExtension>
</extensions>
</trkpt>
<trkpt lat="52.0460636" lon="7.3735174">
<ele>75.1202393</ele>
<time>2011-07-31T15:33:19Z</time>
<extensions>
<tp1:TrackPointExtension>
<tp1:hr>150</tp1:hr>
</tp1:TrackPointExtension>
</extensions>
</trkpt>
<trkpt lat="52.0455322" lon="7.3737766">
<ele>75.1202393</ele>
<time>2011-07-31T15:33:27Z</time>
<extensions>
<tp1:TrackPointExtension>
<tp1:hr>146</tp1:hr>
</tp1:TrackPointExtension>
</extensions>
</trkpt>
<trkpt lat="52.0446823" lon="7.3742426">
<ele>75.6008301</ele>
<time>2011-07-31T15:33:40Z</time>
<extensions>
<tp1:TrackPointExtension>
<tp1:hr>145</tp1:hr>
</tp1:TrackPointExtension>
</extensions>
</trkpt>
<trkpt lat="52.0439612" lon="7.3747370">
<ele>74.6395264</ele>
<time>2011-07-31T15:33:51Z</time>
<extensions>
<tp1:TrackPointExtension>
<tp1:hr>143</tp1:hr>
</tp1:TrackPointExtension>
</extensions>
</trkpt>
<trkpt lat="52.0436025" lon="7.3748568">
<ele>74.6395264</ele>
<time>2011-07-31T15:33:56Z</time>
<extensions>
<tp1:TrackPointExtension>
<tp1:hr>141</tp1:hr>
</tp1:TrackPointExtension>
</extensions>
</trkpt>
<trkpt lat="52.0431131" lon="7.3749950">
<ele>74.6395264</ele>
<time>2011-07-31T15:34:03Z</time>
<extensions>
<tp1:TrackPointExtension>
<tp1:hr>141</tp1:hr>
</tp1:TrackPointExtension>
</extensions>
</trkpt>
<trkpt lat="52.0424508" lon="7.3753926">
<ele>74.6395264</ele>
<time>2011-07-31T15:34:13Z</time>
<extensions>
<tp1:TrackPointExtension>
<tp1:hr>142</tp1:hr>
</tp1:TrackPointExtension>
</extensions>
</trkpt>
<trkpt lat="52.0420703" lon="7.3756901">
<ele>74.6395264</ele>
<time>2011-07-31T15:34:19Z</time>
<extensions>
<tp1:TrackPointExtension>
<tp1:hr>141</tp1:hr>
</tp1:TrackPointExtension>
</extensions>
</trkpt>
<trkpt lat="52.0416887" lon="7.3762164">
<ele>74.1588135</ele>
<time>2011-07-31T15:34:26Z</time>
<extensions>
<tp1:TrackPointExtension>
<tp1:hr>139</tp1:hr>
</tp1:TrackPointExtension>
</extensions>
</trkpt>
<trkpt lat="52.0411920" lon="7.3769194">
<ele>74.1588135</ele>
<time>2011-07-31T15:34:35Z</time>
<extensions>
<tp1:TrackPointExtension>
<tp1:hr>134</tp1:hr>
</tp1:TrackPointExtension>
</extensions>
</trkpt>
<trkpt lat="52.0407784" lon="7.3773736">
<ele>74.1588135</ele>
<time>2011-07-31T15:34:42Z</time>
<extensions>
<tp1:TrackPointExtension>
<tp1:hr>135</tp1:hr>
</tp1:TrackPointExtension>
</extensions>
</trkpt>
<trkpt lat="52.0402309" lon="7.3778244">
<ele>75.6008301</ele>
<time>2011-07-31T15:34:51Z</time>
<extensions>
<tp1:TrackPointExtension>
<tp1:hr>138</tp1:hr>
</tp1:TrackPointExtension>
</extensions>
</trkpt>
<trkpt lat="52.0396413" lon="7.3783636">
<ele>76.0814209</ele>
<time>2011-07-31T15:35:01Z</time>
<extensions>
<tp1:TrackPointExtension>
<tp1:hr>142</tp1:hr>
</tp1:TrackPointExtension>
</extensions>
</trkpt>
<trkpt lat="52.0392038" lon="7.3786967">
<ele>76.0814209</ele>
<time>2011-07-31T15:35:08Z</time>
<extensions>
<tp1:TrackPointExtension>
<tp1:hr>143</tp1:hr>
</tp1:TrackPointExtension>
</extensions>
</trkpt>
<trkpt lat="52.0386013" lon="7.3792467">
<ele>76.0814209</ele>
<time>2011-07-31T15:35:18Z</time>
<extensions>
<tp1:TrackPointExtension>
<tp1:hr>143</tp1:hr>
</tp1:TrackPointExtension>
</extensions>
</trkpt>
<trkpt lat="52.0382217" lon="7.3795534">
<ele>76.0814209</ele>
<time>2011-07-31T15:35:24Z</time>
<extensions>
<tp1:TrackPointExtension>
<tp1:hr>143</tp1:hr>
</tp1:TrackPointExtension>
</extensions>
</trkpt>
<trkpt lat="52.0380168" lon="7.3795994">
<ele>76.0814209</ele>
<time>2011-07-31T15:35:27Z</time>
<extensions>
<tp1:TrackPointExtension>
<tp1:hr>143</tp1:hr>
</tp1:TrackPointExtension>
</extensions>
</trkpt>
<trkpt lat="52.0377537" lon="7.3795410">
<ele>76.0814209</ele>
<time>2011-07-31T15:35:31Z</time>
<extensions>
<tp1:TrackPointExtension>
<tp1:hr>143</tp1:hr>
</tp1:TrackPointExtension>
</extensions>
</trkpt>
<trkpt lat="52.0372702" lon="7.3792125">
<ele>76.5621338</ele>
<time>2011-07-31T15:35:39Z</time>
<extensions>
<tp1:TrackPointExtension>
<tp1:hr>142</tp1:hr>
</tp1:TrackPointExtension>
</extensions>
</trkpt>
<trkpt lat="52.0369010" lon="7.3787938">
<ele>77.5234375</ele>
<time>2011-07-31T15:35:46Z</time>
<extensions>
<tp1:TrackPointExtension>
<tp1:hr>142</tp1:hr>
</tp1:TrackPointExtension>
</extensions>
</trkpt>
<trkpt lat="52.0366934" lon="7.3784371">
<ele>78.4847412</ele>
<time>2011-07-31T15:35:51Z</time>
<extensions>
<tp1:TrackPointExtension>
<tp1:hr>143</tp1:hr>
</tp1:TrackPointExtension>
</extensions>
</trkpt>
<trkpt lat="52.0365644" lon="7.3778956">
<ele>81.3687744</ele>
<time>2011-07-31T15:35:57Z</time>
<extensions>
<tp1:TrackPointExtension>
<tp1:hr>144</tp1:hr>
</tp1:TrackPointExtension>
</extensions>
</trkpt>
<trkpt lat="52.0364858" lon="7.3770617">
<ele>84.7333984</ele>
<time>2011-07-31T15:36:07Z</time>
<extensions>
<tp1:TrackPointExtension>
<tp1:hr>145</tp1:hr>
</tp1:TrackPointExtension>
</extensions>
</trkpt>
<trkpt lat="52.0364324" lon="7.3764595">
<ele>86.1752930</ele>
<time>2011-07-31T15:36:14Z</time>
<extensions>
<tp1:TrackPointExtension>
<tp1:hr>150</tp1:hr>
</tp1:TrackPointExtension>
</extensions>
</trkpt>
<trkpt lat="52.0364048" lon="7.3756101">
<ele>87.6171875</ele>
<time>2011-07-31T15:36:24Z</time>
<extensions>
<tp1:TrackPointExtension>
<tp1:hr>154</tp1:hr>
</tp1:TrackPointExtension>
</extensions>
</trkpt>
<trkpt lat="52.0363992" lon="7.3753644">
<ele>88.0980225</ele>
<time>2011-07-31T15:36:27Z</time>
<extensions>
<tp1:TrackPointExtension>
<tp1:hr>154</tp1:hr>
</tp1:TrackPointExtension>
</extensions>
</trkpt>
<trkpt lat="52.0363101" lon="7.3749877">
<ele>88.0980225</ele>
<time>2011-07-31T15:36:32Z</time>
<extensions>
<tp1:TrackPointExtension>
<tp1:hr>155</tp1:hr>
</tp1:TrackPointExtension>
</extensions>
</trkpt>
<trkpt lat="52.0360748" lon="7.3746982">
<ele>89.5399170</ele>
<time>2011-07-31T15:36:38Z</time>
<extensions>
<tp1:TrackPointExtension>
<tp1:hr>156</tp1:hr>
</tp1:TrackPointExtension>
</extensions>
</trkpt>
<trkpt lat="52.0358513" lon="7.3747438">
<ele>86.6560059</ele>
<time>2011-07-31T15:36:42Z</time>
<extensions>
<tp1:TrackPointExtension>
<tp1:hr>156</tp1:hr>
</tp1:TrackPointExtension>
</extensions>
</trkpt>
<trkpt lat="52.0357453" lon="7.3748176">
<ele>86.1752930</ele>
<time>2011-07-31T15:36:44Z</time>
<extensions>
<tp1:TrackPointExtension>
<tp1:hr>156</tp1:hr>
</tp1:TrackPointExtension>
</extensions>
</trkpt>
<trkpt lat="52.0352125" lon="7.3751963">
<ele>85.6945801</ele>
<time>2011-07-31T15:36:54Z</time>
<extensions>
<tp1:TrackPointExtension>
<tp1:hr>156</tp1:hr>
</tp1:TrackPointExtension>
</extensions>
</trkpt>
<trkpt lat="52.0346415" lon="7.3754942">
<ele>84.2526855</ele>
<time>2011-07-31T15:37:04Z</time>
<extensions>
<tp1:TrackPointExtension>
<tp1:hr>154</tp1:hr>
</tp1:TrackPointExtension>
</extensions>
</trkpt>
<trkpt lat="52.0342229" lon="7.3756187">
<ele>84.2526855</ele>
<time>2011-07-31T15:37:11Z</time>
<extensions>
<tp1:TrackPointExtension>
<tp1:hr>151</tp1:hr>
</tp1:TrackPointExtension>
</extensions>
</trkpt>
<trkpt lat="52.0337989" lon="7.3756481">
<ele>84.2526855</ele>
<time>2011-07-31T15:37:18Z</time>
<extensions>
<tp1:TrackPointExtension>
<tp1:hr>150</tp1:hr>
</tp1:TrackPointExtension>
</extensions>
</trkpt>
<trkpt lat="52.0332594" lon="7.3756969">
<ele>82.3300781</ele>
<time>2011-07-31T15:37:26Z</time>
<extensions>
<tp1:TrackPointExtension>
<tp1:hr>146</tp1:hr>
</tp1:TrackPointExtension>
</extensions>
</trkpt>
<trkpt lat="52.0326457" lon="7.3756710">
<ele>80.8881836</ele>
<time>2011-07-31T15:37:35Z</time>
<extensions>
<tp1:TrackPointExtension>
<tp1:hr>142</tp1:hr>
</tp1:TrackPointExtension>
</extensions>
</trkpt>
<trkpt lat="52.0321784" lon="7.3756715">
<ele>81.3687744</ele>
<time>2011-07-31T15:37:42Z</time>
<extensions>
<tp1:TrackPointExtension>
<tp1:hr>141</tp1:hr>
</tp1:TrackPointExtension>
</extensions>
</trkpt>
<trkpt lat="52.0316714" lon="7.3756351">
<ele>82.3300781</ele>
<time>2011-07-31T15:37:50Z</time>
<extensions>
<tp1:TrackPointExtension>
<tp1:hr>141</tp1:hr>
</tp1:TrackPointExtension>
</extensions>
</trkpt>
<trkpt lat="52.0309571" lon="7.3756070">
<ele>83.7719727</ele>
<time>2011-07-31T15:38:02Z</time>
<extensions>
<tp1:TrackPointExtension>
<tp1:hr>145</tp1:hr>
</tp1:TrackPointExtension>
</extensions>
</trkpt>
<trkpt lat="52.0303101" lon="7.3755537">
<ele>85.6945801</ele>
<time>2011-07-31T15:38:13Z</time>
<extensions>
<tp1:TrackPointExtension>
<tp1:hr>148</tp1:hr>
</tp1:TrackPointExtension>
</extensions>
</trkpt>
<trkpt lat="52.0297737" lon="7.3754345">
<ele>86.6560059</ele>
<time>2011-07-31T15:38:22Z</time>
<extensions>
<tp1:TrackPointExtension>
<tp1:hr>152</tp1:hr>
</tp1:TrackPointExtension>
</extensions>
</trkpt>
<trkpt lat="52.0292202" lon="7.3752550">
<ele>86.6560059</ele>
<time>2011-07-31T15:38:31Z</time>
<extensions>
<tp1:TrackPointExtension>
<tp1:hr>153</tp1:hr>
</tp1:TrackPointExtension>
</extensions>
</trkpt>
<trkpt lat="52.0290295" lon="7.3752237">
<ele>86.6560059</ele>
<time>2011-07-31T15:38:34Z</time>
<extensions>
<tp1:TrackPointExtension>
<tp1:hr>153</tp1:hr>
</tp1:TrackPointExtension>
</extensions>
</trkpt>
<trkpt lat="52.0287211" lon="7.3753630">
<ele>86.1752930</ele>
<time>2011-07-31T15:38:39Z</time>
<extensions>
<tp1:TrackPointExtension>
<tp1:hr>153</tp1:hr>
</tp1:TrackPointExtension>
</extensions>
</trkpt>
<trkpt lat="52.0283266" lon="7.3757352">
<ele>86.6560059</ele>
<time>2011-07-31T15:38:46Z</time>
<extensions>
<tp1:TrackPointExtension>
<tp1:hr>153</tp1:hr>
</tp1:TrackPointExtension>
</extensions>
</trkpt>
<trkpt lat="52.0279408" lon="7.3760329">
<ele>88.0980225</ele>
<time>2011-07-31T15:38:53Z</time>
<extensions>
<tp1:TrackPointExtension>
<tp1:hr>152</tp1:hr>
</tp1:TrackPointExtension>
</extensions>
</trkpt>
<trkpt lat="52.0275170" lon="7.3761315">
<ele>89.5399170</ele>
<time>2011-07-31T15:39:00Z</time>
<extensions>
<tp1:TrackPointExtension>
<tp1:hr>152</tp1:hr>
</tp1:TrackPointExtension>
</extensions>
</trkpt>
<trkpt lat="52.0269534" lon="7.3761654">
<ele>90.5013428</ele>
<time>2011-07-31T15:39:09Z</time>
<extensions>
<tp1:TrackPointExtension>
<tp1:hr>154</tp1:hr>
</tp1:TrackPointExtension>
</extensions>
</trkpt>
<trkpt lat="52.0262411" lon="7.3762040">
<ele>90.0206299</ele>
<time>2011-07-31T15:39:20Z</time>
<extensions>
<tp1:TrackPointExtension>
<tp1:hr>153</tp1:hr>
</tp1:TrackPointExtension>
</extensions>
</trkpt>
<trkpt lat="52.0254496" lon="7.3762567">
<ele>89.0593262</ele>
<time>2011-07-31T15:39:32Z</time>
<extensions>
<tp1:TrackPointExtension>
<tp1:hr>150</tp1:hr>
</tp1:TrackPointExtension>
</extensions>
</trkpt>
<trkpt lat="52.0247714" lon="7.3763133">
<ele>87.6171875</ele>
<time>2011-07-31T15:39:42Z</time>
<extensions>
<tp1:TrackPointExtension>
<tp1:hr>145</tp1:hr>
</tp1:TrackPointExtension>
</extensions>
</trkpt>
<trkpt lat="52.0244250" lon="7.3763493">
<ele>86.6560059</ele>
<time>2011-07-31T15:39:47Z</time>
<extensions>
<tp1:TrackPointExtension>
<tp1:hr>140</tp1:hr>
</tp1:TrackPointExtension>
</extensions>
</trkpt>
<trkpt lat="52.0237781" lon="7.3764020">
<ele>85.6945801</ele>
<time>2011-07-31T15:39:56Z</time>
<extensions>
<tp1:TrackPointExtension>
<tp1:hr>133</tp1:hr>
</tp1:TrackPointExtension>
</extensions>
</trkpt>
<trkpt lat="52.0231101" lon="7.3764146">
<ele>84.7333984</ele>
<time>2011-07-31T15:40:05Z</time>
<extensions>
<tp1:TrackPointExtension>
<tp1:hr>128</tp1:hr>
</tp1:TrackPointExtension>
</extensions>
</trkpt>
<trkpt lat="52.0224993" lon="7.3762844">
<ele>83.7719727</ele>
<time>2011-07-31T15:40:13Z</time>
<extensions>
<tp1:TrackPointExtension>
<tp1:hr>130</tp1:hr>
</tp1:TrackPointExtension>
</extensions>
</trkpt>
<trkpt lat="52.0218278" lon="7.3761133">
<ele>82.8107910</ele>
<time>2011-07-31T15:40:22Z</time>
<extensions>
<tp1:TrackPointExtension>
<tp1:hr>126</tp1:hr>
</tp1:TrackPointExtension>
</extensions>
</trkpt>
<trkpt lat="52.0210574" lon="7.3758797">
<ele>83.7719727</ele>
<time>2011-07-31T15:40:33Z</time>
<extensions>
<tp1:TrackPointExtension>
<tp1:hr>127</tp1:hr>
</tp1:TrackPointExtension>
</extensions>
</trkpt>
<trkpt lat="52.0205223" lon="7.3754192">
<ele>85.6945801</ele>
<time>2011-07-31T15:40:42Z</time>
<extensions>
<tp1:TrackPointExtension>
<tp1:hr>132</tp1:hr>
</tp1:TrackPointExtension>
</extensions>
</trkpt>
<trkpt lat="52.0201410" lon="7.3750108">
<ele>88.0980225</ele>
<time>2011-07-31T15:40:49Z</time>
<extensions>
<tp1:TrackPointExtension>
<tp1:hr>137</tp1:hr>
</tp1:TrackPointExtension>
</extensions>
</trkpt>
<trkpt lat="52.0196992" lon="7.3745809">
<ele>87.1365967</ele>
<time>2011-07-31T15:40:57Z</time>
<extensions>
<tp1:TrackPointExtension>
<tp1:hr>141</tp1:hr>
</tp1:TrackPointExtension>
</extensions>
</trkpt>
<trkpt lat="52.0195438" lon="7.3744508">
<ele>86.6560059</ele>
<time>2011-07-31T15:41:00Z</time>
<extensions>
<tp1:TrackPointExtension>
<tp1:hr>139</tp1:hr>
</tp1:TrackPointExtension>
</extensions>
</trkpt>
<trkpt lat="52.0194411" lon="7.3741336">
<ele>88.0980225</ele>
<time>2011-07-31T15:41:04Z</time>
<extensions>
<tp1:TrackPointExtension>
<tp1:hr>137</tp1:hr>
</tp1:TrackPointExtension>
</extensions>
</trkpt>
<trkpt lat="52.0194458" lon="7.3740378">
<ele>88.5787354</ele>
<time>2011-07-31T15:41:05Z</time>
<extensions>
<tp1:TrackPointExtension>
<tp1:hr>138</tp1:hr>
</tp1:TrackPointExtension>
</extensions>
</trkpt>
<trkpt lat="52.0195136" lon="7.3732470">
<ele>92.4239502</ele>
<time>2011-07-31T15:41:13Z</time>
<extensions>
<tp1:TrackPointExtension>
<tp1:hr>140</tp1:hr>
</tp1:TrackPointExtension>
</extensions>
</trkpt>
<trkpt lat="52.0195276" lon="7.3730467">
<ele>92.4239502</ele>
<time>2011-07-31T15:41:15Z</time>
<extensions>
<tp1:TrackPointExtension>
<tp1:hr>140</tp1:hr>
</tp1:TrackPointExtension>
</extensions>
</trkpt>
<trkpt lat="52.0194076" lon="7.3727472">
<ele>91.9432373</ele>
<time>2011-07-31T15:41:19Z</time>
<extensions>
<tp1:TrackPointExtension>
<tp1:hr>142</tp1:hr>
</tp1:TrackPointExtension>
</extensions>
</trkpt>
<trkpt lat="52.0192833" lon="7.3727108">
<ele>90.5013428</ele>
<time>2011-07-31T15:41:21Z</time>
<extensions>
<tp1:TrackPointExtension>
<tp1:hr>143</tp1:hr>
</tp1:TrackPointExtension>
</extensions>
</trkpt>
<trkpt lat="52.0185730" lon="7.3726629">
<ele>88.0980225</ele>
<time>2011-07-31T15:41:32Z</time>
<extensions>
<tp1:TrackPointExtension>
<tp1:hr>146</tp1:hr>
</tp1:TrackPointExtension>
</extensions>
</trkpt>
<trkpt lat="52.0181192" lon="7.3725489">
<ele>87.6171875</ele>
<time>2011-07-31T15:41:39Z</time>
<extensions>
<tp1:TrackPointExtension>
<tp1:hr>147</tp1:hr>
</tp1:TrackPointExtension>
</extensions>
</trkpt>
<trkpt lat="52.0174618" lon="7.3722200">
<ele>88.5787354</ele>
<time>2011-07-31T15:41:50Z</time>
<extensions>
<tp1:TrackPointExtension>
<tp1:hr>145</tp1:hr>
</tp1:TrackPointExtension>
</extensions>
</trkpt>
<trkpt lat="52.0171491" lon="7.3722091">
<ele>88.0980225</ele>
<time>2011-07-31T15:41:55Z</time>
<extensions>
<tp1:TrackPointExtension>
<tp1:hr>145</tp1:hr>
</tp1:TrackPointExtension>
</extensions>
</trkpt>
<trkpt lat="52.0166413" lon="7.3723510">
<ele>86.1752930</ele>
<time>2011-07-31T15:42:03Z</time>
<extensions>
<tp1:TrackPointExtension>
<tp1:hr>146</tp1:hr>
</tp1:TrackPointExtension>
</extensions>
</trkpt>
<trkpt lat="52.0159788" lon="7.3725446">
<ele>85.6945801</ele>
<time>2011-07-31T15:42:13Z</time>
<extensions>
<tp1:TrackPointExtension>
<tp1:hr>148</tp1:hr>
</tp1:TrackPointExtension>
</extensions>
</trkpt>
<trkpt lat="52.0151030" lon="7.3727940">
<ele>85.6945801</ele>
<time>2011-07-31T15:42:26Z</time>
<extensions>
<tp1:TrackPointExtension>
<tp1:hr>145</tp1:hr>
</tp1:TrackPointExtension>
</extensions>
</trkpt>
<trkpt lat="52.0140741" lon="7.3730897">
<ele>86.6560059</ele>
<time>2011-07-31T15:42:41Z</time>
<extensions>
<tp1:TrackPointExtension>
<tp1:hr>144</tp1:hr>
</tp1:TrackPointExtension>
</extensions>
</trkpt>
<trkpt lat="52.0132484" lon="7.3733188">
<ele>87.1365967</ele>
<time>2011-07-31T15:42:53Z</time>
<extensions>
<tp1:TrackPointExtension>
<tp1:hr>141</tp1:hr>
</tp1:TrackPointExtension>
</extensions>
</trkpt>
<trkpt lat="52.0124789" lon="7.3735330">
<ele>87.1365967</ele>
<time>2011-07-31T15:43:04Z</time>
<extensions>
<tp1:TrackPointExtension>
<tp1:hr>138</tp1:hr>
</tp1:TrackPointExtension>
</extensions>
</trkpt>
<trkpt lat="52.0117953" lon="7.3737243">
<ele>87.1365967</ele>
<time>2011-07-31T15:43:14Z</time>
<extensions>
<tp1:TrackPointExtension>
<tp1:hr>136</tp1:hr>
</tp1:TrackPointExtension>
</extensions>
</trkpt>
<trkpt lat="52.0108459" lon="7.3739836">
<ele>87.1365967</ele>
<time>2011-07-31T15:43:28Z</time>
<extensions>
<tp1:TrackPointExtension>
<tp1:hr>135</tp1:hr>
</tp1:TrackPointExtension>
</extensions>
</trkpt>
<trkpt lat="52.0097938" lon="7.3742806">
<ele>87.6171875</ele>
<time>2011-07-31T15:43:44Z</time>
<extensions>
<tp1:TrackPointExtension>
<tp1:hr>137</tp1:hr>
</tp1:TrackPointExtension>
</extensions>
</trkpt>
<trkpt lat="52.0089339" lon="7.3745190">
<ele>88.0980225</ele>
<time>2011-07-31T15:43:57Z</time>
<extensions>
<tp1:TrackPointExtension>
<tp1:hr>139</tp1:hr>
</tp1:TrackPointExtension>
</extensions>
</trkpt>
<trkpt lat="52.0085284" lon="7.3746297">
<ele>88.0980225</ele>
<time>2011-07-31T15:44:04Z</time>
<extensions>
<tp1:TrackPointExtension>
<tp1:hr>134</tp1:hr>
</tp1:TrackPointExtension>
</extensions>
</trkpt>
<trkpt lat="52.0083664" lon="7.3746711">
<ele>88.5787354</ele>
<time>2011-07-31T15:44:08Z</time>
<extensions>
<tp1:TrackPointExtension>
<tp1:hr>129</tp1:hr>
</tp1:TrackPointExtension>
</extensions>
</trkpt>
<trkpt lat="52.0083418" lon="7.3746822">
<ele>88.5787354</ele>
<time>2011-07-31T15:44:09Z</time>
<extensions>
<tp1:TrackPointExtension>
<tp1:hr>128</tp1:hr>
</tp1:TrackPointExtension>
</extensions>
</trkpt>
<trkpt lat="52.0082950" lon="7.3747054">
<ele>89.0593262</ele>
<time>2011-07-31T15:44:13Z</time>
<extensions>
<tp1:TrackPointExtension>
<tp1:hr>122</tp1:hr>
</tp1:TrackPointExtension>
</extensions>
</trkpt>
<trkpt lat="52.0082339" lon="7.3747318">
<ele>89.5399170</ele>
<time>2011-07-31T15:44:17Z</time>
<extensions>
<tp1:TrackPointExtension>
<tp1:hr>122</tp1:hr>
</tp1:TrackPointExtension>
</extensions>
</trkpt>
<trkpt lat="52.0080819" lon="7.3748530">
<ele>89.0593262</ele>
<time>2011-07-31T15:44:21Z</time>
<extensions>
<tp1:TrackPointExtension>
<tp1:hr>125</tp1:hr>
</tp1:TrackPointExtension>
</extensions>
</trkpt>
<trkpt lat="52.0079087" lon="7.3751056">
<ele>89.0593262</ele>
<time>2011-07-31T15:44:25Z</time>
<extensions>
<tp1:TrackPointExtension>
<tp1:hr>130</tp1:hr>
</tp1:TrackPointExtension>
</extensions>
</trkpt>
<trkpt lat="52.0077672" lon="7.3753218">
<ele>89.0593262</ele>
<time>2011-07-31T15:44:28Z</time>
<extensions>
<tp1:TrackPointExtension>
<tp1:hr>136</tp1:hr>
</tp1:TrackPointExtension>
</extensions>
</trkpt>
<trkpt lat="52.0072299" lon="7.3761423">
<ele>89.0593262</ele>
<time>2011-07-31T15:44:39Z</time>
<extensions>
<tp1:TrackPointExtension>
<tp1:hr>137</tp1:hr>
</tp1:TrackPointExtension>
</extensions>
</trkpt>
<trkpt lat="52.0066710" lon="7.3769819">
<ele>89.0593262</ele>
<time>2011-07-31T15:44:50Z</time>
<extensions>
<tp1:TrackPointExtension>
<tp1:hr>139</tp1:hr>
</tp1:TrackPointExtension>
</extensions>
</trkpt>
<trkpt lat="52.0060471" lon="7.3779185">
<ele>89.5399170</ele>
<time>2011-07-31T15:45:02Z</time>
<extensions>
<tp1:TrackPointExtension>
<tp1:hr>139</tp1:hr>
</tp1:TrackPointExtension>
</extensions>
</trkpt>
<trkpt lat="52.0055112" lon="7.3787192">
<ele>89.0593262</ele>
<time>2011-07-31T15:45:12Z</time>
<extensions>
<tp1:TrackPointExtension>
<tp1:hr>139</tp1:hr>
</tp1:TrackPointExtension>
</extensions>
</trkpt>
<trkpt lat="52.0049227" lon="7.3795985">
<ele>89.0593262</ele>
<time>2011-07-31T15:45:23Z</time>
<extensions>
<tp1:TrackPointExtension>
<tp1:hr>136</tp1:hr>
</tp1:TrackPointExtension>
</extensions>
</trkpt>
<trkpt lat="52.0041032" lon="7.3808260">
<ele>88.0980225</ele>
<time>2011-07-31T15:45:38Z</time>
<extensions>
<tp1:TrackPointExtension>
<tp1:hr>132</tp1:hr>
</tp1:TrackPointExtension>
</extensions>
</trkpt>
<trkpt lat="52.0033927" lon="7.3818902">
<ele>87.1365967</ele>
<time>2011-07-31T15:45:51Z</time>
<extensions>
<tp1:TrackPointExtension>
<tp1:hr>132</tp1:hr>
</tp1:TrackPointExtension>
</extensions>
</trkpt>
<trkpt lat="52.0027478" lon="7.3828651">
<ele>86.6560059</ele>
<time>2011-07-31T15:46:03Z</time>
<extensions>
<tp1:TrackPointExtension>
<tp1:hr>132</tp1:hr>
</tp1:TrackPointExtension>
</extensions>
</trkpt>
<trkpt lat="52.0020292" lon="7.3839558">
<ele>85.2139893</ele>
<time>2011-07-31T15:46:16Z</time>
<extensions>
<tp1:TrackPointExtension>
<tp1:hr>129</tp1:hr>
</tp1:TrackPointExtension>
</extensions>
</trkpt>
<trkpt lat="52.0015184" lon="7.3846899">
<ele>84.2526855</ele>
<time>2011-07-31T15:46:25Z</time>
<extensions>
<tp1:TrackPointExtension>
<tp1:hr>127</tp1:hr>
</tp1:TrackPointExtension>
</extensions>
</trkpt>
<trkpt lat="52.0013845" lon="7.3848136">
<ele>84.2526855</ele>
<time>2011-07-31T15:46:27Z</time>
<extensions>
<tp1:TrackPointExtension>
<tp1:hr>127</tp1:hr>
</tp1:TrackPointExtension>
</extensions>
</trkpt>
<trkpt lat="52.0008111" lon="7.3851244">
<ele>83.2913818</ele>
<time>2011-07-31T15:46:35Z</time>
<extensions>
<tp1:TrackPointExtension>
<tp1:hr>125</tp1:hr>
</tp1:TrackPointExtension>
</extensions>
</trkpt>
<trkpt lat="51.9998853" lon="7.3855845">
<ele>81.3687744</ele>
<time>2011-07-31T15:46:48Z</time>
<extensions>
<tp1:TrackPointExtension>
<tp1:hr>129</tp1:hr>
</tp1:TrackPointExtension>
</extensions>
</trkpt>
<trkpt lat="51.9992440" lon="7.3858867">
<ele>79.9266357</ele>
<time>2011-07-31T15:46:57Z</time>
<extensions>
<tp1:TrackPointExtension>
<tp1:hr>131</tp1:hr>
</tp1:TrackPointExtension>
</extensions>
</trkpt>
<trkpt lat="51.9988219" lon="7.3860643">
<ele>79.4460449</ele>
<time>2011-07-31T15:47:03Z</time>
<extensions>
<tp1:TrackPointExtension>
<tp1:hr>131</tp1:hr>
</tp1:TrackPointExtension>
</extensions>
</trkpt>
<trkpt lat="51.9982645" lon="7.3862418">
<ele>79.9266357</ele>
<time>2011-07-31T15:47:11Z</time>
<extensions>
<tp1:TrackPointExtension>
<tp1:hr>134</tp1:hr>
</tp1:TrackPointExtension>
</extensions>
</trkpt>
<trkpt lat="51.9974984" lon="7.3864786">
<ele>80.8881836</ele>
<time>2011-07-31T15:47:22Z</time>
<extensions>
<tp1:TrackPointExtension>
<tp1:hr>138</tp1:hr>
</tp1:TrackPointExtension>
</extensions>
</trkpt>
<trkpt lat="51.9968946" lon="7.3865863">
<ele>79.9266357</ele>
<time>2011-07-31T15:47:31Z</time>
<extensions>
<tp1:TrackPointExtension>
<tp1:hr>143</tp1:hr>
</tp1:TrackPointExtension>
</extensions>
</trkpt>
<trkpt lat="51.9963648" lon="7.3867209">
<ele>79.9266357</ele>
<time>2011-07-31T15:47:39Z</time>
<extensions>
<tp1:TrackPointExtension>
<tp1:hr>144</tp1:hr>
</tp1:TrackPointExtension>
</extensions>
</trkpt>
<trkpt lat="51.9959074" lon="7.3869144">
<ele>79.9266357</ele>
<time>2011-07-31T15:47:46Z</time>
<extensions>
<tp1:TrackPointExtension>
<tp1:hr>145</tp1:hr>
</tp1:TrackPointExtension>
</extensions>
</trkpt>
<trkpt lat="51.9951394" lon="7.3873693">
<ele>80.4074707</ele>
<time>2011-07-31T15:47:58Z</time>
<extensions>
<tp1:TrackPointExtension>
<tp1:hr>148</tp1:hr>
</tp1:TrackPointExtension>
</extensions>
</trkpt>
<trkpt lat="51.9943299" lon="7.3878541">
<ele>80.4074707</ele>
<time>2011-07-31T15:48:11Z</time>
<extensions>
<tp1:TrackPointExtension>
<tp1:hr>149</tp1:hr>
</tp1:TrackPointExtension>
</extensions>
</trkpt>
<trkpt lat="51.9934904" lon="7.3884058">
<ele>78.4847412</ele>
<time>2011-07-31T15:48:24Z</time>
<extensions>
<tp1:TrackPointExtension>
<tp1:hr>147</tp1:hr>
</tp1:TrackPointExtension>
</extensions>
</trkpt>
<trkpt lat="51.9931931" lon="7.3887023">
<ele>78.0040283</ele>
<time>2011-07-31T15:48:29Z</time>
<extensions>
<tp1:TrackPointExtension>
<tp1:hr>146</tp1:hr>
</tp1:TrackPointExtension>
</extensions>
</trkpt>
<trkpt lat="51.9929981" lon="7.3891620">
<ele>78.0040283</ele>
<time>2011-07-31T15:48:34Z</time>
<extensions>
<tp1:TrackPointExtension>
<tp1:hr>146</tp1:hr>
</tp1:TrackPointExtension>
</extensions>
</trkpt>
<trkpt lat="51.9927677" lon="7.3900095">
<ele>78.0040283</ele>
<time>2011-07-31T15:48:42Z</time>
<extensions>
<tp1:TrackPointExtension>
<tp1:hr>143</tp1:hr>
</tp1:TrackPointExtension>
</extensions>
</trkpt>
<trkpt lat="51.9925405" lon="7.3906017">
<ele>78.4847412</ele>
<time>2011-07-31T15:48:48Z</time>
<extensions>
<tp1:TrackPointExtension>
<tp1:hr>142</tp1:hr>
</tp1:TrackPointExtension>
</extensions>
</trkpt>
<trkpt lat="51.9922053" lon="7.3910191">
<ele>78.9654541</ele>
<time>2011-07-31T15:48:54Z</time>
<extensions>
<tp1:TrackPointExtension>
<tp1:hr>140</tp1:hr>
</tp1:TrackPointExtension>
</extensions>
</trkpt>
<trkpt lat="51.9915852" lon="7.3916109">
<ele>77.0428467</ele>
<time>2011-07-31T15:49:04Z</time>
<extensions>
<tp1:TrackPointExtension>
<tp1:hr>140</tp1:hr>
</tp1:TrackPointExtension>
</extensions>
</trkpt>
<trkpt lat="51.9907536" lon="7.3923477">
<ele>76.0814209</ele>
<time>2011-07-31T15:49:17Z</time>
<extensions>
<tp1:TrackPointExtension>
<tp1:hr>140</tp1:hr>
</tp1:TrackPointExtension>
</extensions>
</trkpt>
<trkpt lat="51.9899327" lon="7.3930662">
<ele>76.0814209</ele>
<time>2011-07-31T15:49:30Z</time>
<extensions>
<tp1:TrackPointExtension>
<tp1:hr>140</tp1:hr>
</tp1:TrackPointExtension>
</extensions>
</trkpt>
<trkpt lat="51.9893791" lon="7.3935799">
<ele>76.0814209</ele>
<time>2011-07-31T15:49:39Z</time>
<extensions>
<tp1:TrackPointExtension>
<tp1:hr>141</tp1:hr>
</tp1:TrackPointExtension>
</extensions>
</trkpt>
<trkpt lat="51.9887620" lon="7.3942437">
<ele>77.0428467</ele>
<time>2011-07-31T15:49:50Z</time>
<extensions>
<tp1:TrackPointExtension>
<tp1:hr>139</tp1:hr>
</tp1:TrackPointExtension>
</extensions>
</trkpt>
<trkpt lat="51.9882072" lon="7.3948301">
<ele>78.0040283</ele>
<time>2011-07-31T15:50:01Z</time>
<extensions>
<tp1:TrackPointExtension>
<tp1:hr>139</tp1:hr>
</tp1:TrackPointExtension>
</extensions>
</trkpt>
<trkpt lat="51.9878115" lon="7.3952627">
<ele>79.4460449</ele>
<time>2011-07-31T15:50:09Z</time>
<extensions>
<tp1:TrackPointExtension>
<tp1:hr>144</tp1:hr>
</tp1:TrackPointExtension>
</extensions>
</trkpt>
<trkpt lat="51.9873672" lon="7.3957304">
<ele>80.4074707</ele>
<time>2011-07-31T15:50:18Z</time>
<extensions>
<tp1:TrackPointExtension>
<tp1:hr>147</tp1:hr>
</tp1:TrackPointExtension>
</extensions>
</trkpt>
<trkpt lat="51.9868317" lon="7.3962866">
<ele>81.8493652</ele>
<time>2011-07-31T15:50:29Z</time>
<extensions>
<tp1:TrackPointExtension>
<tp1:hr>152</tp1:hr>
</tp1:TrackPointExtension>
</extensions>
</trkpt>
<trkpt lat="51.9865537" lon="7.3966025">
<ele>82.3300781</ele>
<time>2011-07-31T15:50:35Z</time>
<extensions>
<tp1:TrackPointExtension>
<tp1:hr>154</tp1:hr>
</tp1:TrackPointExtension>
</extensions>
</trkpt>
<trkpt lat="51.9861460" lon="7.3971046">
<ele>83.7719727</ele>
<time>2011-07-31T15:50:44Z</time>
<extensions>
<tp1:TrackPointExtension>
<tp1:hr>156</tp1:hr>
</tp1:TrackPointExtension>
</extensions>
</trkpt>
<trkpt lat="51.9855724" lon="7.3977670">
<ele>85.2139893</ele>
<time>2011-07-31T15:50:56Z</time>
<extensions>
<tp1:TrackPointExtension>
<tp1:hr>158</tp1:hr>
</tp1:TrackPointExtension>
</extensions>
</trkpt>
<trkpt lat="51.9851945" lon="7.3980250">
<ele>86.6560059</ele>
<time>2011-07-31T15:51:03Z</time>
<extensions>
<tp1:TrackPointExtension>
<tp1:hr>158</tp1:hr>
</tp1:TrackPointExtension>
</extensions>
</trkpt>
<trkpt lat="51.9847489" lon="7.3981520">
<ele>87.1365967</ele>
<time>2011-07-31T15:51:11Z</time>
<extensions>
<tp1:TrackPointExtension>
<tp1:hr>157</tp1:hr>
</tp1:TrackPointExtension>
</extensions>
</trkpt>
<trkpt lat="51.9843041" lon="7.3981162">
<ele>88.0980225</ele>
<time>2011-07-31T15:51:19Z</time>
<extensions>
<tp1:TrackPointExtension>
<tp1:hr>157</tp1:hr>
</tp1:TrackPointExtension>
</extensions>
</trkpt>
<trkpt lat="51.9836372" lon="7.3978885">
<ele>90.5013428</ele>
<time>2011-07-31T15:51:32Z</time>
<extensions>
<tp1:TrackPointExtension>
<tp1:hr>156</tp1:hr>
</tp1:TrackPointExtension>
</extensions>
</trkpt>
<trkpt lat="51.9833468" lon="7.3977856">
<ele>91.9432373</ele>
<time>2011-07-31T15:51:38Z</time>
<extensions>
<tp1:TrackPointExtension>
<tp1:hr>156</tp1:hr>
</tp1:TrackPointExtension>
</extensions>
</trkpt>
<trkpt lat="51.9831680" lon="7.3977240">
<ele>92.9045410</ele>
<time>2011-07-31T15:51:42Z</time>
<extensions>
<tp1:TrackPointExtension>
<tp1:hr>156</tp1:hr>
</tp1:TrackPointExtension>
</extensions>
</trkpt>
<trkpt lat="51.9829857" lon="7.3976998">
<ele>92.4239502</ele>
<time>2011-07-31T15:51:46Z</time>
<extensions>
<tp1:TrackPointExtension>
<tp1:hr>156</tp1:hr>
</tp1:TrackPointExtension>
</extensions>
</trkpt>
<trkpt lat="51.9826457" lon="7.3977201">
<ele>93.3851318</ele>
<time>2011-07-31T15:51:53Z</time>
<extensions>
<tp1:TrackPointExtension>
<tp1:hr>156</tp1:hr>
</tp1:TrackPointExtension>
</extensions>
</trkpt>
<trkpt lat="51.9825512" lon="7.3977421">
<ele>93.3851318</ele>
<time>2011-07-31T15:51:55Z</time>
<extensions>
<tp1:TrackPointExtension>
<tp1:hr>156</tp1:hr>
</tp1:TrackPointExtension>
</extensions>
</trkpt>
<trkpt lat="51.9823636" lon="7.3978183">
<ele>94.3465576</ele>
<time>2011-07-31T15:51:59Z</time>
<extensions>
<tp1:TrackPointExtension>
<tp1:hr>156</tp1:hr>
</tp1:TrackPointExtension>
</extensions>
</trkpt>
<trkpt lat="51.9819695" lon="7.3980759">
<ele>93.3851318</ele>
<time>2011-07-31T15:52:07Z</time>
<extensions>
<tp1:TrackPointExtension>
<tp1:hr>157</tp1:hr>
</tp1:TrackPointExtension>
</extensions>
</trkpt>
<trkpt lat="51.9816561" lon="7.3984230">
<ele>93.3851318</ele>
<time>2011-07-31T15:52:14Z</time>
<extensions>
<tp1:TrackPointExtension>
<tp1:hr>157</tp1:hr>
</tp1:TrackPointExtension>
</extensions>
</trkpt>
<trkpt lat="51.9813825" lon="7.3988794">
<ele>94.3465576</ele>
<time>2011-07-31T15:52:21Z</time>
<extensions>
<tp1:TrackPointExtension>
<tp1:hr>156</tp1:hr>
</tp1:TrackPointExtension>
</extensions>
</trkpt>
<trkpt lat="51.9809893" lon="7.3996384">
<ele>94.8271484</ele>
<time>2011-07-31T15:52:31Z</time>
<extensions>
<tp1:TrackPointExtension>
<tp1:hr>153</tp1:hr>
</tp1:TrackPointExtension>
</extensions>
</trkpt>
<trkpt lat="51.9805883" lon="7.4003350">
<ele>94.3465576</ele>
<time>2011-07-31T15:52:40Z</time>
<extensions>
<tp1:TrackPointExtension>
<tp1:hr>149</tp1:hr>
</tp1:TrackPointExtension>
</extensions>
</trkpt>
<trkpt lat="51.9800641" lon="7.4010456">
<ele>93.3851318</ele>
<time>2011-07-31T15:52:50Z</time>
<extensions>
<tp1:TrackPointExtension>
<tp1:hr>146</tp1:hr>
</tp1:TrackPointExtension>
</extensions>
</trkpt>
<trkpt lat="51.9796755" lon="7.4015262">
<ele>92.4239502</ele>
<time>2011-07-31T15:52:57Z</time>
<extensions>
<tp1:TrackPointExtension>
<tp1:hr>141</tp1:hr>
</tp1:TrackPointExtension>
</extensions>
</trkpt>
<trkpt lat="51.9790679" lon="7.4022419">
<ele>91.4625244</ele>
<time>2011-07-31T15:53:08Z</time>
<extensions>
<tp1:TrackPointExtension>
<tp1:hr>140</tp1:hr>
</tp1:TrackPointExtension>
</extensions>
</trkpt>
<trkpt lat="51.9785578" lon="7.4028562">
<ele>91.4625244</ele>
<time>2011-07-31T15:53:18Z</time>
<extensions>
<tp1:TrackPointExtension>
<tp1:hr>139</tp1:hr>
</tp1:TrackPointExtension>
</extensions>
</trkpt>
<trkpt lat="51.9780399" lon="7.4035431">
<ele>91.4625244</ele>
<time>2011-07-31T15:53:29Z</time>
<extensions>
<tp1:TrackPointExtension>
<tp1:hr>137</tp1:hr>
</tp1:TrackPointExtension>
</extensions>
</trkpt>
<trkpt lat="51.9776106" lon="7.4042186">
<ele>91.9432373</ele>
<time>2011-07-31T15:53:39Z</time>
<extensions>
<tp1:TrackPointExtension>
<tp1:hr>139</tp1:hr>
</tp1:TrackPointExtension>
</extensions>
</trkpt>
<trkpt lat="51.9772256" lon="7.4048142">
<ele>92.9045410</ele>
<time>2011-07-31T15:53:48Z</time>
<extensions>
<tp1:TrackPointExtension>
<tp1:hr>143</tp1:hr>
</tp1:TrackPointExtension>
</extensions>
</trkpt>
<trkpt lat="51.9768131" lon="7.4051841">
<ele>94.3465576</ele>
<time>2011-07-31T15:53:56Z</time>
<extensions>
<tp1:TrackPointExtension>
<tp1:hr>146</tp1:hr>
</tp1:TrackPointExtension>
</extensions>
</trkpt>
<trkpt lat="51.9764298" lon="7.4054633">
<ele>95.7884521</ele>
<time>2011-07-31T15:54:03Z</time>
<extensions>
<tp1:TrackPointExtension>
<tp1:hr>151</tp1:hr>
</tp1:TrackPointExtension>
</extensions>
</trkpt>
<trkpt lat="51.9760426" lon="7.4059108">
<ele>97.2304688</ele>
<time>2011-07-31T15:54:11Z</time>
<extensions>
<tp1:TrackPointExtension>
<tp1:hr>156</tp1:hr>
</tp1:TrackPointExtension>
</extensions>
</trkpt>
<trkpt lat="51.9756620" lon="7.4065599">
<ele>97.7111816</ele>
<time>2011-07-31T15:54:20Z</time>
<extensions>
<tp1:TrackPointExtension>
<tp1:hr>159</tp1:hr>
</tp1:TrackPointExtension>
</extensions>
</trkpt>
<trkpt lat="51.9752179" lon="7.4072319">
<ele>96.7498779</ele>
<time>2011-07-31T15:54:30Z</time>
<extensions>
<tp1:TrackPointExtension>
<tp1:hr>160</tp1:hr>
</tp1:TrackPointExtension>
</extensions>
</trkpt>
<trkpt lat="51.9747864" lon="7.4076498">
<ele>94.8271484</ele>
<time>2011-07-31T15:54:38Z</time>
<extensions>
<tp1:TrackPointExtension>
<tp1:hr>157</tp1:hr>
</tp1:TrackPointExtension>
</extensions>
</trkpt>
<trkpt lat="51.9743596" lon="7.4079026">
<ele>93.3851318</ele>
<time>2011-07-31T15:54:45Z</time>
<extensions>
<tp1:TrackPointExtension>
<tp1:hr>152</tp1:hr>
</tp1:TrackPointExtension>
</extensions>
</trkpt>
<trkpt lat="51.9742298" lon="7.4079554">
<ele>93.3851318</ele>
<time>2011-07-31T15:54:47Z</time>
<extensions>
<tp1:TrackPointExtension>
<tp1:hr>150</tp1:hr>
</tp1:TrackPointExtension>
</extensions>
</trkpt>
<trkpt lat="51.9737501" lon="7.4080764">
<ele>92.4239502</ele>
<time>2011-07-31T15:54:54Z</time>
<extensions>
<tp1:TrackPointExtension>
<tp1:hr>142</tp1:hr>
</tp1:TrackPointExtension>
</extensions>
</trkpt>
<trkpt lat="51.9736790" lon="7.4080901">
<ele>91.9432373</ele>
<time>2011-07-31T15:54:55Z</time>
<extensions>
<tp1:TrackPointExtension>
<tp1:hr>142</tp1:hr>
</tp1:TrackPointExtension>
</extensions>
</trkpt>
<trkpt lat="51.9735341" lon="7.4081140">
<ele>91.9432373</ele>
<time>2011-07-31T15:54:57Z</time>
<extensions>
<tp1:TrackPointExtension>
<tp1:hr>137</tp1:hr>
</tp1:TrackPointExtension>
</extensions>
</trkpt>
<trkpt lat="51.9732363" lon="7.4081348">
<ele>91.4625244</ele>
<time>2011-07-31T15:55:01Z</time>
<extensions>
<tp1:TrackPointExtension>
<tp1:hr>132</tp1:hr>
</tp1:TrackPointExtension>
</extensions>
</trkpt>
<trkpt lat="51.9731684" lon="7.4081360">
<ele>90.9819336</ele>
<time>2011-07-31T15:55:02Z</time>
<extensions>
<tp1:TrackPointExtension>
<tp1:hr>132</tp1:hr>
</tp1:TrackPointExtension>
</extensions>
</trkpt>
<trkpt lat="51.9728963" lon="7.4081272">
<ele>90.9819336</ele>
<time>2011-07-31T15:55:07Z</time>
<extensions>
<tp1:TrackPointExtension>
<tp1:hr>128</tp1:hr>
</tp1:TrackPointExtension>
</extensions>
</trkpt>
<trkpt lat="51.9728146" lon="7.4081196">
<ele>90.5013428</ele>
<time>2011-07-31T15:55:09Z</time>
<extensions>
<tp1:TrackPointExtension>
<tp1:hr>123</tp1:hr>
</tp1:TrackPointExtension>
</extensions>
</trkpt>
<trkpt lat="51.9727373" lon="7.4081098">
<ele>90.5013428</ele>
<time>2011-07-31T15:55:12Z</time>
<extensions>
<tp1:TrackPointExtension>
<tp1:hr>123</tp1:hr>
</tp1:TrackPointExtension>
</extensions>
</trkpt>
<trkpt lat="51.9726545" lon="7.4082595">
<ele>90.9819336</ele>
<time>2011-07-31T15:55:16Z</time>
<extensions>
<tp1:TrackPointExtension>
<tp1:hr>124</tp1:hr>
</tp1:TrackPointExtension>
</extensions>
</trkpt>
<trkpt lat="51.9726305" lon="7.4085304">
<ele>91.4625244</ele>
<time>2011-07-31T15:55:19Z</time>
<extensions>
<tp1:TrackPointExtension>
<tp1:hr>129</tp1:hr>
</tp1:TrackPointExtension>
</extensions>
</trkpt>
<trkpt lat="51.9726120" lon="7.4087308">
<ele>91.4625244</ele>
<time>2011-07-31T15:55:21Z</time>
<extensions>
<tp1:TrackPointExtension>
<tp1:hr>134</tp1:hr>
</tp1:TrackPointExtension>
</extensions>
</trkpt>
<trkpt lat="51.9726047" lon="7.4091528">
<ele>91.4625244</ele>
<time>2011-07-31T15:55:25Z</time>
<extensions>
<tp1:TrackPointExtension>
<tp1:hr>139</tp1:hr>
</tp1:TrackPointExtension>
</extensions>
</trkpt>
<trkpt lat="51.9726566" lon="7.4099160">
<ele>90.9819336</ele>
<time>2011-07-31T15:55:32Z</time>
<extensions>
<tp1:TrackPointExtension>
<tp1:hr>138</tp1:hr>
</tp1:TrackPointExtension>
</extensions>
</trkpt>
<trkpt lat="51.9727685" lon="7.4105342">
<ele>93.8658447</ele>
<time>2011-07-31T15:55:38Z</time>
<extensions>
<tp1:TrackPointExtension>
<tp1:hr>132</tp1:hr>
</tp1:TrackPointExtension>
</extensions>
</trkpt>
<trkpt lat="51.9728684" lon="7.4109174">
<ele>94.8271484</ele>
<time>2011-07-31T15:55:42Z</time>
<extensions>
<tp1:TrackPointExtension>
<tp1:hr>129</tp1:hr>
</tp1:TrackPointExtension>
</extensions>
</trkpt>
<trkpt lat="51.9729467" lon="7.4112824">
<ele>93.3851318</ele>
<time>2011-07-31T15:55:46Z</time>
<extensions>
<tp1:TrackPointExtension>
<tp1:hr>127</tp1:hr>
</tp1:TrackPointExtension>
</extensions>
</trkpt>
<trkpt lat="51.9730301" lon="7.4115473">
<ele>95.3077393</ele>
<time>2011-07-31T15:55:49Z</time>
<extensions>
<tp1:TrackPointExtension>
<tp1:hr>128</tp1:hr>
</tp1:TrackPointExtension>
</extensions>
</trkpt>
<trkpt lat="51.9730692" lon="7.4116370">
<ele>94.8271484</ele>
<time>2011-07-31T15:55:50Z</time>
<extensions>
<tp1:TrackPointExtension>
<tp1:hr>127</tp1:hr>
</tp1:TrackPointExtension>
</extensions>
</trkpt>
<trkpt lat="51.9733557" lon="7.4122557">
<ele>94.8271484</ele>
<time>2011-07-31T15:55:57Z</time>
<extensions>
<tp1:TrackPointExtension>
<tp1:hr>126</tp1:hr>
</tp1:TrackPointExtension>
</extensions>
</trkpt>
<trkpt lat="51.9734325" lon="7.4124409">
<ele>93.8658447</ele>
<time>2011-07-31T15:55:59Z</time>
<extensions>
<tp1:TrackPointExtension>
<tp1:hr>124</tp1:hr>
</tp1:TrackPointExtension>
</extensions>
</trkpt>
<trkpt lat="51.9736087" lon="7.4129889">
<ele>90.5013428</ele>
<time>2011-07-31T15:56:04Z</time>
<extensions>
<tp1:TrackPointExtension>
<tp1:hr>121</tp1:hr>
</tp1:TrackPointExtension>
</extensions>
</trkpt>
<trkpt lat="51.9736552" lon="7.4135529">
<ele>85.2139893</ele>
<time>2011-07-31T15:56:08Z</time>
<extensions>
<tp1:TrackPointExtension>
<tp1:hr>118</tp1:hr>
</tp1:TrackPointExtension>
</extensions>
</trkpt>
<trkpt lat="51.9735091" lon="7.4145909">
<ele>79.9266357</ele>
<time>2011-07-31T15:56:15Z</time>
<extensions>
<tp1:TrackPointExtension>
<tp1:hr>114</tp1:hr>
</tp1:TrackPointExtension>
</extensions>
</trkpt>
<trkpt lat="51.9734859" lon="7.4148776">
<ele>78.4847412</ele>
<time>2011-07-31T15:56:17Z</time>
<extensions>
<tp1:TrackPointExtension>
<tp1:hr>115</tp1:hr>
</tp1:TrackPointExtension>
</extensions>
</trkpt>
<trkpt lat="51.9733321" lon="7.4153887">
<ele>77.0428467</ele>
<time>2011-07-31T15:56:21Z</time>
<extensions>
<tp1:TrackPointExtension>
<tp1:hr>113</tp1:hr>
</tp1:TrackPointExtension>
</extensions>
</trkpt>
<trkpt lat="51.9731736" lon="7.4157342">
<ele>76.5621338</ele>
<time>2011-07-31T15:56:24Z</time>
<extensions>
<tp1:TrackPointExtension>
<tp1:hr>114</tp1:hr>
</tp1:TrackPointExtension>
</extensions>
</trkpt>
<trkpt lat="51.9727787" lon="7.4162413">
<ele>75.1202393</ele>
<time>2011-07-31T15:56:30Z</time>
<extensions>
<tp1:TrackPointExtension>
<tp1:hr>117</tp1:hr>
</tp1:TrackPointExtension>
</extensions>
</trkpt>
<trkpt lat="51.9722904" lon="7.4166802">
<ele>74.6395264</ele>
<time>2011-07-31T15:56:37Z</time>
<extensions>
<tp1:TrackPointExtension>
<tp1:hr>117</tp1:hr>
</tp1:TrackPointExtension>
</extensions>
</trkpt>
<trkpt lat="51.9718809" lon="7.4170495">
<ele>73.6782227</ele>
<time>2011-07-31T15:56:43Z</time>
<extensions>
<tp1:TrackPointExtension>
<tp1:hr>122</tp1:hr>
</tp1:TrackPointExtension>
</extensions>
</trkpt>
<trkpt lat="51.9717440" lon="7.4171768">
<ele>73.6782227</ele>
<time>2011-07-31T15:56:45Z</time>
<extensions>
<tp1:TrackPointExtension>
<tp1:hr>127</tp1:hr>
</tp1:TrackPointExtension>
</extensions>
</trkpt>
<trkpt lat="51.9716769" lon="7.4172438">
<ele>73.6782227</ele>
<time>2011-07-31T15:56:46Z</time>
<extensions>
<tp1:TrackPointExtension>
<tp1:hr>127</tp1:hr>
</tp1:TrackPointExtension>
</extensions>
</trkpt>
<trkpt lat="51.9711369" lon="7.4177638">
<ele>73.6782227</ele>
<time>2011-07-31T15:56:54Z</time>
<extensions>
<tp1:TrackPointExtension>
<tp1:hr>132</tp1:hr>
</tp1:TrackPointExtension>
</extensions>
</trkpt>
<trkpt lat="51.9706996" lon="7.4180054">
<ele>73.6782227</ele>
<time>2011-07-31T15:57:00Z</time>
<extensions>
<tp1:TrackPointExtension>
<tp1:hr>134</tp1:hr>
</tp1:TrackPointExtension>
</extensions>
</trkpt>
<trkpt lat="51.9701625" lon="7.4181370">
<ele>74.6395264</ele>
<time>2011-07-31T15:57:07Z</time>
<extensions>
<tp1:TrackPointExtension>
<tp1:hr>134</tp1:hr>
</tp1:TrackPointExtension>
</extensions>
</trkpt>
<trkpt lat="51.9695771" lon="7.4182993">
<ele>75.1202393</ele>
<time>2011-07-31T15:57:15Z</time>
<extensions>
<tp1:TrackPointExtension>
<tp1:hr>138</tp1:hr>
</tp1:TrackPointExtension>
</extensions>
</trkpt>
<trkpt lat="51.9694392" lon="7.4183476">
<ele>75.1202393</ele>
<time>2011-07-31T15:57:17Z</time>
<extensions>
<tp1:TrackPointExtension>
<tp1:hr>139</tp1:hr>
</tp1:TrackPointExtension>
</extensions>
</trkpt>
<trkpt lat="51.9691782" lon="7.4185333">
<ele>75.1202393</ele>
<time>2011-07-31T15:57:21Z</time>
<extensions>
<tp1:TrackPointExtension>
<tp1:hr>140</tp1:hr>
</tp1:TrackPointExtension>
</extensions>
</trkpt>
<trkpt lat="51.9687494" lon="7.4189679">
<ele>76.5621338</ele>
<time>2011-07-31T15:57:28Z</time>
<extensions>
<tp1:TrackPointExtension>
<tp1:hr>143</tp1:hr>
</tp1:TrackPointExtension>
</extensions>
</trkpt>
<trkpt lat="51.9682769" lon="7.4194593">
<ele>77.0428467</ele>
<time>2011-07-31T15:57:36Z</time>
<extensions>
<tp1:TrackPointExtension>
<tp1:hr>148</tp1:hr>
</tp1:TrackPointExtension>
</extensions>
</trkpt>
<trkpt lat="51.9677496" lon="7.4200312">
<ele>77.5234375</ele>
<time>2011-07-31T15:57:46Z</time>
<extensions>
<tp1:TrackPointExtension>
<tp1:hr>149</tp1:hr>
</tp1:TrackPointExtension>
</extensions>
</trkpt>
<trkpt lat="51.9674174" lon="7.4203617">
<ele>77.5234375</ele>
<time>2011-07-31T15:57:53Z</time>
<extensions>
<tp1:TrackPointExtension>
<tp1:hr>146</tp1:hr>
</tp1:TrackPointExtension>
</extensions>
</trkpt>
<trkpt lat="51.9673201" lon="7.4206255">
<ele>77.5234375</ele>
<time>2011-07-31T15:57:57Z</time>
<extensions>
<tp1:TrackPointExtension>
<tp1:hr>144</tp1:hr>
</tp1:TrackPointExtension>
</extensions>
</trkpt>
<trkpt lat="51.9673505" lon="7.4207835">
<ele>76.5621338</ele>
<time>2011-07-31T15:57:59Z</time>
<extensions>
<tp1:TrackPointExtension>
<tp1:hr>144</tp1:hr>
</tp1:TrackPointExtension>
</extensions>
</trkpt>
<trkpt lat="51.9673993" lon="7.4209407">
<ele>75.6008301</ele>
<time>2011-07-31T15:58:01Z</time>
<extensions>
<tp1:TrackPointExtension>
<tp1:hr>143</tp1:hr>
</tp1:TrackPointExtension>
</extensions>
</trkpt>
<trkpt lat="51.9676179" lon="7.4214655">
<ele>75.1202393</ele>
<time>2011-07-31T15:58:08Z</time>
<extensions>
<tp1:TrackPointExtension>
<tp1:hr>138</tp1:hr>
</tp1:TrackPointExtension>
</extensions>
</trkpt>
<trkpt lat="51.9676480" lon="7.4215401">
<ele>75.1202393</ele>
<time>2011-07-31T15:58:09Z</time>
<extensions>
<tp1:TrackPointExtension>
<tp1:hr>137</tp1:hr>
</tp1:TrackPointExtension>
</extensions>
</trkpt>
<trkpt lat="51.9679049" lon="7.4220114">
<ele>78.9654541</ele>
<time>2011-07-31T15:58:16Z</time>
<extensions>
<tp1:TrackPointExtension>
<tp1:hr>128</tp1:hr>
</tp1:TrackPointExtension>
</extensions>
</trkpt>
<trkpt lat="51.9681202" lon="7.4225405">
<ele>78.4847412</ele>
<time>2011-07-31T15:58:23Z</time>
<extensions>
<tp1:TrackPointExtension>
<tp1:hr>125</tp1:hr>
</tp1:TrackPointExtension>
</extensions>
</trkpt>
<trkpt lat="51.9682017" lon="7.4227872">
<ele>79.4460449</ele>
<time>2011-07-31T15:58:26Z</time>
<extensions>
<tp1:TrackPointExtension>
<tp1:hr>124</tp1:hr>
</tp1:TrackPointExtension>
</extensions>
</trkpt>
<trkpt lat="51.9683411" lon="7.4230906">
<ele>78.9654541</ele>
<time>2011-07-31T15:58:30Z</time>
<extensions>
<tp1:TrackPointExtension>
<tp1:hr>119</tp1:hr>
</tp1:TrackPointExtension>
</extensions>
</trkpt>
<trkpt lat="51.9684106" lon="7.4232459">
<ele>79.9266357</ele>
<time>2011-07-31T15:58:32Z</time>
<extensions>
<tp1:TrackPointExtension>
<tp1:hr>118</tp1:hr>
</tp1:TrackPointExtension>
</extensions>
</trkpt>
<trkpt lat="51.9684914" lon="7.4235174">
<ele>79.4460449</ele>
<time>2011-07-31T15:58:35Z</time>
<extensions>
<tp1:TrackPointExtension>
<tp1:hr>118</tp1:hr>
</tp1:TrackPointExtension>
</extensions>
</trkpt>
<trkpt lat="51.9685563" lon="7.4236843">
<ele>79.9266357</ele>
<time>2011-07-31T15:58:37Z</time>
<extensions>
<tp1:TrackPointExtension>
<tp1:hr>118</tp1:hr>
</tp1:TrackPointExtension>
</extensions>
</trkpt>
<trkpt lat="51.9686627" lon="7.4239469">
<ele>80.4074707</ele>
<time>2011-07-31T15:58:42Z</time>
<extensions>
<tp1:TrackPointExtension>
<tp1:hr>116</tp1:hr>
</tp1:TrackPointExtension>
</extensions>
</trkpt>
<trkpt lat="51.9687560" lon="7.4238893">
<ele>80.4074707</ele>
<time>2011-07-31T15:58:46Z</time>
<extensions>
<tp1:TrackPointExtension>
<tp1:hr>116</tp1:hr>
</tp1:TrackPointExtension>
</extensions>
</trkpt>
<trkpt lat="51.9687664" lon="7.4238592">
<ele>79.9266357</ele>
<time>2011-07-31T15:58:48Z</time>
<extensions>
<tp1:TrackPointExtension>
<tp1:hr>116</tp1:hr>
</tp1:TrackPointExtension>
</extensions>
</trkpt>
</trkseg>
</trk>
</gpx>
